<?xml version='1.0' encoding='UTF-8'?><gpx version="1.1" creator="JPX - https://github.com/jenetics/jpx" xmlns="http://www.topografix.com/GPX/1/1"><trk><trkseg><trkpt lat="45.2160922" lon="12.2764249"><ele>3.9999999999999996</ele><time>2026-05-03T08:32:59.133Z</time></trkpt><trkpt lat="45.216099" lon="12.2765329"><ele>4.0</ele><time>2026-05-03T08:33:03.132Z</time></trkpt><trkpt lat="45.2160966" lon="12.2766289"><ele>4.0</ele><time>2026-05-03T08:33:07.136Z</time></trkpt><trkpt lat="45.2161099" lon="12.276737"><ele>4.0</ele><time>2026-05-03T08:33:10.138Z</time></trkpt><trkpt lat="45.2161739" lon="12.2768237"><ele>3.9999999999999996</ele><time>2026-05-03T08:33:13.138Z</time></trkpt><trkpt lat="45.2161782" lon="12.2769278"><ele>4.0</ele><time>2026-05-03T08:33:17.138Z</time></trkpt><trkpt lat="45.2161448" lon="12.2770437"><ele>4.0</ele><time>2026-05-03T08:33:20.143Z</time></trkpt><trkpt lat="45.216124" lon="12.2771526"><ele>3.9999999999999996</ele><time>2026-05-03T08:33:23.143Z</time></trkpt><trkpt lat="45.2161096" lon="12.2772434"><ele>4.0</ele><time>2026-05-03T08:33:26.14Z</time></trkpt><trkpt lat="45.2160967" lon="12.2773365"><ele>4.0</ele><time>2026-05-03T08:33:29.142Z</time></trkpt><trkpt lat="45.2160374" lon="12.2773843"><ele>3.9999999999999996</ele><time>2026-05-03T08:33:32.142Z</time></trkpt><trkpt lat="45.2159469" lon="12.2773524"><ele>4.0</ele><time>2026-05-03T08:33:35.146Z</time></trkpt><trkpt lat="45.2158847" lon="12.2773338"><ele>4.0</ele><time>2026-05-03T08:33:37.136Z</time></trkpt><trkpt lat="45.2158184" lon="12.2773182"><ele>3.6666666666666665</ele><time>2026-05-03T08:33:39.143Z</time></trkpt><trkpt lat="45.2157328" lon="12.2772925"><ele>3.333333333333333</ele><time>2026-05-03T08:33:42.142Z</time></trkpt><trkpt lat="45.2156452" lon="12.2772418"><ele>3.0</ele><time>2026-05-03T08:33:45.146Z</time></trkpt><trkpt lat="45.2155807" lon="12.2772173"><ele>2.6666666666666665</ele><time>2026-05-03T08:33:47.142Z</time></trkpt><trkpt lat="45.2155061" lon="12.2771923"><ele>2.333333333333333</ele><time>2026-05-03T08:33:49.139Z</time></trkpt><trkpt lat="45.215429" lon="12.2771592"><ele>2.0</ele><time>2026-05-03T08:33:51.149Z</time></trkpt><trkpt lat="45.2153483" lon="12.2771194"><ele>1.9999999999999998</ele><time>2026-05-03T08:33:53.144Z</time></trkpt><trkpt lat="45.2152692" lon="12.2770834"><ele>2.0</ele><time>2026-05-03T08:33:55.14Z</time></trkpt><trkpt lat="45.2151919" lon="12.277043"><ele>2.0</ele><time>2026-05-03T08:33:57.135Z</time></trkpt><trkpt lat="45.2151106" lon="12.2770204"><ele>2.0</ele><time>2026-05-03T08:33:59.136Z</time></trkpt><trkpt lat="45.2150246" lon="12.2770127"><ele>1.9999999999999998</ele><time>2026-05-03T08:34:01.138Z</time></trkpt><trkpt lat="45.2149387" lon="12.2769946"><ele>2.0</ele><time>2026-05-03T08:34:03.141Z</time></trkpt><trkpt lat="45.2148535" lon="12.2769761"><ele>1.8333333333333333</ele><time>2026-05-03T08:34:05.14Z</time></trkpt><trkpt lat="45.2147657" lon="12.2769542"><ele>1.6666666666666665</ele><time>2026-05-03T08:34:07.145Z</time></trkpt><trkpt lat="45.2146808" lon="12.276941"><ele>1.5</ele><time>2026-05-03T08:34:09.141Z</time></trkpt><trkpt lat="45.2146043" lon="12.2769087"><ele>1.3333333333333333</ele><time>2026-05-03T08:34:11.139Z</time></trkpt><trkpt lat="45.2145218" lon="12.2768761"><ele>1.1666666666666665</ele><time>2026-05-03T08:34:13.144Z</time></trkpt><trkpt lat="45.2144386" lon="12.2768473"><ele>1.0</ele><time>2026-05-03T08:34:15.143Z</time></trkpt><trkpt lat="45.2143592" lon="12.2768337"><ele>1.0</ele><time>2026-05-03T08:34:17.141Z</time></trkpt><trkpt lat="45.2142828" lon="12.2768337"><ele>0.9999999999999999</ele><time>2026-05-03T08:34:19.143Z</time></trkpt><trkpt lat="45.2142172" lon="12.2768324"><ele>1.0</ele><time>2026-05-03T08:34:21.143Z</time></trkpt><trkpt lat="45.2141543" lon="12.2768191"><ele>1.0</ele><time>2026-05-03T08:34:23.143Z</time></trkpt><trkpt lat="45.2140891" lon="12.2767996"><ele>0.9999999999999999</ele><time>2026-05-03T08:34:25.142Z</time></trkpt><trkpt lat="45.2140177" lon="12.2767716"><ele>1.0</ele><time>2026-05-03T08:34:27.142Z</time></trkpt><trkpt lat="45.2139403" lon="12.2767419"><ele>1.0</ele><time>2026-05-03T08:34:29.139Z</time></trkpt><trkpt lat="45.2138631" lon="12.2767117"><ele>0.8333333333333333</ele><time>2026-05-03T08:34:31.146Z</time></trkpt><trkpt lat="45.213783" lon="12.2766891"><ele>0.6666666666666666</ele><time>2026-05-03T08:34:33.147Z</time></trkpt><trkpt lat="45.2137075" lon="12.276665"><ele>0.5</ele><time>2026-05-03T08:34:35.141Z</time></trkpt><trkpt lat="45.213627" lon="12.2766421"><ele>0.3333333333333333</ele><time>2026-05-03T08:34:37.142Z</time></trkpt><trkpt lat="45.2135456" lon="12.2766139"><ele>0.16666666666666666</ele><time>2026-05-03T08:34:39.144Z</time></trkpt><trkpt lat="45.2134614" lon="12.2765926"><ele>0.0</ele><time>2026-05-03T08:34:41.145Z</time></trkpt><trkpt lat="45.2133788" lon="12.2765673"><ele>0.0</ele><time>2026-05-03T08:34:43.141Z</time></trkpt><trkpt lat="45.2132944" lon="12.2765445"><ele>0.0</ele><time>2026-05-03T08:34:45.144Z</time></trkpt><trkpt lat="45.2132046" lon="12.276541"><ele>0.0</ele><time>2026-05-03T08:34:47.142Z</time></trkpt><trkpt lat="45.213118" lon="12.2765232"><ele>0.0</ele><time>2026-05-03T08:34:49.141Z</time></trkpt><trkpt lat="45.2130347" lon="12.2765032"><ele>0.0</ele><time>2026-05-03T08:34:51.146Z</time></trkpt><trkpt lat="45.2129536" lon="12.2764854"><ele>0.0</ele><time>2026-05-03T08:34:53.144Z</time></trkpt><trkpt lat="45.2128751" lon="12.2764685"><ele>0.0</ele><time>2026-05-03T08:34:55.141Z</time></trkpt><trkpt lat="45.2127913" lon="12.2764449"><ele>0.0</ele><time>2026-05-03T08:34:57.144Z</time></trkpt><trkpt lat="45.2127094" lon="12.2764284"><ele>0.0</ele><time>2026-05-03T08:34:59.139Z</time></trkpt><trkpt lat="45.2126279" lon="12.2764112"><ele>0.0</ele><time>2026-05-03T08:35:01.148Z</time></trkpt><trkpt lat="45.2125478" lon="12.276389"><ele>0.0</ele><time>2026-05-03T08:35:03.145Z</time></trkpt><trkpt lat="45.212473" lon="12.276368"><ele>0.0</ele><time>2026-05-03T08:35:05.143Z</time></trkpt><trkpt lat="45.2124017" lon="12.2763539"><ele>0.0</ele><time>2026-05-03T08:35:07.147Z</time></trkpt><trkpt lat="45.2123352" lon="12.2763464"><ele>0.0</ele><time>2026-05-03T08:35:09.144Z</time></trkpt><trkpt lat="45.2122554" lon="12.276349"><ele>0.0</ele><time>2026-05-03T08:35:12.14Z</time></trkpt><trkpt lat="45.2121868" lon="12.2763138"><ele>0.0</ele><time>2026-05-03T08:35:14.139Z</time></trkpt><trkpt lat="45.2121056" lon="12.276293"><ele>0.0</ele><time>2026-05-03T08:35:16.142Z</time></trkpt><trkpt lat="45.2120139" lon="12.2762851"><ele>0.0</ele><time>2026-05-03T08:35:18.141Z</time></trkpt><trkpt lat="45.2119154" lon="12.2762738"><ele>-0.2</ele><time>2026-05-03T08:35:20.141Z</time></trkpt><trkpt lat="45.211814" lon="12.2762564"><ele>-0.4</ele><time>2026-05-03T08:35:22.14Z</time></trkpt><trkpt lat="45.211716" lon="12.2762409"><ele>-0.6000000000000001</ele><time>2026-05-03T08:35:24.14Z</time></trkpt><trkpt lat="45.2116181" lon="12.2762188"><ele>-0.8</ele><time>2026-05-03T08:35:26.143Z</time></trkpt><trkpt lat="45.2115217" lon="12.276197"><ele>-1.0</ele><time>2026-05-03T08:35:28.144Z</time></trkpt><trkpt lat="45.2114272" lon="12.2761752"><ele>-0.6000000000000001</ele><time>2026-05-03T08:35:30.143Z</time></trkpt><trkpt lat="45.2113328" lon="12.2761544"><ele>-0.20000000000000007</ele><time>2026-05-03T08:35:32.145Z</time></trkpt><trkpt lat="45.2112351" lon="12.2761379"><ele>0.20000000000000007</ele><time>2026-05-03T08:35:34.144Z</time></trkpt><trkpt lat="45.211144" lon="12.2761144"><ele>0.6000000000000001</ele><time>2026-05-03T08:35:36.143Z</time></trkpt><trkpt lat="45.2110515" lon="12.2760953"><ele>1.0</ele><time>2026-05-03T08:35:38.143Z</time></trkpt><trkpt lat="45.2109629" lon="12.2760734"><ele>1.0</ele><time>2026-05-03T08:35:40.146Z</time></trkpt><trkpt lat="45.2108713" lon="12.2760529"><ele>1.0</ele><time>2026-05-03T08:35:42.137Z</time></trkpt><trkpt lat="45.2107808" lon="12.2760346"><ele>1.0</ele><time>2026-05-03T08:35:44.145Z</time></trkpt><trkpt lat="45.2106902" lon="12.2760107"><ele>1.0</ele><time>2026-05-03T08:35:46.144Z</time></trkpt><trkpt lat="45.2106017" lon="12.2759929"><ele>1.0</ele><time>2026-05-03T08:35:48.144Z</time></trkpt><trkpt lat="45.2105134" lon="12.2759782"><ele>0.8</ele><time>2026-05-03T08:35:50.14Z</time></trkpt><trkpt lat="45.2104264" lon="12.2759713"><ele>0.6000000000000001</ele><time>2026-05-03T08:35:52.142Z</time></trkpt><trkpt lat="45.210333" lon="12.2759579"><ele>0.4</ele><time>2026-05-03T08:35:54.142Z</time></trkpt><trkpt lat="45.2102472" lon="12.2759426"><ele>0.2</ele><time>2026-05-03T08:35:56.142Z</time></trkpt><trkpt lat="45.2101553" lon="12.2759205"><ele>0.0</ele><time>2026-05-03T08:35:58.144Z</time></trkpt><trkpt lat="45.2100592" lon="12.275902"><ele>0.0</ele><time>2026-05-03T08:36:00.146Z</time></trkpt><trkpt lat="45.2099552" lon="12.2758915"><ele>0.0</ele><time>2026-05-03T08:36:02.141Z</time></trkpt><trkpt lat="45.2098633" lon="12.2758881"><ele>0.0</ele><time>2026-05-03T08:36:04.141Z</time></trkpt><trkpt lat="45.2097746" lon="12.2758661"><ele>0.0</ele><time>2026-05-03T08:36:06.142Z</time></trkpt><trkpt lat="45.2096794" lon="12.2758438"><ele>0.0</ele><time>2026-05-03T08:36:08.145Z</time></trkpt><trkpt lat="45.2095879" lon="12.2758258"><ele>-0.2</ele><time>2026-05-03T08:36:10.147Z</time></trkpt><trkpt lat="45.2094986" lon="12.275812"><ele>-0.4</ele><time>2026-05-03T08:36:12.143Z</time></trkpt><trkpt lat="45.2094118" lon="12.2757976"><ele>-0.6000000000000001</ele><time>2026-05-03T08:36:14.142Z</time></trkpt><trkpt lat="45.2093236" lon="12.2757822"><ele>-0.8</ele><time>2026-05-03T08:36:16.146Z</time></trkpt><trkpt lat="45.2092325" lon="12.2757581"><ele>-1.0</ele><time>2026-05-03T08:36:18.141Z</time></trkpt><trkpt lat="45.2091386" lon="12.2757404"><ele>-1.0</ele><time>2026-05-03T08:36:20.144Z</time></trkpt><trkpt lat="45.2090452" lon="12.2757231"><ele>-1.0</ele><time>2026-05-03T08:36:22.138Z</time></trkpt><trkpt lat="45.2089518" lon="12.2756986"><ele>-1.0</ele><time>2026-05-03T08:36:24.145Z</time></trkpt><trkpt lat="45.2088533" lon="12.2756734"><ele>-1.0</ele><time>2026-05-03T08:36:26.144Z</time></trkpt><trkpt lat="45.2087543" lon="12.2756572"><ele>-1.0</ele><time>2026-05-03T08:36:28.141Z</time></trkpt><trkpt lat="45.2086582" lon="12.275641"><ele>-0.9999999999999999</ele><time>2026-05-03T08:36:30.147Z</time></trkpt><trkpt lat="45.2085662" lon="12.2756174"><ele>-1.0</ele><time>2026-05-03T08:36:32.145Z</time></trkpt><trkpt lat="45.2084764" lon="12.2756022"><ele>-1.0</ele><time>2026-05-03T08:36:34.142Z</time></trkpt><trkpt lat="45.20839" lon="12.2755916"><ele>-1.0</ele><time>2026-05-03T08:36:36.149Z</time></trkpt><trkpt lat="45.2083017" lon="12.275589"><ele>-0.9999999999999999</ele><time>2026-05-03T08:36:38.142Z</time></trkpt><trkpt lat="45.2082124" lon="12.275592"><ele>-1.0</ele><time>2026-05-03T08:36:40.141Z</time></trkpt><trkpt lat="45.2081198" lon="12.2756003"><ele>-1.0</ele><time>2026-05-03T08:36:42.143Z</time></trkpt><trkpt lat="45.2080251" lon="12.2756094"><ele>-1.0</ele><time>2026-05-03T08:36:44.144Z</time></trkpt><trkpt lat="45.2079328" lon="12.2756239"><ele>-1.0</ele><time>2026-05-03T08:36:46.144Z</time></trkpt><trkpt lat="45.2078309" lon="12.2756453"><ele>-1.0</ele><time>2026-05-03T08:36:48.145Z</time></trkpt><trkpt lat="45.2077299" lon="12.2756671"><ele>-1.0</ele><time>2026-05-03T08:36:50.144Z</time></trkpt><trkpt lat="45.2076299" lon="12.2756898"><ele>-1.0</ele><time>2026-05-03T08:36:52.144Z</time></trkpt><trkpt lat="45.2075289" lon="12.2757156"><ele>-1.0</ele><time>2026-05-03T08:36:54.147Z</time></trkpt><trkpt lat="45.2074236" lon="12.2757427"><ele>-1.0</ele><time>2026-05-03T08:36:56.146Z</time></trkpt><trkpt lat="45.2073209" lon="12.2757625"><ele>-1.0</ele><time>2026-05-03T08:36:58.142Z</time></trkpt><trkpt lat="45.2072225" lon="12.2757747"><ele>-1.0</ele><time>2026-05-03T08:37:00.148Z</time></trkpt><trkpt lat="45.2071239" lon="12.2757966"><ele>-0.8</ele><time>2026-05-03T08:37:02.148Z</time></trkpt><trkpt lat="45.2070241" lon="12.2758246"><ele>-0.6000000000000001</ele><time>2026-05-03T08:37:04.147Z</time></trkpt><trkpt lat="45.2069224" lon="12.2758583"><ele>-0.4</ele><time>2026-05-03T08:37:06.146Z</time></trkpt><trkpt lat="45.2068205" lon="12.2758795"><ele>-0.2</ele><time>2026-05-03T08:37:08.149Z</time></trkpt><trkpt lat="45.2067186" lon="12.2759071"><ele>0.0</ele><time>2026-05-03T08:37:10.141Z</time></trkpt><trkpt lat="45.2066151" lon="12.2759229"><ele>0.0</ele><time>2026-05-03T08:37:12.143Z</time></trkpt><trkpt lat="45.206505" lon="12.2759502"><ele>0.0</ele><time>2026-05-03T08:37:14.139Z</time></trkpt><trkpt lat="45.2063977" lon="12.2759757"><ele>0.0</ele><time>2026-05-03T08:37:16.14Z</time></trkpt><trkpt lat="45.206296" lon="12.2759947"><ele>0.0</ele><time>2026-05-03T08:37:18.143Z</time></trkpt><trkpt lat="45.2061962" lon="12.2759935"><ele>0.0</ele><time>2026-05-03T08:37:20.144Z</time></trkpt><trkpt lat="45.2060924" lon="12.275998"><ele>0.4</ele><time>2026-05-03T08:37:22.147Z</time></trkpt><trkpt lat="45.2059839" lon="12.276023"><ele>0.8</ele><time>2026-05-03T08:37:24.145Z</time></trkpt><trkpt lat="45.2058826" lon="12.2760433"><ele>1.2000000000000002</ele><time>2026-05-03T08:37:26.139Z</time></trkpt><trkpt lat="45.2057747" lon="12.2760646"><ele>1.6</ele><time>2026-05-03T08:37:28.144Z</time></trkpt><trkpt lat="45.2056703" lon="12.2760979"><ele>2.0</ele><time>2026-05-03T08:37:30.145Z</time></trkpt><trkpt lat="45.2055668" lon="12.2761381"><ele>2.4000000000000004</ele><time>2026-05-03T08:37:32.144Z</time></trkpt><trkpt lat="45.2054617" lon="12.2761628"><ele>2.8000000000000003</ele><time>2026-05-03T08:37:34.144Z</time></trkpt><trkpt lat="45.2053489" lon="12.2761873"><ele>3.2</ele><time>2026-05-03T08:37:36.143Z</time></trkpt><trkpt lat="45.2052383" lon="12.2762174"><ele>3.6</ele><time>2026-05-03T08:37:38.143Z</time></trkpt><trkpt lat="45.2051344" lon="12.2762363"><ele>4.0</ele><time>2026-05-03T08:37:40.146Z</time></trkpt><trkpt lat="45.2050372" lon="12.2762579"><ele>4.0</ele><time>2026-05-03T08:37:42.144Z</time></trkpt><trkpt lat="45.2049373" lon="12.2762804"><ele>4.0</ele><time>2026-05-03T08:37:44.143Z</time></trkpt><trkpt lat="45.2048353" lon="12.276303"><ele>4.0</ele><time>2026-05-03T08:37:46.148Z</time></trkpt><trkpt lat="45.2047358" lon="12.2763263"><ele>4.0</ele><time>2026-05-03T08:37:48.143Z</time></trkpt><trkpt lat="45.2046337" lon="12.2763436"><ele>4.0</ele><time>2026-05-03T08:37:50.146Z</time></trkpt><trkpt lat="45.2045329" lon="12.2763642"><ele>3.8000000000000003</ele><time>2026-05-03T08:37:52.147Z</time></trkpt><trkpt lat="45.2044324" lon="12.2763916"><ele>3.6000000000000005</ele><time>2026-05-03T08:37:54.144Z</time></trkpt><trkpt lat="45.2043395" lon="12.2764079"><ele>3.4</ele><time>2026-05-03T08:37:56.143Z</time></trkpt><trkpt lat="45.2042492" lon="12.2764225"><ele>3.2</ele><time>2026-05-03T08:37:58.141Z</time></trkpt><trkpt lat="45.2041531" lon="12.2764452"><ele>3.0</ele><time>2026-05-03T08:38:00.146Z</time></trkpt><trkpt lat="45.2040529" lon="12.2764759"><ele>3.2</ele><time>2026-05-03T08:38:02.15Z</time></trkpt><trkpt lat="45.2039575" lon="12.2764902"><ele>3.4</ele><time>2026-05-03T08:38:04.139Z</time></trkpt><trkpt lat="45.20386" lon="12.2765141"><ele>3.6000000000000005</ele><time>2026-05-03T08:38:06.146Z</time></trkpt><trkpt lat="45.2037606" lon="12.2765394"><ele>3.8000000000000003</ele><time>2026-05-03T08:38:08.149Z</time></trkpt><trkpt lat="45.2036711" lon="12.2765488"><ele>4.0</ele><time>2026-05-03T08:38:10.144Z</time></trkpt><trkpt lat="45.2035795" lon="12.276564"><ele>4.0</ele><time>2026-05-03T08:38:12.143Z</time></trkpt><trkpt lat="45.2034838" lon="12.2765654"><ele>4.0</ele><time>2026-05-03T08:38:14.144Z</time></trkpt><trkpt lat="45.2033954" lon="12.2765794"><ele>4.0</ele><time>2026-05-03T08:38:16.137Z</time></trkpt><trkpt lat="45.2033043" lon="12.2766007"><ele>4.0</ele><time>2026-05-03T08:38:18.144Z</time></trkpt><trkpt lat="45.2032094" lon="12.2766248"><ele>4.0</ele><time>2026-05-03T08:38:20.148Z</time></trkpt><trkpt lat="45.2031107" lon="12.2766371"><ele>3.2</ele><time>2026-05-03T08:38:22.142Z</time></trkpt><trkpt lat="45.2030138" lon="12.2766478"><ele>2.4000000000000004</ele><time>2026-05-03T08:38:24.142Z</time></trkpt><trkpt lat="45.2029137" lon="12.2766617"><ele>1.6</ele><time>2026-05-03T08:38:26.145Z</time></trkpt><trkpt lat="45.2028145" lon="12.2766788"><ele>0.8</ele><time>2026-05-03T08:38:28.142Z</time></trkpt><trkpt lat="45.2027108" lon="12.2766956"><ele>0.0</ele><time>2026-05-03T08:38:30.145Z</time></trkpt><trkpt lat="45.2026016" lon="12.276713"><ele>0.0</ele><time>2026-05-03T08:38:32.143Z</time></trkpt><trkpt lat="45.2024972" lon="12.2767295"><ele>0.0</ele><time>2026-05-03T08:38:34.146Z</time></trkpt><trkpt lat="45.2023998" lon="12.2767486"><ele>0.0</ele><time>2026-05-03T08:38:36.145Z</time></trkpt><trkpt lat="45.2023043" lon="12.2767692"><ele>0.0</ele><time>2026-05-03T08:38:38.141Z</time></trkpt><trkpt lat="45.2022063" lon="12.2767945"><ele>0.0</ele><time>2026-05-03T08:38:40.148Z</time></trkpt><trkpt lat="45.2021044" lon="12.2768187"><ele>0.0</ele><time>2026-05-03T08:38:42.144Z</time></trkpt><trkpt lat="45.2019954" lon="12.2768409"><ele>0.0</ele><time>2026-05-03T08:38:44.143Z</time></trkpt><trkpt lat="45.201895" lon="12.2768508"><ele>0.0</ele><time>2026-05-03T08:38:46.144Z</time></trkpt><trkpt lat="45.2017957" lon="12.276856"><ele>0.0</ele><time>2026-05-03T08:38:48.143Z</time></trkpt><trkpt lat="45.2016935" lon="12.2768796"><ele>0.0</ele><time>2026-05-03T08:38:50.142Z</time></trkpt><trkpt lat="45.2015895" lon="12.2769052"><ele>0.4</ele><time>2026-05-03T08:38:52.141Z</time></trkpt><trkpt lat="45.201485" lon="12.2769252"><ele>0.8</ele><time>2026-05-03T08:38:54.143Z</time></trkpt><trkpt lat="45.2013829" lon="12.2769353"><ele>1.2000000000000002</ele><time>2026-05-03T08:38:56.144Z</time></trkpt><trkpt lat="45.2012829" lon="12.276943"><ele>1.6</ele><time>2026-05-03T08:38:58.14Z</time></trkpt><trkpt lat="45.2011821" lon="12.2769412"><ele>2.0</ele><time>2026-05-03T08:39:00.143Z</time></trkpt><trkpt lat="45.2010762" lon="12.2769418"><ele>2.0</ele><time>2026-05-03T08:39:02.145Z</time></trkpt><trkpt lat="45.2009732" lon="12.2769377"><ele>2.0</ele><time>2026-05-03T08:39:04.148Z</time></trkpt><trkpt lat="45.2008745" lon="12.2769393"><ele>2.0</ele><time>2026-05-03T08:39:06.147Z</time></trkpt><trkpt lat="45.2007801" lon="12.2769371"><ele>2.0</ele><time>2026-05-03T08:39:08.145Z</time></trkpt><trkpt lat="45.2006781" lon="12.2769441"><ele>2.0</ele><time>2026-05-03T08:39:10.144Z</time></trkpt><trkpt lat="45.2005774" lon="12.2769509"><ele>2.0</ele><time>2026-05-03T08:39:12.141Z</time></trkpt><trkpt lat="45.2004824" lon="12.2769506"><ele>2.0</ele><time>2026-05-03T08:39:14.144Z</time></trkpt><trkpt lat="45.2003875" lon="12.276947"><ele>2.0</ele><time>2026-05-03T08:39:16.142Z</time></trkpt><trkpt lat="45.2002863" lon="12.2769452"><ele>2.0</ele><time>2026-05-03T08:39:18.145Z</time></trkpt><trkpt lat="45.2001881" lon="12.2769418"><ele>2.0</ele><time>2026-05-03T08:39:20.144Z</time></trkpt><trkpt lat="45.2000938" lon="12.2769335"><ele>2.0</ele><time>2026-05-03T08:39:22.141Z</time></trkpt><trkpt lat="45.1999938" lon="12.2769313"><ele>2.0</ele><time>2026-05-03T08:39:24.144Z</time></trkpt><trkpt lat="45.1998915" lon="12.2769294"><ele>2.0</ele><time>2026-05-03T08:39:26.145Z</time></trkpt><trkpt lat="45.1997914" lon="12.2769263"><ele>2.0</ele><time>2026-05-03T08:39:28.144Z</time></trkpt><trkpt lat="45.1996922" lon="12.2769143"><ele>2.0</ele><time>2026-05-03T08:39:30.146Z</time></trkpt><trkpt lat="45.1995944" lon="12.2769007"><ele>1.6</ele><time>2026-05-03T08:39:32.146Z</time></trkpt><trkpt lat="45.1994895" lon="12.2768999"><ele>1.2000000000000002</ele><time>2026-05-03T08:39:34.148Z</time></trkpt><trkpt lat="45.1993862" lon="12.2768976"><ele>0.8</ele><time>2026-05-03T08:39:36.148Z</time></trkpt><trkpt lat="45.1992819" lon="12.2768969"><ele>0.4</ele><time>2026-05-03T08:39:38.144Z</time></trkpt><trkpt lat="45.1991796" lon="12.2768901"><ele>0.0</ele><time>2026-05-03T08:39:40.153Z</time></trkpt><trkpt lat="45.1990818" lon="12.2768771"><ele>0.4</ele><time>2026-05-03T08:39:42.144Z</time></trkpt><trkpt lat="45.198984" lon="12.2768735"><ele>0.8</ele><time>2026-05-03T08:39:44.143Z</time></trkpt><trkpt lat="45.1988843" lon="12.2768626"><ele>1.2000000000000002</ele><time>2026-05-03T08:39:46.144Z</time></trkpt><trkpt lat="45.1987826" lon="12.2768415"><ele>1.6</ele><time>2026-05-03T08:39:48.146Z</time></trkpt><trkpt lat="45.1986787" lon="12.2768166"><ele>2.0</ele><time>2026-05-03T08:39:50.145Z</time></trkpt><trkpt lat="45.1985761" lon="12.2767992"><ele>2.0</ele><time>2026-05-03T08:39:52.143Z</time></trkpt><trkpt lat="45.198478" lon="12.2767802"><ele>2.0</ele><time>2026-05-03T08:39:54.145Z</time></trkpt><trkpt lat="45.198385" lon="12.2767619"><ele>2.0</ele><time>2026-05-03T08:39:56.145Z</time></trkpt><trkpt lat="45.1982962" lon="12.2767471"><ele>2.0</ele><time>2026-05-03T08:39:58.145Z</time></trkpt><trkpt lat="45.1982072" lon="12.2767485"><ele>2.0</ele><time>2026-05-03T08:40:00.14Z</time></trkpt><trkpt lat="45.1981162" lon="12.2767667"><ele>1.8</ele><time>2026-05-03T08:40:02.139Z</time></trkpt><trkpt lat="45.1980229" lon="12.276768"><ele>1.6</ele><time>2026-05-03T08:40:04.152Z</time></trkpt><trkpt lat="45.1979233" lon="12.2767591"><ele>1.4000000000000001</ele><time>2026-05-03T08:40:06.148Z</time></trkpt><trkpt lat="45.1978244" lon="12.2767459"><ele>1.2000000000000002</ele><time>2026-05-03T08:40:08.144Z</time></trkpt><trkpt lat="45.1977292" lon="12.2767248"><ele>1.0</ele><time>2026-05-03T08:40:10.151Z</time></trkpt><trkpt lat="45.1976434" lon="12.2767073"><ele>0.9999999999999999</ele><time>2026-05-03T08:40:12.139Z</time></trkpt><trkpt lat="45.1975748" lon="12.2766996"><ele>1.0</ele><time>2026-05-03T08:40:14.141Z</time></trkpt><trkpt lat="45.1974888" lon="12.2766799"><ele>1.0</ele><time>2026-05-03T08:40:17.143Z</time></trkpt><trkpt lat="45.1974085" lon="12.2766567"><ele>1.0</ele><time>2026-05-03T08:40:21.145Z</time></trkpt><trkpt lat="45.1973796" lon="12.2767771"><ele>0.9999999999999999</ele><time>2026-05-03T08:40:24.139Z</time></trkpt><trkpt lat="45.1973691" lon="12.2769044"><ele>1.0</ele><time>2026-05-03T08:40:26.147Z</time></trkpt><trkpt lat="45.1973712" lon="12.2770389"><ele>1.0</ele><time>2026-05-03T08:40:28.142Z</time></trkpt><trkpt lat="45.19737" lon="12.2771839"><ele>1.0</ele><time>2026-05-03T08:40:30.144Z</time></trkpt><trkpt lat="45.1973539" lon="12.2773251"><ele>1.0</ele><time>2026-05-03T08:40:32.148Z</time></trkpt><trkpt lat="45.1973468" lon="12.277463"><ele>1.0</ele><time>2026-05-03T08:40:34.14Z</time></trkpt><trkpt lat="45.1973315" lon="12.2775914"><ele>1.0</ele><time>2026-05-03T08:40:36.14Z</time></trkpt><trkpt lat="45.197302" lon="12.2776914"><ele>1.0</ele><time>2026-05-03T08:40:38.143Z</time></trkpt><trkpt lat="45.1972774" lon="12.2778107"><ele>1.0</ele><time>2026-05-03T08:40:40.144Z</time></trkpt><trkpt lat="45.1972552" lon="12.2779262"><ele>1.0</ele><time>2026-05-03T08:40:42.139Z</time></trkpt><trkpt lat="45.197214" lon="12.2780444"><ele>1.0</ele><time>2026-05-03T08:40:44.142Z</time></trkpt><trkpt lat="45.1971781" lon="12.2781944"><ele>1.0</ele><time>2026-05-03T08:40:46.146Z</time></trkpt><trkpt lat="45.1971459" lon="12.2783457"><ele>0.8</ele><time>2026-05-03T08:40:48.14Z</time></trkpt><trkpt lat="45.1971168" lon="12.2784808"><ele>0.6000000000000001</ele><time>2026-05-03T08:40:50.14Z</time></trkpt><trkpt lat="45.1970839" lon="12.2786148"><ele>0.4</ele><time>2026-05-03T08:40:52.142Z</time></trkpt><trkpt lat="45.1970521" lon="12.2787406"><ele>0.2</ele><time>2026-05-03T08:40:54.141Z</time></trkpt><trkpt lat="45.1970261" lon="12.2788685"><ele>0.0</ele><time>2026-05-03T08:40:56.141Z</time></trkpt><trkpt lat="45.1970049" lon="12.2789944"><ele>-0.16666666666666666</ele><time>2026-05-03T08:40:58.145Z</time></trkpt><trkpt lat="45.1969879" lon="12.2790938"><ele>-0.3333333333333333</ele><time>2026-05-03T08:41:00.142Z</time></trkpt><trkpt lat="45.1969506" lon="12.27919"><ele>-0.5</ele><time>2026-05-03T08:41:02.143Z</time></trkpt><trkpt lat="45.1969173" lon="12.2792807"><ele>-0.6666666666666666</ele><time>2026-05-03T08:41:04.142Z</time></trkpt><trkpt lat="45.196873" lon="12.2793735"><ele>-0.8333333333333333</ele><time>2026-05-03T08:41:06.146Z</time></trkpt><trkpt lat="45.1968286" lon="12.2794678"><ele>-1.0</ele><time>2026-05-03T08:41:08.142Z</time></trkpt><trkpt lat="45.1967876" lon="12.2795583"><ele>-0.9999999999999999</ele><time>2026-05-03T08:41:10.144Z</time></trkpt><trkpt lat="45.1967469" lon="12.2796508"><ele>-1.0</ele><time>2026-05-03T08:41:12.143Z</time></trkpt><trkpt lat="45.196712" lon="12.279732"><ele>-1.0</ele><time>2026-05-03T08:41:14.142Z</time></trkpt><trkpt lat="45.1966715" lon="12.2798268"><ele>-1.0</ele><time>2026-05-03T08:41:16.143Z</time></trkpt><trkpt lat="45.1966218" lon="12.2799389"><ele>-0.9999999999999999</ele><time>2026-05-03T08:41:18.144Z</time></trkpt><trkpt lat="45.1965736" lon="12.2800485"><ele>-1.0</ele><time>2026-05-03T08:41:20.146Z</time></trkpt><trkpt lat="45.1965259" lon="12.2801446"><ele>-0.8</ele><time>2026-05-03T08:41:22.143Z</time></trkpt><trkpt lat="45.1964933" lon="12.280246"><ele>-0.6000000000000001</ele><time>2026-05-03T08:41:24.151Z</time></trkpt><trkpt lat="45.1964624" lon="12.2803628"><ele>-0.4</ele><time>2026-05-03T08:41:26.144Z</time></trkpt><trkpt lat="45.196433" lon="12.2804927"><ele>-0.2</ele><time>2026-05-03T08:41:28.143Z</time></trkpt><trkpt lat="45.1964001" lon="12.2806255"><ele>0.0</ele><time>2026-05-03T08:41:30.149Z</time></trkpt><trkpt lat="45.1963572" lon="12.2807543"><ele>0.2</ele><time>2026-05-03T08:41:32.138Z</time></trkpt><trkpt lat="45.1963126" lon="12.2808873"><ele>0.4</ele><time>2026-05-03T08:41:34.144Z</time></trkpt><trkpt lat="45.1962769" lon="12.2810269"><ele>0.6000000000000001</ele><time>2026-05-03T08:41:36.15Z</time></trkpt><trkpt lat="45.1962368" lon="12.2811594"><ele>0.8</ele><time>2026-05-03T08:41:38.148Z</time></trkpt><trkpt lat="45.1962008" lon="12.2812869"><ele>1.0</ele><time>2026-05-03T08:41:40.148Z</time></trkpt><trkpt lat="45.19617" lon="12.2814135"><ele>0.8</ele><time>2026-05-03T08:41:42.141Z</time></trkpt><trkpt lat="45.1961355" lon="12.2815421"><ele>0.6000000000000001</ele><time>2026-05-03T08:41:44.146Z</time></trkpt><trkpt lat="45.1960978" lon="12.2816691"><ele>0.4</ele><time>2026-05-03T08:41:46.144Z</time></trkpt><trkpt lat="45.1960654" lon="12.2817904"><ele>0.2</ele><time>2026-05-03T08:41:48.144Z</time></trkpt><trkpt lat="45.1960362" lon="12.2819109"><ele>0.0</ele><time>2026-05-03T08:41:50.14Z</time></trkpt><trkpt lat="45.1960058" lon="12.2820188"><ele>0.0</ele><time>2026-05-03T08:41:52.142Z</time></trkpt><trkpt lat="45.1959532" lon="12.2821125"><ele>0.0</ele><time>2026-05-03T08:41:54.144Z</time></trkpt><trkpt lat="45.1958847" lon="12.2821924"><ele>0.0</ele><time>2026-05-03T08:41:56.152Z</time></trkpt><trkpt lat="45.1958114" lon="12.2822722"><ele>0.0</ele><time>2026-05-03T08:41:58.144Z</time></trkpt><trkpt lat="45.1957525" lon="12.2823254"><ele>0.0</ele><time>2026-05-03T08:42:00.135Z</time></trkpt><trkpt lat="45.1956682" lon="12.2822955"><ele>0.0</ele><time>2026-05-03T08:42:03.147Z</time></trkpt><trkpt lat="45.1956092" lon="12.282256"><ele>0.2</ele><time>2026-05-03T08:42:05.143Z</time></trkpt><trkpt lat="45.1955351" lon="12.28224"><ele>0.4</ele><time>2026-05-03T08:42:07.147Z</time></trkpt><trkpt lat="45.1954453" lon="12.2822253"><ele>0.6000000000000001</ele><time>2026-05-03T08:42:09.147Z</time></trkpt><trkpt lat="45.1953514" lon="12.2821965"><ele>0.8</ele><time>2026-05-03T08:42:11.146Z</time></trkpt><trkpt lat="45.1952576" lon="12.2821653"><ele>1.0</ele><time>2026-05-03T08:42:13.146Z</time></trkpt><trkpt lat="45.1951643" lon="12.2821299"><ele>1.0</ele><time>2026-05-03T08:42:15.143Z</time></trkpt><trkpt lat="45.1950677" lon="12.2820985"><ele>1.0</ele><time>2026-05-03T08:42:17.145Z</time></trkpt><trkpt lat="45.1949677" lon="12.2820633"><ele>1.0</ele><time>2026-05-03T08:42:19.141Z</time></trkpt><trkpt lat="45.1948724" lon="12.2820288"><ele>1.0</ele><time>2026-05-03T08:42:21.147Z</time></trkpt><trkpt lat="45.1947731" lon="12.2820003"><ele>1.0</ele><time>2026-05-03T08:42:23.145Z</time></trkpt><trkpt lat="45.1946683" lon="12.2819713"><ele>1.4</ele><time>2026-05-03T08:42:25.145Z</time></trkpt><trkpt lat="45.194568" lon="12.2819401"><ele>1.8</ele><time>2026-05-03T08:42:27.144Z</time></trkpt><trkpt lat="45.1944697" lon="12.2819095"><ele>2.1999999999999997</ele><time>2026-05-03T08:42:29.146Z</time></trkpt><trkpt lat="45.1943668" lon="12.2818769"><ele>2.6</ele><time>2026-05-03T08:42:31.146Z</time></trkpt><trkpt lat="45.1942696" lon="12.2818337"><ele>3.0</ele><time>2026-05-03T08:42:33.141Z</time></trkpt><trkpt lat="45.1941729" lon="12.2817974"><ele>3.0</ele><time>2026-05-03T08:42:35.145Z</time></trkpt><trkpt lat="45.1940678" lon="12.2817709"><ele>3.0</ele><time>2026-05-03T08:42:37.145Z</time></trkpt><trkpt lat="45.1939593" lon="12.2817411"><ele>3.0</ele><time>2026-05-03T08:42:39.146Z</time></trkpt><trkpt lat="45.1938533" lon="12.2817018"><ele>3.0</ele><time>2026-05-03T08:42:41.144Z</time></trkpt><trkpt lat="45.1937492" lon="12.2816633"><ele>3.0</ele><time>2026-05-03T08:42:43.142Z</time></trkpt><trkpt lat="45.1936485" lon="12.28163"><ele>2.6</ele><time>2026-05-03T08:42:45.14Z</time></trkpt><trkpt lat="45.1935395" lon="12.2815992"><ele>2.1999999999999997</ele><time>2026-05-03T08:42:47.141Z</time></trkpt><trkpt lat="45.19343" lon="12.2815697"><ele>1.8</ele><time>2026-05-03T08:42:49.142Z</time></trkpt><trkpt lat="45.1933192" lon="12.2815449"><ele>1.4</ele><time>2026-05-03T08:42:51.146Z</time></trkpt><trkpt lat="45.1932165" lon="12.2815175"><ele>1.0</ele><time>2026-05-03T08:42:53.149Z</time></trkpt><trkpt lat="45.1931076" lon="12.281483"><ele>1.0</ele><time>2026-05-03T08:42:55.144Z</time></trkpt><trkpt lat="45.1929972" lon="12.2814472"><ele>1.0</ele><time>2026-05-03T08:42:57.142Z</time></trkpt><trkpt lat="45.192886" lon="12.2814112"><ele>1.0</ele><time>2026-05-03T08:42:59.145Z</time></trkpt><trkpt lat="45.1927775" lon="12.2813667"><ele>1.0</ele><time>2026-05-03T08:43:01.147Z</time></trkpt><trkpt lat="45.1926743" lon="12.2813131"><ele>1.0</ele><time>2026-05-03T08:43:03.145Z</time></trkpt><trkpt lat="45.1925669" lon="12.2812553"><ele>1.0</ele><time>2026-05-03T08:43:05.143Z</time></trkpt><trkpt lat="45.1924565" lon="12.2811941"><ele>1.0</ele><time>2026-05-03T08:43:07.145Z</time></trkpt><trkpt lat="45.1923442" lon="12.2811451"><ele>1.0</ele><time>2026-05-03T08:43:09.14Z</time></trkpt><trkpt lat="45.1922369" lon="12.2810842"><ele>1.25</ele><time>2026-05-03T08:43:11.142Z</time></trkpt><trkpt lat="45.192132" lon="12.2810189"><ele>1.5</ele><time>2026-05-03T08:43:13.144Z</time></trkpt><trkpt lat="45.1920221" lon="12.2809665"><ele>1.75</ele><time>2026-05-03T08:43:15.141Z</time></trkpt><trkpt lat="45.1919135" lon="12.2809154"><ele>2.0</ele><time>2026-05-03T08:43:17.143Z</time></trkpt><trkpt lat="45.1918053" lon="12.2808634"><ele>2.0</ele><time>2026-05-03T08:43:19.143Z</time></trkpt><trkpt lat="45.1916967" lon="12.2808076"><ele>2.0</ele><time>2026-05-03T08:43:21.141Z</time></trkpt><trkpt lat="45.1915868" lon="12.2807593"><ele>2.0</ele><time>2026-05-03T08:43:23.142Z</time></trkpt><trkpt lat="45.191474" lon="12.2807139"><ele>2.0</ele><time>2026-05-03T08:43:25.143Z</time></trkpt><trkpt lat="45.1913587" lon="12.2806685"><ele>2.0</ele><time>2026-05-03T08:43:27.14Z</time></trkpt><trkpt lat="45.1912477" lon="12.2806158"><ele>2.0</ele><time>2026-05-03T08:43:29.142Z</time></trkpt><trkpt lat="45.1911402" lon="12.2805596"><ele>2.0</ele><time>2026-05-03T08:43:31.142Z</time></trkpt><trkpt lat="45.1910343" lon="12.2805067"><ele>2.0</ele><time>2026-05-03T08:43:33.145Z</time></trkpt><trkpt lat="45.1909274" lon="12.2804544"><ele>2.0</ele><time>2026-05-03T08:43:35.143Z</time></trkpt><trkpt lat="45.1908118" lon="12.2804126"><ele>2.0</ele><time>2026-05-03T08:43:37.146Z</time></trkpt><trkpt lat="45.1906966" lon="12.2803731"><ele>2.0</ele><time>2026-05-03T08:43:39.147Z</time></trkpt><trkpt lat="45.1905857" lon="12.2803372"><ele>2.0</ele><time>2026-05-03T08:43:41.14Z</time></trkpt><trkpt lat="45.1904705" lon="12.2803072"><ele>1.5</ele><time>2026-05-03T08:43:43.15Z</time></trkpt><trkpt lat="45.1903569" lon="12.2802788"><ele>1.0</ele><time>2026-05-03T08:43:45.137Z</time></trkpt><trkpt lat="45.1902427" lon="12.2802647"><ele>0.5</ele><time>2026-05-03T08:43:47.143Z</time></trkpt><trkpt lat="45.1901326" lon="12.2802497"><ele>0.0</ele><time>2026-05-03T08:43:49.142Z</time></trkpt><trkpt lat="45.190015" lon="12.2802259"><ele>0.0</ele><time>2026-05-03T08:43:51.142Z</time></trkpt><trkpt lat="45.1898979" lon="12.2802086"><ele>0.0</ele><time>2026-05-03T08:43:53.148Z</time></trkpt><trkpt lat="45.1897789" lon="12.2801949"><ele>0.0</ele><time>2026-05-03T08:43:55.142Z</time></trkpt><trkpt lat="45.1896689" lon="12.2801747"><ele>0.0</ele><time>2026-05-03T08:43:57.142Z</time></trkpt><trkpt lat="45.1895658" lon="12.2801572"><ele>0.0</ele><time>2026-05-03T08:43:59.14Z</time></trkpt><trkpt lat="45.1894627" lon="12.2801429"><ele>0.0</ele><time>2026-05-03T08:44:01.143Z</time></trkpt><trkpt lat="45.1893569" lon="12.2801245"><ele>0.0</ele><time>2026-05-03T08:44:03.147Z</time></trkpt><trkpt lat="45.1892437" lon="12.2801091"><ele>0.0</ele><time>2026-05-03T08:44:05.142Z</time></trkpt><trkpt lat="45.1891315" lon="12.2800959"><ele>0.0</ele><time>2026-05-03T08:44:07.146Z</time></trkpt><trkpt lat="45.189028" lon="12.2800878"><ele>0.2</ele><time>2026-05-03T08:44:09.139Z</time></trkpt><trkpt lat="45.1889259" lon="12.2800765"><ele>0.4</ele><time>2026-05-03T08:44:11.142Z</time></trkpt><trkpt lat="45.1888212" lon="12.2800662"><ele>0.6000000000000001</ele><time>2026-05-03T08:44:13.147Z</time></trkpt><trkpt lat="45.1887133" lon="12.2800529"><ele>0.8</ele><time>2026-05-03T08:44:15.14Z</time></trkpt><trkpt lat="45.1886037" lon="12.2800394"><ele>1.0</ele><time>2026-05-03T08:44:17.141Z</time></trkpt><trkpt lat="45.1884971" lon="12.2800302"><ele>1.0</ele><time>2026-05-03T08:44:19.141Z</time></trkpt><trkpt lat="45.1883986" lon="12.280022"><ele>1.0</ele><time>2026-05-03T08:44:21.144Z</time></trkpt><trkpt lat="45.1882981" lon="12.2800069"><ele>1.0</ele><time>2026-05-03T08:44:23.148Z</time></trkpt><trkpt lat="45.1881964" lon="12.2799806"><ele>1.0</ele><time>2026-05-03T08:44:25.143Z</time></trkpt><trkpt lat="45.1880931" lon="12.279939"><ele>1.0</ele><time>2026-05-03T08:44:27.143Z</time></trkpt><trkpt lat="45.1879897" lon="12.279893"><ele>1.0</ele><time>2026-05-03T08:44:29.136Z</time></trkpt><trkpt lat="45.1878982" lon="12.2798443"><ele>1.0</ele><time>2026-05-03T08:44:31.144Z</time></trkpt><trkpt lat="45.1878173" lon="12.2797995"><ele>1.0</ele><time>2026-05-03T08:44:33.147Z</time></trkpt><trkpt lat="45.1877276" lon="12.279751"><ele>1.0</ele><time>2026-05-03T08:44:35.146Z</time></trkpt><trkpt lat="45.187628" lon="12.2796983"><ele>1.0</ele><time>2026-05-03T08:44:37.144Z</time></trkpt><trkpt lat="45.187524" lon="12.2796564"><ele>0.8</ele><time>2026-05-03T08:44:39.145Z</time></trkpt><trkpt lat="45.1874282" lon="12.2796131"><ele>0.6000000000000001</ele><time>2026-05-03T08:44:41.138Z</time></trkpt><trkpt lat="45.1873181" lon="12.2795681"><ele>0.4</ele><time>2026-05-03T08:44:43.138Z</time></trkpt><trkpt lat="45.1872053" lon="12.2795038"><ele>0.2</ele><time>2026-05-03T08:44:45.142Z</time></trkpt><trkpt lat="45.187144" lon="12.2794705"><ele>0.0</ele><time>2026-05-03T08:44:46.144Z</time></trkpt><trkpt lat="45.1870832" lon="12.2794396"><ele>0.2857142857142857</ele><time>2026-05-03T08:44:47.139Z</time></trkpt><trkpt lat="45.1870213" lon="12.2794111"><ele>0.5714285714285714</ele><time>2026-05-03T08:44:48.143Z</time></trkpt><trkpt lat="45.1869589" lon="12.2793847"><ele>0.8571428571428571</ele><time>2026-05-03T08:44:49.141Z</time></trkpt><trkpt lat="45.1868964" lon="12.2793576"><ele>1.1428571428571428</ele><time>2026-05-03T08:44:50.144Z</time></trkpt><trkpt lat="45.1868335" lon="12.279331"><ele>1.4285714285714284</ele><time>2026-05-03T08:44:51.147Z</time></trkpt><trkpt lat="45.186767" lon="12.2793086"><ele>1.7142857142857142</ele><time>2026-05-03T08:44:52.141Z</time></trkpt><trkpt lat="45.1866999" lon="12.2792881"><ele>2.0</ele><time>2026-05-03T08:44:53.142Z</time></trkpt><trkpt lat="45.1866347" lon="12.2792661"><ele>2.0</ele><time>2026-05-03T08:44:54.143Z</time></trkpt><trkpt lat="45.1865739" lon="12.2792365"><ele>2.0</ele><time>2026-05-03T08:44:55.145Z</time></trkpt><trkpt lat="45.1864584" lon="12.2791792"><ele>2.0</ele><time>2026-05-03T08:44:57.143Z</time></trkpt><trkpt lat="45.1863374" lon="12.2791305"><ele>2.0</ele><time>2026-05-03T08:44:59.141Z</time></trkpt><trkpt lat="45.1862175" lon="12.2790786"><ele>2.0</ele><time>2026-05-03T08:45:01.146Z</time></trkpt><trkpt lat="45.1861041" lon="12.2790381"><ele>1.8</ele><time>2026-05-03T08:45:03.144Z</time></trkpt><trkpt lat="45.1859968" lon="12.2789999"><ele>1.6</ele><time>2026-05-03T08:45:05.144Z</time></trkpt><trkpt lat="45.1858964" lon="12.2789643"><ele>1.4000000000000001</ele><time>2026-05-03T08:45:07.147Z</time></trkpt><trkpt lat="45.1858028" lon="12.2789316"><ele>1.2000000000000002</ele><time>2026-05-03T08:45:09.146Z</time></trkpt><trkpt lat="45.1856983" lon="12.2789033"><ele>1.0</ele><time>2026-05-03T08:45:11.138Z</time></trkpt><trkpt lat="45.1855897" lon="12.278866"><ele>1.0</ele><time>2026-05-03T08:45:13.145Z</time></trkpt><trkpt lat="45.1854866" lon="12.2788197"><ele>1.0</ele><time>2026-05-03T08:45:15.146Z</time></trkpt><trkpt lat="45.1853837" lon="12.2787804"><ele>1.0</ele><time>2026-05-03T08:45:17.144Z</time></trkpt><trkpt lat="45.1852798" lon="12.2787401"><ele>1.0</ele><time>2026-05-03T08:45:19.144Z</time></trkpt><trkpt lat="45.1851768" lon="12.2786965"><ele>1.0</ele><time>2026-05-03T08:45:21.145Z</time></trkpt><trkpt lat="45.1850733" lon="12.2786522"><ele>1.0</ele><time>2026-05-03T08:45:23.139Z</time></trkpt><trkpt lat="45.1849692" lon="12.2786152"><ele>1.0</ele><time>2026-05-03T08:45:25.143Z</time></trkpt><trkpt lat="45.1848719" lon="12.2785713"><ele>1.0</ele><time>2026-05-03T08:45:27.144Z</time></trkpt><trkpt lat="45.1847871" lon="12.2785362"><ele>1.0</ele><time>2026-05-03T08:45:29.141Z</time></trkpt><trkpt lat="45.1847002" lon="12.2785123"><ele>1.0</ele><time>2026-05-03T08:45:31.145Z</time></trkpt><trkpt lat="45.1846178" lon="12.2784905"><ele>0.9999999999999999</ele><time>2026-05-03T08:45:33.146Z</time></trkpt><trkpt lat="45.1845425" lon="12.2784679"><ele>1.0</ele><time>2026-05-03T08:45:35.138Z</time></trkpt><trkpt lat="45.184464" lon="12.2784453"><ele>1.0</ele><time>2026-05-03T08:45:37.142Z</time></trkpt><trkpt lat="45.1843855" lon="12.2784059"><ele>1.0</ele><time>2026-05-03T08:45:39.139Z</time></trkpt><trkpt lat="45.1843048" lon="12.2783713"><ele>0.9999999999999999</ele><time>2026-05-03T08:45:41.139Z</time></trkpt><trkpt lat="45.1842191" lon="12.2783493"><ele>1.0</ele><time>2026-05-03T08:45:43.144Z</time></trkpt><trkpt lat="45.1841422" lon="12.2783299"><ele>0.9999999999999999</ele><time>2026-05-03T08:45:45.141Z</time></trkpt><trkpt lat="45.1840627" lon="12.2783042"><ele>1.0</ele><time>2026-05-03T08:45:47.145Z</time></trkpt><trkpt lat="45.1839843" lon="12.2782809"><ele>1.0</ele><time>2026-05-03T08:45:49.144Z</time></trkpt><trkpt lat="45.1839073" lon="12.2782601"><ele>1.0</ele><time>2026-05-03T08:45:51.144Z</time></trkpt><trkpt lat="45.183833" lon="12.2782503"><ele>0.9999999999999999</ele><time>2026-05-03T08:45:53.146Z</time></trkpt><trkpt lat="45.1837553" lon="12.2782391"><ele>1.0</ele><time>2026-05-03T08:45:55.146Z</time></trkpt><trkpt lat="45.1836665" lon="12.2782421"><ele>1.4</ele><time>2026-05-03T08:45:57.14Z</time></trkpt><trkpt lat="45.1835723" lon="12.2782546"><ele>1.8</ele><time>2026-05-03T08:45:59.145Z</time></trkpt><trkpt lat="45.183475" lon="12.2782576"><ele>2.1999999999999997</ele><time>2026-05-03T08:46:01.143Z</time></trkpt><trkpt lat="45.1833724" lon="12.2782566"><ele>2.6</ele><time>2026-05-03T08:46:03.146Z</time></trkpt><trkpt lat="45.1832694" lon="12.2782563"><ele>3.0</ele><time>2026-05-03T08:46:05.143Z</time></trkpt><trkpt lat="45.1831716" lon="12.2782522"><ele>3.2</ele><time>2026-05-03T08:46:07.146Z</time></trkpt><trkpt lat="45.1830729" lon="12.2782562"><ele>3.4</ele><time>2026-05-03T08:46:09.147Z</time></trkpt><trkpt lat="45.1829788" lon="12.2782526"><ele>3.6000000000000005</ele><time>2026-05-03T08:46:11.145Z</time></trkpt><trkpt lat="45.1828775" lon="12.2782544"><ele>3.8000000000000003</ele><time>2026-05-03T08:46:13.145Z</time></trkpt><trkpt lat="45.1827771" lon="12.2782593"><ele>4.0</ele><time>2026-05-03T08:46:15.141Z</time></trkpt><trkpt lat="45.1826823" lon="12.2782612"><ele>4.0</ele><time>2026-05-03T08:46:17.138Z</time></trkpt><trkpt lat="45.1825918" lon="12.278259"><ele>4.0</ele><time>2026-05-03T08:46:19.139Z</time></trkpt><trkpt lat="45.1824974" lon="12.2782596"><ele>4.0</ele><time>2026-05-03T08:46:21.14Z</time></trkpt><trkpt lat="45.1824006" lon="12.2782676"><ele>4.0</ele><time>2026-05-03T08:46:23.144Z</time></trkpt><trkpt lat="45.1823102" lon="12.278261"><ele>4.0</ele><time>2026-05-03T08:46:25.138Z</time></trkpt><trkpt lat="45.182208" lon="12.2782599"><ele>3.8000000000000003</ele><time>2026-05-03T08:46:27.144Z</time></trkpt><trkpt lat="45.1821068" lon="12.2782494"><ele>3.6000000000000005</ele><time>2026-05-03T08:46:29.141Z</time></trkpt><trkpt lat="45.1820101" lon="12.2782371"><ele>3.4</ele><time>2026-05-03T08:46:31.147Z</time></trkpt><trkpt lat="45.181915" lon="12.2782253"><ele>3.2</ele><time>2026-05-03T08:46:33.149Z</time></trkpt><trkpt lat="45.1818261" lon="12.278202"><ele>3.0</ele><time>2026-05-03T08:46:35.147Z</time></trkpt><trkpt lat="45.181733" lon="12.2781868"><ele>3.0</ele><time>2026-05-03T08:46:37.145Z</time></trkpt><trkpt lat="45.1816501" lon="12.2781652"><ele>3.0</ele><time>2026-05-03T08:46:39.143Z</time></trkpt><trkpt lat="45.1815744" lon="12.2781328"><ele>3.0</ele><time>2026-05-03T08:46:41.144Z</time></trkpt><trkpt lat="45.1815024" lon="12.2780975"><ele>3.0</ele><time>2026-05-03T08:46:43.145Z</time></trkpt><trkpt lat="45.1814274" lon="12.2780696"><ele>3.0</ele><time>2026-05-03T08:46:45.143Z</time></trkpt><trkpt lat="45.181359" lon="12.2780423"><ele>3.0</ele><time>2026-05-03T08:46:47.143Z</time></trkpt><trkpt lat="45.1812931" lon="12.2779769"><ele>2.4</ele><time>2026-05-03T08:46:50.144Z</time></trkpt><trkpt lat="45.1812784" lon="12.2778635"><ele>1.7999999999999998</ele><time>2026-05-03T08:47:01.142Z</time></trkpt><trkpt lat="45.1812104" lon="12.27781"><ele>1.2</ele><time>2026-05-03T08:47:03.149Z</time></trkpt><trkpt lat="45.1811102" lon="12.2777914"><ele>0.6</ele><time>2026-05-03T08:47:05.145Z</time></trkpt><trkpt lat="45.1810112" lon="12.2777722"><ele>0.0</ele><time>2026-05-03T08:47:07.143Z</time></trkpt><trkpt lat="45.1809154" lon="12.2777469"><ele>0.0</ele><time>2026-05-03T08:47:09.149Z</time></trkpt><trkpt lat="45.1808166" lon="12.2777176"><ele>0.0</ele><time>2026-05-03T08:47:11.14Z</time></trkpt><trkpt lat="45.1807139" lon="12.2776879"><ele>0.0</ele><time>2026-05-03T08:47:13.144Z</time></trkpt><trkpt lat="45.1806028" lon="12.2776654"><ele>0.0</ele><time>2026-05-03T08:47:15.142Z</time></trkpt><trkpt lat="45.1804923" lon="12.277641"><ele>0.0</ele><time>2026-05-03T08:47:17.149Z</time></trkpt><trkpt lat="45.1803831" lon="12.2776121"><ele>0.0</ele><time>2026-05-03T08:47:19.141Z</time></trkpt><trkpt lat="45.180276" lon="12.277583"><ele>0.0</ele><time>2026-05-03T08:47:21.144Z</time></trkpt><trkpt lat="45.1801722" lon="12.2775533"><ele>0.0</ele><time>2026-05-03T08:47:23.148Z</time></trkpt><trkpt lat="45.1800675" lon="12.2775192"><ele>0.0</ele><time>2026-05-03T08:47:25.147Z</time></trkpt><trkpt lat="45.1799661" lon="12.2774875"><ele>0.0</ele><time>2026-05-03T08:47:27.152Z</time></trkpt><trkpt lat="45.1798627" lon="12.277456"><ele>0.0</ele><time>2026-05-03T08:47:29.145Z</time></trkpt><trkpt lat="45.1797546" lon="12.2774265"><ele>0.0</ele><time>2026-05-03T08:47:31.149Z</time></trkpt><trkpt lat="45.1796422" lon="12.2773971"><ele>0.0</ele><time>2026-05-03T08:47:33.144Z</time></trkpt><trkpt lat="45.1795354" lon="12.2773621"><ele>0.0</ele><time>2026-05-03T08:47:35.149Z</time></trkpt><trkpt lat="45.1794288" lon="12.2773287"><ele>0.0</ele><time>2026-05-03T08:47:37.147Z</time></trkpt><trkpt lat="45.1793226" lon="12.2772999"><ele>0.0</ele><time>2026-05-03T08:47:39.149Z</time></trkpt><trkpt lat="45.1792163" lon="12.2772726"><ele>0.0</ele><time>2026-05-03T08:47:41.146Z</time></trkpt><trkpt lat="45.179114" lon="12.2772417"><ele>0.0</ele><time>2026-05-03T08:47:43.146Z</time></trkpt><trkpt lat="45.1790065" lon="12.2772213"><ele>0.0</ele><time>2026-05-03T08:47:45.145Z</time></trkpt><trkpt lat="45.1788936" lon="12.2772068"><ele>0.0</ele><time>2026-05-03T08:47:47.146Z</time></trkpt><trkpt lat="45.178787" lon="12.2771813"><ele>-0.3333333333333333</ele><time>2026-05-03T08:47:49.149Z</time></trkpt><trkpt lat="45.1786855" lon="12.2771479"><ele>-0.6666666666666666</ele><time>2026-05-03T08:47:51.147Z</time></trkpt><trkpt lat="45.1785861" lon="12.2771182"><ele>-1.0</ele><time>2026-05-03T08:47:53.15Z</time></trkpt><trkpt lat="45.1785113" lon="12.2770815"><ele>-1.3333333333333333</ele><time>2026-05-03T08:47:55.141Z</time></trkpt><trkpt lat="45.1784952" lon="12.2769909"><ele>-1.6666666666666665</ele><time>2026-05-03T08:47:57.146Z</time></trkpt><trkpt lat="45.17852" lon="12.2768793"><ele>-2.0</ele><time>2026-05-03T08:47:59.146Z</time></trkpt><trkpt lat="45.1785537" lon="12.2767358"><ele>-2.0</ele><time>2026-05-03T08:48:01.15Z</time></trkpt><trkpt lat="45.1785835" lon="12.2765828"><ele>-2.0</ele><time>2026-05-03T08:48:03.162Z</time></trkpt><trkpt lat="45.178598" lon="12.2764362"><ele>-2.0</ele><time>2026-05-03T08:48:05.143Z</time></trkpt><trkpt lat="45.1786125" lon="12.2762923"><ele>-2.0</ele><time>2026-05-03T08:48:07.149Z</time></trkpt><trkpt lat="45.1786321" lon="12.2761379"><ele>-2.0</ele><time>2026-05-03T08:48:09.141Z</time></trkpt><trkpt lat="45.1786562" lon="12.2759702"><ele>-1.75</ele><time>2026-05-03T08:48:11.141Z</time></trkpt><trkpt lat="45.1786839" lon="12.2758014"><ele>-1.5</ele><time>2026-05-03T08:48:13.152Z</time></trkpt><trkpt lat="45.1787166" lon="12.2756395"><ele>-1.25</ele><time>2026-05-03T08:48:15.139Z</time></trkpt><trkpt lat="45.1787489" lon="12.2754805"><ele>-1.0</ele><time>2026-05-03T08:48:17.15Z</time></trkpt><trkpt lat="45.1787786" lon="12.2753286"><ele>-1.0</ele><time>2026-05-03T08:48:19.144Z</time></trkpt><trkpt lat="45.1788128" lon="12.2751733"><ele>-1.0</ele><time>2026-05-03T08:48:21.144Z</time></trkpt><trkpt lat="45.178854" lon="12.2750135"><ele>-1.0</ele><time>2026-05-03T08:48:23.144Z</time></trkpt><trkpt lat="45.1788947" lon="12.274859"><ele>-1.0</ele><time>2026-05-03T08:48:25.143Z</time></trkpt><trkpt lat="45.1789253" lon="12.27471"><ele>-1.0</ele><time>2026-05-03T08:48:27.145Z</time></trkpt><trkpt lat="45.1789562" lon="12.2745663"><ele>-1.0</ele><time>2026-05-03T08:48:29.143Z</time></trkpt><trkpt lat="45.1789908" lon="12.274427"><ele>-1.0</ele><time>2026-05-03T08:48:31.142Z</time></trkpt><trkpt lat="45.1790302" lon="12.2742928"><ele>-1.0</ele><time>2026-05-03T08:48:33.149Z</time></trkpt><trkpt lat="45.1790731" lon="12.2741666"><ele>-1.0</ele><time>2026-05-03T08:48:35.147Z</time></trkpt><trkpt lat="45.1791367" lon="12.2740414"><ele>-0.9999999999999999</ele><time>2026-05-03T08:48:37.145Z</time></trkpt><trkpt lat="45.179209" lon="12.2739028"><ele>-1.0</ele><time>2026-05-03T08:48:39.147Z</time></trkpt><trkpt lat="45.1792471" lon="12.273827"><ele>-1.0</ele><time>2026-05-03T08:48:40.145Z</time></trkpt><trkpt lat="45.1792848" lon="12.273747"><ele>-1.0</ele><time>2026-05-03T08:48:41.143Z</time></trkpt><trkpt lat="45.1793228" lon="12.2736658"><ele>-0.9999999999999999</ele><time>2026-05-03T08:48:42.141Z</time></trkpt><trkpt lat="45.1793595" lon="12.2735858"><ele>-1.0</ele><time>2026-05-03T08:48:43.146Z</time></trkpt><trkpt lat="45.1793954" lon="12.2735043"><ele>-0.9999999999999999</ele><time>2026-05-03T08:48:44.141Z</time></trkpt><trkpt lat="45.1794288" lon="12.2734242"><ele>-1.0</ele><time>2026-05-03T08:48:45.141Z</time></trkpt><trkpt lat="45.1794629" lon="12.2733475"><ele>-1.0</ele><time>2026-05-03T08:48:46.141Z</time></trkpt><trkpt lat="45.1795009" lon="12.2732729"><ele>-1.0</ele><time>2026-05-03T08:48:47.144Z</time></trkpt><trkpt lat="45.1795743" lon="12.2731306"><ele>-0.9999999999999999</ele><time>2026-05-03T08:48:49.14Z</time></trkpt><trkpt lat="45.1796476" lon="12.2729886"><ele>-1.0</ele><time>2026-05-03T08:48:51.142Z</time></trkpt><trkpt lat="45.179685" lon="12.2729148"><ele>-1.0</ele><time>2026-05-03T08:48:52.141Z</time></trkpt><trkpt lat="45.1797547" lon="12.2727705"><ele>-1.0</ele><time>2026-05-03T08:48:54.14Z</time></trkpt><trkpt lat="45.1797908" lon="12.2726938"><ele>-1.0</ele><time>2026-05-03T08:48:55.145Z</time></trkpt><trkpt lat="45.1798621" lon="12.272551"><ele>-1.0</ele><time>2026-05-03T08:48:57.141Z</time></trkpt><trkpt lat="45.1799345" lon="12.2724093"><ele>-1.0</ele><time>2026-05-03T08:48:59.141Z</time></trkpt><trkpt lat="45.1799727" lon="12.2723369"><ele>-0.6000000000000001</ele><time>2026-05-03T08:49:00.145Z</time></trkpt><trkpt lat="45.180048" lon="12.2722006"><ele>-0.20000000000000007</ele><time>2026-05-03T08:49:02.147Z</time></trkpt><trkpt lat="45.1801212" lon="12.272066"><ele>0.20000000000000007</ele><time>2026-05-03T08:49:04.144Z</time></trkpt><trkpt lat="45.1801609" lon="12.2719946"><ele>0.6000000000000001</ele><time>2026-05-03T08:49:05.146Z</time></trkpt><trkpt lat="45.18024" lon="12.271857"><ele>1.0</ele><time>2026-05-03T08:49:07.145Z</time></trkpt><trkpt lat="45.180315" lon="12.271716"><ele>0.9999999999999999</ele><time>2026-05-03T08:49:09.144Z</time></trkpt><trkpt lat="45.1803508" lon="12.2716423"><ele>1.0</ele><time>2026-05-03T08:49:10.146Z</time></trkpt><trkpt lat="45.1804021" lon="12.2714831"><ele>1.0</ele><time>2026-05-03T08:49:12.144Z</time></trkpt><trkpt lat="45.1804161" lon="12.271395"><ele>1.0</ele><time>2026-05-03T08:49:13.145Z</time></trkpt><trkpt lat="45.1804197" lon="12.2713037"><ele>0.9999999999999999</ele><time>2026-05-03T08:49:14.141Z</time></trkpt><trkpt lat="45.1804153" lon="12.271213"><ele>1.0</ele><time>2026-05-03T08:49:15.138Z</time></trkpt><trkpt lat="45.1803931" lon="12.2710372"><ele>0.9999999999999999</ele><time>2026-05-03T08:49:17.141Z</time></trkpt><trkpt lat="45.1803771" lon="12.2709505"><ele>1.0</ele><time>2026-05-03T08:49:18.147Z</time></trkpt><trkpt lat="45.1803377" lon="12.2707787"><ele>1.0</ele><time>2026-05-03T08:49:20.149Z</time></trkpt><trkpt lat="45.1803108" lon="12.270693"><ele>1.0</ele><time>2026-05-03T08:49:21.147Z</time></trkpt><trkpt lat="45.1802791" lon="12.2706136"><ele>0.9999999999999999</ele><time>2026-05-03T08:49:22.14Z</time></trkpt><trkpt lat="45.1802023" lon="12.2704759"><ele>1.0</ele><time>2026-05-03T08:49:24.145Z</time></trkpt><trkpt lat="45.1801531" lon="12.2704129"><ele>0.9999999999999999</ele><time>2026-05-03T08:49:25.141Z</time></trkpt><trkpt lat="45.1801007" lon="12.2703552"><ele>1.0</ele><time>2026-05-03T08:49:26.143Z</time></trkpt><trkpt lat="45.1800508" lon="12.2702972"><ele>1.0</ele><time>2026-05-03T08:49:27.138Z</time></trkpt><trkpt lat="45.1799997" lon="12.2702447"><ele>1.0</ele><time>2026-05-03T08:49:28.141Z</time></trkpt><trkpt lat="45.1798975" lon="12.2701598"><ele>0.9999999999999999</ele><time>2026-05-03T08:49:30.148Z</time></trkpt><trkpt lat="45.1797823" lon="12.2700923"><ele>1.0</ele><time>2026-05-03T08:49:32.149Z</time></trkpt><trkpt lat="45.1797231" lon="12.2700566"><ele>0.9999999999999999</ele><time>2026-05-03T08:49:33.147Z</time></trkpt><trkpt lat="45.1796639" lon="12.2700203"><ele>1.0</ele><time>2026-05-03T08:49:34.147Z</time></trkpt><trkpt lat="45.1796056" lon="12.2699857"><ele>1.0</ele><time>2026-05-03T08:49:35.144Z</time></trkpt><trkpt lat="45.1795475" lon="12.2699508"><ele>1.0</ele><time>2026-05-03T08:49:36.143Z</time></trkpt><trkpt lat="45.1794356" lon="12.2698739"><ele>0.9999999999999999</ele><time>2026-05-03T08:49:38.144Z</time></trkpt><trkpt lat="45.1793212" lon="12.2697982"><ele>1.0</ele><time>2026-05-03T08:49:40.141Z</time></trkpt><trkpt lat="45.179262" lon="12.2697635"><ele>1.0</ele><time>2026-05-03T08:49:41.138Z</time></trkpt><trkpt lat="45.1792012" lon="12.2697308"><ele>0.9999999999999999</ele><time>2026-05-03T08:49:42.14Z</time></trkpt><trkpt lat="45.1791391" lon="12.2696962"><ele>1.0</ele><time>2026-05-03T08:49:43.146Z</time></trkpt><trkpt lat="45.1790805" lon="12.2696582"><ele>1.0</ele><time>2026-05-03T08:49:44.143Z</time></trkpt><trkpt lat="45.1790231" lon="12.2696196"><ele>0.9999999999999999</ele><time>2026-05-03T08:49:45.142Z</time></trkpt><trkpt lat="45.1789633" lon="12.2695822"><ele>1.0</ele><time>2026-05-03T08:49:46.143Z</time></trkpt><trkpt lat="45.178904" lon="12.2695459"><ele>1.0</ele><time>2026-05-03T08:49:47.141Z</time></trkpt><trkpt lat="45.1788436" lon="12.2695107"><ele>0.8571428571428571</ele><time>2026-05-03T08:49:48.144Z</time></trkpt><trkpt lat="45.1787815" lon="12.2694761"><ele>0.7142857142857142</ele><time>2026-05-03T08:49:49.144Z</time></trkpt><trkpt lat="45.1787179" lon="12.269447"><ele>0.5714285714285714</ele><time>2026-05-03T08:49:50.141Z</time></trkpt><trkpt lat="45.1786564" lon="12.2694153"><ele>0.42857142857142855</ele><time>2026-05-03T08:49:51.143Z</time></trkpt><trkpt lat="45.178595" lon="12.2693829"><ele>0.2857142857142857</ele><time>2026-05-03T08:49:52.136Z</time></trkpt><trkpt lat="45.1785347" lon="12.2693527"><ele>0.14285714285714285</ele><time>2026-05-03T08:49:53.144Z</time></trkpt><trkpt lat="45.1784733" lon="12.2693223"><ele>0.0</ele><time>2026-05-03T08:49:54.14Z</time></trkpt><trkpt lat="45.1784125" lon="12.2692912"><ele>0.0</ele><time>2026-05-03T08:49:55.14Z</time></trkpt><trkpt lat="45.1783509" lon="12.2692612"><ele>0.0</ele><time>2026-05-03T08:49:56.144Z</time></trkpt><trkpt lat="45.1782891" lon="12.2692336"><ele>0.0</ele><time>2026-05-03T08:49:57.145Z</time></trkpt><trkpt lat="45.1782282" lon="12.2692068"><ele>0.0</ele><time>2026-05-03T08:49:58.139Z</time></trkpt><trkpt lat="45.1781674" lon="12.2691833"><ele>0.0</ele><time>2026-05-03T08:49:59.145Z</time></trkpt><trkpt lat="45.1781058" lon="12.2691633"><ele>0.0</ele><time>2026-05-03T08:50:00.144Z</time></trkpt><trkpt lat="45.1779824" lon="12.2691341"><ele>0.0</ele><time>2026-05-03T08:50:02.14Z</time></trkpt><trkpt lat="45.1779193" lon="12.2691227"><ele>0.0</ele><time>2026-05-03T08:50:03.142Z</time></trkpt><trkpt lat="45.1778541" lon="12.2691162"><ele>0.0</ele><time>2026-05-03T08:50:04.149Z</time></trkpt><trkpt lat="45.1777906" lon="12.2691096"><ele>0.0</ele><time>2026-05-03T08:50:05.142Z</time></trkpt><trkpt lat="45.1776659" lon="12.2690949"><ele>0.0</ele><time>2026-05-03T08:50:07.144Z</time></trkpt><trkpt lat="45.1775427" lon="12.2690813"><ele>0.0</ele><time>2026-05-03T08:50:09.143Z</time></trkpt><trkpt lat="45.1774788" lon="12.2690767"><ele>0.0</ele><time>2026-05-03T08:50:10.147Z</time></trkpt><trkpt lat="45.1774145" lon="12.2690754"><ele>-0.4</ele><time>2026-05-03T08:50:11.141Z</time></trkpt><trkpt lat="45.1773511" lon="12.2690746"><ele>-0.8</ele><time>2026-05-03T08:50:12.142Z</time></trkpt><trkpt lat="45.1772285" lon="12.2690776"><ele>-1.2000000000000002</ele><time>2026-05-03T08:50:14.14Z</time></trkpt><trkpt lat="45.177105" lon="12.2690962"><ele>-1.6</ele><time>2026-05-03T08:50:16.143Z</time></trkpt><trkpt lat="45.1769853" lon="12.2691228"><ele>-2.0</ele><time>2026-05-03T08:50:18.142Z</time></trkpt><trkpt lat="45.1768632" lon="12.2691581"><ele>-2.0</ele><time>2026-05-03T08:50:20.138Z</time></trkpt><trkpt lat="45.1767999" lon="12.2691771"><ele>-2.0</ele><time>2026-05-03T08:50:21.14Z</time></trkpt><trkpt lat="45.1767383" lon="12.2691969"><ele>-2.0</ele><time>2026-05-03T08:50:22.144Z</time></trkpt><trkpt lat="45.1766159" lon="12.2692368"><ele>-2.0</ele><time>2026-05-03T08:50:24.141Z</time></trkpt><trkpt lat="45.1764941" lon="12.2692684"><ele>-2.0</ele><time>2026-05-03T08:50:26.14Z</time></trkpt><trkpt lat="45.1763738" lon="12.2693058"><ele>-1.8</ele><time>2026-05-03T08:50:28.143Z</time></trkpt><trkpt lat="45.176255" lon="12.2693443"><ele>-1.6</ele><time>2026-05-03T08:50:30.141Z</time></trkpt><trkpt lat="45.1761346" lon="12.2693872"><ele>-1.4000000000000001</ele><time>2026-05-03T08:50:32.144Z</time></trkpt><trkpt lat="45.1760732" lon="12.2694106"><ele>-1.2000000000000002</ele><time>2026-05-03T08:50:33.15Z</time></trkpt><trkpt lat="45.1760121" lon="12.2694335"><ele>-1.0</ele><time>2026-05-03T08:50:34.144Z</time></trkpt><trkpt lat="45.17589" lon="12.2694771"><ele>-0.9999999999999999</ele><time>2026-05-03T08:50:36.145Z</time></trkpt><trkpt lat="45.1757703" lon="12.2695122"><ele>-1.0</ele><time>2026-05-03T08:50:38.145Z</time></trkpt><trkpt lat="45.1756501" lon="12.2695563"><ele>-1.0</ele><time>2026-05-03T08:50:40.146Z</time></trkpt><trkpt lat="45.1755878" lon="12.2695856"><ele>-1.0</ele><time>2026-05-03T08:50:41.142Z</time></trkpt><trkpt lat="45.175526" lon="12.269614"><ele>-0.9999999999999999</ele><time>2026-05-03T08:50:42.139Z</time></trkpt><trkpt lat="45.1754621" lon="12.2696444"><ele>-1.0</ele><time>2026-05-03T08:50:43.144Z</time></trkpt><trkpt lat="45.1754008" lon="12.2696754"><ele>-1.0</ele><time>2026-05-03T08:50:44.142Z</time></trkpt><trkpt lat="45.1752806" lon="12.269735"><ele>-1.0</ele><time>2026-05-03T08:50:46.142Z</time></trkpt><trkpt lat="45.1752202" lon="12.2697649"><ele>-1.0</ele><time>2026-05-03T08:50:47.141Z</time></trkpt><trkpt lat="45.1751018" lon="12.2698259"><ele>-1.0</ele><time>2026-05-03T08:50:49.141Z</time></trkpt><trkpt lat="45.1749906" lon="12.2698856"><ele>-1.0</ele><time>2026-05-03T08:50:51.141Z</time></trkpt><trkpt lat="45.1748774" lon="12.2699521"><ele>-0.9999999999999999</ele><time>2026-05-03T08:50:53.149Z</time></trkpt><trkpt lat="45.1747626" lon="12.270023"><ele>-1.0</ele><time>2026-05-03T08:50:55.142Z</time></trkpt><trkpt lat="45.1747017" lon="12.2700675"><ele>-1.0</ele><time>2026-05-03T08:50:56.144Z</time></trkpt><trkpt lat="45.1746408" lon="12.2701146"><ele>-1.0</ele><time>2026-05-03T08:50:57.142Z</time></trkpt><trkpt lat="45.174583" lon="12.2701578"><ele>-0.9999999999999999</ele><time>2026-05-03T08:50:58.142Z</time></trkpt><trkpt lat="45.1745234" lon="12.2702013"><ele>-1.0</ele><time>2026-05-03T08:50:59.144Z</time></trkpt><trkpt lat="45.1744638" lon="12.2702429"><ele>-1.0</ele><time>2026-05-03T08:51:00.141Z</time></trkpt><trkpt lat="45.1744046" lon="12.2702845"><ele>-0.9999999999999999</ele><time>2026-05-03T08:51:01.148Z</time></trkpt><trkpt lat="45.1743474" lon="12.2703275"><ele>-1.0</ele><time>2026-05-03T08:51:02.145Z</time></trkpt><trkpt lat="45.1742912" lon="12.2703688"><ele>-1.0</ele><time>2026-05-03T08:51:03.151Z</time></trkpt><trkpt lat="45.174232" lon="12.2704144"><ele>-0.9999999999999999</ele><time>2026-05-03T08:51:04.144Z</time></trkpt><trkpt lat="45.1741753" lon="12.2704553"><ele>-1.0</ele><time>2026-05-03T08:51:05.14Z</time></trkpt><trkpt lat="45.174065" lon="12.2705341"><ele>-1.0</ele><time>2026-05-03T08:51:07.14Z</time></trkpt><trkpt lat="45.1739593" lon="12.2706136"><ele>-1.0</ele><time>2026-05-03T08:51:09.146Z</time></trkpt><trkpt lat="45.1738512" lon="12.2707051"><ele>-1.0</ele><time>2026-05-03T08:51:11.143Z</time></trkpt><trkpt lat="45.173797" lon="12.2707533"><ele>-1.0</ele><time>2026-05-03T08:51:12.141Z</time></trkpt><trkpt lat="45.1736924" lon="12.2708444"><ele>-1.0</ele><time>2026-05-03T08:51:14.142Z</time></trkpt><trkpt lat="45.1735906" lon="12.2709343"><ele>-1.0</ele><time>2026-05-03T08:51:16.14Z</time></trkpt><trkpt lat="45.1734892" lon="12.271029"><ele>-1.0</ele><time>2026-05-03T08:51:18.143Z</time></trkpt><trkpt lat="45.1733898" lon="12.2711201"><ele>-1.0</ele><time>2026-05-03T08:51:20.146Z</time></trkpt><trkpt lat="45.173288" lon="12.2712177"><ele>-1.0</ele><time>2026-05-03T08:51:22.147Z</time></trkpt><trkpt lat="45.1732351" lon="12.2712678"><ele>-1.0</ele><time>2026-05-03T08:51:23.147Z</time></trkpt><trkpt lat="45.1731313" lon="12.2713561"><ele>-1.0</ele><time>2026-05-03T08:51:25.146Z</time></trkpt><trkpt lat="45.1730286" lon="12.2714485"><ele>-1.25</ele><time>2026-05-03T08:51:27.142Z</time></trkpt><trkpt lat="45.1729263" lon="12.271545"><ele>-1.5</ele><time>2026-05-03T08:51:29.148Z</time></trkpt><trkpt lat="45.1728269" lon="12.2716373"><ele>-1.75</ele><time>2026-05-03T08:51:31.142Z</time></trkpt><trkpt lat="45.1727239" lon="12.2717314"><ele>-2.0</ele><time>2026-05-03T08:51:33.147Z</time></trkpt><trkpt lat="45.1726227" lon="12.2718215"><ele>-2.0</ele><time>2026-05-03T08:51:35.14Z</time></trkpt><trkpt lat="45.1725209" lon="12.271915"><ele>-2.0</ele><time>2026-05-03T08:51:37.15Z</time></trkpt><trkpt lat="45.1724167" lon="12.2720079"><ele>-2.0</ele><time>2026-05-03T08:51:39.142Z</time></trkpt><trkpt lat="45.172312" lon="12.2720976"><ele>-2.0</ele><time>2026-05-03T08:51:41.144Z</time></trkpt><trkpt lat="45.1722087" lon="12.2721835"><ele>-1.75</ele><time>2026-05-03T08:51:43.148Z</time></trkpt><trkpt lat="45.1721104" lon="12.2722647"><ele>-1.5</ele><time>2026-05-03T08:51:45.148Z</time></trkpt><trkpt lat="45.1720154" lon="12.2723422"><ele>-1.25</ele><time>2026-05-03T08:51:47.144Z</time></trkpt><trkpt lat="45.1719184" lon="12.272424"><ele>-1.0</ele><time>2026-05-03T08:51:49.145Z</time></trkpt><trkpt lat="45.1718111" lon="12.2725177"><ele>-1.0</ele><time>2026-05-03T08:51:51.145Z</time></trkpt><trkpt lat="45.1717041" lon="12.2725915"><ele>-1.0</ele><time>2026-05-03T08:51:53.145Z</time></trkpt><trkpt lat="45.1715928" lon="12.272662"><ele>-1.0</ele><time>2026-05-03T08:51:55.145Z</time></trkpt><trkpt lat="45.1714759" lon="12.2727275"><ele>-1.0</ele><time>2026-05-03T08:51:57.143Z</time></trkpt><trkpt lat="45.1714158" lon="12.2727568"><ele>-1.0</ele><time>2026-05-03T08:51:58.145Z</time></trkpt><trkpt lat="45.1712981" lon="12.2728029"><ele>-1.0</ele><time>2026-05-03T08:52:00.146Z</time></trkpt><trkpt lat="45.171181" lon="12.2728274"><ele>-1.0</ele><time>2026-05-03T08:52:02.149Z</time></trkpt><trkpt lat="45.1710616" lon="12.2728467"><ele>-1.0</ele><time>2026-05-03T08:52:04.146Z</time></trkpt><trkpt lat="45.1709389" lon="12.2728609"><ele>-1.0</ele><time>2026-05-03T08:52:06.145Z</time></trkpt><trkpt lat="45.1708166" lon="12.2728677"><ele>-1.0</ele><time>2026-05-03T08:52:08.146Z</time></trkpt><trkpt lat="45.1706966" lon="12.2728615"><ele>-1.0</ele><time>2026-05-03T08:52:10.145Z</time></trkpt><trkpt lat="45.1705779" lon="12.2728553"><ele>-1.0</ele><time>2026-05-03T08:52:12.147Z</time></trkpt><trkpt lat="45.1704545" lon="12.2728529"><ele>-1.0</ele><time>2026-05-03T08:52:14.145Z</time></trkpt><trkpt lat="45.1703303" lon="12.2728436"><ele>-1.25</ele><time>2026-05-03T08:52:16.143Z</time></trkpt><trkpt lat="45.1702124" lon="12.2728213"><ele>-1.5</ele><time>2026-05-03T08:52:18.141Z</time></trkpt><trkpt lat="45.1700933" lon="12.272796"><ele>-1.75</ele><time>2026-05-03T08:52:20.146Z</time></trkpt><trkpt lat="45.1699757" lon="12.2727614"><ele>-2.0</ele><time>2026-05-03T08:52:22.144Z</time></trkpt><trkpt lat="45.1698593" lon="12.2727208"><ele>-1.5</ele><time>2026-05-03T08:52:24.144Z</time></trkpt><trkpt lat="45.169739" lon="12.2726792"><ele>-1.0</ele><time>2026-05-03T08:52:26.144Z</time></trkpt><trkpt lat="45.1696187" lon="12.2726358"><ele>-0.5</ele><time>2026-05-03T08:52:28.142Z</time></trkpt><trkpt lat="45.1695012" lon="12.2725861"><ele>0.0</ele><time>2026-05-03T08:52:30.145Z</time></trkpt><trkpt lat="45.1693786" lon="12.2725383"><ele>0.0</ele><time>2026-05-03T08:52:32.145Z</time></trkpt><trkpt lat="45.1692612" lon="12.2724816"><ele>0.0</ele><time>2026-05-03T08:52:34.145Z</time></trkpt><trkpt lat="45.1691389" lon="12.2724316"><ele>0.0</ele><time>2026-05-03T08:52:36.146Z</time></trkpt><trkpt lat="45.1690206" lon="12.2723745"><ele>0.0</ele><time>2026-05-03T08:52:38.145Z</time></trkpt><trkpt lat="45.1689048" lon="12.2723131"><ele>-0.2</ele><time>2026-05-03T08:52:40.152Z</time></trkpt><trkpt lat="45.1687861" lon="12.2722566"><ele>-0.4</ele><time>2026-05-03T08:52:42.14Z</time></trkpt><trkpt lat="45.1686689" lon="12.2722001"><ele>-0.6000000000000001</ele><time>2026-05-03T08:52:44.142Z</time></trkpt><trkpt lat="45.1686085" lon="12.2721745"><ele>-0.8</ele><time>2026-05-03T08:52:45.144Z</time></trkpt><trkpt lat="45.1684934" lon="12.272121"><ele>-1.0</ele><time>2026-05-03T08:52:47.143Z</time></trkpt><trkpt lat="45.1683784" lon="12.272066"><ele>-1.0</ele><time>2026-05-03T08:52:49.139Z</time></trkpt><trkpt lat="45.1682658" lon="12.2720106"><ele>-1.0</ele><time>2026-05-03T08:52:51.143Z</time></trkpt><trkpt lat="45.1681518" lon="12.2719556"><ele>-1.0</ele><time>2026-05-03T08:52:53.15Z</time></trkpt><trkpt lat="45.1680378" lon="12.2719102"><ele>-1.0</ele><time>2026-05-03T08:52:55.142Z</time></trkpt><trkpt lat="45.1679212" lon="12.2718723"><ele>-1.0</ele><time>2026-05-03T08:52:57.143Z</time></trkpt><trkpt lat="45.1678054" lon="12.2718232"><ele>-1.0</ele><time>2026-05-03T08:52:59.143Z</time></trkpt><trkpt lat="45.1676876" lon="12.2717664"><ele>-1.0</ele><time>2026-05-03T08:53:01.149Z</time></trkpt><trkpt lat="45.1675759" lon="12.2717134"><ele>-1.0</ele><time>2026-05-03T08:53:03.151Z</time></trkpt><trkpt lat="45.167461" lon="12.2716682"><ele>-1.0</ele><time>2026-05-03T08:53:05.144Z</time></trkpt><trkpt lat="45.1673467" lon="12.2716183"><ele>-1.0</ele><time>2026-05-03T08:53:07.147Z</time></trkpt><trkpt lat="45.1672276" lon="12.2715761"><ele>-1.0</ele><time>2026-05-03T08:53:09.144Z</time></trkpt><trkpt lat="45.1671092" lon="12.271537"><ele>-1.0</ele><time>2026-05-03T08:53:11.141Z</time></trkpt><trkpt lat="45.1669874" lon="12.2714952"><ele>-1.0</ele><time>2026-05-03T08:53:13.147Z</time></trkpt><trkpt lat="45.1668697" lon="12.2714511"><ele>-1.0</ele><time>2026-05-03T08:53:15.143Z</time></trkpt><trkpt lat="45.1667565" lon="12.2714052"><ele>-1.0</ele><time>2026-05-03T08:53:17.144Z</time></trkpt><trkpt lat="45.1666432" lon="12.2713632"><ele>-1.0</ele><time>2026-05-03T08:53:19.145Z</time></trkpt><trkpt lat="45.1665287" lon="12.2713118"><ele>-1.5</ele><time>2026-05-03T08:53:21.144Z</time></trkpt><trkpt lat="45.1664169" lon="12.2712602"><ele>-2.0</ele><time>2026-05-03T08:53:23.147Z</time></trkpt><trkpt lat="45.1663041" lon="12.2712121"><ele>-2.5</ele><time>2026-05-03T08:53:25.142Z</time></trkpt><trkpt lat="45.1661863" lon="12.2711662"><ele>-3.0</ele><time>2026-05-03T08:53:27.148Z</time></trkpt><trkpt lat="45.1660682" lon="12.2711179"><ele>-3.0</ele><time>2026-05-03T08:53:29.146Z</time></trkpt><trkpt lat="45.1659478" lon="12.2710664"><ele>-3.0</ele><time>2026-05-03T08:53:31.145Z</time></trkpt><trkpt lat="45.1658281" lon="12.2710096"><ele>-3.0</ele><time>2026-05-03T08:53:33.154Z</time></trkpt><trkpt lat="45.1657677" lon="12.2709812"><ele>-3.0</ele><time>2026-05-03T08:53:34.148Z</time></trkpt><trkpt lat="45.1657067" lon="12.2709531"><ele>-3.0</ele><time>2026-05-03T08:53:35.149Z</time></trkpt><trkpt lat="45.1656465" lon="12.2709248"><ele>-3.0</ele><time>2026-05-03T08:53:36.147Z</time></trkpt><trkpt lat="45.1655282" lon="12.2708672"><ele>-2.75</ele><time>2026-05-03T08:53:38.147Z</time></trkpt><trkpt lat="45.1654135" lon="12.2708071"><ele>-2.5</ele><time>2026-05-03T08:53:40.148Z</time></trkpt><trkpt lat="45.1652993" lon="12.2707448"><ele>-2.25</ele><time>2026-05-03T08:53:42.146Z</time></trkpt><trkpt lat="45.1651832" lon="12.2706914"><ele>-2.0</ele><time>2026-05-03T08:53:44.146Z</time></trkpt><trkpt lat="45.1650677" lon="12.2706409"><ele>-2.0</ele><time>2026-05-03T08:53:46.146Z</time></trkpt><trkpt lat="45.1649484" lon="12.2705876"><ele>-2.0</ele><time>2026-05-03T08:53:48.144Z</time></trkpt><trkpt lat="45.1648877" lon="12.2705618"><ele>-2.0</ele><time>2026-05-03T08:53:49.143Z</time></trkpt><trkpt lat="45.1647671" lon="12.2705034"><ele>-2.0</ele><time>2026-05-03T08:53:51.142Z</time></trkpt><trkpt lat="45.1646504" lon="12.2704373"><ele>-2.0</ele><time>2026-05-03T08:53:53.144Z</time></trkpt><trkpt lat="45.1645346" lon="12.27037"><ele>-2.0</ele><time>2026-05-03T08:53:55.143Z</time></trkpt><trkpt lat="45.1644192" lon="12.2703091"><ele>-2.0</ele><time>2026-05-03T08:53:57.143Z</time></trkpt><trkpt lat="45.1643085" lon="12.2702506"><ele>-2.0</ele><time>2026-05-03T08:53:59.145Z</time></trkpt><trkpt lat="45.1642065" lon="12.270185"><ele>-2.0</ele><time>2026-05-03T08:54:01.146Z</time></trkpt><trkpt lat="45.164101" lon="12.2701302"><ele>-1.5</ele><time>2026-05-03T08:54:03.151Z</time></trkpt><trkpt lat="45.1639916" lon="12.2700764"><ele>-1.0</ele><time>2026-05-03T08:54:05.141Z</time></trkpt><trkpt lat="45.1638812" lon="12.2700223"><ele>-0.5</ele><time>2026-05-03T08:54:07.146Z</time></trkpt><trkpt lat="45.1637667" lon="12.2699698"><ele>0.0</ele><time>2026-05-03T08:54:09.144Z</time></trkpt><trkpt lat="45.163652" lon="12.2699153"><ele>0.0</ele><time>2026-05-03T08:54:11.142Z</time></trkpt><trkpt lat="45.163537" lon="12.2698674"><ele>0.0</ele><time>2026-05-03T08:54:13.15Z</time></trkpt><trkpt lat="45.16342" lon="12.2698197"><ele>0.0</ele><time>2026-05-03T08:54:15.141Z</time></trkpt><trkpt lat="45.1633019" lon="12.269785"><ele>0.0</ele><time>2026-05-03T08:54:17.146Z</time></trkpt><trkpt lat="45.163185" lon="12.2697616"><ele>-0.5</ele><time>2026-05-03T08:54:19.139Z</time></trkpt><trkpt lat="45.1630684" lon="12.2697428"><ele>-1.0</ele><time>2026-05-03T08:54:21.145Z</time></trkpt><trkpt lat="45.1629512" lon="12.2697197"><ele>-1.5</ele><time>2026-05-03T08:54:23.148Z</time></trkpt><trkpt lat="45.1628238" lon="12.2697142"><ele>-2.0</ele><time>2026-05-03T08:54:25.145Z</time></trkpt><trkpt lat="45.1626984" lon="12.269706"><ele>-2.0</ele><time>2026-05-03T08:54:27.145Z</time></trkpt><trkpt lat="45.1626344" lon="12.2697018"><ele>-2.0</ele><time>2026-05-03T08:54:28.144Z</time></trkpt><trkpt lat="45.1625107" lon="12.2696916"><ele>-2.0</ele><time>2026-05-03T08:54:30.141Z</time></trkpt><trkpt lat="45.1623902" lon="12.2696769"><ele>-2.0</ele><time>2026-05-03T08:54:32.145Z</time></trkpt><trkpt lat="45.1622671" lon="12.2696621"><ele>-2.0</ele><time>2026-05-03T08:54:34.15Z</time></trkpt><trkpt lat="45.1621446" lon="12.2696488"><ele>-2.0</ele><time>2026-05-03T08:54:36.145Z</time></trkpt><trkpt lat="45.1620231" lon="12.2696422"><ele>-2.0</ele><time>2026-05-03T08:54:38.151Z</time></trkpt><trkpt lat="45.1619027" lon="12.2696369"><ele>-2.0</ele><time>2026-05-03T08:54:40.146Z</time></trkpt><trkpt lat="45.1617799" lon="12.2696247"><ele>-2.0</ele><time>2026-05-03T08:54:42.14Z</time></trkpt><trkpt lat="45.1616561" lon="12.269612"><ele>-2.0</ele><time>2026-05-03T08:54:44.143Z</time></trkpt><trkpt lat="45.1615329" lon="12.2695965"><ele>-2.0</ele><time>2026-05-03T08:54:46.141Z</time></trkpt><trkpt lat="45.1614116" lon="12.2695763"><ele>-2.0</ele><time>2026-05-03T08:54:48.143Z</time></trkpt><trkpt lat="45.1612929" lon="12.2695531"><ele>-2.0</ele><time>2026-05-03T08:54:50.141Z</time></trkpt><trkpt lat="45.1611746" lon="12.2695313"><ele>-1.75</ele><time>2026-05-03T08:54:52.142Z</time></trkpt><trkpt lat="45.1610576" lon="12.2694946"><ele>-1.5</ele><time>2026-05-03T08:54:54.144Z</time></trkpt><trkpt lat="45.1609448" lon="12.2694557"><ele>-1.25</ele><time>2026-05-03T08:54:56.146Z</time></trkpt><trkpt lat="45.160834" lon="12.2694175"><ele>-1.0</ele><time>2026-05-03T08:54:58.142Z</time></trkpt><trkpt lat="45.1607157" lon="12.2693834"><ele>-1.0</ele><time>2026-05-03T08:55:00.144Z</time></trkpt><trkpt lat="45.1605979" lon="12.2693393"><ele>-1.0</ele><time>2026-05-03T08:55:02.145Z</time></trkpt><trkpt lat="45.1604865" lon="12.2692911"><ele>-1.0</ele><time>2026-05-03T08:55:04.143Z</time></trkpt><trkpt lat="45.1603758" lon="12.2692431"><ele>-1.0</ele><time>2026-05-03T08:55:06.149Z</time></trkpt><trkpt lat="45.1602644" lon="12.2691884"><ele>-1.0</ele><time>2026-05-03T08:55:08.143Z</time></trkpt><trkpt lat="45.1601485" lon="12.2691358"><ele>-1.0</ele><time>2026-05-03T08:55:10.145Z</time></trkpt><trkpt lat="45.1600358" lon="12.2690778"><ele>-1.0</ele><time>2026-05-03T08:55:12.144Z</time></trkpt><trkpt lat="45.159926" lon="12.2690185"><ele>-1.0</ele><time>2026-05-03T08:55:14.143Z</time></trkpt><trkpt lat="45.1598148" lon="12.2689592"><ele>-1.25</ele><time>2026-05-03T08:55:16.144Z</time></trkpt><trkpt lat="45.1597032" lon="12.2689013"><ele>-1.5</ele><time>2026-05-03T08:55:18.145Z</time></trkpt><trkpt lat="45.1595885" lon="12.2688426"><ele>-1.75</ele><time>2026-05-03T08:55:20.145Z</time></trkpt><trkpt lat="45.1594814" lon="12.2687714"><ele>-2.0</ele><time>2026-05-03T08:55:22.142Z</time></trkpt><trkpt lat="45.1593715" lon="12.2686942"><ele>-2.0</ele><time>2026-05-03T08:55:24.146Z</time></trkpt><trkpt lat="45.1592693" lon="12.2686084"><ele>-2.0</ele><time>2026-05-03T08:55:26.138Z</time></trkpt><trkpt lat="45.1591609" lon="12.2685299"><ele>-2.0</ele><time>2026-05-03T08:55:28.142Z</time></trkpt><trkpt lat="45.159046" lon="12.2684655"><ele>-2.0</ele><time>2026-05-03T08:55:30.139Z</time></trkpt><trkpt lat="45.1589365" lon="12.2684043"><ele>-2.0</ele><time>2026-05-03T08:55:32.146Z</time></trkpt><trkpt lat="45.1588318" lon="12.2683361"><ele>-2.0</ele><time>2026-05-03T08:55:34.149Z</time></trkpt><trkpt lat="45.158726" lon="12.2682749"><ele>-2.0</ele><time>2026-05-03T08:55:36.145Z</time></trkpt><trkpt lat="45.1586207" lon="12.2682104"><ele>-2.0</ele><time>2026-05-03T08:55:38.15Z</time></trkpt><trkpt lat="45.1585185" lon="12.2681405"><ele>-1.8</ele><time>2026-05-03T08:55:40.148Z</time></trkpt><trkpt lat="45.1584168" lon="12.2680772"><ele>-1.6</ele><time>2026-05-03T08:55:42.14Z</time></trkpt><trkpt lat="45.1583129" lon="12.2680117"><ele>-1.4000000000000001</ele><time>2026-05-03T08:55:44.144Z</time></trkpt><trkpt lat="45.1582139" lon="12.2679402"><ele>-1.2000000000000002</ele><time>2026-05-03T08:55:46.144Z</time></trkpt><trkpt lat="45.1581146" lon="12.267873"><ele>-1.0</ele><time>2026-05-03T08:55:48.145Z</time></trkpt><trkpt lat="45.1580131" lon="12.2678046"><ele>-1.0</ele><time>2026-05-03T08:55:50.146Z</time></trkpt><trkpt lat="45.1579109" lon="12.2677373"><ele>-1.0</ele><time>2026-05-03T08:55:52.145Z</time></trkpt><trkpt lat="45.1578116" lon="12.2676684"><ele>-1.0</ele><time>2026-05-03T08:55:54.145Z</time></trkpt><trkpt lat="45.1577085" lon="12.2676059"><ele>-1.0</ele><time>2026-05-03T08:55:56.141Z</time></trkpt><trkpt lat="45.1576042" lon="12.2675411"><ele>-1.0</ele><time>2026-05-03T08:55:58.142Z</time></trkpt><trkpt lat="45.157503" lon="12.2674748"><ele>-1.0</ele><time>2026-05-03T08:56:00.145Z</time></trkpt><trkpt lat="45.1573994" lon="12.2674108"><ele>-1.0</ele><time>2026-05-03T08:56:02.147Z</time></trkpt><trkpt lat="45.1572977" lon="12.2673461"><ele>-1.0</ele><time>2026-05-03T08:56:04.146Z</time></trkpt><trkpt lat="45.157193" lon="12.2672793"><ele>-1.0</ele><time>2026-05-03T08:56:06.149Z</time></trkpt><trkpt lat="45.1570897" lon="12.2672119"><ele>-1.0</ele><time>2026-05-03T08:56:08.147Z</time></trkpt><trkpt lat="45.1569902" lon="12.2671451"><ele>-1.0</ele><time>2026-05-03T08:56:10.145Z</time></trkpt><trkpt lat="45.1568897" lon="12.2670775"><ele>-1.0</ele><time>2026-05-03T08:56:12.142Z</time></trkpt><trkpt lat="45.1567882" lon="12.2670156"><ele>-1.0</ele><time>2026-05-03T08:56:14.143Z</time></trkpt><trkpt lat="45.1566872" lon="12.2669478"><ele>-1.0</ele><time>2026-05-03T08:56:16.145Z</time></trkpt><trkpt lat="45.1565821" lon="12.2668872"><ele>-0.75</ele><time>2026-05-03T08:56:18.145Z</time></trkpt><trkpt lat="45.1564759" lon="12.2668297"><ele>-0.5</ele><time>2026-05-03T08:56:20.145Z</time></trkpt><trkpt lat="45.1563697" lon="12.2667745"><ele>-0.25</ele><time>2026-05-03T08:56:22.141Z</time></trkpt><trkpt lat="45.1562632" lon="12.2667255"><ele>0.0</ele><time>2026-05-03T08:56:24.147Z</time></trkpt><trkpt lat="45.1561584" lon="12.266668"><ele>0.0</ele><time>2026-05-03T08:56:26.142Z</time></trkpt><trkpt lat="45.156059" lon="12.2666129"><ele>0.0</ele><time>2026-05-03T08:56:28.144Z</time></trkpt><trkpt lat="45.1559646" lon="12.2665611"><ele>0.0</ele><time>2026-05-03T08:56:30.143Z</time></trkpt><trkpt lat="45.1558713" lon="12.2665083"><ele>0.0</ele><time>2026-05-03T08:56:32.147Z</time></trkpt><trkpt lat="45.1557741" lon="12.26645"><ele>0.0</ele><time>2026-05-03T08:56:34.146Z</time></trkpt><trkpt lat="45.1556742" lon="12.266384"><ele>-0.2</ele><time>2026-05-03T08:56:36.145Z</time></trkpt><trkpt lat="45.1555736" lon="12.2663156"><ele>-0.4</ele><time>2026-05-03T08:56:38.147Z</time></trkpt><trkpt lat="45.1554759" lon="12.2662444"><ele>-0.6000000000000001</ele><time>2026-05-03T08:56:40.146Z</time></trkpt><trkpt lat="45.1553807" lon="12.266171"><ele>-0.8</ele><time>2026-05-03T08:56:42.143Z</time></trkpt><trkpt lat="45.1552811" lon="12.2660961"><ele>-1.0</ele><time>2026-05-03T08:56:44.143Z</time></trkpt><trkpt lat="45.1551819" lon="12.2660167"><ele>-1.0</ele><time>2026-05-03T08:56:46.147Z</time></trkpt><trkpt lat="45.1550869" lon="12.2659347"><ele>-1.0</ele><time>2026-05-03T08:56:48.143Z</time></trkpt><trkpt lat="45.1549877" lon="12.2658645"><ele>-1.0</ele><time>2026-05-03T08:56:50.149Z</time></trkpt><trkpt lat="45.1548936" lon="12.2657945"><ele>-1.0</ele><time>2026-05-03T08:56:52.145Z</time></trkpt><trkpt lat="45.1547989" lon="12.265725"><ele>-1.0</ele><time>2026-05-03T08:56:54.145Z</time></trkpt><trkpt lat="45.1547059" lon="12.2656519"><ele>-1.0</ele><time>2026-05-03T08:56:56.144Z</time></trkpt><trkpt lat="45.1546069" lon="12.2655835"><ele>-1.0</ele><time>2026-05-03T08:56:58.148Z</time></trkpt><trkpt lat="45.1545062" lon="12.2655207"><ele>-1.0</ele><time>2026-05-03T08:57:00.148Z</time></trkpt><trkpt lat="45.1544027" lon="12.2654654"><ele>-1.0</ele><time>2026-05-03T08:57:02.15Z</time></trkpt><trkpt lat="45.1542959" lon="12.2654094"><ele>-1.0</ele><time>2026-05-03T08:57:04.145Z</time></trkpt><trkpt lat="45.1541869" lon="12.2653474"><ele>-1.0</ele><time>2026-05-03T08:57:06.147Z</time></trkpt><trkpt lat="45.1540816" lon="12.2652856"><ele>-1.0</ele><time>2026-05-03T08:57:08.149Z</time></trkpt><trkpt lat="45.1539757" lon="12.2652177"><ele>-1.0</ele><time>2026-05-03T08:57:10.144Z</time></trkpt><trkpt lat="45.1538721" lon="12.2651499"><ele>-1.0</ele><time>2026-05-03T08:57:12.141Z</time></trkpt><trkpt lat="45.1537711" lon="12.2650851"><ele>-1.0</ele><time>2026-05-03T08:57:14.143Z</time></trkpt><trkpt lat="45.1536703" lon="12.265018"><ele>-1.0</ele><time>2026-05-03T08:57:16.15Z</time></trkpt><trkpt lat="45.1535698" lon="12.2649393"><ele>-1.0</ele><time>2026-05-03T08:57:18.142Z</time></trkpt><trkpt lat="45.1534675" lon="12.264863"><ele>-1.0</ele><time>2026-05-03T08:57:20.146Z</time></trkpt><trkpt lat="45.1533693" lon="12.2647831"><ele>-1.0</ele><time>2026-05-03T08:57:22.144Z</time></trkpt><trkpt lat="45.1532697" lon="12.2647059"><ele>-1.0</ele><time>2026-05-03T08:57:24.147Z</time></trkpt><trkpt lat="45.1531649" lon="12.2646408"><ele>-1.0</ele><time>2026-05-03T08:57:26.145Z</time></trkpt><trkpt lat="45.1530651" lon="12.2645645"><ele>-1.0</ele><time>2026-05-03T08:57:28.143Z</time></trkpt><trkpt lat="45.1529658" lon="12.2644863"><ele>-1.0</ele><time>2026-05-03T08:57:30.143Z</time></trkpt><trkpt lat="45.1528658" lon="12.2644098"><ele>-1.0</ele><time>2026-05-03T08:57:32.144Z</time></trkpt><trkpt lat="45.1527609" lon="12.264339"><ele>-1.0</ele><time>2026-05-03T08:57:34.147Z</time></trkpt><trkpt lat="45.1526577" lon="12.2642645"><ele>-1.0</ele><time>2026-05-03T08:57:36.137Z</time></trkpt><trkpt lat="45.1525506" lon="12.264184"><ele>-1.0</ele><time>2026-05-03T08:57:38.143Z</time></trkpt><trkpt lat="45.1524438" lon="12.264114"><ele>-1.0</ele><time>2026-05-03T08:57:40.141Z</time></trkpt><trkpt lat="45.1523388" lon="12.2640436"><ele>-1.0</ele><time>2026-05-03T08:57:42.145Z</time></trkpt><trkpt lat="45.1522303" lon="12.2639754"><ele>-1.0</ele><time>2026-05-03T08:57:44.142Z</time></trkpt><trkpt lat="45.1521245" lon="12.2639017"><ele>-1.0</ele><time>2026-05-03T08:57:46.143Z</time></trkpt><trkpt lat="45.1520148" lon="12.263832"><ele>-1.0</ele><time>2026-05-03T08:57:48.14Z</time></trkpt><trkpt lat="45.1519101" lon="12.2637581"><ele>-1.0</ele><time>2026-05-03T08:57:50.148Z</time></trkpt><trkpt lat="45.1518032" lon="12.2636854"><ele>-1.0</ele><time>2026-05-03T08:57:52.146Z</time></trkpt><trkpt lat="45.1516956" lon="12.2636188"><ele>-1.0</ele><time>2026-05-03T08:57:54.142Z</time></trkpt><trkpt lat="45.1515888" lon="12.2635521"><ele>-1.0</ele><time>2026-05-03T08:57:56.141Z</time></trkpt><trkpt lat="45.1514838" lon="12.2634807"><ele>-1.0</ele><time>2026-05-03T08:57:58.143Z</time></trkpt><trkpt lat="45.1513798" lon="12.2634085"><ele>-1.0</ele><time>2026-05-03T08:58:00.147Z</time></trkpt><trkpt lat="45.1512725" lon="12.263342"><ele>-1.0</ele><time>2026-05-03T08:58:02.146Z</time></trkpt><trkpt lat="45.1511649" lon="12.2632711"><ele>-1.0</ele><time>2026-05-03T08:58:04.145Z</time></trkpt><trkpt lat="45.1510602" lon="12.2631977"><ele>-1.0</ele><time>2026-05-03T08:58:06.142Z</time></trkpt><trkpt lat="45.1509545" lon="12.2631271"><ele>-1.0</ele><time>2026-05-03T08:58:08.144Z</time></trkpt><trkpt lat="45.1508475" lon="12.263057"><ele>-1.0</ele><time>2026-05-03T08:58:10.144Z</time></trkpt><trkpt lat="45.1507366" lon="12.2629818"><ele>-1.0</ele><time>2026-05-03T08:58:12.139Z</time></trkpt><trkpt lat="45.1506795" lon="12.2629439"><ele>-1.0</ele><time>2026-05-03T08:58:13.151Z</time></trkpt><trkpt lat="45.1505727" lon="12.2628675"><ele>-1.0</ele><time>2026-05-03T08:58:15.141Z</time></trkpt><trkpt lat="45.1504648" lon="12.262796"><ele>-1.0</ele><time>2026-05-03T08:58:17.148Z</time></trkpt><trkpt lat="45.1503552" lon="12.2627243"><ele>-0.75</ele><time>2026-05-03T08:58:19.144Z</time></trkpt><trkpt lat="45.150243" lon="12.2626574"><ele>-0.5</ele><time>2026-05-03T08:58:21.144Z</time></trkpt><trkpt lat="45.1501323" lon="12.2625871"><ele>-0.25</ele><time>2026-05-03T08:58:23.148Z</time></trkpt><trkpt lat="45.1500272" lon="12.2625096"><ele>0.0</ele><time>2026-05-03T08:58:25.142Z</time></trkpt><trkpt lat="45.1499168" lon="12.2624361"><ele>-0.2857142857142857</ele><time>2026-05-03T08:58:27.145Z</time></trkpt><trkpt lat="45.1498046" lon="12.2623582"><ele>-0.5714285714285714</ele><time>2026-05-03T08:58:29.148Z</time></trkpt><trkpt lat="45.1497468" lon="12.26232"><ele>-0.8571428571428571</ele><time>2026-05-03T08:58:30.146Z</time></trkpt><trkpt lat="45.1496887" lon="12.262284"><ele>-1.1428571428571428</ele><time>2026-05-03T08:58:31.142Z</time></trkpt><trkpt lat="45.1496303" lon="12.2622472"><ele>-1.4285714285714284</ele><time>2026-05-03T08:58:32.148Z</time></trkpt><trkpt lat="45.1495722" lon="12.2622101"><ele>-1.7142857142857142</ele><time>2026-05-03T08:58:33.148Z</time></trkpt><trkpt lat="45.1495159" lon="12.2621693"><ele>-2.0</ele><time>2026-05-03T08:58:34.149Z</time></trkpt><trkpt lat="45.1494077" lon="12.262093"><ele>-2.0</ele><time>2026-05-03T08:58:36.145Z</time></trkpt><trkpt lat="45.1492998" lon="12.2620229"><ele>-2.0</ele><time>2026-05-03T08:58:38.145Z</time></trkpt><trkpt lat="45.1491819" lon="12.2619509"><ele>-2.0</ele><time>2026-05-03T08:58:40.145Z</time></trkpt><trkpt lat="45.1491181" lon="12.2619145"><ele>-2.0</ele><time>2026-05-03T08:58:41.142Z</time></trkpt><trkpt lat="45.1490569" lon="12.2618759"><ele>-2.0</ele><time>2026-05-03T08:58:42.145Z</time></trkpt><trkpt lat="45.1489962" lon="12.261836"><ele>-1.7142857142857142</ele><time>2026-05-03T08:58:43.151Z</time></trkpt><trkpt lat="45.1489361" lon="12.2617976"><ele>-1.4285714285714284</ele><time>2026-05-03T08:58:44.144Z</time></trkpt><trkpt lat="45.1488767" lon="12.2617556"><ele>-1.1428571428571428</ele><time>2026-05-03T08:58:45.146Z</time></trkpt><trkpt lat="45.1488164" lon="12.2617174"><ele>-0.8571428571428571</ele><time>2026-05-03T08:58:46.145Z</time></trkpt><trkpt lat="45.1487573" lon="12.2616782"><ele>-0.5714285714285714</ele><time>2026-05-03T08:58:47.14Z</time></trkpt><trkpt lat="45.1486988" lon="12.2616384"><ele>-0.2857142857142857</ele><time>2026-05-03T08:58:48.144Z</time></trkpt><trkpt lat="45.1486381" lon="12.2616001"><ele>0.0</ele><time>2026-05-03T08:58:49.145Z</time></trkpt><trkpt lat="45.1485752" lon="12.2615623"><ele>0.0</ele><time>2026-05-03T08:58:50.143Z</time></trkpt><trkpt lat="45.148512" lon="12.2615236"><ele>0.0</ele><time>2026-05-03T08:58:51.146Z</time></trkpt><trkpt lat="45.148451" lon="12.2614872"><ele>0.0</ele><time>2026-05-03T08:58:52.144Z</time></trkpt><trkpt lat="45.1483911" lon="12.2614469"><ele>0.0</ele><time>2026-05-03T08:58:53.154Z</time></trkpt><trkpt lat="45.1483313" lon="12.2614042"><ele>0.0</ele><time>2026-05-03T08:58:54.147Z</time></trkpt><trkpt lat="45.1482711" lon="12.2613616"><ele>0.0</ele><time>2026-05-03T08:58:55.145Z</time></trkpt><trkpt lat="45.1482099" lon="12.261324"><ele>0.0</ele><time>2026-05-03T08:58:56.146Z</time></trkpt><trkpt lat="45.1481489" lon="12.2612859"><ele>-0.14285714285714285</ele><time>2026-05-03T08:58:57.144Z</time></trkpt><trkpt lat="45.1480886" lon="12.2612481"><ele>-0.2857142857142857</ele><time>2026-05-03T08:58:58.145Z</time></trkpt><trkpt lat="45.1480293" lon="12.2612117"><ele>-0.42857142857142855</ele><time>2026-05-03T08:58:59.146Z</time></trkpt><trkpt lat="45.1479718" lon="12.2611732"><ele>-0.5714285714285714</ele><time>2026-05-03T08:59:00.146Z</time></trkpt><trkpt lat="45.1479111" lon="12.2611345"><ele>-0.7142857142857142</ele><time>2026-05-03T08:59:01.146Z</time></trkpt><trkpt lat="45.1478503" lon="12.2610957"><ele>-0.8571428571428571</ele><time>2026-05-03T08:59:02.147Z</time></trkpt><trkpt lat="45.1477902" lon="12.2610541"><ele>-1.0</ele><time>2026-05-03T08:59:03.154Z</time></trkpt><trkpt lat="45.1477311" lon="12.2610147"><ele>-1.0</ele><time>2026-05-03T08:59:04.152Z</time></trkpt><trkpt lat="45.1476708" lon="12.2609751"><ele>-0.9999999999999999</ele><time>2026-05-03T08:59:05.149Z</time></trkpt><trkpt lat="45.1476105" lon="12.2609334"><ele>-1.0</ele><time>2026-05-03T08:59:06.146Z</time></trkpt><trkpt lat="45.1475492" lon="12.2608922"><ele>-1.0</ele><time>2026-05-03T08:59:07.148Z</time></trkpt><trkpt lat="45.1474882" lon="12.2608538"><ele>-0.9999999999999999</ele><time>2026-05-03T08:59:08.146Z</time></trkpt><trkpt lat="45.1474267" lon="12.2608165"><ele>-1.0</ele><time>2026-05-03T08:59:09.148Z</time></trkpt><trkpt lat="45.1473659" lon="12.2607794"><ele>-1.0</ele><time>2026-05-03T08:59:10.143Z</time></trkpt><trkpt lat="45.1473059" lon="12.260747"><ele>-1.0</ele><time>2026-05-03T08:59:11.144Z</time></trkpt><trkpt lat="45.1472444" lon="12.2607157"><ele>-0.9999999999999999</ele><time>2026-05-03T08:59:12.145Z</time></trkpt><trkpt lat="45.1471821" lon="12.2606823"><ele>-1.0</ele><time>2026-05-03T08:59:13.145Z</time></trkpt><trkpt lat="45.1471195" lon="12.2606513"><ele>-1.0</ele><time>2026-05-03T08:59:14.144Z</time></trkpt><trkpt lat="45.1470566" lon="12.2606142"><ele>-0.9999999999999999</ele><time>2026-05-03T08:59:15.147Z</time></trkpt><trkpt lat="45.1469935" lon="12.2605805"><ele>-1.0</ele><time>2026-05-03T08:59:16.146Z</time></trkpt><trkpt lat="45.1469304" lon="12.2605425"><ele>-1.0</ele><time>2026-05-03T08:59:17.149Z</time></trkpt><trkpt lat="45.1468689" lon="12.2605077"><ele>-0.8571428571428571</ele><time>2026-05-03T08:59:18.146Z</time></trkpt><trkpt lat="45.1468079" lon="12.2604659"><ele>-0.7142857142857142</ele><time>2026-05-03T08:59:19.147Z</time></trkpt><trkpt lat="45.1467482" lon="12.2604284"><ele>-0.5714285714285714</ele><time>2026-05-03T08:59:20.146Z</time></trkpt><trkpt lat="45.1466879" lon="12.2603891"><ele>-0.42857142857142855</ele><time>2026-05-03T08:59:21.143Z</time></trkpt><trkpt lat="45.1466282" lon="12.2603509"><ele>-0.2857142857142857</ele><time>2026-05-03T08:59:22.145Z</time></trkpt><trkpt lat="45.1465699" lon="12.2603133"><ele>-0.14285714285714285</ele><time>2026-05-03T08:59:23.144Z</time></trkpt><trkpt lat="45.1465109" lon="12.260276"><ele>0.0</ele><time>2026-05-03T08:59:24.146Z</time></trkpt><trkpt lat="45.1464518" lon="12.2602385"><ele>0.0</ele><time>2026-05-03T08:59:25.145Z</time></trkpt><trkpt lat="45.146392" lon="12.2601995"><ele>0.0</ele><time>2026-05-03T08:59:26.145Z</time></trkpt><trkpt lat="45.1463338" lon="12.2601627"><ele>0.0</ele><time>2026-05-03T08:59:27.144Z</time></trkpt><trkpt lat="45.1462228" lon="12.2600887"><ele>0.0</ele><time>2026-05-03T08:59:29.144Z</time></trkpt><trkpt lat="45.1461154" lon="12.2600184"><ele>0.0</ele><time>2026-05-03T08:59:31.147Z</time></trkpt><trkpt lat="45.1460093" lon="12.259955"><ele>0.0</ele><time>2026-05-03T08:59:33.151Z</time></trkpt><trkpt lat="45.1459004" lon="12.2598888"><ele>0.0</ele><time>2026-05-03T08:59:35.149Z</time></trkpt><trkpt lat="45.1457889" lon="12.2598255"><ele>0.0</ele><time>2026-05-03T08:59:37.142Z</time></trkpt><trkpt lat="45.1456792" lon="12.2597572"><ele>0.0</ele><time>2026-05-03T08:59:39.144Z</time></trkpt><trkpt lat="45.1455709" lon="12.2596894"><ele>-0.6</ele><time>2026-05-03T08:59:41.145Z</time></trkpt><trkpt lat="45.1454631" lon="12.2596232"><ele>-1.2</ele><time>2026-05-03T08:59:43.152Z</time></trkpt><trkpt lat="45.1453572" lon="12.2595616"><ele>-1.7999999999999998</ele><time>2026-05-03T08:59:45.147Z</time></trkpt><trkpt lat="45.1452609" lon="12.2594994"><ele>-2.4</ele><time>2026-05-03T08:59:47.144Z</time></trkpt><trkpt lat="45.1451579" lon="12.25944"><ele>-3.0</ele><time>2026-05-03T08:59:49.147Z</time></trkpt><trkpt lat="45.145051" lon="12.2593767"><ele>-3.0</ele><time>2026-05-03T08:59:51.146Z</time></trkpt><trkpt lat="45.1449429" lon="12.2593121"><ele>-3.0</ele><time>2026-05-03T08:59:53.144Z</time></trkpt><trkpt lat="45.1448313" lon="12.2592417"><ele>-3.0</ele><time>2026-05-03T08:59:55.146Z</time></trkpt><trkpt lat="45.1447197" lon="12.2591721"><ele>-3.0</ele><time>2026-05-03T08:59:57.148Z</time></trkpt><trkpt lat="45.1446617" lon="12.2591368"><ele>-3.0</ele><time>2026-05-03T08:59:58.144Z</time></trkpt><trkpt lat="45.1445458" lon="12.2590721"><ele>-3.0</ele><time>2026-05-03T09:00:00.142Z</time></trkpt><trkpt lat="45.144434" lon="12.2590094"><ele>-3.0</ele><time>2026-05-03T09:00:02.146Z</time></trkpt><trkpt lat="45.1443258" lon="12.2589476"><ele>-3.0</ele><time>2026-05-03T09:00:04.139Z</time></trkpt><trkpt lat="45.1442191" lon="12.2588971"><ele>-3.0</ele><time>2026-05-03T09:00:06.143Z</time></trkpt><trkpt lat="45.1441101" lon="12.258845"><ele>-2.5</ele><time>2026-05-03T09:00:08.143Z</time></trkpt><trkpt lat="45.1439927" lon="12.2588049"><ele>-2.0</ele><time>2026-05-03T09:00:10.142Z</time></trkpt><trkpt lat="45.1438766" lon="12.2587664"><ele>-1.5</ele><time>2026-05-03T09:00:12.144Z</time></trkpt><trkpt lat="45.1437639" lon="12.2587381"><ele>-1.0</ele><time>2026-05-03T09:00:14.142Z</time></trkpt><trkpt lat="45.1436528" lon="12.2587188"><ele>-1.0</ele><time>2026-05-03T09:00:16.144Z</time></trkpt><trkpt lat="45.1435381" lon="12.2586918"><ele>-1.0</ele><time>2026-05-03T09:00:18.148Z</time></trkpt><trkpt lat="45.1434261" lon="12.2586711"><ele>-1.0</ele><time>2026-05-03T09:00:20.146Z</time></trkpt><trkpt lat="45.1433171" lon="12.258643"><ele>-1.0</ele><time>2026-05-03T09:00:22.143Z</time></trkpt><trkpt lat="45.1432039" lon="12.2586271"><ele>-0.75</ele><time>2026-05-03T09:00:24.143Z</time></trkpt><trkpt lat="45.1430914" lon="12.2586134"><ele>-0.5</ele><time>2026-05-03T09:00:26.147Z</time></trkpt><trkpt lat="45.142982" lon="12.2585984"><ele>-0.25</ele><time>2026-05-03T09:00:28.146Z</time></trkpt><trkpt lat="45.1428705" lon="12.258574"><ele>0.0</ele><time>2026-05-03T09:00:30.145Z</time></trkpt><trkpt lat="45.1427572" lon="12.2585524"><ele>0.0</ele><time>2026-05-03T09:00:32.144Z</time></trkpt><trkpt lat="45.1426436" lon="12.2585375"><ele>0.0</ele><time>2026-05-03T09:00:34.143Z</time></trkpt><trkpt lat="45.142529" lon="12.2585246"><ele>0.0</ele><time>2026-05-03T09:00:36.143Z</time></trkpt><trkpt lat="45.1424257" lon="12.2585104"><ele>0.0</ele><time>2026-05-03T09:00:38.145Z</time></trkpt><trkpt lat="45.1423246" lon="12.2584918"><ele>0.0</ele><time>2026-05-03T09:00:40.146Z</time></trkpt><trkpt lat="45.1422138" lon="12.2584704"><ele>-0.25</ele><time>2026-05-03T09:00:42.145Z</time></trkpt><trkpt lat="45.1420934" lon="12.2584488"><ele>-0.5</ele><time>2026-05-03T09:00:44.144Z</time></trkpt><trkpt lat="45.1419733" lon="12.258428"><ele>-0.75</ele><time>2026-05-03T09:00:46.143Z</time></trkpt><trkpt lat="45.1418578" lon="12.2584016"><ele>-1.0</ele><time>2026-05-03T09:00:48.144Z</time></trkpt><trkpt lat="45.1417449" lon="12.2583758"><ele>-1.0</ele><time>2026-05-03T09:00:50.144Z</time></trkpt><trkpt lat="45.1416328" lon="12.2583541"><ele>-1.0</ele><time>2026-05-03T09:00:52.142Z</time></trkpt><trkpt lat="45.1415197" lon="12.2583376"><ele>-1.0</ele><time>2026-05-03T09:00:54.146Z</time></trkpt><trkpt lat="45.1414024" lon="12.2583285"><ele>-1.0</ele><time>2026-05-03T09:00:56.143Z</time></trkpt><trkpt lat="45.1412865" lon="12.2583185"><ele>-0.75</ele><time>2026-05-03T09:00:58.149Z</time></trkpt><trkpt lat="45.1411709" lon="12.25831"><ele>-0.5</ele><time>2026-05-03T09:01:00.144Z</time></trkpt><trkpt lat="45.1410547" lon="12.2583074"><ele>-0.25</ele><time>2026-05-03T09:01:02.144Z</time></trkpt><trkpt lat="45.1409367" lon="12.2583085"><ele>0.0</ele><time>2026-05-03T09:01:04.146Z</time></trkpt><trkpt lat="45.1408123" lon="12.2583176"><ele>-0.75</ele><time>2026-05-03T09:01:06.145Z</time></trkpt><trkpt lat="45.1406869" lon="12.2583439"><ele>-1.5</ele><time>2026-05-03T09:01:08.144Z</time></trkpt><trkpt lat="45.1405628" lon="12.2583698"><ele>-2.25</ele><time>2026-05-03T09:01:10.142Z</time></trkpt><trkpt lat="45.1404435" lon="12.2584039"><ele>-3.0</ele><time>2026-05-03T09:01:12.146Z</time></trkpt><trkpt lat="45.1403262" lon="12.2584533"><ele>-3.0</ele><time>2026-05-03T09:01:14.15Z</time></trkpt><trkpt lat="45.1402095" lon="12.2585224"><ele>-3.0</ele><time>2026-05-03T09:01:16.141Z</time></trkpt><trkpt lat="45.1401513" lon="12.2585654"><ele>-3.0</ele><time>2026-05-03T09:01:17.143Z</time></trkpt><trkpt lat="45.1400457" lon="12.258655"><ele>-3.0</ele><time>2026-05-03T09:01:19.145Z</time></trkpt><trkpt lat="45.1399368" lon="12.2587387"><ele>-3.0</ele><time>2026-05-03T09:01:21.149Z</time></trkpt><trkpt lat="45.1398284" lon="12.2588099"><ele>-2.75</ele><time>2026-05-03T09:01:23.153Z</time></trkpt><trkpt lat="45.1397174" lon="12.2588781"><ele>-2.5</ele><time>2026-05-03T09:01:25.145Z</time></trkpt><trkpt lat="45.1396051" lon="12.2589378"><ele>-2.25</ele><time>2026-05-03T09:01:27.145Z</time></trkpt><trkpt lat="45.1394858" lon="12.2589838"><ele>-2.0</ele><time>2026-05-03T09:01:29.146Z</time></trkpt><trkpt lat="45.1393645" lon="12.2590094"><ele>-2.0</ele><time>2026-05-03T09:01:31.143Z</time></trkpt><trkpt lat="45.139249" lon="12.2590089"><ele>-2.0</ele><time>2026-05-03T09:01:33.146Z</time></trkpt><trkpt lat="45.1391293" lon="12.2590085"><ele>-2.0</ele><time>2026-05-03T09:01:35.15Z</time></trkpt><trkpt lat="45.1390099" lon="12.2590038"><ele>-2.0</ele><time>2026-05-03T09:01:37.146Z</time></trkpt><trkpt lat="45.1388873" lon="12.2590015"><ele>-2.0</ele><time>2026-05-03T09:01:39.144Z</time></trkpt><trkpt lat="45.1387638" lon="12.258996"><ele>-2.0</ele><time>2026-05-03T09:01:41.143Z</time></trkpt><trkpt lat="45.1386397" lon="12.2589792"><ele>-2.0</ele><time>2026-05-03T09:01:43.148Z</time></trkpt><trkpt lat="45.1385184" lon="12.2589528"><ele>-2.0</ele><time>2026-05-03T09:01:45.143Z</time></trkpt><trkpt lat="45.1384014" lon="12.25891"><ele>-2.0</ele><time>2026-05-03T09:01:47.145Z</time></trkpt><trkpt lat="45.1382855" lon="12.2588547"><ele>-2.0</ele><time>2026-05-03T09:01:49.141Z</time></trkpt><trkpt lat="45.1381702" lon="12.2587986"><ele>-2.0</ele><time>2026-05-03T09:01:51.143Z</time></trkpt><trkpt lat="45.1380604" lon="12.2587401"><ele>-2.0</ele><time>2026-05-03T09:01:53.149Z</time></trkpt><trkpt lat="45.1379483" lon="12.2586821"><ele>-2.0</ele><time>2026-05-03T09:01:55.146Z</time></trkpt><trkpt lat="45.1378369" lon="12.2586208"><ele>-2.0</ele><time>2026-05-03T09:01:57.146Z</time></trkpt><trkpt lat="45.137728" lon="12.2585525"><ele>-2.0</ele><time>2026-05-03T09:01:59.139Z</time></trkpt><trkpt lat="45.1376169" lon="12.2584919"><ele>-2.0</ele><time>2026-05-03T09:02:01.146Z</time></trkpt><trkpt lat="45.1375099" lon="12.2584302"><ele>-2.0</ele><time>2026-05-03T09:02:03.148Z</time></trkpt><trkpt lat="45.1374019" lon="12.2583699"><ele>-2.0</ele><time>2026-05-03T09:02:05.147Z</time></trkpt><trkpt lat="45.1372907" lon="12.2583056"><ele>-2.0</ele><time>2026-05-03T09:02:07.147Z</time></trkpt><trkpt lat="45.1371806" lon="12.2582495"><ele>-2.0</ele><time>2026-05-03T09:02:09.144Z</time></trkpt><trkpt lat="45.1370678" lon="12.2582019"><ele>-2.0</ele><time>2026-05-03T09:02:11.145Z</time></trkpt><trkpt lat="45.1369558" lon="12.2581548"><ele>-2.0</ele><time>2026-05-03T09:02:13.15Z</time></trkpt><trkpt lat="45.1368407" lon="12.2581101"><ele>-2.0</ele><time>2026-05-03T09:02:15.146Z</time></trkpt><trkpt lat="45.1367233" lon="12.2580704"><ele>-2.0</ele><time>2026-05-03T09:02:17.14Z</time></trkpt><trkpt lat="45.1366041" lon="12.2580284"><ele>-2.0</ele><time>2026-05-03T09:02:19.144Z</time></trkpt><trkpt lat="45.1364891" lon="12.2579836"><ele>-2.0</ele><time>2026-05-03T09:02:21.144Z</time></trkpt><trkpt lat="45.1363765" lon="12.2579472"><ele>-2.0</ele><time>2026-05-03T09:02:23.151Z</time></trkpt><trkpt lat="45.1362619" lon="12.2579105"><ele>-2.0</ele><time>2026-05-03T09:02:25.144Z</time></trkpt><trkpt lat="45.1361498" lon="12.2578673"><ele>-2.0</ele><time>2026-05-03T09:02:27.142Z</time></trkpt><trkpt lat="45.1360361" lon="12.2578293"><ele>-2.0</ele><time>2026-05-03T09:02:29.151Z</time></trkpt><trkpt lat="45.135923" lon="12.2577866"><ele>-2.0</ele><time>2026-05-03T09:02:31.145Z</time></trkpt><trkpt lat="45.135808" lon="12.2577464"><ele>-2.0</ele><time>2026-05-03T09:02:33.148Z</time></trkpt><trkpt lat="45.1356927" lon="12.2577066"><ele>-2.0</ele><time>2026-05-03T09:02:35.143Z</time></trkpt><trkpt lat="45.13558" lon="12.257661"><ele>-2.0</ele><time>2026-05-03T09:02:37.148Z</time></trkpt><trkpt lat="45.135466" lon="12.2576124"><ele>-2.0</ele><time>2026-05-03T09:02:39.143Z</time></trkpt><trkpt lat="45.1353534" lon="12.2575621"><ele>-2.0</ele><time>2026-05-03T09:02:41.144Z</time></trkpt><trkpt lat="45.1352395" lon="12.2575114"><ele>-2.0</ele><time>2026-05-03T09:02:43.151Z</time></trkpt><trkpt lat="45.1351252" lon="12.2574629"><ele>-2.0</ele><time>2026-05-03T09:02:45.14Z</time></trkpt><trkpt lat="45.1350123" lon="12.2574156"><ele>-2.0</ele><time>2026-05-03T09:02:47.143Z</time></trkpt><trkpt lat="45.1349002" lon="12.2573644"><ele>-2.0</ele><time>2026-05-03T09:02:49.144Z</time></trkpt><trkpt lat="45.1347894" lon="12.2573024"><ele>-1.5</ele><time>2026-05-03T09:02:51.146Z</time></trkpt><trkpt lat="45.1346825" lon="12.2572425"><ele>-1.0</ele><time>2026-05-03T09:02:53.149Z</time></trkpt><trkpt lat="45.1345705" lon="12.2571989"><ele>-0.5</ele><time>2026-05-03T09:02:55.142Z</time></trkpt><trkpt lat="45.1344582" lon="12.2571506"><ele>0.0</ele><time>2026-05-03T09:02:57.144Z</time></trkpt><trkpt lat="45.1343455" lon="12.2571058"><ele>0.0</ele><time>2026-05-03T09:02:59.15Z</time></trkpt><trkpt lat="45.1342315" lon="12.2570572"><ele>0.0</ele><time>2026-05-03T09:03:01.146Z</time></trkpt><trkpt lat="45.1341184" lon="12.257008"><ele>0.0</ele><time>2026-05-03T09:03:03.15Z</time></trkpt><trkpt lat="45.1340015" lon="12.2569698"><ele>0.0</ele><time>2026-05-03T09:03:05.147Z</time></trkpt><trkpt lat="45.133886" lon="12.2569297"><ele>-0.25</ele><time>2026-05-03T09:03:07.147Z</time></trkpt><trkpt lat="45.1337715" lon="12.2568921"><ele>-0.5</ele><time>2026-05-03T09:03:09.147Z</time></trkpt><trkpt lat="45.1336602" lon="12.2568417"><ele>-0.75</ele><time>2026-05-03T09:03:11.144Z</time></trkpt><trkpt lat="45.1335494" lon="12.2568015"><ele>-1.0</ele><time>2026-05-03T09:03:13.144Z</time></trkpt><trkpt lat="45.133436" lon="12.2567619"><ele>-1.0</ele><time>2026-05-03T09:03:15.147Z</time></trkpt><trkpt lat="45.1333187" lon="12.2567283"><ele>-1.0</ele><time>2026-05-03T09:03:17.144Z</time></trkpt><trkpt lat="45.1332089" lon="12.2566844"><ele>-1.0</ele><time>2026-05-03T09:03:19.146Z</time></trkpt><trkpt lat="45.1330944" lon="12.2566475"><ele>-1.0</ele><time>2026-05-03T09:03:21.145Z</time></trkpt><trkpt lat="45.1329828" lon="12.2566087"><ele>-1.0</ele><time>2026-05-03T09:03:23.155Z</time></trkpt><trkpt lat="45.1328698" lon="12.2565758"><ele>-1.0</ele><time>2026-05-03T09:03:25.146Z</time></trkpt><trkpt lat="45.1327552" lon="12.2565449"><ele>-1.0</ele><time>2026-05-03T09:03:27.144Z</time></trkpt><trkpt lat="45.1326421" lon="12.2565149"><ele>-1.0</ele><time>2026-05-03T09:03:29.143Z</time></trkpt><trkpt lat="45.1325286" lon="12.2564854"><ele>-1.0</ele><time>2026-05-03T09:03:31.14Z</time></trkpt><trkpt lat="45.1324135" lon="12.2564631"><ele>-1.0</ele><time>2026-05-03T09:03:33.155Z</time></trkpt><trkpt lat="45.1323" lon="12.2564291"><ele>-1.0</ele><time>2026-05-03T09:03:35.143Z</time></trkpt><trkpt lat="45.1321903" lon="12.2563813"><ele>-1.0</ele><time>2026-05-03T09:03:37.147Z</time></trkpt><trkpt lat="45.1320795" lon="12.2563612"><ele>-1.25</ele><time>2026-05-03T09:03:39.148Z</time></trkpt><trkpt lat="45.1319655" lon="12.2563382"><ele>-1.5</ele><time>2026-05-03T09:03:41.145Z</time></trkpt><trkpt lat="45.1318558" lon="12.2563102"><ele>-1.75</ele><time>2026-05-03T09:03:43.149Z</time></trkpt><trkpt lat="45.1317437" lon="12.2562936"><ele>-2.0</ele><time>2026-05-03T09:03:45.144Z</time></trkpt><trkpt lat="45.1316295" lon="12.2562873"><ele>-2.0</ele><time>2026-05-03T09:03:47.144Z</time></trkpt><trkpt lat="45.1315165" lon="12.2562741"><ele>-2.0</ele><time>2026-05-03T09:03:49.142Z</time></trkpt><trkpt lat="45.1314009" lon="12.2562451"><ele>-2.0</ele><time>2026-05-03T09:03:51.146Z</time></trkpt><trkpt lat="45.1312881" lon="12.2561926"><ele>-2.0</ele><time>2026-05-03T09:03:53.15Z</time></trkpt><trkpt lat="45.1311802" lon="12.2561372"><ele>-2.0</ele><time>2026-05-03T09:03:55.146Z</time></trkpt><trkpt lat="45.1310744" lon="12.2560733"><ele>-2.0</ele><time>2026-05-03T09:03:57.144Z</time></trkpt><trkpt lat="45.1309732" lon="12.2559951"><ele>-2.0</ele><time>2026-05-03T09:03:59.14Z</time></trkpt><trkpt lat="45.1308768" lon="12.2559072"><ele>-2.0</ele><time>2026-05-03T09:04:01.15Z</time></trkpt><trkpt lat="45.1307861" lon="12.2558089"><ele>-1.75</ele><time>2026-05-03T09:04:03.154Z</time></trkpt><trkpt lat="45.1306975" lon="12.2557056"><ele>-1.5</ele><time>2026-05-03T09:04:05.142Z</time></trkpt><trkpt lat="45.1306099" lon="12.2556093"><ele>-1.25</ele><time>2026-05-03T09:04:07.149Z</time></trkpt><trkpt lat="45.1305193" lon="12.2555147"><ele>-1.0</ele><time>2026-05-03T09:04:09.143Z</time></trkpt><trkpt lat="45.1304259" lon="12.2554199"><ele>-0.75</ele><time>2026-05-03T09:04:11.143Z</time></trkpt><trkpt lat="45.1303341" lon="12.2553202"><ele>-0.5</ele><time>2026-05-03T09:04:13.149Z</time></trkpt><trkpt lat="45.130246" lon="12.2552185"><ele>-0.25</ele><time>2026-05-03T09:04:15.144Z</time></trkpt><trkpt lat="45.1301544" lon="12.2551213"><ele>0.0</ele><time>2026-05-03T09:04:17.144Z</time></trkpt><trkpt lat="45.1300586" lon="12.255027"><ele>0.0</ele><time>2026-05-03T09:04:19.144Z</time></trkpt><trkpt lat="45.1299628" lon="12.254934"><ele>0.0</ele><time>2026-05-03T09:04:21.144Z</time></trkpt><trkpt lat="45.1298671" lon="12.2548376"><ele>0.0</ele><time>2026-05-03T09:04:23.146Z</time></trkpt><trkpt lat="45.1297708" lon="12.2547396"><ele>0.0</ele><time>2026-05-03T09:04:25.138Z</time></trkpt><trkpt lat="45.1296748" lon="12.2546499"><ele>0.0</ele><time>2026-05-03T09:04:27.146Z</time></trkpt><trkpt lat="45.1295777" lon="12.2545583"><ele>0.0</ele><time>2026-05-03T09:04:29.143Z</time></trkpt><trkpt lat="45.129485" lon="12.2544627"><ele>0.0</ele><time>2026-05-03T09:04:31.145Z</time></trkpt><trkpt lat="45.1293912" lon="12.2543666"><ele>0.0</ele><time>2026-05-03T09:04:33.15Z</time></trkpt><trkpt lat="45.1292972" lon="12.2542675"><ele>0.0</ele><time>2026-05-03T09:04:35.145Z</time></trkpt><trkpt lat="45.1292059" lon="12.2541596"><ele>0.0</ele><time>2026-05-03T09:04:37.146Z</time></trkpt><trkpt lat="45.1291167" lon="12.2540495"><ele>0.0</ele><time>2026-05-03T09:04:39.145Z</time></trkpt><trkpt lat="45.1290262" lon="12.2539398"><ele>0.0</ele><time>2026-05-03T09:04:41.146Z</time></trkpt><trkpt lat="45.128939" lon="12.253826"><ele>-0.25</ele><time>2026-05-03T09:04:43.151Z</time></trkpt><trkpt lat="45.128843" lon="12.2537152"><ele>-0.5</ele><time>2026-05-03T09:04:45.144Z</time></trkpt><trkpt lat="45.128746" lon="12.2536092"><ele>-0.75</ele><time>2026-05-03T09:04:47.144Z</time></trkpt><trkpt lat="45.1286463" lon="12.2535124"><ele>-1.0</ele><time>2026-05-03T09:04:49.145Z</time></trkpt><trkpt lat="45.1285403" lon="12.2534273"><ele>-1.0</ele><time>2026-05-03T09:04:51.145Z</time></trkpt><trkpt lat="45.1284334" lon="12.253353"><ele>-1.0</ele><time>2026-05-03T09:04:53.147Z</time></trkpt><trkpt lat="45.1283183" lon="12.253302"><ele>-1.0</ele><time>2026-05-03T09:04:55.147Z</time></trkpt><trkpt lat="45.1281973" lon="12.2532654"><ele>-1.0</ele><time>2026-05-03T09:04:57.145Z</time></trkpt><trkpt lat="45.1280816" lon="12.2532295"><ele>-1.0</ele><time>2026-05-03T09:04:59.144Z</time></trkpt><trkpt lat="45.1279766" lon="12.2531945"><ele>-1.0</ele><time>2026-05-03T09:05:01.148Z</time></trkpt><trkpt lat="45.127878" lon="12.2531654"><ele>-1.0</ele><time>2026-05-03T09:05:03.146Z</time></trkpt><trkpt lat="45.1277669" lon="12.2531353"><ele>-1.0</ele><time>2026-05-03T09:05:05.147Z</time></trkpt><trkpt lat="45.1276541" lon="12.2530958"><ele>-1.0</ele><time>2026-05-03T09:05:07.143Z</time></trkpt><trkpt lat="45.1275497" lon="12.2530513"><ele>-1.2000000000000002</ele><time>2026-05-03T09:05:09.142Z</time></trkpt><trkpt lat="45.1274443" lon="12.2530108"><ele>-1.4000000000000001</ele><time>2026-05-03T09:05:11.139Z</time></trkpt><trkpt lat="45.1273385" lon="12.2529624"><ele>-1.6</ele><time>2026-05-03T09:05:13.143Z</time></trkpt><trkpt lat="45.1272319" lon="12.2529115"><ele>-1.8</ele><time>2026-05-03T09:05:15.145Z</time></trkpt><trkpt lat="45.1271246" lon="12.252853"><ele>-2.0</ele><time>2026-05-03T09:05:17.144Z</time></trkpt><trkpt lat="45.1270162" lon="12.2527953"><ele>-2.25</ele><time>2026-05-03T09:05:19.144Z</time></trkpt><trkpt lat="45.1269099" lon="12.2527426"><ele>-2.5</ele><time>2026-05-03T09:05:21.142Z</time></trkpt><trkpt lat="45.1267985" lon="12.2526901"><ele>-2.75</ele><time>2026-05-03T09:05:23.147Z</time></trkpt><trkpt lat="45.1266858" lon="12.2526483"><ele>-3.0</ele><time>2026-05-03T09:05:25.141Z</time></trkpt><trkpt lat="45.1265743" lon="12.252606"><ele>-2.8</ele><time>2026-05-03T09:05:27.144Z</time></trkpt><trkpt lat="45.1264653" lon="12.2525688"><ele>-2.5999999999999996</ele><time>2026-05-03T09:05:29.146Z</time></trkpt><trkpt lat="45.1263618" lon="12.2525321"><ele>-2.4000000000000004</ele><time>2026-05-03T09:05:31.151Z</time></trkpt><trkpt lat="45.1262542" lon="12.2524936"><ele>-2.2</ele><time>2026-05-03T09:05:33.144Z</time></trkpt><trkpt lat="45.1261482" lon="12.2524594"><ele>-2.0</ele><time>2026-05-03T09:05:35.153Z</time></trkpt><trkpt lat="45.1260409" lon="12.2524311"><ele>-2.0</ele><time>2026-05-03T09:05:37.147Z</time></trkpt><trkpt lat="45.125933" lon="12.2524052"><ele>-2.0</ele><time>2026-05-03T09:05:39.146Z</time></trkpt><trkpt lat="45.1258248" lon="12.252376"><ele>-2.0</ele><time>2026-05-03T09:05:41.146Z</time></trkpt><trkpt lat="45.1257218" lon="12.2523456"><ele>-2.0</ele><time>2026-05-03T09:05:43.152Z</time></trkpt><trkpt lat="45.1256185" lon="12.2523155"><ele>-2.0</ele><time>2026-05-03T09:05:45.144Z</time></trkpt><trkpt lat="45.1255148" lon="12.2522873"><ele>-1.8</ele><time>2026-05-03T09:05:47.146Z</time></trkpt><trkpt lat="45.1254121" lon="12.2522507"><ele>-1.6</ele><time>2026-05-03T09:05:49.144Z</time></trkpt><trkpt lat="45.1253092" lon="12.2522235"><ele>-1.4000000000000001</ele><time>2026-05-03T09:05:51.146Z</time></trkpt><trkpt lat="45.1252054" lon="12.2521956"><ele>-1.2000000000000002</ele><time>2026-05-03T09:05:53.148Z</time></trkpt><trkpt lat="45.1251006" lon="12.2521688"><ele>-1.0</ele><time>2026-05-03T09:05:55.142Z</time></trkpt><trkpt lat="45.124996" lon="12.252137"><ele>-1.0</ele><time>2026-05-03T09:05:57.141Z</time></trkpt><trkpt lat="45.1248938" lon="12.2521043"><ele>-1.0</ele><time>2026-05-03T09:05:59.144Z</time></trkpt><trkpt lat="45.1247918" lon="12.2520782"><ele>-1.0</ele><time>2026-05-03T09:06:01.141Z</time></trkpt><trkpt lat="45.1246891" lon="12.2520532"><ele>-1.0</ele><time>2026-05-03T09:06:03.143Z</time></trkpt><trkpt lat="45.1245826" lon="12.2520277"><ele>-1.0</ele><time>2026-05-03T09:06:05.152Z</time></trkpt><trkpt lat="45.1244768" lon="12.2519926"><ele>-1.0</ele><time>2026-05-03T09:06:07.146Z</time></trkpt><trkpt lat="45.1243701" lon="12.251949"><ele>-1.0</ele><time>2026-05-03T09:06:09.145Z</time></trkpt><trkpt lat="45.1242662" lon="12.2518923"><ele>-1.0</ele><time>2026-05-03T09:06:11.144Z</time></trkpt><trkpt lat="45.1241655" lon="12.2518335"><ele>-1.0</ele><time>2026-05-03T09:06:13.153Z</time></trkpt><trkpt lat="45.1240638" lon="12.251774"><ele>-1.0</ele><time>2026-05-03T09:06:15.147Z</time></trkpt><trkpt lat="45.123961" lon="12.2517176"><ele>-1.0</ele><time>2026-05-03T09:06:17.146Z</time></trkpt><trkpt lat="45.1238639" lon="12.2516592"><ele>-1.0</ele><time>2026-05-03T09:06:19.142Z</time></trkpt><trkpt lat="45.1237634" lon="12.2516013"><ele>-1.0</ele><time>2026-05-03T09:06:21.146Z</time></trkpt><trkpt lat="45.1236606" lon="12.251534"><ele>-1.0</ele><time>2026-05-03T09:06:23.148Z</time></trkpt><trkpt lat="45.1235586" lon="12.2514589"><ele>-1.0</ele><time>2026-05-03T09:06:25.141Z</time></trkpt><trkpt lat="45.1234536" lon="12.2513878"><ele>-1.25</ele><time>2026-05-03T09:06:27.146Z</time></trkpt><trkpt lat="45.1233444" lon="12.2513242"><ele>-1.5</ele><time>2026-05-03T09:06:29.145Z</time></trkpt><trkpt lat="45.1232313" lon="12.2512618"><ele>-1.75</ele><time>2026-05-03T09:06:31.149Z</time></trkpt><trkpt lat="45.1231134" lon="12.2512041"><ele>-2.0</ele><time>2026-05-03T09:06:33.146Z</time></trkpt><trkpt lat="45.1229988" lon="12.2511524"><ele>-1.5</ele><time>2026-05-03T09:06:35.141Z</time></trkpt><trkpt lat="45.122882" lon="12.2511032"><ele>-1.0</ele><time>2026-05-03T09:06:37.15Z</time></trkpt><trkpt lat="45.1227681" lon="12.251054"><ele>-0.5</ele><time>2026-05-03T09:06:39.146Z</time></trkpt><trkpt lat="45.1226573" lon="12.2510033"><ele>0.0</ele><time>2026-05-03T09:06:41.147Z</time></trkpt><trkpt lat="45.1225467" lon="12.2509579"><ele>0.0</ele><time>2026-05-03T09:06:43.149Z</time></trkpt><trkpt lat="45.1224413" lon="12.2509123"><ele>0.0</ele><time>2026-05-03T09:06:45.142Z</time></trkpt><trkpt lat="45.12234" lon="12.2508708"><ele>0.0</ele><time>2026-05-03T09:06:47.146Z</time></trkpt><trkpt lat="45.1222427" lon="12.2508298"><ele>0.0</ele><time>2026-05-03T09:06:49.146Z</time></trkpt><trkpt lat="45.1221454" lon="12.2507966"><ele>0.0</ele><time>2026-05-03T09:06:51.143Z</time></trkpt><trkpt lat="45.122042" lon="12.2507677"><ele>-0.5</ele><time>2026-05-03T09:06:53.148Z</time></trkpt><trkpt lat="45.1219367" lon="12.250732"><ele>-1.0</ele><time>2026-05-03T09:06:55.147Z</time></trkpt><trkpt lat="45.1218256" lon="12.2506937"><ele>-1.5</ele><time>2026-05-03T09:06:57.148Z</time></trkpt><trkpt lat="45.1217097" lon="12.2506616"><ele>-2.0</ele><time>2026-05-03T09:06:59.141Z</time></trkpt><trkpt lat="45.1215996" lon="12.2506189"><ele>-2.0</ele><time>2026-05-03T09:07:01.144Z</time></trkpt><trkpt lat="45.1214887" lon="12.2505807"><ele>-2.0</ele><time>2026-05-03T09:07:03.149Z</time></trkpt><trkpt lat="45.1213794" lon="12.2505425"><ele>-2.0</ele><time>2026-05-03T09:07:05.148Z</time></trkpt><trkpt lat="45.1212686" lon="12.2505054"><ele>-2.0</ele><time>2026-05-03T09:07:07.147Z</time></trkpt><trkpt lat="45.1211543" lon="12.2504654"><ele>-2.0</ele><time>2026-05-03T09:07:09.147Z</time></trkpt><trkpt lat="45.1210425" lon="12.2504191"><ele>-2.0</ele><time>2026-05-03T09:07:11.149Z</time></trkpt><trkpt lat="45.1209344" lon="12.2503667"><ele>-2.0</ele><time>2026-05-03T09:07:13.15Z</time></trkpt><trkpt lat="45.1208282" lon="12.250318"><ele>-2.0</ele><time>2026-05-03T09:07:15.145Z</time></trkpt><trkpt lat="45.1207205" lon="12.2502721"><ele>-1.75</ele><time>2026-05-03T09:07:17.144Z</time></trkpt><trkpt lat="45.1206116" lon="12.2502276"><ele>-1.5</ele><time>2026-05-03T09:07:19.146Z</time></trkpt><trkpt lat="45.1205021" lon="12.25018"><ele>-1.25</ele><time>2026-05-03T09:07:21.146Z</time></trkpt><trkpt lat="45.1203962" lon="12.25013"><ele>-1.0</ele><time>2026-05-03T09:07:23.148Z</time></trkpt><trkpt lat="45.1202835" lon="12.2500852"><ele>-1.0</ele><time>2026-05-03T09:07:25.146Z</time></trkpt><trkpt lat="45.120172" lon="12.250037"><ele>-1.0</ele><time>2026-05-03T09:07:27.142Z</time></trkpt><trkpt lat="45.1200649" lon="12.2499872"><ele>-1.0</ele><time>2026-05-03T09:07:29.145Z</time></trkpt><trkpt lat="45.1199556" lon="12.2499381"><ele>-1.0</ele><time>2026-05-03T09:07:31.143Z</time></trkpt><trkpt lat="45.1198518" lon="12.2498758"><ele>-1.0</ele><time>2026-05-03T09:07:33.148Z</time></trkpt><trkpt lat="45.1197543" lon="12.2497959"><ele>-1.0</ele><time>2026-05-03T09:07:35.144Z</time></trkpt><trkpt lat="45.1196579" lon="12.2497151"><ele>-1.0</ele><time>2026-05-03T09:07:37.147Z</time></trkpt><trkpt lat="45.1195559" lon="12.2496339"><ele>-1.0</ele><time>2026-05-03T09:07:39.146Z</time></trkpt><trkpt lat="45.1194546" lon="12.2495467"><ele>-1.0</ele><time>2026-05-03T09:07:41.139Z</time></trkpt><trkpt lat="45.1193539" lon="12.2494621"><ele>-1.0</ele><time>2026-05-03T09:07:43.145Z</time></trkpt><trkpt lat="45.119247" lon="12.2493789"><ele>-1.0</ele><time>2026-05-03T09:07:45.143Z</time></trkpt><trkpt lat="45.1191421" lon="12.2492921"><ele>-1.0</ele><time>2026-05-03T09:07:47.144Z</time></trkpt><trkpt lat="45.1190373" lon="12.2492067"><ele>-1.25</ele><time>2026-05-03T09:07:49.148Z</time></trkpt><trkpt lat="45.1189341" lon="12.2491252"><ele>-1.5</ele><time>2026-05-03T09:07:51.142Z</time></trkpt><trkpt lat="45.1188286" lon="12.2490522"><ele>-1.75</ele><time>2026-05-03T09:07:53.146Z</time></trkpt><trkpt lat="45.1187207" lon="12.2489731"><ele>-2.0</ele><time>2026-05-03T09:07:55.143Z</time></trkpt><trkpt lat="45.1186143" lon="12.2488956"><ele>-2.0</ele><time>2026-05-03T09:07:57.143Z</time></trkpt><trkpt lat="45.1185092" lon="12.248818"><ele>-2.0</ele><time>2026-05-03T09:07:59.145Z</time></trkpt><trkpt lat="45.1183997" lon="12.248747"><ele>-2.0</ele><time>2026-05-03T09:08:01.144Z</time></trkpt><trkpt lat="45.1182891" lon="12.2486771"><ele>-2.0</ele><time>2026-05-03T09:08:03.146Z</time></trkpt><trkpt lat="45.1181806" lon="12.2486105"><ele>-1.5</ele><time>2026-05-03T09:08:05.145Z</time></trkpt><trkpt lat="45.1180669" lon="12.2485446"><ele>-1.0</ele><time>2026-05-03T09:08:07.152Z</time></trkpt><trkpt lat="45.1179554" lon="12.2484801"><ele>-0.5</ele><time>2026-05-03T09:08:09.148Z</time></trkpt><trkpt lat="45.1178413" lon="12.2484148"><ele>0.0</ele><time>2026-05-03T09:08:11.145Z</time></trkpt><trkpt lat="45.1177268" lon="12.2483509"><ele>0.0</ele><time>2026-05-03T09:08:13.147Z</time></trkpt><trkpt lat="45.1176129" lon="12.2482889"><ele>0.0</ele><time>2026-05-03T09:08:15.145Z</time></trkpt><trkpt lat="45.117502" lon="12.2482192"><ele>0.0</ele><time>2026-05-03T09:08:17.144Z</time></trkpt><trkpt lat="45.1173945" lon="12.2481463"><ele>0.0</ele><time>2026-05-03T09:08:19.143Z</time></trkpt><trkpt lat="45.1172781" lon="12.2480826"><ele>-0.25</ele><time>2026-05-03T09:08:21.147Z</time></trkpt><trkpt lat="45.1171677" lon="12.24802"><ele>-0.5</ele><time>2026-05-03T09:08:23.145Z</time></trkpt><trkpt lat="45.117055" lon="12.2479591"><ele>-0.75</ele><time>2026-05-03T09:08:25.143Z</time></trkpt><trkpt lat="45.1169431" lon="12.247906"><ele>-1.0</ele><time>2026-05-03T09:08:27.144Z</time></trkpt><trkpt lat="45.1168305" lon="12.2478544"><ele>-1.0</ele><time>2026-05-03T09:08:29.146Z</time></trkpt><trkpt lat="45.1167197" lon="12.2478056"><ele>-1.0</ele><time>2026-05-03T09:08:31.143Z</time></trkpt><trkpt lat="45.1166087" lon="12.2477562"><ele>-1.0</ele><time>2026-05-03T09:08:33.147Z</time></trkpt><trkpt lat="45.1165016" lon="12.2477042"><ele>-1.0</ele><time>2026-05-03T09:08:35.142Z</time></trkpt><trkpt lat="45.1163952" lon="12.2476516"><ele>-1.0</ele><time>2026-05-03T09:08:37.143Z</time></trkpt><trkpt lat="45.1162855" lon="12.2475985"><ele>-1.0</ele><time>2026-05-03T09:08:39.146Z</time></trkpt><trkpt lat="45.1161727" lon="12.2475536"><ele>-1.0</ele><time>2026-05-03T09:08:41.146Z</time></trkpt><trkpt lat="45.116061" lon="12.2475063"><ele>-1.0</ele><time>2026-05-03T09:08:43.151Z</time></trkpt><trkpt lat="45.1159466" lon="12.2474605"><ele>-1.0</ele><time>2026-05-03T09:08:45.146Z</time></trkpt><trkpt lat="45.1158292" lon="12.247412"><ele>-1.0</ele><time>2026-05-03T09:08:47.143Z</time></trkpt><trkpt lat="45.115713" lon="12.2473639"><ele>-1.0</ele><time>2026-05-03T09:08:49.145Z</time></trkpt><trkpt lat="45.1156001" lon="12.2473119"><ele>-1.0</ele><time>2026-05-03T09:08:51.147Z</time></trkpt><trkpt lat="45.1154867" lon="12.2472584"><ele>-1.5</ele><time>2026-05-03T09:08:53.153Z</time></trkpt><trkpt lat="45.1153728" lon="12.2472079"><ele>-2.0</ele><time>2026-05-03T09:08:55.145Z</time></trkpt><trkpt lat="45.1152605" lon="12.2471587"><ele>-2.5</ele><time>2026-05-03T09:08:57.142Z</time></trkpt><trkpt lat="45.1151457" lon="12.2471095"><ele>-3.0</ele><time>2026-05-03T09:08:59.147Z</time></trkpt><trkpt lat="45.1150323" lon="12.2470594"><ele>-3.0</ele><time>2026-05-03T09:09:01.14Z</time></trkpt><trkpt lat="45.1149204" lon="12.2470109"><ele>-3.0</ele><time>2026-05-03T09:09:03.149Z</time></trkpt><trkpt lat="45.1148065" lon="12.2469669"><ele>-3.0</ele><time>2026-05-03T09:09:05.145Z</time></trkpt><trkpt lat="45.1146916" lon="12.2469145"><ele>-3.0</ele><time>2026-05-03T09:09:07.144Z</time></trkpt><trkpt lat="45.1145778" lon="12.2468587"><ele>-3.25</ele><time>2026-05-03T09:09:09.15Z</time></trkpt><trkpt lat="45.1144615" lon="12.2468019"><ele>-3.5</ele><time>2026-05-03T09:09:11.143Z</time></trkpt><trkpt lat="45.1143477" lon="12.2467444"><ele>-3.75</ele><time>2026-05-03T09:09:13.149Z</time></trkpt><trkpt lat="45.1142343" lon="12.2466891"><ele>-4.0</ele><time>2026-05-03T09:09:15.144Z</time></trkpt><trkpt lat="45.11412" lon="12.2466389"><ele>-3.5</ele><time>2026-05-03T09:09:17.145Z</time></trkpt><trkpt lat="45.1140045" lon="12.2465938"><ele>-3.0</ele><time>2026-05-03T09:09:19.145Z</time></trkpt><trkpt lat="45.1138889" lon="12.2465431"><ele>-2.5</ele><time>2026-05-03T09:09:21.144Z</time></trkpt><trkpt lat="45.1137731" lon="12.2464903"><ele>-2.0</ele><time>2026-05-03T09:09:23.153Z</time></trkpt><trkpt lat="45.1136612" lon="12.2464387"><ele>-2.0</ele><time>2026-05-03T09:09:25.145Z</time></trkpt><trkpt lat="45.1135457" lon="12.2463859"><ele>-2.0</ele><time>2026-05-03T09:09:27.145Z</time></trkpt><trkpt lat="45.1134253" lon="12.2463352"><ele>-2.0</ele><time>2026-05-03T09:09:29.146Z</time></trkpt><trkpt lat="45.1133645" lon="12.2463091"><ele>-2.0</ele><time>2026-05-03T09:09:30.151Z</time></trkpt><trkpt lat="45.1132473" lon="12.2462569"><ele>-2.0</ele><time>2026-05-03T09:09:32.147Z</time></trkpt><trkpt lat="45.11313" lon="12.2462066"><ele>-1.75</ele><time>2026-05-03T09:09:34.146Z</time></trkpt><trkpt lat="45.1130124" lon="12.2461617"><ele>-1.5</ele><time>2026-05-03T09:09:36.143Z</time></trkpt><trkpt lat="45.1128943" lon="12.246117"><ele>-1.25</ele><time>2026-05-03T09:09:38.147Z</time></trkpt><trkpt lat="45.112779" lon="12.2460681"><ele>-1.0</ele><time>2026-05-03T09:09:40.146Z</time></trkpt><trkpt lat="45.1126637" lon="12.2460141"><ele>-1.0</ele><time>2026-05-03T09:09:42.14Z</time></trkpt><trkpt lat="45.1125455" lon="12.2459653"><ele>-1.0</ele><time>2026-05-03T09:09:44.141Z</time></trkpt><trkpt lat="45.1124323" lon="12.2459113"><ele>-1.0</ele><time>2026-05-03T09:09:46.148Z</time></trkpt><trkpt lat="45.1123211" lon="12.2458542"><ele>-1.0</ele><time>2026-05-03T09:09:48.139Z</time></trkpt><trkpt lat="45.1122057" lon="12.2457996"><ele>-1.25</ele><time>2026-05-03T09:09:50.144Z</time></trkpt><trkpt lat="45.1120915" lon="12.2457522"><ele>-1.5</ele><time>2026-05-03T09:09:52.15Z</time></trkpt><trkpt lat="45.1119819" lon="12.2457045"><ele>-1.75</ele><time>2026-05-03T09:09:54.147Z</time></trkpt><trkpt lat="45.111869" lon="12.245658"><ele>-2.0</ele><time>2026-05-03T09:09:56.144Z</time></trkpt><trkpt lat="45.1117496" lon="12.2456175"><ele>-2.0</ele><time>2026-05-03T09:09:58.142Z</time></trkpt><trkpt lat="45.111629" lon="12.2455926"><ele>-2.0</ele><time>2026-05-03T09:10:00.148Z</time></trkpt><trkpt lat="45.1115091" lon="12.2455788"><ele>-2.0</ele><time>2026-05-03T09:10:02.143Z</time></trkpt><trkpt lat="45.1113938" lon="12.2455692"><ele>-2.0</ele><time>2026-05-03T09:10:04.145Z</time></trkpt><trkpt lat="45.1112809" lon="12.2455661"><ele>-1.75</ele><time>2026-05-03T09:10:06.143Z</time></trkpt><trkpt lat="45.1111635" lon="12.2455672"><ele>-1.5</ele><time>2026-05-03T09:10:08.15Z</time></trkpt><trkpt lat="45.1110436" lon="12.245573"><ele>-1.25</ele><time>2026-05-03T09:10:10.149Z</time></trkpt><trkpt lat="45.1109209" lon="12.245577"><ele>-1.0</ele><time>2026-05-03T09:10:12.143Z</time></trkpt><trkpt lat="45.1107998" lon="12.2455773"><ele>-0.5</ele><time>2026-05-03T09:10:14.144Z</time></trkpt><trkpt lat="45.1106782" lon="12.2455855"><ele>0.0</ele><time>2026-05-03T09:10:16.142Z</time></trkpt><trkpt lat="45.1105579" lon="12.2455931"><ele>0.5</ele><time>2026-05-03T09:10:18.14Z</time></trkpt><trkpt lat="45.110434" lon="12.2455941"><ele>1.0</ele><time>2026-05-03T09:10:20.147Z</time></trkpt><trkpt lat="45.1103183" lon="12.2455801"><ele>1.0</ele><time>2026-05-03T09:10:22.144Z</time></trkpt><trkpt lat="45.1102113" lon="12.2455701"><ele>1.0</ele><time>2026-05-03T09:10:24.145Z</time></trkpt><trkpt lat="45.1101076" lon="12.2455841"><ele>1.0</ele><time>2026-05-03T09:10:26.143Z</time></trkpt><trkpt lat="45.1100127" lon="12.245609"><ele>1.0</ele><time>2026-05-03T09:10:28.147Z</time></trkpt><trkpt lat="45.1099257" lon="12.2456216"><ele>1.0</ele><time>2026-05-03T09:10:30.141Z</time></trkpt><trkpt lat="45.1098466" lon="12.2456254"><ele>1.1666666666666665</ele><time>2026-05-03T09:10:32.142Z</time></trkpt><trkpt lat="45.1097737" lon="12.2456381"><ele>1.3333333333333333</ele><time>2026-05-03T09:10:34.141Z</time></trkpt><trkpt lat="45.1096989" lon="12.245648"><ele>1.5</ele><time>2026-05-03T09:10:36.144Z</time></trkpt><trkpt lat="45.1096204" lon="12.2456555"><ele>1.6666666666666665</ele><time>2026-05-03T09:10:38.14Z</time></trkpt><trkpt lat="45.1095384" lon="12.2456604"><ele>1.8333333333333333</ele><time>2026-05-03T09:10:40.143Z</time></trkpt><trkpt lat="45.1094581" lon="12.2456531"><ele>2.0</ele><time>2026-05-03T09:10:42.138Z</time></trkpt><trkpt lat="45.1093863" lon="12.2456501"><ele>2.0</ele><time>2026-05-03T09:10:44.143Z</time></trkpt><trkpt lat="45.1093202" lon="12.2456624"><ele>1.9999999999999998</ele><time>2026-05-03T09:10:46.138Z</time></trkpt><trkpt lat="45.1092579" lon="12.2456787"><ele>2.0</ele><time>2026-05-03T09:10:48.145Z</time></trkpt><trkpt lat="45.1091736" lon="12.245701"><ele>2.0</ele><time>2026-05-03T09:10:51.145Z</time></trkpt><trkpt lat="45.1091081" lon="12.245727"><ele>1.9999999999999998</ele><time>2026-05-03T09:10:55.146Z</time></trkpt><trkpt lat="45.1090782" lon="12.2458359"><ele>2.0</ele><time>2026-05-03T09:11:03.154Z</time></trkpt><trkpt lat="45.1090942" lon="12.2459314"><ele>2.0</ele><time>2026-05-03T09:11:05.142Z</time></trkpt><trkpt lat="45.1091134" lon="12.2460317"><ele>1.9999999999999998</ele><time>2026-05-03T09:11:07.144Z</time></trkpt><trkpt lat="45.1091352" lon="12.2461269"><ele>2.0</ele><time>2026-05-03T09:11:09.146Z</time></trkpt><trkpt lat="45.1091568" lon="12.2462398"><ele>2.0</ele><time>2026-05-03T09:11:11.138Z</time></trkpt><trkpt lat="45.1091856" lon="12.2463515"><ele>2.0</ele><time>2026-05-03T09:11:13.146Z</time></trkpt><trkpt lat="45.1092178" lon="12.2464631"><ele>1.9999999999999998</ele><time>2026-05-03T09:11:15.147Z</time></trkpt><trkpt lat="45.1092524" lon="12.2465791"><ele>2.0</ele><time>2026-05-03T09:11:17.14Z</time></trkpt><trkpt lat="45.1092869" lon="12.2466932"><ele>1.8333333333333333</ele><time>2026-05-03T09:11:19.144Z</time></trkpt><trkpt lat="45.1093157" lon="12.2468001"><ele>1.6666666666666665</ele><time>2026-05-03T09:11:21.145Z</time></trkpt><trkpt lat="45.1093462" lon="12.2469016"><ele>1.5</ele><time>2026-05-03T09:11:23.139Z</time></trkpt><trkpt lat="45.1093739" lon="12.2470109"><ele>1.3333333333333333</ele><time>2026-05-03T09:11:25.14Z</time></trkpt><trkpt lat="45.1093989" lon="12.2471112"><ele>1.1666666666666665</ele><time>2026-05-03T09:11:27.146Z</time></trkpt><trkpt lat="45.1094262" lon="12.2472097"><ele>1.0</ele><time>2026-05-03T09:11:29.145Z</time></trkpt><trkpt lat="45.1094517" lon="12.247318"><ele>0.8333333333333333</ele><time>2026-05-03T09:11:31.145Z</time></trkpt><trkpt lat="45.1094789" lon="12.2474327"><ele>0.6666666666666666</ele><time>2026-05-03T09:11:33.155Z</time></trkpt><trkpt lat="45.1095034" lon="12.2475507"><ele>0.5</ele><time>2026-05-03T09:11:35.144Z</time></trkpt><trkpt lat="45.1095315" lon="12.2476683"><ele>0.3333333333333333</ele><time>2026-05-03T09:11:37.147Z</time></trkpt><trkpt lat="45.1095576" lon="12.2477905"><ele>0.16666666666666666</ele><time>2026-05-03T09:11:39.145Z</time></trkpt><trkpt lat="45.1095852" lon="12.2479166"><ele>0.0</ele><time>2026-05-03T09:11:41.143Z</time></trkpt><trkpt lat="45.1096155" lon="12.2480431"><ele>-0.2</ele><time>2026-05-03T09:11:43.155Z</time></trkpt><trkpt lat="45.1096473" lon="12.2481693"><ele>-0.4</ele><time>2026-05-03T09:11:45.145Z</time></trkpt><trkpt lat="45.1096758" lon="12.2482974"><ele>-0.6000000000000001</ele><time>2026-05-03T09:11:47.139Z</time></trkpt><trkpt lat="45.1097015" lon="12.2484216"><ele>-0.8</ele><time>2026-05-03T09:11:49.141Z</time></trkpt><trkpt lat="45.1097312" lon="12.2485437"><ele>-1.0</ele><time>2026-05-03T09:11:51.143Z</time></trkpt><trkpt lat="45.1097564" lon="12.248671"><ele>-0.9999999999999999</ele><time>2026-05-03T09:11:53.149Z</time></trkpt><trkpt lat="45.1097817" lon="12.2487921"><ele>-1.0</ele><time>2026-05-03T09:11:55.143Z</time></trkpt><trkpt lat="45.1098065" lon="12.2489157"><ele>-1.0</ele><time>2026-05-03T09:11:57.141Z</time></trkpt><trkpt lat="45.109832" lon="12.2490311"><ele>-1.0</ele><time>2026-05-03T09:11:59.141Z</time></trkpt><trkpt lat="45.1098613" lon="12.2491488"><ele>-0.9999999999999999</ele><time>2026-05-03T09:12:01.14Z</time></trkpt><trkpt lat="45.1098896" lon="12.2492555"><ele>-1.0</ele><time>2026-05-03T09:12:03.145Z</time></trkpt><trkpt lat="45.1099193" lon="12.2493613"><ele>-0.9999999999999999</ele><time>2026-05-03T09:12:05.147Z</time></trkpt><trkpt lat="45.1099486" lon="12.2494625"><ele>-1.0</ele><time>2026-05-03T09:12:07.147Z</time></trkpt><trkpt lat="45.1099767" lon="12.2495594"><ele>-1.0</ele><time>2026-05-03T09:12:09.139Z</time></trkpt><trkpt lat="45.1100023" lon="12.2496633"><ele>-1.0</ele><time>2026-05-03T09:12:11.146Z</time></trkpt><trkpt lat="45.1100333" lon="12.2497715"><ele>-0.9999999999999999</ele><time>2026-05-03T09:12:13.139Z</time></trkpt><trkpt lat="45.1100712" lon="12.249885"><ele>-1.0</ele><time>2026-05-03T09:12:15.147Z</time></trkpt><trkpt lat="45.1101072" lon="12.2499958"><ele>-0.9999999999999999</ele><time>2026-05-03T09:12:17.137Z</time></trkpt><trkpt lat="45.1101421" lon="12.2501048"><ele>-1.0</ele><time>2026-05-03T09:12:19.143Z</time></trkpt><trkpt lat="45.1101773" lon="12.2502052"><ele>-1.0</ele><time>2026-05-03T09:12:21.144Z</time></trkpt><trkpt lat="45.1102179" lon="12.2503107"><ele>-1.0</ele><time>2026-05-03T09:12:23.149Z</time></trkpt><trkpt lat="45.1102644" lon="12.2504183"><ele>-0.9999999999999999</ele><time>2026-05-03T09:12:25.145Z</time></trkpt><trkpt lat="45.110309" lon="12.2505193"><ele>-1.0</ele><time>2026-05-03T09:12:27.14Z</time></trkpt><trkpt lat="45.1103517" lon="12.2506229"><ele>-1.3333333333333333</ele><time>2026-05-03T09:12:29.141Z</time></trkpt><trkpt lat="45.1103932" lon="12.2507195"><ele>-1.6666666666666665</ele><time>2026-05-03T09:12:31.141Z</time></trkpt><trkpt lat="45.110431" lon="12.25081"><ele>-2.0</ele><time>2026-05-03T09:12:33.142Z</time></trkpt><trkpt lat="45.1104738" lon="12.250899"><ele>-2.3333333333333335</ele><time>2026-05-03T09:12:35.14Z</time></trkpt><trkpt lat="45.1105115" lon="12.2509852"><ele>-2.6666666666666665</ele><time>2026-05-03T09:12:37.137Z</time></trkpt><trkpt lat="45.1105509" lon="12.2510932"><ele>-3.0</ele><time>2026-05-03T09:12:40.15Z</time></trkpt><trkpt lat="45.1105893" lon="12.2511779"><ele>-2.9999999999999996</ele><time>2026-05-03T09:12:43.15Z</time></trkpt><trkpt lat="45.110637" lon="12.2512701"><ele>-3.0</ele><time>2026-05-03T09:12:46.146Z</time></trkpt><trkpt lat="45.1106634" lon="12.2513642"><ele>-3.0</ele><time>2026-05-03T09:12:50.136Z</time></trkpt><trkpt lat="45.1106111" lon="12.2514173"><ele>-3.0</ele><time>2026-05-03T09:12:55.14Z</time></trkpt><trkpt lat="45.1105516" lon="12.2514544"><ele>-3.0</ele><time>2026-05-03T09:12:57.138Z</time></trkpt><trkpt lat="45.1104855" lon="12.2514949"><ele>-2.9999999999999996</ele><time>2026-05-03T09:12:59.145Z</time></trkpt><trkpt lat="45.1104159" lon="12.2515386"><ele>-3.0</ele><time>2026-05-03T09:13:01.145Z</time></trkpt><trkpt lat="45.1103469" lon="12.2515824"><ele>-3.1666666666666665</ele><time>2026-05-03T09:13:03.149Z</time></trkpt><trkpt lat="45.1102756" lon="12.2516288"><ele>-3.333333333333333</ele><time>2026-05-03T09:13:05.143Z</time></trkpt><trkpt lat="45.1102019" lon="12.251674"><ele>-3.5</ele><time>2026-05-03T09:13:07.145Z</time></trkpt><trkpt lat="45.1101313" lon="12.2517193"><ele>-3.6666666666666665</ele><time>2026-05-03T09:13:09.149Z</time></trkpt><trkpt lat="45.1100597" lon="12.2517677"><ele>-3.833333333333333</ele><time>2026-05-03T09:13:11.143Z</time></trkpt><trkpt lat="45.1099859" lon="12.2518099"><ele>-4.0</ele><time>2026-05-03T09:13:13.149Z</time></trkpt><trkpt lat="45.1099148" lon="12.2518507"><ele>-3.4999999999999996</ele><time>2026-05-03T09:13:15.143Z</time></trkpt><trkpt lat="45.1098457" lon="12.2518956"><ele>-3.0</ele><time>2026-05-03T09:13:17.143Z</time></trkpt><trkpt lat="45.1097745" lon="12.2519389"><ele>-2.5</ele><time>2026-05-03T09:13:19.144Z</time></trkpt><trkpt lat="45.1096993" lon="12.2519795"><ele>-2.0</ele><time>2026-05-03T09:13:21.139Z</time></trkpt><trkpt lat="45.1096243" lon="12.2520304"><ele>-1.5</ele><time>2026-05-03T09:13:23.149Z</time></trkpt><trkpt lat="45.1095474" lon="12.2520756"><ele>-1.0</ele><time>2026-05-03T09:13:25.139Z</time></trkpt><trkpt lat="45.1094714" lon="12.2521207"><ele>-0.9999999999999999</ele><time>2026-05-03T09:13:27.137Z</time></trkpt><trkpt lat="45.1093996" lon="12.252166"><ele>-1.0</ele><time>2026-05-03T09:13:29.144Z</time></trkpt><trkpt lat="45.109332" lon="12.2522096"><ele>-1.0</ele><time>2026-05-03T09:13:31.142Z</time></trkpt><trkpt lat="45.1092563" lon="12.2521411"><ele>-1.0</ele><time>2026-05-03T09:13:34.145Z</time></trkpt><trkpt lat="45.1092387" lon="12.2520152"><ele>-0.9999999999999999</ele><time>2026-05-03T09:13:36.143Z</time></trkpt><trkpt lat="45.1092158" lon="12.2518971"><ele>-1.0</ele><time>2026-05-03T09:13:38.146Z</time></trkpt><trkpt lat="45.109182" lon="12.2517838"><ele>-0.9999999999999999</ele><time>2026-05-03T09:13:40.146Z</time></trkpt><trkpt lat="45.1091476" lon="12.2516659"><ele>-1.0</ele><time>2026-05-03T09:13:42.143Z</time></trkpt><trkpt lat="45.1091149" lon="12.2515555"><ele>-1.0</ele><time>2026-05-03T09:13:44.141Z</time></trkpt><trkpt lat="45.1090794" lon="12.2514562"><ele>-1.0</ele><time>2026-05-03T09:13:46.147Z</time></trkpt><trkpt lat="45.1090437" lon="12.2513573"><ele>-0.9999999999999999</ele><time>2026-05-03T09:13:48.144Z</time></trkpt><trkpt lat="45.1090138" lon="12.2512598"><ele>-1.0</ele><time>2026-05-03T09:13:50.141Z</time></trkpt><trkpt lat="45.1089824" lon="12.251177"><ele>-1.0</ele><time>2026-05-03T09:13:52.142Z</time></trkpt><trkpt lat="45.1089714" lon="12.251088"><ele>-1.0</ele><time>2026-05-03T09:13:55.141Z</time></trkpt><trkpt lat="45.1090431" lon="12.2511368"><ele>-1.0</ele><time>2026-05-03T09:13:59.143Z</time></trkpt><trkpt lat="45.1090955" lon="12.2512486"><ele>-1.0</ele><time>2026-05-03T09:14:01.148Z</time></trkpt><trkpt lat="45.1091513" lon="12.2514045"><ele>-1.0</ele><time>2026-05-03T09:14:03.14Z</time></trkpt><trkpt lat="45.109198" lon="12.251567"><ele>-0.9999999999999999</ele><time>2026-05-03T09:14:05.149Z</time></trkpt><trkpt lat="45.1092415" lon="12.2517027"><ele>-1.0</ele><time>2026-05-03T09:14:07.147Z</time></trkpt><trkpt lat="45.1092845" lon="12.2518143"><ele>-1.0</ele><time>2026-05-03T09:14:09.15Z</time></trkpt><trkpt lat="45.1093188" lon="12.2519183"><ele>-1.0</ele><time>2026-05-03T09:14:11.143Z</time></trkpt><trkpt lat="45.1093569" lon="12.2520134"><ele>-0.9999999999999999</ele><time>2026-05-03T09:14:13.138Z</time></trkpt><trkpt lat="45.109383" lon="12.2521084"><ele>-1.0</ele><time>2026-05-03T09:14:15.136Z</time></trkpt><trkpt lat="45.1094033" lon="12.2522079"><ele>-1.0</ele><time>2026-05-03T09:14:17.138Z</time></trkpt><trkpt lat="45.1094306" lon="12.2523138"><ele>-0.9999999999999999</ele><time>2026-05-03T09:14:19.138Z</time></trkpt><trkpt lat="45.1094455" lon="12.2524255"><ele>-1.0</ele><time>2026-05-03T09:14:21.14Z</time></trkpt><trkpt lat="45.1094603" lon="12.2525146"><ele>-1.0</ele><time>2026-05-03T09:14:23.141Z</time></trkpt><trkpt lat="45.1094711" lon="12.2526162"><ele>-0.9999999999999999</ele><time>2026-05-03T09:14:26.144Z</time></trkpt><trkpt lat="45.1094793" lon="12.2527106"><ele>-1.0</ele><time>2026-05-03T09:14:29.14Z</time></trkpt><trkpt lat="45.1094815" lon="12.2528157"><ele>-1.0</ele><time>2026-05-03T09:14:32.138Z</time></trkpt><trkpt lat="45.1094961" lon="12.2529397"><ele>-0.9999999999999999</ele><time>2026-05-03T09:14:35.141Z</time></trkpt><trkpt lat="45.109528" lon="12.2530225"><ele>-1.0</ele><time>2026-05-03T09:14:37.144Z</time></trkpt><trkpt lat="45.1095659" lon="12.253115"><ele>-1.0</ele><time>2026-05-03T09:14:39.138Z</time></trkpt><trkpt lat="45.1096028" lon="12.253227"><ele>-1.0</ele><time>2026-05-03T09:14:41.145Z</time></trkpt><trkpt lat="45.1096438" lon="12.2533376"><ele>-0.9999999999999999</ele><time>2026-05-03T09:14:43.146Z</time></trkpt><trkpt lat="45.1096899" lon="12.2534546"><ele>-1.0</ele><time>2026-05-03T09:14:45.14Z</time></trkpt><trkpt lat="45.1097369" lon="12.2535773"><ele>-1.0</ele><time>2026-05-03T09:14:47.143Z</time></trkpt><trkpt lat="45.1097848" lon="12.2537059"><ele>-1.0</ele><time>2026-05-03T09:14:49.147Z</time></trkpt><trkpt lat="45.1098316" lon="12.2538364"><ele>-1.0</ele><time>2026-05-03T09:14:51.145Z</time></trkpt><trkpt lat="45.1098748" lon="12.2539679"><ele>-1.0</ele><time>2026-05-03T09:14:53.148Z</time></trkpt><trkpt lat="45.1099107" lon="12.2540945"><ele>-1.0</ele><time>2026-05-03T09:14:55.145Z</time></trkpt><trkpt lat="45.1099486" lon="12.2542224"><ele>-1.4</ele><time>2026-05-03T09:14:57.139Z</time></trkpt><trkpt lat="45.1099856" lon="12.2543506"><ele>-1.8</ele><time>2026-05-03T09:14:59.142Z</time></trkpt><trkpt lat="45.1100217" lon="12.2544768"><ele>-2.1999999999999997</ele><time>2026-05-03T09:15:01.142Z</time></trkpt><trkpt lat="45.1100467" lon="12.2546051"><ele>-2.6</ele><time>2026-05-03T09:15:03.147Z</time></trkpt><trkpt lat="45.1100661" lon="12.2547328"><ele>-3.0</ele><time>2026-05-03T09:15:05.141Z</time></trkpt><trkpt lat="45.1100877" lon="12.254856"><ele>-3.2</ele><time>2026-05-03T09:15:07.134Z</time></trkpt><trkpt lat="45.1101089" lon="12.2549819"><ele>-3.4</ele><time>2026-05-03T09:15:09.141Z</time></trkpt><trkpt lat="45.1101281" lon="12.2551122"><ele>-3.6000000000000005</ele><time>2026-05-03T09:15:11.143Z</time></trkpt><trkpt lat="45.1101461" lon="12.2552413"><ele>-3.8000000000000003</ele><time>2026-05-03T09:15:13.147Z</time></trkpt><trkpt lat="45.1101688" lon="12.2553653"><ele>-4.0</ele><time>2026-05-03T09:15:15.147Z</time></trkpt><trkpt lat="45.1101925" lon="12.2554917"><ele>-4.0</ele><time>2026-05-03T09:15:17.143Z</time></trkpt><trkpt lat="45.1102154" lon="12.2556155"><ele>-4.0</ele><time>2026-05-03T09:15:19.144Z</time></trkpt><trkpt lat="45.110248" lon="12.2557399"><ele>-4.0</ele><time>2026-05-03T09:15:21.144Z</time></trkpt><trkpt lat="45.1102881" lon="12.2558613"><ele>-4.0</ele><time>2026-05-03T09:15:23.143Z</time></trkpt><trkpt lat="45.1103253" lon="12.2559841"><ele>-4.0</ele><time>2026-05-03T09:15:25.141Z</time></trkpt><trkpt lat="45.1103638" lon="12.2560983"><ele>-4.0</ele><time>2026-05-03T09:15:27.146Z</time></trkpt><trkpt lat="45.1104107" lon="12.2562068"><ele>-4.0</ele><time>2026-05-03T09:15:29.144Z</time></trkpt><trkpt lat="45.1104523" lon="12.2563237"><ele>-4.0</ele><time>2026-05-03T09:15:31.141Z</time></trkpt><trkpt lat="45.1104829" lon="12.2564456"><ele>-4.0</ele><time>2026-05-03T09:15:33.144Z</time></trkpt><trkpt lat="45.110511" lon="12.2565675"><ele>-4.0</ele><time>2026-05-03T09:15:35.143Z</time></trkpt><trkpt lat="45.1105495" lon="12.2566798"><ele>-3.833333333333333</ele><time>2026-05-03T09:15:37.146Z</time></trkpt><trkpt lat="45.1105866" lon="12.2567924"><ele>-3.6666666666666665</ele><time>2026-05-03T09:15:39.139Z</time></trkpt><trkpt lat="45.1106251" lon="12.2569085"><ele>-3.5</ele><time>2026-05-03T09:15:41.142Z</time></trkpt><trkpt lat="45.110663" lon="12.2570223"><ele>-3.333333333333333</ele><time>2026-05-03T09:15:43.145Z</time></trkpt><trkpt lat="45.1106997" lon="12.2571332"><ele>-3.1666666666666665</ele><time>2026-05-03T09:15:45.142Z</time></trkpt><trkpt lat="45.1107359" lon="12.2572444"><ele>-3.0</ele><time>2026-05-03T09:15:47.143Z</time></trkpt><trkpt lat="45.1107723" lon="12.2573593"><ele>-2.8</ele><time>2026-05-03T09:15:49.144Z</time></trkpt><trkpt lat="45.1108117" lon="12.2574721"><ele>-2.5999999999999996</ele><time>2026-05-03T09:15:51.139Z</time></trkpt><trkpt lat="45.1108586" lon="12.2575928"><ele>-2.4000000000000004</ele><time>2026-05-03T09:15:53.142Z</time></trkpt><trkpt lat="45.1109042" lon="12.2577114"><ele>-2.2</ele><time>2026-05-03T09:15:55.142Z</time></trkpt><trkpt lat="45.1109447" lon="12.2578281"><ele>-2.0</ele><time>2026-05-03T09:15:57.145Z</time></trkpt><trkpt lat="45.1109869" lon="12.2579298"><ele>-1.9999999999999998</ele><time>2026-05-03T09:15:59.144Z</time></trkpt><trkpt lat="45.1110248" lon="12.2580357"><ele>-2.0</ele><time>2026-05-03T09:16:01.145Z</time></trkpt><trkpt lat="45.1110698" lon="12.2581339"><ele>-2.0</ele><time>2026-05-03T09:16:03.141Z</time></trkpt><trkpt lat="45.11111" lon="12.258248"><ele>-2.0</ele><time>2026-05-03T09:16:05.142Z</time></trkpt><trkpt lat="45.1111537" lon="12.258366"><ele>-1.9999999999999998</ele><time>2026-05-03T09:16:07.142Z</time></trkpt><trkpt lat="45.1112028" lon="12.2584855"><ele>-2.0</ele><time>2026-05-03T09:16:09.147Z</time></trkpt><trkpt lat="45.1112561" lon="12.2586076"><ele>-2.0</ele><time>2026-05-03T09:16:11.143Z</time></trkpt><trkpt lat="45.1113131" lon="12.2587313"><ele>-2.0</ele><time>2026-05-03T09:16:13.146Z</time></trkpt><trkpt lat="45.111373" lon="12.2588594"><ele>-2.0</ele><time>2026-05-03T09:16:15.138Z</time></trkpt><trkpt lat="45.1114336" lon="12.2589866"><ele>-2.0</ele><time>2026-05-03T09:16:17.141Z</time></trkpt><trkpt lat="45.1114933" lon="12.2591033"><ele>-2.0</ele><time>2026-05-03T09:16:19.144Z</time></trkpt><trkpt lat="45.1115557" lon="12.25922"><ele>-1.8</ele><time>2026-05-03T09:16:21.142Z</time></trkpt><trkpt lat="45.1116152" lon="12.2593403"><ele>-1.6</ele><time>2026-05-03T09:16:23.152Z</time></trkpt><trkpt lat="45.1116733" lon="12.259459"><ele>-1.4000000000000001</ele><time>2026-05-03T09:16:25.141Z</time></trkpt><trkpt lat="45.1117348" lon="12.2595796"><ele>-1.2000000000000002</ele><time>2026-05-03T09:16:27.146Z</time></trkpt><trkpt lat="45.1117945" lon="12.2597033"><ele>-1.0</ele><time>2026-05-03T09:16:29.146Z</time></trkpt><trkpt lat="45.1118552" lon="12.2598272"><ele>-1.0</ele><time>2026-05-03T09:16:31.148Z</time></trkpt><trkpt lat="45.1119146" lon="12.2599542"><ele>-1.0</ele><time>2026-05-03T09:16:33.147Z</time></trkpt><trkpt lat="45.1119755" lon="12.2600786"><ele>-1.0</ele><time>2026-05-03T09:16:35.145Z</time></trkpt><trkpt lat="45.1120437" lon="12.2602043"><ele>-1.0</ele><time>2026-05-03T09:16:37.143Z</time></trkpt><trkpt lat="45.1121091" lon="12.2603336"><ele>-1.0</ele><time>2026-05-03T09:16:39.144Z</time></trkpt><trkpt lat="45.1121733" lon="12.2604662"><ele>-1.0</ele><time>2026-05-03T09:16:41.14Z</time></trkpt><trkpt lat="45.1122381" lon="12.2605968"><ele>-1.0</ele><time>2026-05-03T09:16:43.146Z</time></trkpt><trkpt lat="45.1123044" lon="12.2607215"><ele>-1.0</ele><time>2026-05-03T09:16:45.145Z</time></trkpt><trkpt lat="45.1123675" lon="12.2608497"><ele>-1.0</ele><time>2026-05-03T09:16:47.146Z</time></trkpt><trkpt lat="45.1124339" lon="12.2609805"><ele>-1.0</ele><time>2026-05-03T09:16:49.142Z</time></trkpt><trkpt lat="45.1125003" lon="12.2611111"><ele>-0.4</ele><time>2026-05-03T09:16:51.142Z</time></trkpt><trkpt lat="45.1125651" lon="12.2612392"><ele>0.19999999999999996</ele><time>2026-05-03T09:16:53.144Z</time></trkpt><trkpt lat="45.1126309" lon="12.2613669"><ele>0.8000000000000002</ele><time>2026-05-03T09:16:55.142Z</time></trkpt><trkpt lat="45.1126948" lon="12.2614942"><ele>1.4000000000000001</ele><time>2026-05-03T09:16:57.144Z</time></trkpt><trkpt lat="45.1127607" lon="12.2616246"><ele>2.0</ele><time>2026-05-03T09:16:59.145Z</time></trkpt><trkpt lat="45.1128256" lon="12.2617543"><ele>2.0</ele><time>2026-05-03T09:17:01.143Z</time></trkpt><trkpt lat="45.1128903" lon="12.2618836"><ele>2.0</ele><time>2026-05-03T09:17:03.15Z</time></trkpt><trkpt lat="45.1129572" lon="12.2620135"><ele>2.0</ele><time>2026-05-03T09:17:05.146Z</time></trkpt><trkpt lat="45.1130256" lon="12.2621467"><ele>2.0</ele><time>2026-05-03T09:17:07.144Z</time></trkpt><trkpt lat="45.1130918" lon="12.2622823"><ele>1.75</ele><time>2026-05-03T09:17:09.144Z</time></trkpt><trkpt lat="45.1131586" lon="12.2624141"><ele>1.5</ele><time>2026-05-03T09:17:11.148Z</time></trkpt><trkpt lat="45.1132255" lon="12.2625449"><ele>1.25</ele><time>2026-05-03T09:17:13.139Z</time></trkpt><trkpt lat="45.1132927" lon="12.2626741"><ele>1.0</ele><time>2026-05-03T09:17:15.144Z</time></trkpt><trkpt lat="45.1133599" lon="12.262801"><ele>1.0</ele><time>2026-05-03T09:17:17.146Z</time></trkpt><trkpt lat="45.1134233" lon="12.2629307"><ele>1.0</ele><time>2026-05-03T09:17:19.141Z</time></trkpt><trkpt lat="45.1134857" lon="12.2630602"><ele>1.0</ele><time>2026-05-03T09:17:21.147Z</time></trkpt><trkpt lat="45.1135506" lon="12.2631894"><ele>1.0</ele><time>2026-05-03T09:17:23.145Z</time></trkpt><trkpt lat="45.1136164" lon="12.2633172"><ele>1.0</ele><time>2026-05-03T09:17:25.144Z</time></trkpt><trkpt lat="45.1136829" lon="12.2634453"><ele>0.8</ele><time>2026-05-03T09:17:27.144Z</time></trkpt><trkpt lat="45.1137442" lon="12.263577"><ele>0.6000000000000001</ele><time>2026-05-03T09:17:29.147Z</time></trkpt><trkpt lat="45.1138084" lon="12.2637072"><ele>0.4</ele><time>2026-05-03T09:17:31.141Z</time></trkpt><trkpt lat="45.1138726" lon="12.2638337"><ele>0.2</ele><time>2026-05-03T09:17:33.138Z</time></trkpt><trkpt lat="45.1139358" lon="12.2639609"><ele>0.0</ele><time>2026-05-03T09:17:35.145Z</time></trkpt><trkpt lat="45.1139991" lon="12.264087"><ele>-0.2</ele><time>2026-05-03T09:17:37.143Z</time></trkpt><trkpt lat="45.1140585" lon="12.2642133"><ele>-0.4</ele><time>2026-05-03T09:17:39.15Z</time></trkpt><trkpt lat="45.1141184" lon="12.264345"><ele>-0.6000000000000001</ele><time>2026-05-03T09:17:41.143Z</time></trkpt><trkpt lat="45.1141806" lon="12.264478"><ele>-0.8</ele><time>2026-05-03T09:17:43.151Z</time></trkpt><trkpt lat="45.1142383" lon="12.264612"><ele>-1.0</ele><time>2026-05-03T09:17:45.144Z</time></trkpt><trkpt lat="45.1142972" lon="12.2647453"><ele>-0.8</ele><time>2026-05-03T09:17:47.144Z</time></trkpt><trkpt lat="45.1143542" lon="12.2648787"><ele>-0.6000000000000001</ele><time>2026-05-03T09:17:49.143Z</time></trkpt><trkpt lat="45.11441" lon="12.2650124"><ele>-0.4</ele><time>2026-05-03T09:17:51.15Z</time></trkpt><trkpt lat="45.114458" lon="12.2651529"><ele>-0.2</ele><time>2026-05-03T09:17:53.152Z</time></trkpt><trkpt lat="45.1145066" lon="12.2652926"><ele>0.0</ele><time>2026-05-03T09:17:55.146Z</time></trkpt><trkpt lat="45.1145543" lon="12.2654325"><ele>0.0</ele><time>2026-05-03T09:17:57.146Z</time></trkpt><trkpt lat="45.1145992" lon="12.265576"><ele>0.0</ele><time>2026-05-03T09:17:59.144Z</time></trkpt><trkpt lat="45.1146461" lon="12.2657217"><ele>0.0</ele><time>2026-05-03T09:18:01.144Z</time></trkpt><trkpt lat="45.1146928" lon="12.2658604"><ele>0.0</ele><time>2026-05-03T09:18:03.142Z</time></trkpt><trkpt lat="45.114741" lon="12.2659985"><ele>0.0</ele><time>2026-05-03T09:18:05.141Z</time></trkpt><trkpt lat="45.1147822" lon="12.2661361"><ele>0.0</ele><time>2026-05-03T09:18:07.139Z</time></trkpt><trkpt lat="45.1148263" lon="12.2662687"><ele>0.0</ele><time>2026-05-03T09:18:09.144Z</time></trkpt><trkpt lat="45.1148698" lon="12.2664065"><ele>0.0</ele><time>2026-05-03T09:18:11.137Z</time></trkpt><trkpt lat="45.1149146" lon="12.2665424"><ele>0.0</ele><time>2026-05-03T09:18:13.14Z</time></trkpt><trkpt lat="45.1149629" lon="12.2666765"><ele>0.0</ele><time>2026-05-03T09:18:15.139Z</time></trkpt><trkpt lat="45.1150088" lon="12.2668085"><ele>0.0</ele><time>2026-05-03T09:18:17.148Z</time></trkpt><trkpt lat="45.1150494" lon="12.2669384"><ele>0.0</ele><time>2026-05-03T09:18:19.149Z</time></trkpt><trkpt lat="45.1150868" lon="12.2670664"><ele>0.0</ele><time>2026-05-03T09:18:21.146Z</time></trkpt><trkpt lat="45.1151259" lon="12.2671987"><ele>0.0</ele><time>2026-05-03T09:18:23.147Z</time></trkpt><trkpt lat="45.1151679" lon="12.267334"><ele>0.0</ele><time>2026-05-03T09:18:25.144Z</time></trkpt><trkpt lat="45.1152159" lon="12.2674674"><ele>0.0</ele><time>2026-05-03T09:18:27.147Z</time></trkpt><trkpt lat="45.1152656" lon="12.2676025"><ele>0.0</ele><time>2026-05-03T09:18:29.147Z</time></trkpt><trkpt lat="45.1153118" lon="12.2677363"><ele>0.0</ele><time>2026-05-03T09:18:31.15Z</time></trkpt><trkpt lat="45.1153621" lon="12.2678628"><ele>0.0</ele><time>2026-05-03T09:18:33.149Z</time></trkpt><trkpt lat="45.115407" lon="12.267973"><ele>0.0</ele><time>2026-05-03T09:18:35.147Z</time></trkpt><trkpt lat="45.1154499" lon="12.2680741"><ele>0.0</ele><time>2026-05-03T09:18:37.147Z</time></trkpt><trkpt lat="45.1155084" lon="12.2681896"><ele>0.0</ele><time>2026-05-03T09:18:39.146Z</time></trkpt><trkpt lat="45.1155692" lon="12.2683278"><ele>0.0</ele><time>2026-05-03T09:18:41.139Z</time></trkpt><trkpt lat="45.115627" lon="12.268459"><ele>0.0</ele><time>2026-05-03T09:18:43.142Z</time></trkpt><trkpt lat="45.1156818" lon="12.2685813"><ele>0.0</ele><time>2026-05-03T09:18:45.149Z</time></trkpt><trkpt lat="45.1157348" lon="12.2687031"><ele>-0.2</ele><time>2026-05-03T09:18:47.145Z</time></trkpt><trkpt lat="45.1157868" lon="12.2688232"><ele>-0.4</ele><time>2026-05-03T09:18:49.147Z</time></trkpt><trkpt lat="45.115843" lon="12.2689423"><ele>-0.6000000000000001</ele><time>2026-05-03T09:18:51.146Z</time></trkpt><trkpt lat="45.1159058" lon="12.2690595"><ele>-0.8</ele><time>2026-05-03T09:18:53.143Z</time></trkpt><trkpt lat="45.1159707" lon="12.2691836"><ele>-1.0</ele><time>2026-05-03T09:18:55.144Z</time></trkpt><trkpt lat="45.1160267" lon="12.2693015"><ele>-1.0</ele><time>2026-05-03T09:18:57.151Z</time></trkpt><trkpt lat="45.1160844" lon="12.269422"><ele>-1.0</ele><time>2026-05-03T09:18:59.146Z</time></trkpt><trkpt lat="45.116153" lon="12.2695377"><ele>-1.0</ele><time>2026-05-03T09:19:01.144Z</time></trkpt><trkpt lat="45.1162328" lon="12.2696484"><ele>-1.0</ele><time>2026-05-03T09:19:03.147Z</time></trkpt><trkpt lat="45.1163067" lon="12.2697611"><ele>-1.0</ele><time>2026-05-03T09:19:05.144Z</time></trkpt><trkpt lat="45.1163788" lon="12.2698729"><ele>-1.0</ele><time>2026-05-03T09:19:07.149Z</time></trkpt><trkpt lat="45.1164494" lon="12.2699896"><ele>-1.0</ele><time>2026-05-03T09:19:09.145Z</time></trkpt><trkpt lat="45.1165165" lon="12.2701038"><ele>-1.0</ele><time>2026-05-03T09:19:11.145Z</time></trkpt><trkpt lat="45.1165883" lon="12.2702166"><ele>-1.0</ele><time>2026-05-03T09:19:13.148Z</time></trkpt><trkpt lat="45.1166586" lon="12.270332"><ele>-1.0</ele><time>2026-05-03T09:19:15.144Z</time></trkpt><trkpt lat="45.11673" lon="12.2704501"><ele>-0.8</ele><time>2026-05-03T09:19:17.141Z</time></trkpt><trkpt lat="45.116804" lon="12.2705658"><ele>-0.6000000000000001</ele><time>2026-05-03T09:19:19.142Z</time></trkpt><trkpt lat="45.1168805" lon="12.2706782"><ele>-0.4</ele><time>2026-05-03T09:19:21.139Z</time></trkpt><trkpt lat="45.1169572" lon="12.2707921"><ele>-0.2</ele><time>2026-05-03T09:19:23.151Z</time></trkpt><trkpt lat="45.1170294" lon="12.2709054"><ele>0.0</ele><time>2026-05-03T09:19:25.144Z</time></trkpt><trkpt lat="45.1171006" lon="12.2710198"><ele>0.0</ele><time>2026-05-03T09:19:27.151Z</time></trkpt><trkpt lat="45.1171736" lon="12.2711346"><ele>0.0</ele><time>2026-05-03T09:19:29.146Z</time></trkpt><trkpt lat="45.1172451" lon="12.2712487"><ele>0.0</ele><time>2026-05-03T09:19:31.142Z</time></trkpt><trkpt lat="45.1173146" lon="12.2713611"><ele>0.0</ele><time>2026-05-03T09:19:33.141Z</time></trkpt><trkpt lat="45.1173852" lon="12.2714702"><ele>0.0</ele><time>2026-05-03T09:19:35.14Z</time></trkpt><trkpt lat="45.1174577" lon="12.271583"><ele>0.2</ele><time>2026-05-03T09:19:37.143Z</time></trkpt><trkpt lat="45.1175305" lon="12.2716994"><ele>0.4</ele><time>2026-05-03T09:19:39.138Z</time></trkpt><trkpt lat="45.1175996" lon="12.2718196"><ele>0.6000000000000001</ele><time>2026-05-03T09:19:41.145Z</time></trkpt><trkpt lat="45.1176655" lon="12.2719431"><ele>0.8</ele><time>2026-05-03T09:19:43.148Z</time></trkpt><trkpt lat="45.1177303" lon="12.2720649"><ele>1.0</ele><time>2026-05-03T09:19:45.15Z</time></trkpt><trkpt lat="45.1177947" lon="12.2721891"><ele>0.6000000000000001</ele><time>2026-05-03T09:19:47.141Z</time></trkpt><trkpt lat="45.1178594" lon="12.2723135"><ele>0.20000000000000007</ele><time>2026-05-03T09:19:49.146Z</time></trkpt><trkpt lat="45.1179245" lon="12.272438"><ele>-0.20000000000000007</ele><time>2026-05-03T09:19:51.144Z</time></trkpt><trkpt lat="45.1179883" lon="12.2725684"><ele>-0.6000000000000001</ele><time>2026-05-03T09:19:53.145Z</time></trkpt><trkpt lat="45.1180512" lon="12.2727015"><ele>-1.0</ele><time>2026-05-03T09:19:55.144Z</time></trkpt><trkpt lat="45.1181172" lon="12.2728385"><ele>-1.0</ele><time>2026-05-03T09:19:57.147Z</time></trkpt><trkpt lat="45.1181773" lon="12.2729745"><ele>-1.0</ele><time>2026-05-03T09:19:59.146Z</time></trkpt><trkpt lat="45.1182341" lon="12.2731085"><ele>-1.0</ele><time>2026-05-03T09:20:01.137Z</time></trkpt><trkpt lat="45.1182947" lon="12.2732426"><ele>-1.0</ele><time>2026-05-03T09:20:03.147Z</time></trkpt><trkpt lat="45.1183584" lon="12.2733755"><ele>-1.0</ele><time>2026-05-03T09:20:05.14Z</time></trkpt><trkpt lat="45.1184202" lon="12.2735095"><ele>-1.0</ele><time>2026-05-03T09:20:07.143Z</time></trkpt><trkpt lat="45.1184803" lon="12.2736447"><ele>-1.0</ele><time>2026-05-03T09:20:09.138Z</time></trkpt><trkpt lat="45.1185429" lon="12.273779"><ele>-1.0</ele><time>2026-05-03T09:20:11.141Z</time></trkpt><trkpt lat="45.1186079" lon="12.2739144"><ele>-1.0</ele><time>2026-05-03T09:20:13.152Z</time></trkpt><trkpt lat="45.1186664" lon="12.2740508"><ele>-1.2000000000000002</ele><time>2026-05-03T09:20:15.14Z</time></trkpt><trkpt lat="45.1187309" lon="12.2741812"><ele>-1.4000000000000001</ele><time>2026-05-03T09:20:17.15Z</time></trkpt><trkpt lat="45.1187946" lon="12.2743127"><ele>-1.6</ele><time>2026-05-03T09:20:19.139Z</time></trkpt><trkpt lat="45.1188561" lon="12.2744454"><ele>-1.8</ele><time>2026-05-03T09:20:21.144Z</time></trkpt><trkpt lat="45.1189162" lon="12.2745767"><ele>-2.0</ele><time>2026-05-03T09:20:23.141Z</time></trkpt><trkpt lat="45.1189763" lon="12.2747141"><ele>-2.0</ele><time>2026-05-03T09:20:25.144Z</time></trkpt><trkpt lat="45.1190437" lon="12.2748469"><ele>-2.0</ele><time>2026-05-03T09:20:27.142Z</time></trkpt><trkpt lat="45.1191062" lon="12.2749832"><ele>-2.0</ele><time>2026-05-03T09:20:29.136Z</time></trkpt><trkpt lat="45.1191654" lon="12.2751166"><ele>-2.0</ele><time>2026-05-03T09:20:31.14Z</time></trkpt><trkpt lat="45.119227" lon="12.2752524"><ele>-1.5</ele><time>2026-05-03T09:20:33.145Z</time></trkpt><trkpt lat="45.119287" lon="12.2753905"><ele>-1.0</ele><time>2026-05-03T09:20:35.143Z</time></trkpt><trkpt lat="45.1193483" lon="12.2755272"><ele>-0.5</ele><time>2026-05-03T09:20:37.139Z</time></trkpt><trkpt lat="45.1194117" lon="12.2756652"><ele>0.0</ele><time>2026-05-03T09:20:39.138Z</time></trkpt><trkpt lat="45.1194781" lon="12.2757978"><ele>0.0</ele><time>2026-05-03T09:20:41.138Z</time></trkpt><trkpt lat="45.1195448" lon="12.2759329"><ele>0.0</ele><time>2026-05-03T09:20:43.145Z</time></trkpt><trkpt lat="45.1196104" lon="12.2760703"><ele>0.0</ele><time>2026-05-03T09:20:45.147Z</time></trkpt><trkpt lat="45.1196724" lon="12.2762041"><ele>0.0</ele><time>2026-05-03T09:20:47.145Z</time></trkpt><trkpt lat="45.1197308" lon="12.2763367"><ele>-0.25</ele><time>2026-05-03T09:20:49.146Z</time></trkpt><trkpt lat="45.1197929" lon="12.2764739"><ele>-0.5</ele><time>2026-05-03T09:20:51.145Z</time></trkpt><trkpt lat="45.1198541" lon="12.2766089"><ele>-0.75</ele><time>2026-05-03T09:20:53.155Z</time></trkpt><trkpt lat="45.1199144" lon="12.2767418"><ele>-1.0</ele><time>2026-05-03T09:20:55.144Z</time></trkpt><trkpt lat="45.1199753" lon="12.2768748"><ele>-0.75</ele><time>2026-05-03T09:20:57.142Z</time></trkpt><trkpt lat="45.1200364" lon="12.2770065"><ele>-0.5</ele><time>2026-05-03T09:20:59.144Z</time></trkpt><trkpt lat="45.1201001" lon="12.2771394"><ele>-0.25</ele><time>2026-05-03T09:21:01.145Z</time></trkpt><trkpt lat="45.1201595" lon="12.2772774"><ele>0.0</ele><time>2026-05-03T09:21:03.148Z</time></trkpt><trkpt lat="45.1202235" lon="12.2774145"><ele>0.0</ele><time>2026-05-03T09:21:05.146Z</time></trkpt><trkpt lat="45.1202867" lon="12.2775563"><ele>0.0</ele><time>2026-05-03T09:21:07.147Z</time></trkpt><trkpt lat="45.1203473" lon="12.2776946"><ele>0.0</ele><time>2026-05-03T09:21:09.151Z</time></trkpt><trkpt lat="45.1204101" lon="12.2778272"><ele>0.0</ele><time>2026-05-03T09:21:11.143Z</time></trkpt><trkpt lat="45.1204757" lon="12.2779636"><ele>-0.25</ele><time>2026-05-03T09:21:13.153Z</time></trkpt><trkpt lat="45.1205367" lon="12.278102"><ele>-0.5</ele><time>2026-05-03T09:21:15.152Z</time></trkpt><trkpt lat="45.1205991" lon="12.278241"><ele>-0.75</ele><time>2026-05-03T09:21:17.144Z</time></trkpt><trkpt lat="45.1206624" lon="12.2783822"><ele>-1.0</ele><time>2026-05-03T09:21:19.149Z</time></trkpt><trkpt lat="45.1207308" lon="12.2785156"><ele>-0.4</ele><time>2026-05-03T09:21:21.148Z</time></trkpt><trkpt lat="45.1207962" lon="12.2786471"><ele>0.19999999999999996</ele><time>2026-05-03T09:21:23.15Z</time></trkpt><trkpt lat="45.1208577" lon="12.278786"><ele>0.8000000000000002</ele><time>2026-05-03T09:21:25.147Z</time></trkpt><trkpt lat="45.12092" lon="12.2789147"><ele>1.4000000000000001</ele><time>2026-05-03T09:21:27.147Z</time></trkpt><trkpt lat="45.1209762" lon="12.2790448"><ele>2.0</ele><time>2026-05-03T09:21:29.146Z</time></trkpt><trkpt lat="45.1210366" lon="12.2791798"><ele>2.25</ele><time>2026-05-03T09:21:31.144Z</time></trkpt><trkpt lat="45.1210953" lon="12.2793173"><ele>2.5</ele><time>2026-05-03T09:21:33.151Z</time></trkpt><trkpt lat="45.1211533" lon="12.2794571"><ele>2.75</ele><time>2026-05-03T09:21:35.143Z</time></trkpt><trkpt lat="45.1212142" lon="12.2795939"><ele>3.0</ele><time>2026-05-03T09:21:37.143Z</time></trkpt><trkpt lat="45.1212799" lon="12.279731"><ele>3.5</ele><time>2026-05-03T09:21:39.143Z</time></trkpt><trkpt lat="45.1213412" lon="12.2798658"><ele>4.0</ele><time>2026-05-03T09:21:41.149Z</time></trkpt><trkpt lat="45.1214045" lon="12.2800013"><ele>4.5</ele><time>2026-05-03T09:21:43.147Z</time></trkpt><trkpt lat="45.1214667" lon="12.2801382"><ele>5.0</ele><time>2026-05-03T09:21:45.14Z</time></trkpt><trkpt lat="45.1215274" lon="12.2802754"><ele>4.25</ele><time>2026-05-03T09:21:47.143Z</time></trkpt><trkpt lat="45.1215847" lon="12.280415"><ele>3.5</ele><time>2026-05-03T09:21:49.146Z</time></trkpt><trkpt lat="45.1216412" lon="12.2805528"><ele>2.75</ele><time>2026-05-03T09:21:51.147Z</time></trkpt><trkpt lat="45.1216943" lon="12.2806915"><ele>2.0</ele><time>2026-05-03T09:21:53.145Z</time></trkpt><trkpt lat="45.1217499" lon="12.280829"><ele>1.8</ele><time>2026-05-03T09:21:55.137Z</time></trkpt><trkpt lat="45.1218071" lon="12.2809655"><ele>1.6</ele><time>2026-05-03T09:21:57.146Z</time></trkpt><trkpt lat="45.1218658" lon="12.2810997"><ele>1.4000000000000001</ele><time>2026-05-03T09:21:59.146Z</time></trkpt><trkpt lat="45.1219278" lon="12.2812297"><ele>1.2000000000000002</ele><time>2026-05-03T09:22:01.144Z</time></trkpt><trkpt lat="45.1219955" lon="12.2813589"><ele>1.0</ele><time>2026-05-03T09:22:03.148Z</time></trkpt><trkpt lat="45.1220709" lon="12.2814832"><ele>0.75</ele><time>2026-05-03T09:22:05.148Z</time></trkpt><trkpt lat="45.1221438" lon="12.2816098"><ele>0.5</ele><time>2026-05-03T09:22:07.147Z</time></trkpt><trkpt lat="45.1222172" lon="12.2817357"><ele>0.25</ele><time>2026-05-03T09:22:09.144Z</time></trkpt><trkpt lat="45.1222934" lon="12.281858"><ele>0.0</ele><time>2026-05-03T09:22:11.142Z</time></trkpt><trkpt lat="45.1223674" lon="12.2819752"><ele>-0.25</ele><time>2026-05-03T09:22:13.153Z</time></trkpt><trkpt lat="45.1224403" lon="12.2820916"><ele>-0.5</ele><time>2026-05-03T09:22:15.144Z</time></trkpt><trkpt lat="45.1225198" lon="12.2822075"><ele>-0.75</ele><time>2026-05-03T09:22:17.145Z</time></trkpt><trkpt lat="45.1225994" lon="12.2823265"><ele>-1.0</ele><time>2026-05-03T09:22:19.145Z</time></trkpt><trkpt lat="45.1226804" lon="12.2824375"><ele>-1.0</ele><time>2026-05-03T09:22:21.141Z</time></trkpt><trkpt lat="45.1227598" lon="12.282544"><ele>-1.0</ele><time>2026-05-03T09:22:23.146Z</time></trkpt><trkpt lat="45.1228388" lon="12.2826494"><ele>-1.0</ele><time>2026-05-03T09:22:25.147Z</time></trkpt><trkpt lat="45.1229186" lon="12.2827473"><ele>-1.0</ele><time>2026-05-03T09:22:27.144Z</time></trkpt><trkpt lat="45.1229922" lon="12.2828433"><ele>-1.0</ele><time>2026-05-03T09:22:29.142Z</time></trkpt><trkpt lat="45.123058" lon="12.2829319"><ele>-0.9999999999999999</ele><time>2026-05-03T09:22:31.143Z</time></trkpt><trkpt lat="45.123117" lon="12.2830126"><ele>-1.0</ele><time>2026-05-03T09:22:33.153Z</time></trkpt><trkpt lat="45.1231731" lon="12.2830865"><ele>-1.0</ele><time>2026-05-03T09:22:35.143Z</time></trkpt><trkpt lat="45.1232334" lon="12.2831555"><ele>-1.0</ele><time>2026-05-03T09:22:37.143Z</time></trkpt><trkpt lat="45.1232998" lon="12.283223"><ele>-0.9999999999999999</ele><time>2026-05-03T09:22:39.142Z</time></trkpt><trkpt lat="45.1233687" lon="12.2833003"><ele>-1.0</ele><time>2026-05-03T09:22:41.141Z</time></trkpt><trkpt lat="45.1234357" lon="12.2833718"><ele>-0.8333333333333333</ele><time>2026-05-03T09:22:43.146Z</time></trkpt><trkpt lat="45.1235017" lon="12.2834485"><ele>-0.6666666666666666</ele><time>2026-05-03T09:22:45.138Z</time></trkpt><trkpt lat="45.1235634" lon="12.2835241"><ele>-0.5</ele><time>2026-05-03T09:22:47.138Z</time></trkpt><trkpt lat="45.1236257" lon="12.2835951"><ele>-0.3333333333333333</ele><time>2026-05-03T09:22:49.145Z</time></trkpt><trkpt lat="45.1236857" lon="12.2836651"><ele>-0.16666666666666666</ele><time>2026-05-03T09:22:51.145Z</time></trkpt><trkpt lat="45.1237465" lon="12.2837314"><ele>0.0</ele><time>2026-05-03T09:22:53.146Z</time></trkpt><trkpt lat="45.1238109" lon="12.2837972"><ele>0.0</ele><time>2026-05-03T09:22:55.146Z</time></trkpt><trkpt lat="45.1238753" lon="12.2838634"><ele>0.0</ele><time>2026-05-03T09:22:57.146Z</time></trkpt><trkpt lat="45.1239345" lon="12.2839264"><ele>0.0</ele><time>2026-05-03T09:22:59.137Z</time></trkpt><trkpt lat="45.1239866" lon="12.2839821"><ele>0.0</ele><time>2026-05-03T09:23:01.136Z</time></trkpt><trkpt lat="45.1240646" lon="12.2840574"><ele>0.0</ele><time>2026-05-03T09:23:04.145Z</time></trkpt><trkpt lat="45.1240878" lon="12.2841556"><ele>0.0</ele><time>2026-05-03T09:23:08.142Z</time></trkpt><trkpt lat="45.1240602" lon="12.2842399"><ele>-0.16666666666666666</ele><time>2026-05-03T09:23:31.146Z</time></trkpt><trkpt lat="45.1240176" lon="12.2843205"><ele>-0.3333333333333333</ele><time>2026-05-03T09:23:34.146Z</time></trkpt><trkpt lat="45.1239415" lon="12.2843269"><ele>-0.5</ele><time>2026-05-03T09:23:38.144Z</time></trkpt><trkpt lat="45.1238916" lon="12.2844044"><ele>-0.6666666666666666</ele><time>2026-05-03T09:23:41.149Z</time></trkpt><trkpt lat="45.1238524" lon="12.2845285"><ele>-0.8333333333333333</ele><time>2026-05-03T09:23:44.145Z</time></trkpt><trkpt lat="45.1238237" lon="12.2846309"><ele>-1.0</ele><time>2026-05-03T09:23:46.146Z</time></trkpt><trkpt lat="45.1237924" lon="12.2847281"><ele>-1.2000000000000002</ele><time>2026-05-03T09:23:48.15Z</time></trkpt><trkpt lat="45.1237526" lon="12.2848211"><ele>-1.4000000000000001</ele><time>2026-05-03T09:23:50.144Z</time></trkpt><trkpt lat="45.1237115" lon="12.2849243"><ele>-1.6</ele><time>2026-05-03T09:23:52.141Z</time></trkpt><trkpt lat="45.1236595" lon="12.2850515"><ele>-1.8</ele><time>2026-05-03T09:23:54.145Z</time></trkpt><trkpt lat="45.1236052" lon="12.285205"><ele>-2.0</ele><time>2026-05-03T09:23:56.143Z</time></trkpt><trkpt lat="45.123553" lon="12.2853555"><ele>-2.0</ele><time>2026-05-03T09:23:58.148Z</time></trkpt><trkpt lat="45.1235046" lon="12.2854995"><ele>-2.0</ele><time>2026-05-03T09:24:00.146Z</time></trkpt><trkpt lat="45.1234616" lon="12.2856279"><ele>-2.0</ele><time>2026-05-03T09:24:02.14Z</time></trkpt><trkpt lat="45.1234223" lon="12.2857561"><ele>-2.0</ele><time>2026-05-03T09:24:04.142Z</time></trkpt><trkpt lat="45.1233867" lon="12.2858849"><ele>-2.0</ele><time>2026-05-03T09:24:06.143Z</time></trkpt><trkpt lat="45.1233458" lon="12.2860105"><ele>-2.0</ele><time>2026-05-03T09:24:08.144Z</time></trkpt><trkpt lat="45.1233063" lon="12.2861427"><ele>-2.0</ele><time>2026-05-03T09:24:10.144Z</time></trkpt><trkpt lat="45.1232695" lon="12.2862742"><ele>-2.0</ele><time>2026-05-03T09:24:12.145Z</time></trkpt><trkpt lat="45.1232356" lon="12.2864055"><ele>-2.0</ele><time>2026-05-03T09:24:14.145Z</time></trkpt><trkpt lat="45.1231959" lon="12.2865365"><ele>-2.0</ele><time>2026-05-03T09:24:16.148Z</time></trkpt><trkpt lat="45.1231611" lon="12.2866712"><ele>-2.2</ele><time>2026-05-03T09:24:18.148Z</time></trkpt><trkpt lat="45.1231273" lon="12.2868013"><ele>-2.4000000000000004</ele><time>2026-05-03T09:24:20.147Z</time></trkpt><trkpt lat="45.1230924" lon="12.2869399"><ele>-2.5999999999999996</ele><time>2026-05-03T09:24:22.144Z</time></trkpt><trkpt lat="45.123053" lon="12.2870819"><ele>-2.8</ele><time>2026-05-03T09:24:24.143Z</time></trkpt><trkpt lat="45.1230159" lon="12.2872164"><ele>-3.0</ele><time>2026-05-03T09:24:26.143Z</time></trkpt><trkpt lat="45.1229801" lon="12.2873473"><ele>-3.0</ele><time>2026-05-03T09:24:28.144Z</time></trkpt><trkpt lat="45.1229438" lon="12.2874826"><ele>-3.0</ele><time>2026-05-03T09:24:30.151Z</time></trkpt><trkpt lat="45.1229048" lon="12.2876166"><ele>-3.0</ele><time>2026-05-03T09:24:32.145Z</time></trkpt><trkpt lat="45.1228688" lon="12.2877485"><ele>-3.0</ele><time>2026-05-03T09:24:34.139Z</time></trkpt><trkpt lat="45.1228338" lon="12.2878776"><ele>-3.0</ele><time>2026-05-03T09:24:36.143Z</time></trkpt><trkpt lat="45.1227994" lon="12.2880023"><ele>-3.0</ele><time>2026-05-03T09:24:38.145Z</time></trkpt><trkpt lat="45.1227628" lon="12.2881265"><ele>-3.0</ele><time>2026-05-03T09:24:40.141Z</time></trkpt><trkpt lat="45.1227242" lon="12.288258"><ele>-3.0</ele><time>2026-05-03T09:24:42.154Z</time></trkpt><trkpt lat="45.122687" lon="12.2883967"><ele>-3.0</ele><time>2026-05-03T09:24:44.149Z</time></trkpt><trkpt lat="45.1226572" lon="12.2885324"><ele>-3.0</ele><time>2026-05-03T09:24:46.155Z</time></trkpt><trkpt lat="45.1226382" lon="12.28867"><ele>-3.0</ele><time>2026-05-03T09:24:48.147Z</time></trkpt><trkpt lat="45.1226367" lon="12.2888042"><ele>-3.0</ele><time>2026-05-03T09:24:50.147Z</time></trkpt><trkpt lat="45.1226481" lon="12.2889451"><ele>-3.0</ele><time>2026-05-03T09:24:52.148Z</time></trkpt><trkpt lat="45.1226612" lon="12.2890852"><ele>-3.0</ele><time>2026-05-03T09:24:54.147Z</time></trkpt><trkpt lat="45.1226746" lon="12.2892259"><ele>-3.0</ele><time>2026-05-03T09:24:56.144Z</time></trkpt><trkpt lat="45.122688" lon="12.2893676"><ele>-2.8</ele><time>2026-05-03T09:24:58.143Z</time></trkpt><trkpt lat="45.1226955" lon="12.2895059"><ele>-2.5999999999999996</ele><time>2026-05-03T09:25:00.145Z</time></trkpt><trkpt lat="45.1227033" lon="12.2896457"><ele>-2.4000000000000004</ele><time>2026-05-03T09:25:02.145Z</time></trkpt><trkpt lat="45.1227046" lon="12.2897855"><ele>-2.2</ele><time>2026-05-03T09:25:04.149Z</time></trkpt><trkpt lat="45.1227006" lon="12.2899218"><ele>-2.0</ele><time>2026-05-03T09:25:06.145Z</time></trkpt><trkpt lat="45.1226931" lon="12.2900615"><ele>-2.0</ele><time>2026-05-03T09:25:08.153Z</time></trkpt><trkpt lat="45.1226798" lon="12.2902023"><ele>-2.0</ele><time>2026-05-03T09:25:10.147Z</time></trkpt><trkpt lat="45.1226617" lon="12.2903429"><ele>-2.0</ele><time>2026-05-03T09:25:12.145Z</time></trkpt><trkpt lat="45.1226398" lon="12.2904798"><ele>-2.0</ele><time>2026-05-03T09:25:14.146Z</time></trkpt><trkpt lat="45.1226145" lon="12.2906117"><ele>-2.0</ele><time>2026-05-03T09:25:16.144Z</time></trkpt><trkpt lat="45.1225913" lon="12.290743"><ele>-2.0</ele><time>2026-05-03T09:25:18.145Z</time></trkpt><trkpt lat="45.1225679" lon="12.2908808"><ele>-2.0</ele><time>2026-05-03T09:25:20.144Z</time></trkpt><trkpt lat="45.1225402" lon="12.291022"><ele>-2.0</ele><time>2026-05-03T09:25:22.15Z</time></trkpt><trkpt lat="45.1225121" lon="12.2911578"><ele>-2.0</ele><time>2026-05-03T09:25:24.15Z</time></trkpt><trkpt lat="45.1224879" lon="12.2912916"><ele>-2.0</ele><time>2026-05-03T09:25:26.152Z</time></trkpt><trkpt lat="45.1224654" lon="12.2914236"><ele>-2.2</ele><time>2026-05-03T09:25:28.144Z</time></trkpt><trkpt lat="45.1224443" lon="12.2915568"><ele>-2.4000000000000004</ele><time>2026-05-03T09:25:30.147Z</time></trkpt><trkpt lat="45.1224234" lon="12.2916888"><ele>-2.5999999999999996</ele><time>2026-05-03T09:25:32.145Z</time></trkpt><trkpt lat="45.1223968" lon="12.291821"><ele>-2.8</ele><time>2026-05-03T09:25:34.15Z</time></trkpt><trkpt lat="45.1223675" lon="12.2919505"><ele>-3.0</ele><time>2026-05-03T09:25:36.14Z</time></trkpt><trkpt lat="45.1223432" lon="12.2920862"><ele>-3.0</ele><time>2026-05-03T09:25:38.144Z</time></trkpt><trkpt lat="45.1223172" lon="12.2922216"><ele>-3.0</ele><time>2026-05-03T09:25:40.147Z</time></trkpt><trkpt lat="45.1222903" lon="12.2923545"><ele>-3.0</ele><time>2026-05-03T09:25:42.143Z</time></trkpt><trkpt lat="45.1222648" lon="12.2924895"><ele>-3.0</ele><time>2026-05-03T09:25:44.143Z</time></trkpt><trkpt lat="45.1222409" lon="12.292622"><ele>-3.0</ele><time>2026-05-03T09:25:46.148Z</time></trkpt><trkpt lat="45.1222146" lon="12.2927563"><ele>-3.0</ele><time>2026-05-03T09:25:48.146Z</time></trkpt><trkpt lat="45.1221864" lon="12.2928871"><ele>-3.0</ele><time>2026-05-03T09:25:50.146Z</time></trkpt><trkpt lat="45.1221623" lon="12.2930158"><ele>-3.0</ele><time>2026-05-03T09:25:52.146Z</time></trkpt><trkpt lat="45.1221393" lon="12.2931453"><ele>-3.0</ele><time>2026-05-03T09:25:54.152Z</time></trkpt><trkpt lat="45.1221144" lon="12.2932724"><ele>-3.0</ele><time>2026-05-03T09:25:56.148Z</time></trkpt><trkpt lat="45.122093" lon="12.2934004"><ele>-3.2</ele><time>2026-05-03T09:25:58.144Z</time></trkpt><trkpt lat="45.1220693" lon="12.2935361"><ele>-3.4</ele><time>2026-05-03T09:26:00.14Z</time></trkpt><trkpt lat="45.1220471" lon="12.2936685"><ele>-3.6000000000000005</ele><time>2026-05-03T09:26:02.148Z</time></trkpt><trkpt lat="45.1220266" lon="12.2937966"><ele>-3.8000000000000003</ele><time>2026-05-03T09:26:04.152Z</time></trkpt><trkpt lat="45.1220038" lon="12.2939237"><ele>-4.0</ele><time>2026-05-03T09:26:06.148Z</time></trkpt><trkpt lat="45.121979" lon="12.2940526"><ele>-3.6</ele><time>2026-05-03T09:26:08.144Z</time></trkpt><trkpt lat="45.1219561" lon="12.2941825"><ele>-3.2</ele><time>2026-05-03T09:26:10.151Z</time></trkpt><trkpt lat="45.1219346" lon="12.294312"><ele>-2.8000000000000003</ele><time>2026-05-03T09:26:12.148Z</time></trkpt><trkpt lat="45.1219104" lon="12.2944441"><ele>-2.4000000000000004</ele><time>2026-05-03T09:26:14.148Z</time></trkpt><trkpt lat="45.1218905" lon="12.2945721"><ele>-2.0</ele><time>2026-05-03T09:26:16.142Z</time></trkpt><trkpt lat="45.1218659" lon="12.2947"><ele>-1.8</ele><time>2026-05-03T09:26:18.151Z</time></trkpt><trkpt lat="45.1218447" lon="12.2948331"><ele>-1.6</ele><time>2026-05-03T09:26:20.15Z</time></trkpt><trkpt lat="45.1218199" lon="12.2949672"><ele>-1.4000000000000001</ele><time>2026-05-03T09:26:22.143Z</time></trkpt><trkpt lat="45.1217963" lon="12.295102"><ele>-1.2000000000000002</ele><time>2026-05-03T09:26:24.15Z</time></trkpt><trkpt lat="45.1217722" lon="12.2952406"><ele>-1.0</ele><time>2026-05-03T09:26:26.144Z</time></trkpt><trkpt lat="45.1217473" lon="12.2953764"><ele>-1.0</ele><time>2026-05-03T09:26:28.146Z</time></trkpt><trkpt lat="45.1217213" lon="12.295512"><ele>-1.0</ele><time>2026-05-03T09:26:30.149Z</time></trkpt><trkpt lat="45.1216954" lon="12.2956453"><ele>-1.0</ele><time>2026-05-03T09:26:32.148Z</time></trkpt><trkpt lat="45.1216713" lon="12.2957796"><ele>-1.0</ele><time>2026-05-03T09:26:34.142Z</time></trkpt><trkpt lat="45.1216492" lon="12.2959202"><ele>-1.0</ele><time>2026-05-03T09:26:36.145Z</time></trkpt><trkpt lat="45.1216235" lon="12.2960581"><ele>-1.0</ele><time>2026-05-03T09:26:38.147Z</time></trkpt><trkpt lat="45.1215996" lon="12.296191"><ele>-1.0</ele><time>2026-05-03T09:26:40.147Z</time></trkpt><trkpt lat="45.1215772" lon="12.2963295"><ele>-1.0</ele><time>2026-05-03T09:26:42.141Z</time></trkpt><trkpt lat="45.1215535" lon="12.2964675"><ele>-1.0</ele><time>2026-05-03T09:26:44.148Z</time></trkpt><trkpt lat="45.121533" lon="12.2966064"><ele>-1.0</ele><time>2026-05-03T09:26:46.145Z</time></trkpt><trkpt lat="45.1215103" lon="12.2967435"><ele>-0.8</ele><time>2026-05-03T09:26:48.143Z</time></trkpt><trkpt lat="45.1214871" lon="12.2968822"><ele>-0.6000000000000001</ele><time>2026-05-03T09:26:50.148Z</time></trkpt><trkpt lat="45.1214614" lon="12.2970232"><ele>-0.4</ele><time>2026-05-03T09:26:52.149Z</time></trkpt><trkpt lat="45.1214356" lon="12.2971586"><ele>-0.2</ele><time>2026-05-03T09:26:54.146Z</time></trkpt><trkpt lat="45.121411" lon="12.2972963"><ele>0.0</ele><time>2026-05-03T09:26:56.143Z</time></trkpt><trkpt lat="45.1213906" lon="12.2974336"><ele>0.0</ele><time>2026-05-03T09:26:58.148Z</time></trkpt><trkpt lat="45.1213658" lon="12.2975554"><ele>0.0</ele><time>2026-05-03T09:27:00.147Z</time></trkpt><trkpt lat="45.1213419" lon="12.2976673"><ele>0.0</ele><time>2026-05-03T09:27:02.144Z</time></trkpt><trkpt lat="45.1213222" lon="12.2977721"><ele>0.0</ele><time>2026-05-03T09:27:04.141Z</time></trkpt><trkpt lat="45.1213073" lon="12.2978711"><ele>0.0</ele><time>2026-05-03T09:27:06.145Z</time></trkpt><trkpt lat="45.121283" lon="12.2979607"><ele>0.0</ele><time>2026-05-03T09:27:08.14Z</time></trkpt><trkpt lat="45.121262" lon="12.2980662"><ele>0.0</ele><time>2026-05-03T09:27:10.145Z</time></trkpt><trkpt lat="45.1212383" lon="12.298192"><ele>0.0</ele><time>2026-05-03T09:27:12.139Z</time></trkpt><trkpt lat="45.1212122" lon="12.2983205"><ele>0.0</ele><time>2026-05-03T09:27:14.147Z</time></trkpt><trkpt lat="45.121192" lon="12.2984485"><ele>0.0</ele><time>2026-05-03T09:27:16.148Z</time></trkpt><trkpt lat="45.1211701" lon="12.2985771"><ele>0.0</ele><time>2026-05-03T09:27:18.148Z</time></trkpt><trkpt lat="45.1211466" lon="12.2987038"><ele>0.0</ele><time>2026-05-03T09:27:20.151Z</time></trkpt><trkpt lat="45.1211229" lon="12.2988284"><ele>0.0</ele><time>2026-05-03T09:27:22.144Z</time></trkpt><trkpt lat="45.1211011" lon="12.2989523"><ele>0.0</ele><time>2026-05-03T09:27:24.147Z</time></trkpt><trkpt lat="45.1210791" lon="12.2990768"><ele>0.0</ele><time>2026-05-03T09:27:26.145Z</time></trkpt><trkpt lat="45.1210556" lon="12.2992038"><ele>0.0</ele><time>2026-05-03T09:27:28.142Z</time></trkpt><trkpt lat="45.121029" lon="12.2993335"><ele>0.0</ele><time>2026-05-03T09:27:30.147Z</time></trkpt><trkpt lat="45.121" lon="12.2994643"><ele>0.0</ele><time>2026-05-03T09:27:32.146Z</time></trkpt><trkpt lat="45.1209749" lon="12.2995935"><ele>0.0</ele><time>2026-05-03T09:27:34.144Z</time></trkpt><trkpt lat="45.1209507" lon="12.2997162"><ele>0.0</ele><time>2026-05-03T09:27:36.146Z</time></trkpt><trkpt lat="45.120924" lon="12.2998355"><ele>0.0</ele><time>2026-05-03T09:27:38.141Z</time></trkpt><trkpt lat="45.1208937" lon="12.2999541"><ele>0.0</ele><time>2026-05-03T09:27:40.145Z</time></trkpt><trkpt lat="45.1208552" lon="12.3000734"><ele>0.0</ele><time>2026-05-03T09:27:42.145Z</time></trkpt><trkpt lat="45.1208162" lon="12.3001945"><ele>0.0</ele><time>2026-05-03T09:27:44.144Z</time></trkpt><trkpt lat="45.1207734" lon="12.3003109"><ele>0.0</ele><time>2026-05-03T09:27:46.145Z</time></trkpt><trkpt lat="45.1207312" lon="12.3004297"><ele>0.0</ele><time>2026-05-03T09:27:48.147Z</time></trkpt><trkpt lat="45.1206907" lon="12.3005501"><ele>0.0</ele><time>2026-05-03T09:27:50.141Z</time></trkpt><trkpt lat="45.1206501" lon="12.300671"><ele>0.0</ele><time>2026-05-03T09:27:52.146Z</time></trkpt><trkpt lat="45.1206048" lon="12.3007928"><ele>0.0</ele><time>2026-05-03T09:27:54.141Z</time></trkpt><trkpt lat="45.1205557" lon="12.3009153"><ele>0.0</ele><time>2026-05-03T09:27:56.146Z</time></trkpt><trkpt lat="45.1205077" lon="12.301044"><ele>0.0</ele><time>2026-05-03T09:27:58.146Z</time></trkpt><trkpt lat="45.1204635" lon="12.3011666"><ele>0.0</ele><time>2026-05-03T09:28:00.149Z</time></trkpt><trkpt lat="45.1204167" lon="12.3012886"><ele>0.0</ele><time>2026-05-03T09:28:02.145Z</time></trkpt><trkpt lat="45.1203728" lon="12.3014099"><ele>0.0</ele><time>2026-05-03T09:28:04.148Z</time></trkpt><trkpt lat="45.1203272" lon="12.3015361"><ele>0.0</ele><time>2026-05-03T09:28:06.143Z</time></trkpt><trkpt lat="45.120282" lon="12.301658"><ele>0.0</ele><time>2026-05-03T09:28:08.144Z</time></trkpt><trkpt lat="45.1202373" lon="12.301781"><ele>0.0</ele><time>2026-05-03T09:28:10.148Z</time></trkpt><trkpt lat="45.1201917" lon="12.3019057"><ele>0.0</ele><time>2026-05-03T09:28:12.145Z</time></trkpt><trkpt lat="45.1201493" lon="12.3020329"><ele>0.0</ele><time>2026-05-03T09:28:14.148Z</time></trkpt><trkpt lat="45.1201022" lon="12.3021561"><ele>0.0</ele><time>2026-05-03T09:28:16.143Z</time></trkpt><trkpt lat="45.1200543" lon="12.3022786"><ele>0.0</ele><time>2026-05-03T09:28:18.145Z</time></trkpt><trkpt lat="45.1200072" lon="12.3024019"><ele>0.0</ele><time>2026-05-03T09:28:20.145Z</time></trkpt><trkpt lat="45.1199568" lon="12.3025206"><ele>0.0</ele><time>2026-05-03T09:28:22.145Z</time></trkpt><trkpt lat="45.1199016" lon="12.3026377"><ele>0.0</ele><time>2026-05-03T09:28:24.15Z</time></trkpt><trkpt lat="45.1198409" lon="12.3027507"><ele>0.0</ele><time>2026-05-03T09:28:26.145Z</time></trkpt><trkpt lat="45.1197822" lon="12.3028633"><ele>0.0</ele><time>2026-05-03T09:28:28.143Z</time></trkpt><trkpt lat="45.1197204" lon="12.3029717"><ele>0.0</ele><time>2026-05-03T09:28:30.148Z</time></trkpt><trkpt lat="45.1196608" lon="12.3030809"><ele>0.0</ele><time>2026-05-03T09:28:32.147Z</time></trkpt><trkpt lat="45.1196" lon="12.3031899"><ele>0.0</ele><time>2026-05-03T09:28:34.146Z</time></trkpt><trkpt lat="45.1195379" lon="12.3032987"><ele>0.0</ele><time>2026-05-03T09:28:36.143Z</time></trkpt><trkpt lat="45.1194776" lon="12.3034074"><ele>0.0</ele><time>2026-05-03T09:28:38.143Z</time></trkpt><trkpt lat="45.1194212" lon="12.3035151"><ele>0.0</ele><time>2026-05-03T09:28:40.148Z</time></trkpt><trkpt lat="45.1193673" lon="12.3036297"><ele>0.0</ele><time>2026-05-03T09:28:42.145Z</time></trkpt><trkpt lat="45.1193146" lon="12.3037494"><ele>0.0</ele><time>2026-05-03T09:28:44.146Z</time></trkpt><trkpt lat="45.1192686" lon="12.3038786"><ele>0.0</ele><time>2026-05-03T09:28:46.144Z</time></trkpt><trkpt lat="45.1192215" lon="12.3040037"><ele>0.0</ele><time>2026-05-03T09:28:48.146Z</time></trkpt><trkpt lat="45.11918" lon="12.3041209"><ele>0.0</ele><time>2026-05-03T09:28:50.149Z</time></trkpt><trkpt lat="45.119135" lon="12.3042387"><ele>0.0</ele><time>2026-05-03T09:28:52.146Z</time></trkpt><trkpt lat="45.1190894" lon="12.3043585"><ele>0.0</ele><time>2026-05-03T09:28:54.147Z</time></trkpt><trkpt lat="45.1190465" lon="12.304475"><ele>0.0</ele><time>2026-05-03T09:28:56.15Z</time></trkpt><trkpt lat="45.1190028" lon="12.3045899"><ele>0.0</ele><time>2026-05-03T09:28:58.146Z</time></trkpt><trkpt lat="45.1189569" lon="12.3047075"><ele>0.0</ele><time>2026-05-03T09:29:00.146Z</time></trkpt><trkpt lat="45.1189093" lon="12.3048241"><ele>0.0</ele><time>2026-05-03T09:29:02.146Z</time></trkpt><trkpt lat="45.1188614" lon="12.3049415"><ele>0.0</ele><time>2026-05-03T09:29:04.144Z</time></trkpt><trkpt lat="45.1188112" lon="12.3050616"><ele>0.0</ele><time>2026-05-03T09:29:06.14Z</time></trkpt><trkpt lat="45.1187666" lon="12.3051906"><ele>0.0</ele><time>2026-05-03T09:29:08.145Z</time></trkpt><trkpt lat="45.1187239" lon="12.3053177"><ele>0.0</ele><time>2026-05-03T09:29:10.148Z</time></trkpt><trkpt lat="45.1186751" lon="12.3054433"><ele>0.0</ele><time>2026-05-03T09:29:12.144Z</time></trkpt><trkpt lat="45.1186288" lon="12.3055671"><ele>0.0</ele><time>2026-05-03T09:29:14.145Z</time></trkpt><trkpt lat="45.1185874" lon="12.3056851"><ele>0.0</ele><time>2026-05-03T09:29:16.144Z</time></trkpt><trkpt lat="45.1185405" lon="12.3058013"><ele>0.0</ele><time>2026-05-03T09:29:18.144Z</time></trkpt><trkpt lat="45.118493" lon="12.305917"><ele>0.0</ele><time>2026-05-03T09:29:20.151Z</time></trkpt><trkpt lat="45.1184476" lon="12.3060328"><ele>0.0</ele><time>2026-05-03T09:29:22.141Z</time></trkpt><trkpt lat="45.1183974" lon="12.3061488"><ele>0.0</ele><time>2026-05-03T09:29:24.144Z</time></trkpt><trkpt lat="45.1183488" lon="12.3062722"><ele>0.0</ele><time>2026-05-03T09:29:26.142Z</time></trkpt><trkpt lat="45.118301" lon="12.3063991"><ele>0.0</ele><time>2026-05-03T09:29:28.145Z</time></trkpt><trkpt lat="45.1182547" lon="12.3065245"><ele>0.0</ele><time>2026-05-03T09:29:30.144Z</time></trkpt><trkpt lat="45.1182071" lon="12.306648"><ele>0.0</ele><time>2026-05-03T09:29:32.143Z</time></trkpt><trkpt lat="45.1181618" lon="12.3067675"><ele>0.0</ele><time>2026-05-03T09:29:34.145Z</time></trkpt><trkpt lat="45.1181164" lon="12.3068851"><ele>0.0</ele><time>2026-05-03T09:29:36.146Z</time></trkpt><trkpt lat="45.1180713" lon="12.3070055"><ele>0.0</ele><time>2026-05-03T09:29:38.143Z</time></trkpt><trkpt lat="45.1180254" lon="12.3071276"><ele>0.0</ele><time>2026-05-03T09:29:40.141Z</time></trkpt><trkpt lat="45.1179797" lon="12.3072492"><ele>0.0</ele><time>2026-05-03T09:29:42.148Z</time></trkpt><trkpt lat="45.1179304" lon="12.3073687"><ele>0.0</ele><time>2026-05-03T09:29:44.146Z</time></trkpt><trkpt lat="45.117885" lon="12.3074874"><ele>0.0</ele><time>2026-05-03T09:29:46.144Z</time></trkpt><trkpt lat="45.1178386" lon="12.307611"><ele>0.0</ele><time>2026-05-03T09:29:48.146Z</time></trkpt><trkpt lat="45.1177916" lon="12.3077387"><ele>0.0</ele><time>2026-05-03T09:29:50.148Z</time></trkpt><trkpt lat="45.1177488" lon="12.3078619"><ele>0.0</ele><time>2026-05-03T09:29:52.139Z</time></trkpt><trkpt lat="45.1177066" lon="12.3079826"><ele>0.0</ele><time>2026-05-03T09:29:54.143Z</time></trkpt><trkpt lat="45.1176607" lon="12.3080947"><ele>0.0</ele><time>2026-05-03T09:29:56.147Z</time></trkpt><trkpt lat="45.1176168" lon="12.3082083"><ele>0.0</ele><time>2026-05-03T09:29:58.146Z</time></trkpt><trkpt lat="45.1175695" lon="12.3083252"><ele>0.0</ele><time>2026-05-03T09:30:00.148Z</time></trkpt><trkpt lat="45.1175142" lon="12.3084318"><ele>0.0</ele><time>2026-05-03T09:30:02.139Z</time></trkpt><trkpt lat="45.1174407" lon="12.3085093"><ele>0.0</ele><time>2026-05-03T09:30:04.137Z</time></trkpt><trkpt lat="45.11735" lon="12.308514"><ele>0.0</ele><time>2026-05-03T09:30:06.138Z</time></trkpt><trkpt lat="45.1172639" lon="12.3084548"><ele>0.0</ele><time>2026-05-03T09:30:08.14Z</time></trkpt><trkpt lat="45.1171773" lon="12.3083934"><ele>0.0</ele><time>2026-05-03T09:30:10.145Z</time></trkpt><trkpt lat="45.1170909" lon="12.3083329"><ele>0.0</ele><time>2026-05-03T09:30:12.148Z</time></trkpt><trkpt lat="45.1170045" lon="12.3082743"><ele>0.0</ele><time>2026-05-03T09:30:14.144Z</time></trkpt><trkpt lat="45.116918" lon="12.3082107"><ele>0.0</ele><time>2026-05-03T09:30:16.138Z</time></trkpt><trkpt lat="45.1168284" lon="12.3081453"><ele>0.0</ele><time>2026-05-03T09:30:18.148Z</time></trkpt><trkpt lat="45.1167358" lon="12.3080833"><ele>0.0</ele><time>2026-05-03T09:30:20.145Z</time></trkpt><trkpt lat="45.1166414" lon="12.3080202"><ele>0.0</ele><time>2026-05-03T09:30:22.145Z</time></trkpt><trkpt lat="45.1165508" lon="12.307953"><ele>0.0</ele><time>2026-05-03T09:30:24.138Z</time></trkpt><trkpt lat="45.1164587" lon="12.307891"><ele>0.0</ele><time>2026-05-03T09:30:26.143Z</time></trkpt><trkpt lat="45.1163682" lon="12.3078303"><ele>0.0</ele><time>2026-05-03T09:30:28.146Z</time></trkpt><trkpt lat="45.1162786" lon="12.3077683"><ele>0.0</ele><time>2026-05-03T09:30:30.143Z</time></trkpt><trkpt lat="45.1161877" lon="12.3077036"><ele>0.0</ele><time>2026-05-03T09:30:32.139Z</time></trkpt><trkpt lat="45.1160975" lon="12.3076397"><ele>0.0</ele><time>2026-05-03T09:30:34.138Z</time></trkpt><trkpt lat="45.1160081" lon="12.3075739"><ele>0.0</ele><time>2026-05-03T09:30:36.144Z</time></trkpt><trkpt lat="45.1159227" lon="12.3075042"><ele>0.0</ele><time>2026-05-03T09:30:38.142Z</time></trkpt><trkpt lat="45.1158411" lon="12.3074211"><ele>0.0</ele><time>2026-05-03T09:30:40.144Z</time></trkpt><trkpt lat="45.1157823" lon="12.3073089"><ele>0.0</ele><time>2026-05-03T09:30:42.139Z</time></trkpt><trkpt lat="45.1157362" lon="12.3071806"><ele>0.0</ele><time>2026-05-03T09:30:44.141Z</time></trkpt><trkpt lat="45.1156877" lon="12.3070512"><ele>0.0</ele><time>2026-05-03T09:30:46.148Z</time></trkpt><trkpt lat="45.1156396" lon="12.3069264"><ele>0.0</ele><time>2026-05-03T09:30:48.145Z</time></trkpt><trkpt lat="45.1155902" lon="12.3067997"><ele>0.0</ele><time>2026-05-03T09:30:50.145Z</time></trkpt><trkpt lat="45.1155351" lon="12.3066776"><ele>0.0</ele><time>2026-05-03T09:30:52.146Z</time></trkpt><trkpt lat="45.1154818" lon="12.3065546"><ele>0.0</ele><time>2026-05-03T09:30:54.143Z</time></trkpt><trkpt lat="45.1154319" lon="12.3064291"><ele>0.0</ele><time>2026-05-03T09:30:56.147Z</time></trkpt><trkpt lat="45.1153813" lon="12.3063053"><ele>0.0</ele><time>2026-05-03T09:30:58.146Z</time></trkpt><trkpt lat="45.1153309" lon="12.306181"><ele>0.0</ele><time>2026-05-03T09:31:00.146Z</time></trkpt><trkpt lat="45.1152821" lon="12.3060565"><ele>0.0</ele><time>2026-05-03T09:31:02.137Z</time></trkpt><trkpt lat="45.1152258" lon="12.3059342"><ele>0.0</ele><time>2026-05-03T09:31:04.141Z</time></trkpt><trkpt lat="45.115159" lon="12.3058161"><ele>0.0</ele><time>2026-05-03T09:31:06.142Z</time></trkpt><trkpt lat="45.1150814" lon="12.3057131"><ele>0.0</ele><time>2026-05-03T09:31:08.144Z</time></trkpt><trkpt lat="45.1149976" lon="12.3056303"><ele>0.0</ele><time>2026-05-03T09:31:10.142Z</time></trkpt><trkpt lat="45.1149063" lon="12.3055761"><ele>0.0</ele><time>2026-05-03T09:31:12.145Z</time></trkpt><trkpt lat="45.1148091" lon="12.30554"><ele>0.0</ele><time>2026-05-03T09:31:14.142Z</time></trkpt><trkpt lat="45.114709" lon="12.3055155"><ele>0.0</ele><time>2026-05-03T09:31:16.14Z</time></trkpt><trkpt lat="45.1146094" lon="12.3055047"><ele>0.0</ele><time>2026-05-03T09:31:18.141Z</time></trkpt><trkpt lat="45.1145087" lon="12.3055018"><ele>0.0</ele><time>2026-05-03T09:31:20.148Z</time></trkpt><trkpt lat="45.1144089" lon="12.3055038"><ele>0.0</ele><time>2026-05-03T09:31:22.146Z</time></trkpt><trkpt lat="45.1143089" lon="12.3055083"><ele>0.0</ele><time>2026-05-03T09:31:24.147Z</time></trkpt><trkpt lat="45.114209" lon="12.3055128"><ele>0.0</ele><time>2026-05-03T09:31:26.145Z</time></trkpt><trkpt lat="45.1141078" lon="12.3055134"><ele>0.0</ele><time>2026-05-03T09:31:28.144Z</time></trkpt><trkpt lat="45.114006" lon="12.3055134"><ele>0.0</ele><time>2026-05-03T09:31:30.142Z</time></trkpt><trkpt lat="45.1139052" lon="12.3055274"><ele>0.0</ele><time>2026-05-03T09:31:32.143Z</time></trkpt><trkpt lat="45.1138069" lon="12.3055212"><ele>0.0</ele><time>2026-05-03T09:31:34.14Z</time></trkpt><trkpt lat="45.113707" lon="12.3055048"><ele>0.0</ele><time>2026-05-03T09:31:36.14Z</time></trkpt><trkpt lat="45.1136043" lon="12.3055138"><ele>0.0</ele><time>2026-05-03T09:31:38.141Z</time></trkpt><trkpt lat="45.1135014" lon="12.3055251"><ele>0.0</ele><time>2026-05-03T09:31:40.137Z</time></trkpt><trkpt lat="45.1134" lon="12.3055307"><ele>0.0</ele><time>2026-05-03T09:31:42.136Z</time></trkpt><trkpt lat="45.1132987" lon="12.3055265"><ele>0.0</ele><time>2026-05-03T09:31:44.141Z</time></trkpt><trkpt lat="45.113198" lon="12.305521"><ele>0.0</ele><time>2026-05-03T09:31:46.145Z</time></trkpt><trkpt lat="45.1131016" lon="12.3055344"><ele>0.0</ele><time>2026-05-03T09:31:48.145Z</time></trkpt><trkpt lat="45.1130017" lon="12.3055576"><ele>0.0</ele><time>2026-05-03T09:31:50.145Z</time></trkpt><trkpt lat="45.1129055" lon="12.3055666"><ele>0.0</ele><time>2026-05-03T09:31:52.147Z</time></trkpt><trkpt lat="45.1128165" lon="12.3055912"><ele>0.0</ele><time>2026-05-03T09:31:54.144Z</time></trkpt><trkpt lat="45.1127223" lon="12.3056255"><ele>0.0</ele><time>2026-05-03T09:31:56.144Z</time></trkpt><trkpt lat="45.112631" lon="12.3056658"><ele>0.0</ele><time>2026-05-03T09:31:58.143Z</time></trkpt><trkpt lat="45.1125408" lon="12.3057158"><ele>0.0</ele><time>2026-05-03T09:32:00.142Z</time></trkpt><trkpt lat="45.1124496" lon="12.3057694"><ele>0.0</ele><time>2026-05-03T09:32:02.147Z</time></trkpt><trkpt lat="45.1123616" lon="12.3058255"><ele>0.0</ele><time>2026-05-03T09:32:04.139Z</time></trkpt><trkpt lat="45.1122794" lon="12.3058905"><ele>0.0</ele><time>2026-05-03T09:32:06.143Z</time></trkpt><trkpt lat="45.112199" lon="12.3059637"><ele>0.0</ele><time>2026-05-03T09:32:08.148Z</time></trkpt><trkpt lat="45.1121178" lon="12.3060388"><ele>0.0</ele><time>2026-05-03T09:32:10.146Z</time></trkpt><trkpt lat="45.1120353" lon="12.3061099"><ele>0.0</ele><time>2026-05-03T09:32:12.146Z</time></trkpt><trkpt lat="45.1119524" lon="12.3061754"><ele>0.0</ele><time>2026-05-03T09:32:14.145Z</time></trkpt><trkpt lat="45.1118635" lon="12.3062299"><ele>0.0</ele><time>2026-05-03T09:32:16.143Z</time></trkpt><trkpt lat="45.1117716" lon="12.3062673"><ele>0.0</ele><time>2026-05-03T09:32:18.144Z</time></trkpt><trkpt lat="45.1116757" lon="12.3062924"><ele>0.0</ele><time>2026-05-03T09:32:20.148Z</time></trkpt><trkpt lat="45.111577" lon="12.3063027"><ele>0.0</ele><time>2026-05-03T09:32:22.143Z</time></trkpt><trkpt lat="45.111476" lon="12.3062928"><ele>0.0</ele><time>2026-05-03T09:32:24.146Z</time></trkpt><trkpt lat="45.1113759" lon="12.3062734"><ele>0.0</ele><time>2026-05-03T09:32:26.14Z</time></trkpt><trkpt lat="45.1112761" lon="12.3062667"><ele>0.0</ele><time>2026-05-03T09:32:28.147Z</time></trkpt><trkpt lat="45.1111771" lon="12.306263"><ele>0.0</ele><time>2026-05-03T09:32:30.143Z</time></trkpt><trkpt lat="45.1110819" lon="12.3062514"><ele>0.0</ele><time>2026-05-03T09:32:32.144Z</time></trkpt><trkpt lat="45.1109833" lon="12.3062458"><ele>0.0</ele><time>2026-05-03T09:32:34.144Z</time></trkpt><trkpt lat="45.1108848" lon="12.3062409"><ele>0.0</ele><time>2026-05-03T09:32:36.146Z</time></trkpt><trkpt lat="45.1107858" lon="12.3062377"><ele>0.0</ele><time>2026-05-03T09:32:38.144Z</time></trkpt><trkpt lat="45.1106856" lon="12.306233"><ele>0.0</ele><time>2026-05-03T09:32:40.147Z</time></trkpt><trkpt lat="45.1105829" lon="12.3062218"><ele>0.0</ele><time>2026-05-03T09:32:42.144Z</time></trkpt><trkpt lat="45.1104819" lon="12.3062134"><ele>0.0</ele><time>2026-05-03T09:32:44.148Z</time></trkpt><trkpt lat="45.1103811" lon="12.3062063"><ele>0.0</ele><time>2026-05-03T09:32:46.139Z</time></trkpt><trkpt lat="45.1102792" lon="12.3062016"><ele>0.0</ele><time>2026-05-03T09:32:48.147Z</time></trkpt><trkpt lat="45.1101783" lon="12.3061955"><ele>0.0</ele><time>2026-05-03T09:32:50.146Z</time></trkpt><trkpt lat="45.1100753" lon="12.3061842"><ele>0.0</ele><time>2026-05-03T09:32:52.142Z</time></trkpt><trkpt lat="45.1099747" lon="12.3061768"><ele>0.0</ele><time>2026-05-03T09:32:54.145Z</time></trkpt><trkpt lat="45.1098801" lon="12.3061751"><ele>0.0</ele><time>2026-05-03T09:32:56.15Z</time></trkpt><trkpt lat="45.1097961" lon="12.3061598"><ele>0.0</ele><time>2026-05-03T09:32:58.141Z</time></trkpt><trkpt lat="45.1097187" lon="12.3061351"><ele>0.0</ele><time>2026-05-03T09:33:00.148Z</time></trkpt><trkpt lat="45.1096378" lon="12.306113"><ele>0.0</ele><time>2026-05-03T09:33:02.145Z</time></trkpt><trkpt lat="45.1095524" lon="12.3060716"><ele>0.0</ele><time>2026-05-03T09:33:04.147Z</time></trkpt><trkpt lat="45.1094667" lon="12.3060101"><ele>0.0</ele><time>2026-05-03T09:33:06.144Z</time></trkpt><trkpt lat="45.1093816" lon="12.3059492"><ele>0.0</ele><time>2026-05-03T09:33:08.143Z</time></trkpt><trkpt lat="45.1092945" lon="12.3058841"><ele>0.0</ele><time>2026-05-03T09:33:10.147Z</time></trkpt><trkpt lat="45.1092078" lon="12.3058133"><ele>0.0</ele><time>2026-05-03T09:33:12.146Z</time></trkpt><trkpt lat="45.1091216" lon="12.3057412"><ele>0.0</ele><time>2026-05-03T09:33:14.147Z</time></trkpt><trkpt lat="45.1090357" lon="12.3056715"><ele>0.0</ele><time>2026-05-03T09:33:16.144Z</time></trkpt><trkpt lat="45.1089481" lon="12.3056"><ele>0.0</ele><time>2026-05-03T09:33:18.143Z</time></trkpt><trkpt lat="45.1088624" lon="12.3055275"><ele>0.0</ele><time>2026-05-03T09:33:20.148Z</time></trkpt><trkpt lat="45.1087731" lon="12.3054555"><ele>0.0</ele><time>2026-05-03T09:33:22.145Z</time></trkpt><trkpt lat="45.1086792" lon="12.3053827"><ele>0.0</ele><time>2026-05-03T09:33:24.143Z</time></trkpt><trkpt lat="45.1085867" lon="12.3053074"><ele>0.0</ele><time>2026-05-03T09:33:26.148Z</time></trkpt><trkpt lat="45.1084926" lon="12.3052369"><ele>0.0</ele><time>2026-05-03T09:33:28.143Z</time></trkpt><trkpt lat="45.1083979" lon="12.3051667"><ele>0.0</ele><time>2026-05-03T09:33:30.151Z</time></trkpt><trkpt lat="45.1083046" lon="12.3050946"><ele>0.0</ele><time>2026-05-03T09:33:32.143Z</time></trkpt><trkpt lat="45.1082105" lon="12.3050233"><ele>0.0</ele><time>2026-05-03T09:33:34.148Z</time></trkpt><trkpt lat="45.10812" lon="12.3049482"><ele>0.0</ele><time>2026-05-03T09:33:36.146Z</time></trkpt><trkpt lat="45.1080288" lon="12.3048748"><ele>0.0</ele><time>2026-05-03T09:33:38.146Z</time></trkpt><trkpt lat="45.1079363" lon="12.3048037"><ele>0.0</ele><time>2026-05-03T09:33:40.145Z</time></trkpt><trkpt lat="45.1078421" lon="12.3047325"><ele>0.0</ele><time>2026-05-03T09:33:42.144Z</time></trkpt><trkpt lat="45.1077489" lon="12.3046559"><ele>0.0</ele><time>2026-05-03T09:33:44.147Z</time></trkpt><trkpt lat="45.1076553" lon="12.3045831"><ele>0.0</ele><time>2026-05-03T09:33:46.145Z</time></trkpt><trkpt lat="45.1075667" lon="12.3045054"><ele>0.0</ele><time>2026-05-03T09:33:48.143Z</time></trkpt><trkpt lat="45.1074858" lon="12.3044152"><ele>0.0</ele><time>2026-05-03T09:33:50.144Z</time></trkpt><trkpt lat="45.1074102" lon="12.3043201"><ele>0.0</ele><time>2026-05-03T09:33:52.142Z</time></trkpt><trkpt lat="45.1073461" lon="12.3042063"><ele>0.0</ele><time>2026-05-03T09:33:54.145Z</time></trkpt><trkpt lat="45.1072875" lon="12.3040801"><ele>0.0</ele><time>2026-05-03T09:33:56.151Z</time></trkpt><trkpt lat="45.1072221" lon="12.3039592"><ele>0.0</ele><time>2026-05-03T09:33:58.143Z</time></trkpt><trkpt lat="45.1071533" lon="12.3038444"><ele>0.2</ele><time>2026-05-03T09:34:00.149Z</time></trkpt><trkpt lat="45.1070838" lon="12.3037297"><ele>0.4</ele><time>2026-05-03T09:34:02.145Z</time></trkpt><trkpt lat="45.1070133" lon="12.3036183"><ele>0.6000000000000001</ele><time>2026-05-03T09:34:04.142Z</time></trkpt><trkpt lat="45.1069455" lon="12.3035019"><ele>0.8</ele><time>2026-05-03T09:34:06.144Z</time></trkpt><trkpt lat="45.1068813" lon="12.3033867"><ele>1.0</ele><time>2026-05-03T09:34:08.148Z</time></trkpt><trkpt lat="45.1068146" lon="12.3032735"><ele>1.0</ele><time>2026-05-03T09:34:10.148Z</time></trkpt><trkpt lat="45.1067454" lon="12.3031645"><ele>1.0</ele><time>2026-05-03T09:34:12.146Z</time></trkpt><trkpt lat="45.1066769" lon="12.303057"><ele>1.0</ele><time>2026-05-03T09:34:14.145Z</time></trkpt><trkpt lat="45.1066029" lon="12.3029523"><ele>1.0</ele><time>2026-05-03T09:34:16.142Z</time></trkpt><trkpt lat="45.1065229" lon="12.3028456"><ele>1.0</ele><time>2026-05-03T09:34:18.146Z</time></trkpt><trkpt lat="45.1064418" lon="12.3027373"><ele>1.0</ele><time>2026-05-03T09:34:20.144Z</time></trkpt><trkpt lat="45.1063635" lon="12.3026271"><ele>1.0</ele><time>2026-05-03T09:34:22.145Z</time></trkpt><trkpt lat="45.1062844" lon="12.3025154"><ele>1.0</ele><time>2026-05-03T09:34:24.147Z</time></trkpt><trkpt lat="45.1062068" lon="12.302405"><ele>1.0</ele><time>2026-05-03T09:34:26.147Z</time></trkpt><trkpt lat="45.1061327" lon="12.3022961"><ele>1.0</ele><time>2026-05-03T09:34:28.142Z</time></trkpt><trkpt lat="45.1060541" lon="12.3021991"><ele>0.8</ele><time>2026-05-03T09:34:30.144Z</time></trkpt><trkpt lat="45.1059669" lon="12.3021153"><ele>0.6000000000000001</ele><time>2026-05-03T09:34:32.143Z</time></trkpt><trkpt lat="45.1058691" lon="12.3020499"><ele>0.4</ele><time>2026-05-03T09:34:34.149Z</time></trkpt><trkpt lat="45.1057675" lon="12.3020145"><ele>0.2</ele><time>2026-05-03T09:34:36.143Z</time></trkpt><trkpt lat="45.1056608" lon="12.3020242"><ele>0.0</ele><time>2026-05-03T09:34:38.145Z</time></trkpt><trkpt lat="45.1055576" lon="12.3020788"><ele>0.0</ele><time>2026-05-03T09:34:40.146Z</time></trkpt><trkpt lat="45.1054717" lon="12.302167"><ele>0.0</ele><time>2026-05-03T09:34:42.147Z</time></trkpt><trkpt lat="45.1053946" lon="12.3022676"><ele>0.0</ele><time>2026-05-03T09:34:44.146Z</time></trkpt><trkpt lat="45.1053153" lon="12.3023443"><ele>0.0</ele><time>2026-05-03T09:34:46.145Z</time></trkpt><trkpt lat="45.1052269" lon="12.3023833"><ele>0.0</ele><time>2026-05-03T09:34:48.143Z</time></trkpt><trkpt lat="45.1051421" lon="12.3023997"><ele>0.0</ele><time>2026-05-03T09:34:50.147Z</time></trkpt><trkpt lat="45.1050617" lon="12.302412"><ele>0.0</ele><time>2026-05-03T09:34:52.142Z</time></trkpt><trkpt lat="45.1049814" lon="12.3024294"><ele>0.0</ele><time>2026-05-03T09:34:54.14Z</time></trkpt><trkpt lat="45.1048956" lon="12.3024381"><ele>0.0</ele><time>2026-05-03T09:34:56.138Z</time></trkpt><trkpt lat="45.1048031" lon="12.3024278"><ele>0.0</ele><time>2026-05-03T09:34:58.138Z</time></trkpt><trkpt lat="45.1047103" lon="12.302414"><ele>0.0</ele><time>2026-05-03T09:35:00.148Z</time></trkpt><trkpt lat="45.1046183" lon="12.3023985"><ele>0.0</ele><time>2026-05-03T09:35:02.147Z</time></trkpt><trkpt lat="45.1045277" lon="12.3023701"><ele>0.0</ele><time>2026-05-03T09:35:04.138Z</time></trkpt><trkpt lat="45.1044366" lon="12.3023299"><ele>0.0</ele><time>2026-05-03T09:35:06.144Z</time></trkpt><trkpt lat="45.1043485" lon="12.3022898"><ele>0.0</ele><time>2026-05-03T09:35:08.144Z</time></trkpt><trkpt lat="45.1042587" lon="12.3022478"><ele>0.0</ele><time>2026-05-03T09:35:10.143Z</time></trkpt><trkpt lat="45.1041675" lon="12.3022156"><ele>0.0</ele><time>2026-05-03T09:35:12.142Z</time></trkpt><trkpt lat="45.104069" lon="12.3022257"><ele>0.0</ele><time>2026-05-03T09:35:14.147Z</time></trkpt><trkpt lat="45.1039627" lon="12.3022649"><ele>0.0</ele><time>2026-05-03T09:35:16.148Z</time></trkpt><trkpt lat="45.1038532" lon="12.3023302"><ele>0.0</ele><time>2026-05-03T09:35:18.144Z</time></trkpt><trkpt lat="45.1037506" lon="12.3024166"><ele>0.0</ele><time>2026-05-03T09:35:20.148Z</time></trkpt><trkpt lat="45.1036592" lon="12.3025015"><ele>0.0</ele><time>2026-05-03T09:35:22.143Z</time></trkpt><trkpt lat="45.1035665" lon="12.3025706"><ele>0.0</ele><time>2026-05-03T09:35:24.144Z</time></trkpt><trkpt lat="45.103474" lon="12.3025969"><ele>0.0</ele><time>2026-05-03T09:35:26.147Z</time></trkpt><trkpt lat="45.1033753" lon="12.3025887"><ele>0.0</ele><time>2026-05-03T09:35:28.144Z</time></trkpt><trkpt lat="45.1032692" lon="12.3025739"><ele>0.0</ele><time>2026-05-03T09:35:30.144Z</time></trkpt><trkpt lat="45.1031656" lon="12.3025675"><ele>0.0</ele><time>2026-05-03T09:35:32.145Z</time></trkpt><trkpt lat="45.1030656" lon="12.3025643"><ele>0.0</ele><time>2026-05-03T09:35:34.15Z</time></trkpt><trkpt lat="45.1029644" lon="12.3025614"><ele>0.0</ele><time>2026-05-03T09:35:36.144Z</time></trkpt><trkpt lat="45.1028607" lon="12.3025557"><ele>0.0</ele><time>2026-05-03T09:35:38.144Z</time></trkpt><trkpt lat="45.1027597" lon="12.3025443"><ele>0.0</ele><time>2026-05-03T09:35:40.144Z</time></trkpt><trkpt lat="45.102658" lon="12.3025371"><ele>0.0</ele><time>2026-05-03T09:35:42.139Z</time></trkpt><trkpt lat="45.1025582" lon="12.3025376"><ele>0.0</ele><time>2026-05-03T09:35:44.142Z</time></trkpt><trkpt lat="45.1024565" lon="12.3025361"><ele>0.0</ele><time>2026-05-03T09:35:46.141Z</time></trkpt><trkpt lat="45.1023583" lon="12.3025275"><ele>0.0</ele><time>2026-05-03T09:35:48.148Z</time></trkpt><trkpt lat="45.1022581" lon="12.3025226"><ele>0.0</ele><time>2026-05-03T09:35:50.148Z</time></trkpt><trkpt lat="45.1021567" lon="12.302519"><ele>0.0</ele><time>2026-05-03T09:35:52.145Z</time></trkpt><trkpt lat="45.1020603" lon="12.3024962"><ele>0.0</ele><time>2026-05-03T09:35:54.14Z</time></trkpt><trkpt lat="45.1019616" lon="12.3024608"><ele>0.0</ele><time>2026-05-03T09:35:56.145Z</time></trkpt><trkpt lat="45.1018676" lon="12.3023968"><ele>0.0</ele><time>2026-05-03T09:35:58.148Z</time></trkpt><trkpt lat="45.101782" lon="12.3023188"><ele>0.0</ele><time>2026-05-03T09:36:00.143Z</time></trkpt><trkpt lat="45.1016979" lon="12.3022383"><ele>0.0</ele><time>2026-05-03T09:36:02.143Z</time></trkpt><trkpt lat="45.1016145" lon="12.3021589"><ele>0.0</ele><time>2026-05-03T09:36:04.145Z</time></trkpt><trkpt lat="45.1015285" lon="12.3020762"><ele>0.0</ele><time>2026-05-03T09:36:06.149Z</time></trkpt><trkpt lat="45.1014393" lon="12.3019949"><ele>0.0</ele><time>2026-05-03T09:36:08.14Z</time></trkpt><trkpt lat="45.1013528" lon="12.3019115"><ele>0.0</ele><time>2026-05-03T09:36:10.144Z</time></trkpt><trkpt lat="45.1012615" lon="12.3018321"><ele>0.0</ele><time>2026-05-03T09:36:12.142Z</time></trkpt><trkpt lat="45.1011694" lon="12.3017572"><ele>0.0</ele><time>2026-05-03T09:36:14.144Z</time></trkpt><trkpt lat="45.1010802" lon="12.3016811"><ele>0.0</ele><time>2026-05-03T09:36:16.147Z</time></trkpt><trkpt lat="45.1009889" lon="12.3016018"><ele>0.0</ele><time>2026-05-03T09:36:18.144Z</time></trkpt><trkpt lat="45.1008992" lon="12.3015204"><ele>0.0</ele><time>2026-05-03T09:36:20.15Z</time></trkpt><trkpt lat="45.100811" lon="12.3014369"><ele>0.0</ele><time>2026-05-03T09:36:22.145Z</time></trkpt><trkpt lat="45.1007183" lon="12.3013546"><ele>0.0</ele><time>2026-05-03T09:36:24.144Z</time></trkpt><trkpt lat="45.1006262" lon="12.3012728"><ele>0.0</ele><time>2026-05-03T09:36:26.143Z</time></trkpt><trkpt lat="45.1005377" lon="12.3011881"><ele>0.0</ele><time>2026-05-03T09:36:28.144Z</time></trkpt><trkpt lat="45.1004451" lon="12.3011068"><ele>0.0</ele><time>2026-05-03T09:36:30.143Z</time></trkpt><trkpt lat="45.1003503" lon="12.3010284"><ele>0.0</ele><time>2026-05-03T09:36:32.143Z</time></trkpt><trkpt lat="45.1002593" lon="12.3009529"><ele>0.0</ele><time>2026-05-03T09:36:34.144Z</time></trkpt><trkpt lat="45.1001686" lon="12.3008745"><ele>0.0</ele><time>2026-05-03T09:36:36.147Z</time></trkpt><trkpt lat="45.1000775" lon="12.3008"><ele>0.0</ele><time>2026-05-03T09:36:38.147Z</time></trkpt><trkpt lat="45.0999847" lon="12.3007327"><ele>0.0</ele><time>2026-05-03T09:36:40.145Z</time></trkpt><trkpt lat="45.0998866" lon="12.3006706"><ele>0.0</ele><time>2026-05-03T09:36:42.143Z</time></trkpt><trkpt lat="45.0997863" lon="12.3006102"><ele>0.0</ele><time>2026-05-03T09:36:44.146Z</time></trkpt><trkpt lat="45.0996837" lon="12.3005574"><ele>0.0</ele><time>2026-05-03T09:36:46.143Z</time></trkpt><trkpt lat="45.0995836" lon="12.3005022"><ele>0.0</ele><time>2026-05-03T09:36:48.146Z</time></trkpt><trkpt lat="45.0994867" lon="12.3004443"><ele>0.0</ele><time>2026-05-03T09:36:50.141Z</time></trkpt><trkpt lat="45.0993902" lon="12.3003821"><ele>0.0</ele><time>2026-05-03T09:36:52.142Z</time></trkpt><trkpt lat="45.0993005" lon="12.3003178"><ele>0.0</ele><time>2026-05-03T09:36:54.144Z</time></trkpt><trkpt lat="45.0992106" lon="12.3002498"><ele>0.0</ele><time>2026-05-03T09:36:56.142Z</time></trkpt><trkpt lat="45.0991219" lon="12.3001728"><ele>0.0</ele><time>2026-05-03T09:36:58.15Z</time></trkpt><trkpt lat="45.0990267" lon="12.3000941"><ele>0.0</ele><time>2026-05-03T09:37:00.146Z</time></trkpt><trkpt lat="45.0989292" lon="12.3000194"><ele>0.0</ele><time>2026-05-03T09:37:02.144Z</time></trkpt><trkpt lat="45.0988327" lon="12.2999427"><ele>0.0</ele><time>2026-05-03T09:37:04.147Z</time></trkpt><trkpt lat="45.0987357" lon="12.2998657"><ele>0.0</ele><time>2026-05-03T09:37:06.139Z</time></trkpt><trkpt lat="45.0986446" lon="12.2997729"><ele>0.0</ele><time>2026-05-03T09:37:08.146Z</time></trkpt><trkpt lat="45.0985663" lon="12.2996558"><ele>0.0</ele><time>2026-05-03T09:37:10.145Z</time></trkpt><trkpt lat="45.0984852" lon="12.2995387"><ele>0.0</ele><time>2026-05-03T09:37:12.147Z</time></trkpt><trkpt lat="45.0984013" lon="12.2994265"><ele>0.0</ele><time>2026-05-03T09:37:14.139Z</time></trkpt><trkpt lat="45.0983165" lon="12.2993183"><ele>0.0</ele><time>2026-05-03T09:37:16.147Z</time></trkpt><trkpt lat="45.098232" lon="12.299209"><ele>0.0</ele><time>2026-05-03T09:37:18.147Z</time></trkpt><trkpt lat="45.0981502" lon="12.299097"><ele>0.0</ele><time>2026-05-03T09:37:20.146Z</time></trkpt><trkpt lat="45.0980645" lon="12.2989858"><ele>0.0</ele><time>2026-05-03T09:37:22.144Z</time></trkpt><trkpt lat="45.0979787" lon="12.2988788"><ele>0.0</ele><time>2026-05-03T09:37:24.138Z</time></trkpt><trkpt lat="45.0978969" lon="12.2987657"><ele>0.0</ele><time>2026-05-03T09:37:26.148Z</time></trkpt><trkpt lat="45.0978154" lon="12.2986522"><ele>0.0</ele><time>2026-05-03T09:37:28.143Z</time></trkpt><trkpt lat="45.0977318" lon="12.2985413"><ele>0.0</ele><time>2026-05-03T09:37:30.147Z</time></trkpt><trkpt lat="45.0976444" lon="12.2984346"><ele>0.0</ele><time>2026-05-03T09:37:32.146Z</time></trkpt><trkpt lat="45.0975578" lon="12.298326"><ele>0.0</ele><time>2026-05-03T09:37:34.144Z</time></trkpt><trkpt lat="45.0974712" lon="12.2982156"><ele>0.0</ele><time>2026-05-03T09:37:36.14Z</time></trkpt><trkpt lat="45.0973825" lon="12.2981067"><ele>0.0</ele><time>2026-05-03T09:37:38.143Z</time></trkpt><trkpt lat="45.0972971" lon="12.2979986"><ele>0.0</ele><time>2026-05-03T09:37:40.148Z</time></trkpt><trkpt lat="45.0972132" lon="12.297888"><ele>0.0</ele><time>2026-05-03T09:37:42.146Z</time></trkpt><trkpt lat="45.0971275" lon="12.2977775"><ele>0.0</ele><time>2026-05-03T09:37:44.143Z</time></trkpt><trkpt lat="45.0970449" lon="12.2976675"><ele>0.0</ele><time>2026-05-03T09:37:46.14Z</time></trkpt><trkpt lat="45.0969604" lon="12.2975566"><ele>0.0</ele><time>2026-05-03T09:37:48.144Z</time></trkpt><trkpt lat="45.0968752" lon="12.2974431"><ele>0.0</ele><time>2026-05-03T09:37:50.148Z</time></trkpt><trkpt lat="45.0967879" lon="12.2973316"><ele>0.0</ele><time>2026-05-03T09:37:52.141Z</time></trkpt><trkpt lat="45.0967003" lon="12.2972179"><ele>0.0</ele><time>2026-05-03T09:37:54.14Z</time></trkpt><trkpt lat="45.0966128" lon="12.2971003"><ele>0.0</ele><time>2026-05-03T09:37:56.143Z</time></trkpt><trkpt lat="45.0965263" lon="12.2969879"><ele>0.0</ele><time>2026-05-03T09:37:58.144Z</time></trkpt><trkpt lat="45.096439" lon="12.2968785"><ele>0.0</ele><time>2026-05-03T09:38:00.147Z</time></trkpt><trkpt lat="45.0963568" lon="12.2967653"><ele>0.0</ele><time>2026-05-03T09:38:02.142Z</time></trkpt><trkpt lat="45.0962731" lon="12.2966574"><ele>0.0</ele><time>2026-05-03T09:38:04.138Z</time></trkpt><trkpt lat="45.0961875" lon="12.2965536"><ele>0.0</ele><time>2026-05-03T09:38:06.146Z</time></trkpt><trkpt lat="45.0961041" lon="12.2964421"><ele>0.0</ele><time>2026-05-03T09:38:08.149Z</time></trkpt><trkpt lat="45.0960199" lon="12.2963302"><ele>0.0</ele><time>2026-05-03T09:38:10.148Z</time></trkpt><trkpt lat="45.0959365" lon="12.29622"><ele>0.0</ele><time>2026-05-03T09:38:12.145Z</time></trkpt><trkpt lat="45.0958533" lon="12.2961058"><ele>0.0</ele><time>2026-05-03T09:38:14.148Z</time></trkpt><trkpt lat="45.0957702" lon="12.2959933"><ele>-0.25</ele><time>2026-05-03T09:38:16.148Z</time></trkpt><trkpt lat="45.0956878" lon="12.2958812"><ele>-0.5</ele><time>2026-05-03T09:38:18.149Z</time></trkpt><trkpt lat="45.0956033" lon="12.2957748"><ele>-0.75</ele><time>2026-05-03T09:38:20.145Z</time></trkpt><trkpt lat="45.0955158" lon="12.2956712"><ele>-1.0</ele><time>2026-05-03T09:38:22.14Z</time></trkpt><trkpt lat="45.0954323" lon="12.2955605"><ele>-1.4</ele><time>2026-05-03T09:38:24.146Z</time></trkpt><trkpt lat="45.0953478" lon="12.2954484"><ele>-1.8</ele><time>2026-05-03T09:38:26.144Z</time></trkpt><trkpt lat="45.0952655" lon="12.295339"><ele>-2.1999999999999997</ele><time>2026-05-03T09:38:28.144Z</time></trkpt><trkpt lat="45.0952026" lon="12.2952175"><ele>-2.6</ele><time>2026-05-03T09:38:30.148Z</time></trkpt><trkpt lat="45.0951602" lon="12.2950832"><ele>-3.0</ele><time>2026-05-03T09:38:32.138Z</time></trkpt><trkpt lat="45.0951378" lon="12.2949452"><ele>-3.0</ele><time>2026-05-03T09:38:34.142Z</time></trkpt><trkpt lat="45.0951359" lon="12.2948126"><ele>-3.0</ele><time>2026-05-03T09:38:36.137Z</time></trkpt><trkpt lat="45.0951623" lon="12.2946883"><ele>-3.0</ele><time>2026-05-03T09:38:38.147Z</time></trkpt><trkpt lat="45.0952014" lon="12.2945769"><ele>-3.0</ele><time>2026-05-03T09:38:40.141Z</time></trkpt><trkpt lat="45.095253" lon="12.2944715"><ele>-3.0</ele><time>2026-05-03T09:38:42.144Z</time></trkpt><trkpt lat="45.095321" lon="12.2943748"><ele>-3.0</ele><time>2026-05-03T09:38:44.149Z</time></trkpt><trkpt lat="45.0953941" lon="12.2942787"><ele>-3.0</ele><time>2026-05-03T09:38:46.15Z</time></trkpt><trkpt lat="45.0954703" lon="12.2941812"><ele>-3.0</ele><time>2026-05-03T09:38:48.148Z</time></trkpt><trkpt lat="45.0955402" lon="12.2940868"><ele>-3.0</ele><time>2026-05-03T09:38:50.143Z</time></trkpt><trkpt lat="45.0956039" lon="12.2939984"><ele>-3.0</ele><time>2026-05-03T09:38:52.147Z</time></trkpt><trkpt lat="45.0956657" lon="12.293921"><ele>-2.5</ele><time>2026-05-03T09:38:54.143Z</time></trkpt><trkpt lat="45.0957268" lon="12.2938434"><ele>-2.0</ele><time>2026-05-03T09:38:56.144Z</time></trkpt><trkpt lat="45.0957688" lon="12.293746"><ele>-1.5</ele><time>2026-05-03T09:38:58.147Z</time></trkpt><trkpt lat="45.0957736" lon="12.2936243"><ele>-1.0</ele><time>2026-05-03T09:39:00.146Z</time></trkpt><trkpt lat="45.0957437" lon="12.2935043"><ele>-0.5</ele><time>2026-05-03T09:39:02.142Z</time></trkpt><trkpt lat="45.0956992" lon="12.2933951"><ele>0.0</ele><time>2026-05-03T09:39:04.146Z</time></trkpt><trkpt lat="45.0956273" lon="12.2933171"><ele>0.0</ele><time>2026-05-03T09:39:06.14Z</time></trkpt><trkpt lat="45.0955344" lon="12.2933167"><ele>0.0</ele><time>2026-05-03T09:39:08.147Z</time></trkpt><trkpt lat="45.0954432" lon="12.2933531"><ele>0.0</ele><time>2026-05-03T09:39:10.142Z</time></trkpt><trkpt lat="45.0953495" lon="12.2933729"><ele>0.0</ele><time>2026-05-03T09:39:12.142Z</time></trkpt><trkpt lat="45.0952636" lon="12.2933674"><ele>0.0</ele><time>2026-05-03T09:39:14.141Z</time></trkpt><trkpt lat="45.0951741" lon="12.2933479"><ele>0.0</ele><time>2026-05-03T09:39:16.138Z</time></trkpt><trkpt lat="45.0950823" lon="12.2933284"><ele>0.0</ele><time>2026-05-03T09:39:18.143Z</time></trkpt><trkpt lat="45.0949912" lon="12.2933082"><ele>0.0</ele><time>2026-05-03T09:39:20.144Z</time></trkpt><trkpt lat="45.0948943" lon="12.2932921"><ele>0.0</ele><time>2026-05-03T09:39:22.147Z</time></trkpt><trkpt lat="45.094798" lon="12.2932736"><ele>0.0</ele><time>2026-05-03T09:39:24.143Z</time></trkpt><trkpt lat="45.0946991" lon="12.2932588"><ele>-0.3333333333333333</ele><time>2026-05-03T09:39:26.143Z</time></trkpt><trkpt lat="45.0946008" lon="12.2932456"><ele>-0.6666666666666666</ele><time>2026-05-03T09:39:28.147Z</time></trkpt><trkpt lat="45.0944996" lon="12.2932357"><ele>-1.0</ele><time>2026-05-03T09:39:30.146Z</time></trkpt><trkpt lat="45.0944097" lon="12.2932411"><ele>-1.3333333333333333</ele><time>2026-05-03T09:39:32.143Z</time></trkpt><trkpt lat="45.0943247" lon="12.2932549"><ele>-1.6666666666666665</ele><time>2026-05-03T09:39:34.145Z</time></trkpt><trkpt lat="45.094253" lon="12.2932609"><ele>-2.0</ele><time>2026-05-03T09:39:36.145Z</time></trkpt><trkpt lat="45.0941808" lon="12.2932699"><ele>-1.9999999999999998</ele><time>2026-05-03T09:39:38.139Z</time></trkpt><trkpt lat="45.0941118" lon="12.2932951"><ele>-2.0</ele><time>2026-05-03T09:39:40.151Z</time></trkpt><trkpt lat="45.0940489" lon="12.2933448"><ele>-2.0</ele><time>2026-05-03T09:39:42.142Z</time></trkpt><trkpt lat="45.0939823" lon="12.293405"><ele>-2.0</ele><time>2026-05-03T09:39:44.144Z</time></trkpt><trkpt lat="45.0939115" lon="12.2934663"><ele>-1.9999999999999998</ele><time>2026-05-03T09:39:46.145Z</time></trkpt><trkpt lat="45.0938439" lon="12.2935305"><ele>-2.0</ele><time>2026-05-03T09:39:48.147Z</time></trkpt><trkpt lat="45.0937658" lon="12.2935705"><ele>-1.8333333333333333</ele><time>2026-05-03T09:39:50.142Z</time></trkpt><trkpt lat="45.093684" lon="12.2935986"><ele>-1.6666666666666665</ele><time>2026-05-03T09:39:52.142Z</time></trkpt><trkpt lat="45.0935995" lon="12.2936225"><ele>-1.5</ele><time>2026-05-03T09:39:54.148Z</time></trkpt><trkpt lat="45.0935077" lon="12.2936433"><ele>-1.3333333333333333</ele><time>2026-05-03T09:39:56.138Z</time></trkpt><trkpt lat="45.0934167" lon="12.2936528"><ele>-1.1666666666666665</ele><time>2026-05-03T09:39:58.139Z</time></trkpt><trkpt lat="45.0933253" lon="12.2936584"><ele>-1.0</ele><time>2026-05-03T09:40:00.14Z</time></trkpt><trkpt lat="45.0932234" lon="12.2936709"><ele>-1.5</ele><time>2026-05-03T09:40:02.144Z</time></trkpt><trkpt lat="45.0931107" lon="12.2936992"><ele>-2.0</ele><time>2026-05-03T09:40:04.139Z</time></trkpt><trkpt lat="45.092991" lon="12.2937412"><ele>-2.5</ele><time>2026-05-03T09:40:06.146Z</time></trkpt><trkpt lat="45.0928782" lon="12.2937916"><ele>-3.0</ele><time>2026-05-03T09:40:08.142Z</time></trkpt><trkpt lat="45.0927685" lon="12.2938431"><ele>-3.0</ele><time>2026-05-03T09:40:10.144Z</time></trkpt><trkpt lat="45.092659" lon="12.2938882"><ele>-3.0</ele><time>2026-05-03T09:40:12.143Z</time></trkpt><trkpt lat="45.0925517" lon="12.2939275"><ele>-3.0</ele><time>2026-05-03T09:40:14.144Z</time></trkpt><trkpt lat="45.0924428" lon="12.2939666"><ele>-3.0</ele><time>2026-05-03T09:40:16.142Z</time></trkpt><trkpt lat="45.0923328" lon="12.2940084"><ele>-2.25</ele><time>2026-05-03T09:40:18.144Z</time></trkpt><trkpt lat="45.0922246" lon="12.2940484"><ele>-1.5</ele><time>2026-05-03T09:40:20.145Z</time></trkpt><trkpt lat="45.0921122" lon="12.2940819"><ele>-0.75</ele><time>2026-05-03T09:40:22.146Z</time></trkpt><trkpt lat="45.0920002" lon="12.2941102"><ele>0.0</ele><time>2026-05-03T09:40:24.145Z</time></trkpt><trkpt lat="45.0918861" lon="12.2941356"><ele>0.0</ele><time>2026-05-03T09:40:26.145Z</time></trkpt><trkpt lat="45.0917726" lon="12.2941574"><ele>0.0</ele><time>2026-05-03T09:40:28.146Z</time></trkpt><trkpt lat="45.0916606" lon="12.2941788"><ele>0.0</ele><time>2026-05-03T09:40:30.148Z</time></trkpt><trkpt lat="45.0915481" lon="12.2942102"><ele>0.0</ele><time>2026-05-03T09:40:32.146Z</time></trkpt><trkpt lat="45.0914371" lon="12.2942428"><ele>0.0</ele><time>2026-05-03T09:40:34.142Z</time></trkpt><trkpt lat="45.0913271" lon="12.2942703"><ele>0.0</ele><time>2026-05-03T09:40:36.144Z</time></trkpt><trkpt lat="45.0912173" lon="12.2942956"><ele>0.0</ele><time>2026-05-03T09:40:38.144Z</time></trkpt><trkpt lat="45.0911112" lon="12.2943264"><ele>0.0</ele><time>2026-05-03T09:40:40.143Z</time></trkpt><trkpt lat="45.0910045" lon="12.294377"><ele>0.0</ele><time>2026-05-03T09:40:42.146Z</time></trkpt><trkpt lat="45.0909027" lon="12.2944387"><ele>0.0</ele><time>2026-05-03T09:40:44.142Z</time></trkpt><trkpt lat="45.0908043" lon="12.2945179"><ele>0.0</ele><time>2026-05-03T09:40:46.136Z</time></trkpt><trkpt lat="45.0907071" lon="12.2945922"><ele>0.0</ele><time>2026-05-03T09:40:48.141Z</time></trkpt><trkpt lat="45.090612" lon="12.2946659"><ele>0.0</ele><time>2026-05-03T09:40:50.144Z</time></trkpt><trkpt lat="45.0905163" lon="12.2947434"><ele>0.0</ele><time>2026-05-03T09:40:52.146Z</time></trkpt><trkpt lat="45.0904155" lon="12.2948227"><ele>0.0</ele><time>2026-05-03T09:40:54.136Z</time></trkpt><trkpt lat="45.0903156" lon="12.2948976"><ele>0.0</ele><time>2026-05-03T09:40:56.143Z</time></trkpt><trkpt lat="45.0902146" lon="12.294975"><ele>0.0</ele><time>2026-05-03T09:40:58.148Z</time></trkpt><trkpt lat="45.0901128" lon="12.2950488"><ele>0.0</ele><time>2026-05-03T09:41:00.147Z</time></trkpt><trkpt lat="45.090012" lon="12.2951177"><ele>0.0</ele><time>2026-05-03T09:41:02.147Z</time></trkpt><trkpt lat="45.0899138" lon="12.2951933"><ele>0.0</ele><time>2026-05-03T09:41:04.148Z</time></trkpt><trkpt lat="45.0898142" lon="12.2952664"><ele>0.0</ele><time>2026-05-03T09:41:06.145Z</time></trkpt><trkpt lat="45.0897144" lon="12.295333"><ele>0.0</ele><time>2026-05-03T09:41:08.143Z</time></trkpt><trkpt lat="45.0896123" lon="12.2953933"><ele>0.0</ele><time>2026-05-03T09:41:10.143Z</time></trkpt><trkpt lat="45.0895087" lon="12.2954543"><ele>0.0</ele><time>2026-05-03T09:41:12.145Z</time></trkpt><trkpt lat="45.089402" lon="12.295512"><ele>0.0</ele><time>2026-05-03T09:41:14.146Z</time></trkpt><trkpt lat="45.0892957" lon="12.295569"><ele>0.0</ele><time>2026-05-03T09:41:16.146Z</time></trkpt><trkpt lat="45.0891938" lon="12.2956323"><ele>0.0</ele><time>2026-05-03T09:41:18.141Z</time></trkpt><trkpt lat="45.0890869" lon="12.2956865"><ele>0.0</ele><time>2026-05-03T09:41:20.144Z</time></trkpt><trkpt lat="45.0889798" lon="12.2957328"><ele>0.0</ele><time>2026-05-03T09:41:22.139Z</time></trkpt><trkpt lat="45.0888742" lon="12.2957697"><ele>0.0</ele><time>2026-05-03T09:41:24.141Z</time></trkpt><trkpt lat="45.0887675" lon="12.2957984"><ele>0.0</ele><time>2026-05-03T09:41:26.146Z</time></trkpt><trkpt lat="45.0886598" lon="12.2958265"><ele>0.0</ele><time>2026-05-03T09:41:28.146Z</time></trkpt><trkpt lat="45.0885494" lon="12.2958551"><ele>0.0</ele><time>2026-05-03T09:41:30.143Z</time></trkpt><trkpt lat="45.0884419" lon="12.2958844"><ele>0.0</ele><time>2026-05-03T09:41:32.144Z</time></trkpt><trkpt lat="45.0883375" lon="12.2959094"><ele>0.0</ele><time>2026-05-03T09:41:34.142Z</time></trkpt><trkpt lat="45.0882317" lon="12.2959348"><ele>0.0</ele><time>2026-05-03T09:41:36.145Z</time></trkpt><trkpt lat="45.0881223" lon="12.2959407"><ele>0.0</ele><time>2026-05-03T09:41:38.142Z</time></trkpt><trkpt lat="45.0880111" lon="12.2959069"><ele>0.0</ele><time>2026-05-03T09:41:40.141Z</time></trkpt><trkpt lat="45.0879086" lon="12.295835"><ele>0.0</ele><time>2026-05-03T09:41:42.14Z</time></trkpt><trkpt lat="45.087811" lon="12.2957499"><ele>0.0</ele><time>2026-05-03T09:41:44.142Z</time></trkpt><trkpt lat="45.0877143" lon="12.2956687"><ele>0.0</ele><time>2026-05-03T09:41:46.145Z</time></trkpt><trkpt lat="45.0876149" lon="12.2955952"><ele>0.0</ele><time>2026-05-03T09:41:48.143Z</time></trkpt><trkpt lat="45.087516" lon="12.2955212"><ele>0.0</ele><time>2026-05-03T09:41:50.143Z</time></trkpt><trkpt lat="45.0874192" lon="12.2954503"><ele>0.0</ele><time>2026-05-03T09:41:52.143Z</time></trkpt><trkpt lat="45.0873234" lon="12.2953784"><ele>0.0</ele><time>2026-05-03T09:41:54.143Z</time></trkpt><trkpt lat="45.0872252" lon="12.295304"><ele>0.0</ele><time>2026-05-03T09:41:56.137Z</time></trkpt><trkpt lat="45.0871244" lon="12.295226"><ele>-0.75</ele><time>2026-05-03T09:41:58.14Z</time></trkpt><trkpt lat="45.0870254" lon="12.2951476"><ele>-1.5</ele><time>2026-05-03T09:42:00.142Z</time></trkpt><trkpt lat="45.0869247" lon="12.2950711"><ele>-2.25</ele><time>2026-05-03T09:42:02.141Z</time></trkpt><trkpt lat="45.0868247" lon="12.2949993"><ele>-3.0</ele><time>2026-05-03T09:42:04.144Z</time></trkpt><trkpt lat="45.0867247" lon="12.294922"><ele>-3.0</ele><time>2026-05-03T09:42:06.145Z</time></trkpt><trkpt lat="45.0866237" lon="12.2948433"><ele>-3.0</ele><time>2026-05-03T09:42:08.14Z</time></trkpt><trkpt lat="45.0865219" lon="12.2947695"><ele>-3.0</ele><time>2026-05-03T09:42:10.14Z</time></trkpt><trkpt lat="45.0864305" lon="12.2946907"><ele>-3.0</ele><time>2026-05-03T09:42:12.142Z</time></trkpt><trkpt lat="45.0863345" lon="12.2946092"><ele>-3.0</ele><time>2026-05-03T09:42:14.141Z</time></trkpt><trkpt lat="45.0862313" lon="12.2945317"><ele>-3.0</ele><time>2026-05-03T09:42:16.141Z</time></trkpt><trkpt lat="45.0861239" lon="12.2944565"><ele>-3.0</ele><time>2026-05-03T09:42:18.141Z</time></trkpt><trkpt lat="45.0860146" lon="12.2943783"><ele>-3.0</ele><time>2026-05-03T09:42:20.145Z</time></trkpt><trkpt lat="45.0859148" lon="12.2943064"><ele>-3.0</ele><time>2026-05-03T09:42:22.139Z</time></trkpt><trkpt lat="45.0858195" lon="12.2942444"><ele>-2.4</ele><time>2026-05-03T09:42:24.145Z</time></trkpt><trkpt lat="45.0857275" lon="12.2941851"><ele>-1.7999999999999998</ele><time>2026-05-03T09:42:26.14Z</time></trkpt><trkpt lat="45.0856445" lon="12.2941264"><ele>-1.2</ele><time>2026-05-03T09:42:28.144Z</time></trkpt><trkpt lat="45.0855612" lon="12.2940712"><ele>-0.6</ele><time>2026-05-03T09:42:30.142Z</time></trkpt><trkpt lat="45.0854714" lon="12.2940134"><ele>0.0</ele><time>2026-05-03T09:42:32.143Z</time></trkpt><trkpt lat="45.0853804" lon="12.2939544"><ele>0.0</ele><time>2026-05-03T09:42:34.142Z</time></trkpt><trkpt lat="45.0852902" lon="12.2938952"><ele>0.0</ele><time>2026-05-03T09:42:36.141Z</time></trkpt><trkpt lat="45.0852004" lon="12.2938347"><ele>0.0</ele><time>2026-05-03T09:42:38.138Z</time></trkpt><trkpt lat="45.0851084" lon="12.293772"><ele>0.0</ele><time>2026-05-03T09:42:40.139Z</time></trkpt><trkpt lat="45.0850146" lon="12.2937128"><ele>0.0</ele><time>2026-05-03T09:42:42.141Z</time></trkpt><trkpt lat="45.084916" lon="12.2936498"><ele>0.2</ele><time>2026-05-03T09:42:44.143Z</time></trkpt><trkpt lat="45.0848167" lon="12.2935889"><ele>0.4</ele><time>2026-05-03T09:42:46.147Z</time></trkpt><trkpt lat="45.0847203" lon="12.2935247"><ele>0.6000000000000001</ele><time>2026-05-03T09:42:48.137Z</time></trkpt><trkpt lat="45.0846229" lon="12.2934611"><ele>0.8</ele><time>2026-05-03T09:42:50.146Z</time></trkpt><trkpt lat="45.0845266" lon="12.2933975"><ele>1.0</ele><time>2026-05-03T09:42:52.145Z</time></trkpt><trkpt lat="45.0844311" lon="12.2933316"><ele>1.0</ele><time>2026-05-03T09:42:54.137Z</time></trkpt><trkpt lat="45.0843339" lon="12.29327"><ele>1.0</ele><time>2026-05-03T09:42:56.137Z</time></trkpt><trkpt lat="45.0842368" lon="12.293211"><ele>1.0</ele><time>2026-05-03T09:42:58.144Z</time></trkpt><trkpt lat="45.0841428" lon="12.2931466"><ele>1.0</ele><time>2026-05-03T09:43:00.144Z</time></trkpt><trkpt lat="45.0840451" lon="12.2930826"><ele>1.0</ele><time>2026-05-03T09:43:02.141Z</time></trkpt><trkpt lat="45.0839469" lon="12.2930183"><ele>0.8</ele><time>2026-05-03T09:43:04.14Z</time></trkpt><trkpt lat="45.0838499" lon="12.2929553"><ele>0.6000000000000001</ele><time>2026-05-03T09:43:06.136Z</time></trkpt><trkpt lat="45.0837552" lon="12.2928981"><ele>0.4</ele><time>2026-05-03T09:43:08.138Z</time></trkpt><trkpt lat="45.083654" lon="12.2928497"><ele>0.2</ele><time>2026-05-03T09:43:10.142Z</time></trkpt><trkpt lat="45.0835505" lon="12.2928099"><ele>0.0</ele><time>2026-05-03T09:43:12.138Z</time></trkpt><trkpt lat="45.0834451" lon="12.2927879"><ele>0.0</ele><time>2026-05-03T09:43:14.143Z</time></trkpt><trkpt lat="45.0833332" lon="12.2927901"><ele>0.0</ele><time>2026-05-03T09:43:16.145Z</time></trkpt><trkpt lat="45.0832262" lon="12.2927912"><ele>0.0</ele><time>2026-05-03T09:43:18.144Z</time></trkpt><trkpt lat="45.0831259" lon="12.2927746"><ele>0.0</ele><time>2026-05-03T09:43:20.14Z</time></trkpt><trkpt lat="45.0830346" lon="12.2927544"><ele>0.0</ele><time>2026-05-03T09:43:22.145Z</time></trkpt><trkpt lat="45.0829533" lon="12.2927138"><ele>0.2</ele><time>2026-05-03T09:43:24.139Z</time></trkpt><trkpt lat="45.0828753" lon="12.2926631"><ele>0.4</ele><time>2026-05-03T09:43:26.147Z</time></trkpt><trkpt lat="45.0827906" lon="12.2926099"><ele>0.6000000000000001</ele><time>2026-05-03T09:43:28.138Z</time></trkpt><trkpt lat="45.0827001" lon="12.2925512"><ele>0.8</ele><time>2026-05-03T09:43:30.143Z</time></trkpt><trkpt lat="45.0826083" lon="12.2924966"><ele>1.0</ele><time>2026-05-03T09:43:32.143Z</time></trkpt><trkpt lat="45.0825156" lon="12.2924424"><ele>1.2000000000000002</ele><time>2026-05-03T09:43:34.137Z</time></trkpt><trkpt lat="45.082425" lon="12.2923858"><ele>1.4000000000000001</ele><time>2026-05-03T09:43:36.137Z</time></trkpt><trkpt lat="45.0823301" lon="12.292331"><ele>1.6</ele><time>2026-05-03T09:43:38.141Z</time></trkpt><trkpt lat="45.0822339" lon="12.2922744"><ele>1.8</ele><time>2026-05-03T09:43:40.141Z</time></trkpt><trkpt lat="45.0821394" lon="12.292215"><ele>2.0</ele><time>2026-05-03T09:43:42.141Z</time></trkpt><trkpt lat="45.0820483" lon="12.292159"><ele>1.6</ele><time>2026-05-03T09:43:44.144Z</time></trkpt><trkpt lat="45.0819537" lon="12.2921079"><ele>1.2000000000000002</ele><time>2026-05-03T09:43:46.142Z</time></trkpt><trkpt lat="45.0818575" lon="12.2920585"><ele>0.8</ele><time>2026-05-03T09:43:48.146Z</time></trkpt><trkpt lat="45.0817613" lon="12.2920181"><ele>0.4</ele><time>2026-05-03T09:43:50.144Z</time></trkpt><trkpt lat="45.0816613" lon="12.2919863"><ele>0.0</ele><time>2026-05-03T09:43:52.144Z</time></trkpt><trkpt lat="45.081561" lon="12.2919478"><ele>0.0</ele><time>2026-05-03T09:43:54.144Z</time></trkpt><trkpt lat="45.0814617" lon="12.291905"><ele>0.0</ele><time>2026-05-03T09:43:56.143Z</time></trkpt><trkpt lat="45.0813665" lon="12.291851"><ele>0.0</ele><time>2026-05-03T09:43:58.145Z</time></trkpt><trkpt lat="45.0812694" lon="12.2917868"><ele>0.0</ele><time>2026-05-03T09:44:00.138Z</time></trkpt><trkpt lat="45.0811735" lon="12.2917141"><ele>0.0</ele><time>2026-05-03T09:44:02.145Z</time></trkpt><trkpt lat="45.0810789" lon="12.2916477"><ele>0.0</ele><time>2026-05-03T09:44:04.14Z</time></trkpt><trkpt lat="45.080985" lon="12.2915838"><ele>0.0</ele><time>2026-05-03T09:44:06.141Z</time></trkpt><trkpt lat="45.0808883" lon="12.2915214"><ele>0.0</ele><time>2026-05-03T09:44:08.139Z</time></trkpt><trkpt lat="45.080792" lon="12.29146"><ele>0.0</ele><time>2026-05-03T09:44:10.144Z</time></trkpt><trkpt lat="45.0806902" lon="12.2913981"><ele>0.0</ele><time>2026-05-03T09:44:12.143Z</time></trkpt><trkpt lat="45.0805898" lon="12.2913392"><ele>0.0</ele><time>2026-05-03T09:44:14.139Z</time></trkpt><trkpt lat="45.0804875" lon="12.2912801"><ele>0.0</ele><time>2026-05-03T09:44:16.14Z</time></trkpt><trkpt lat="45.0803844" lon="12.2912231"><ele>0.0</ele><time>2026-05-03T09:44:18.139Z</time></trkpt><trkpt lat="45.080287" lon="12.291175"><ele>0.0</ele><time>2026-05-03T09:44:20.137Z</time></trkpt><trkpt lat="45.0801918" lon="12.2911607"><ele>0.0</ele><time>2026-05-03T09:44:22.141Z</time></trkpt><trkpt lat="45.0801132" lon="12.2912384"><ele>0.0</ele><time>2026-05-03T09:44:24.143Z</time></trkpt><trkpt lat="45.0800794" lon="12.2913763"><ele>0.0</ele><time>2026-05-03T09:44:26.138Z</time></trkpt><trkpt lat="45.0800575" lon="12.2915131"><ele>0.0</ele><time>2026-05-03T09:44:28.142Z</time></trkpt><trkpt lat="45.0800239" lon="12.2916416"><ele>0.0</ele><time>2026-05-03T09:44:30.137Z</time></trkpt><trkpt lat="45.0799879" lon="12.2917773"><ele>0.0</ele><time>2026-05-03T09:44:32.142Z</time></trkpt><trkpt lat="45.079953" lon="12.2919162"><ele>-0.4</ele><time>2026-05-03T09:44:34.136Z</time></trkpt><trkpt lat="45.0799189" lon="12.2920548"><ele>-0.8</ele><time>2026-05-03T09:44:36.139Z</time></trkpt><trkpt lat="45.0798841" lon="12.2921881"><ele>-1.2000000000000002</ele><time>2026-05-03T09:44:38.135Z</time></trkpt><trkpt lat="45.0798506" lon="12.2923187"><ele>-1.6</ele><time>2026-05-03T09:44:40.14Z</time></trkpt><trkpt lat="45.0798233" lon="12.2924408"><ele>-2.0</ele><time>2026-05-03T09:44:42.136Z</time></trkpt><trkpt lat="45.0797916" lon="12.2925515"><ele>-2.333333333333333</ele><time>2026-05-03T09:44:44.14Z</time></trkpt><trkpt lat="45.0797687" lon="12.2926542"><ele>-2.6666666666666665</ele><time>2026-05-03T09:44:46.135Z</time></trkpt><trkpt lat="45.0797426" lon="12.292756"><ele>-3.0</ele><time>2026-05-03T09:44:48.141Z</time></trkpt><trkpt lat="45.0797148" lon="12.2928677"><ele>-3.333333333333333</ele><time>2026-05-03T09:44:50.141Z</time></trkpt><trkpt lat="45.0796812" lon="12.2929944"><ele>-3.6666666666666665</ele><time>2026-05-03T09:44:52.14Z</time></trkpt><trkpt lat="45.0796433" lon="12.2931276"><ele>-4.0</ele><time>2026-05-03T09:44:54.143Z</time></trkpt><trkpt lat="45.0796049" lon="12.2932611"><ele>-4.0</ele><time>2026-05-03T09:44:56.14Z</time></trkpt><trkpt lat="45.0795613" lon="12.2933875"><ele>-4.0</ele><time>2026-05-03T09:44:58.142Z</time></trkpt><trkpt lat="45.0795256" lon="12.2935218"><ele>-4.0</ele><time>2026-05-03T09:45:00.141Z</time></trkpt><trkpt lat="45.0794915" lon="12.2936621"><ele>-4.0</ele><time>2026-05-03T09:45:02.139Z</time></trkpt><trkpt lat="45.0794584" lon="12.2937976"><ele>-4.0</ele><time>2026-05-03T09:45:04.137Z</time></trkpt><trkpt lat="45.0794227" lon="12.2939282"><ele>-4.2</ele><time>2026-05-03T09:45:06.134Z</time></trkpt><trkpt lat="45.0793871" lon="12.2940561"><ele>-4.4</ele><time>2026-05-03T09:45:08.142Z</time></trkpt><trkpt lat="45.0793255" lon="12.2941636"><ele>-4.6</ele><time>2026-05-03T09:45:10.142Z</time></trkpt><trkpt lat="45.0792334" lon="12.2942373"><ele>-4.8</ele><time>2026-05-03T09:45:12.134Z</time></trkpt><trkpt lat="45.0791364" lon="12.2942979"><ele>-5.0</ele><time>2026-05-03T09:45:14.134Z</time></trkpt><trkpt lat="45.0790632" lon="12.2943935"><ele>-5.0</ele><time>2026-05-03T09:45:16.138Z</time></trkpt><trkpt lat="45.0790274" lon="12.2945307"><ele>-5.0</ele><time>2026-05-03T09:45:18.143Z</time></trkpt><trkpt lat="45.0790146" lon="12.2946819"><ele>-5.0</ele><time>2026-05-03T09:45:20.142Z</time></trkpt><trkpt lat="45.0789778" lon="12.2948181"><ele>-5.0</ele><time>2026-05-03T09:45:22.134Z</time></trkpt><trkpt lat="45.0789208" lon="12.2949394"><ele>-5.0</ele><time>2026-05-03T09:45:24.137Z</time></trkpt><trkpt lat="45.0788585" lon="12.2950566"><ele>-4.8</ele><time>2026-05-03T09:45:26.139Z</time></trkpt><trkpt lat="45.0788001" lon="12.2951784"><ele>-4.6</ele><time>2026-05-03T09:45:28.133Z</time></trkpt><trkpt lat="45.078741" lon="12.295302"><ele>-4.4</ele><time>2026-05-03T09:45:30.138Z</time></trkpt><trkpt lat="45.0786831" lon="12.2954235"><ele>-4.2</ele><time>2026-05-03T09:45:32.138Z</time></trkpt><trkpt lat="45.0786256" lon="12.295545"><ele>-4.0</ele><time>2026-05-03T09:45:34.136Z</time></trkpt><trkpt lat="45.07857" lon="12.2956662"><ele>-3.8000000000000003</ele><time>2026-05-03T09:45:36.142Z</time></trkpt><trkpt lat="45.078517" lon="12.2957884"><ele>-3.6000000000000005</ele><time>2026-05-03T09:45:38.136Z</time></trkpt><trkpt lat="45.0784586" lon="12.2959112"><ele>-3.4</ele><time>2026-05-03T09:45:40.141Z</time></trkpt><trkpt lat="45.0783951" lon="12.296033"><ele>-3.2</ele><time>2026-05-03T09:45:42.14Z</time></trkpt><trkpt lat="45.0783359" lon="12.2961489"><ele>-3.0</ele><time>2026-05-03T09:45:44.139Z</time></trkpt><trkpt lat="45.0782783" lon="12.2962686"><ele>-3.0</ele><time>2026-05-03T09:45:46.135Z</time></trkpt><trkpt lat="45.0782201" lon="12.2963842"><ele>-3.0</ele><time>2026-05-03T09:45:48.139Z</time></trkpt><trkpt lat="45.0781625" lon="12.2965004"><ele>-3.0</ele><time>2026-05-03T09:45:50.14Z</time></trkpt><trkpt lat="45.0781049" lon="12.2966148"><ele>-3.0</ele><time>2026-05-03T09:45:52.137Z</time></trkpt><trkpt lat="45.0780477" lon="12.296737"><ele>-3.0</ele><time>2026-05-03T09:45:54.141Z</time></trkpt><trkpt lat="45.0779919" lon="12.2968601"><ele>-3.0</ele><time>2026-05-03T09:45:56.139Z</time></trkpt><trkpt lat="45.0779335" lon="12.2969798"><ele>-3.0</ele><time>2026-05-03T09:45:58.141Z</time></trkpt><trkpt lat="45.0778778" lon="12.2971002"><ele>-3.0</ele><time>2026-05-03T09:46:00.14Z</time></trkpt><trkpt lat="45.0778234" lon="12.2972192"><ele>-3.0</ele><time>2026-05-03T09:46:02.141Z</time></trkpt><trkpt lat="45.0777654" lon="12.2973317"><ele>-3.0</ele><time>2026-05-03T09:46:04.135Z</time></trkpt><trkpt lat="45.0777094" lon="12.2974481"><ele>-3.0</ele><time>2026-05-03T09:46:06.144Z</time></trkpt><trkpt lat="45.077652" lon="12.2975656"><ele>-3.0</ele><time>2026-05-03T09:46:08.141Z</time></trkpt><trkpt lat="45.077597" lon="12.297686"><ele>-3.0</ele><time>2026-05-03T09:46:10.141Z</time></trkpt><trkpt lat="45.0775408" lon="12.2978112"><ele>-3.0</ele><time>2026-05-03T09:46:12.143Z</time></trkpt><trkpt lat="45.0774814" lon="12.2979358"><ele>-3.0</ele><time>2026-05-03T09:46:14.14Z</time></trkpt><trkpt lat="45.0774223" lon="12.2980605"><ele>-3.0</ele><time>2026-05-03T09:46:16.14Z</time></trkpt><trkpt lat="45.0773661" lon="12.2981858"><ele>-3.0</ele><time>2026-05-03T09:46:18.14Z</time></trkpt><trkpt lat="45.0773081" lon="12.2983075"><ele>-3.0</ele><time>2026-05-03T09:46:20.141Z</time></trkpt><trkpt lat="45.0772501" lon="12.2984285"><ele>-3.0</ele><time>2026-05-03T09:46:22.139Z</time></trkpt><trkpt lat="45.0771907" lon="12.2985506"><ele>-3.0</ele><time>2026-05-03T09:46:24.141Z</time></trkpt><trkpt lat="45.0771312" lon="12.2986731"><ele>-3.0</ele><time>2026-05-03T09:46:26.14Z</time></trkpt><trkpt lat="45.0770745" lon="12.2987967"><ele>-3.0</ele><time>2026-05-03T09:46:28.138Z</time></trkpt><trkpt lat="45.0770154" lon="12.2989189"><ele>-3.0</ele><time>2026-05-03T09:46:30.138Z</time></trkpt><trkpt lat="45.0769537" lon="12.2990408"><ele>-3.0</ele><time>2026-05-03T09:46:32.139Z</time></trkpt><trkpt lat="45.0768957" lon="12.2991633"><ele>-3.0</ele><time>2026-05-03T09:46:34.142Z</time></trkpt><trkpt lat="45.076838" lon="12.2992907"><ele>-3.2</ele><time>2026-05-03T09:46:36.14Z</time></trkpt><trkpt lat="45.0767762" lon="12.299419"><ele>-3.4</ele><time>2026-05-03T09:46:38.141Z</time></trkpt><trkpt lat="45.0767123" lon="12.2995487"><ele>-3.6000000000000005</ele><time>2026-05-03T09:46:40.137Z</time></trkpt><trkpt lat="45.0766504" lon="12.2996791"><ele>-3.8000000000000003</ele><time>2026-05-03T09:46:42.14Z</time></trkpt><trkpt lat="45.0765927" lon="12.2998074"><ele>-4.0</ele><time>2026-05-03T09:46:44.141Z</time></trkpt><trkpt lat="45.076534" lon="12.2999377"><ele>-4.0</ele><time>2026-05-03T09:46:46.138Z</time></trkpt><trkpt lat="45.0764715" lon="12.30006"><ele>-4.0</ele><time>2026-05-03T09:46:48.14Z</time></trkpt><trkpt lat="45.0764091" lon="12.3001828"><ele>-4.0</ele><time>2026-05-03T09:46:50.141Z</time></trkpt><trkpt lat="45.0763491" lon="12.3003086"><ele>-4.0</ele><time>2026-05-03T09:46:52.138Z</time></trkpt><trkpt lat="45.0762893" lon="12.3004316"><ele>-4.0</ele><time>2026-05-03T09:46:54.136Z</time></trkpt><trkpt lat="45.0762317" lon="12.3005573"><ele>-3.8000000000000003</ele><time>2026-05-03T09:46:56.141Z</time></trkpt><trkpt lat="45.076172" lon="12.3006843"><ele>-3.6000000000000005</ele><time>2026-05-03T09:46:58.138Z</time></trkpt><trkpt lat="45.0761143" lon="12.3008073"><ele>-3.4</ele><time>2026-05-03T09:47:00.135Z</time></trkpt><trkpt lat="45.0760551" lon="12.3009297"><ele>-3.2</ele><time>2026-05-03T09:47:02.139Z</time></trkpt><trkpt lat="45.0759961" lon="12.3010529"><ele>-3.0</ele><time>2026-05-03T09:47:04.141Z</time></trkpt><trkpt lat="45.0759378" lon="12.3011807"><ele>-3.0</ele><time>2026-05-03T09:47:06.142Z</time></trkpt><trkpt lat="45.0758791" lon="12.301309"><ele>-3.0</ele><time>2026-05-03T09:47:08.139Z</time></trkpt><trkpt lat="45.0758199" lon="12.3014323"><ele>-3.0</ele><time>2026-05-03T09:47:10.138Z</time></trkpt><trkpt lat="45.07576" lon="12.3015528"><ele>-3.0</ele><time>2026-05-03T09:47:12.137Z</time></trkpt><trkpt lat="45.0757002" lon="12.3016741"><ele>-3.0</ele><time>2026-05-03T09:47:14.138Z</time></trkpt><trkpt lat="45.0756424" lon="12.3017945"><ele>-3.0</ele><time>2026-05-03T09:47:16.136Z</time></trkpt><trkpt lat="45.0755879" lon="12.3019141"><ele>-3.0</ele><time>2026-05-03T09:47:18.137Z</time></trkpt><trkpt lat="45.0755315" lon="12.3020347"><ele>-3.0</ele><time>2026-05-03T09:47:20.14Z</time></trkpt><trkpt lat="45.0754764" lon="12.3021458"><ele>-3.0</ele><time>2026-05-03T09:47:22.139Z</time></trkpt><trkpt lat="45.0754455" lon="12.3022554"><ele>-3.0</ele><time>2026-05-03T09:47:24.144Z</time></trkpt><trkpt lat="45.0754479" lon="12.3023682"><ele>-3.0</ele><time>2026-05-03T09:47:26.138Z</time></trkpt><trkpt lat="45.0754503" lon="12.3024696"><ele>-3.0</ele><time>2026-05-03T09:47:28.137Z</time></trkpt><trkpt lat="45.075418" lon="12.3025493"><ele>-3.0</ele><time>2026-05-03T09:47:30.138Z</time></trkpt><trkpt lat="45.0753684" lon="12.30263"><ele>-3.0</ele><time>2026-05-03T09:47:32.135Z</time></trkpt><trkpt lat="45.0753082" lon="12.3027138"><ele>-3.0</ele><time>2026-05-03T09:47:34.14Z</time></trkpt><trkpt lat="45.0752286" lon="12.3027519"><ele>-3.0</ele><time>2026-05-03T09:47:36.134Z</time></trkpt><trkpt lat="45.0751405" lon="12.302737"><ele>-3.0</ele><time>2026-05-03T09:47:38.141Z</time></trkpt><trkpt lat="45.0750682" lon="12.3026649"><ele>-3.0</ele><time>2026-05-03T09:47:40.134Z</time></trkpt><trkpt lat="45.0749937" lon="12.3025949"><ele>-3.0</ele><time>2026-05-03T09:47:42.133Z</time></trkpt><trkpt lat="45.0749111" lon="12.3025418"><ele>-3.0</ele><time>2026-05-03T09:47:44.134Z</time></trkpt><trkpt lat="45.0748262" lon="12.3024937"><ele>-3.0</ele><time>2026-05-03T09:47:46.137Z</time></trkpt><trkpt lat="45.074741" lon="12.3024422"><ele>-3.2</ele><time>2026-05-03T09:47:48.133Z</time></trkpt><trkpt lat="45.0746535" lon="12.3023914"><ele>-3.4</ele><time>2026-05-03T09:47:50.139Z</time></trkpt><trkpt lat="45.0745624" lon="12.3023363"><ele>-3.6000000000000005</ele><time>2026-05-03T09:47:52.134Z</time></trkpt><trkpt lat="45.0744755" lon="12.3022797"><ele>-3.8000000000000003</ele><time>2026-05-03T09:47:54.135Z</time></trkpt><trkpt lat="45.0743873" lon="12.3022258"><ele>-4.0</ele><time>2026-05-03T09:47:56.134Z</time></trkpt><trkpt lat="45.0742952" lon="12.3021662"><ele>-4.0</ele><time>2026-05-03T09:47:58.134Z</time></trkpt><trkpt lat="45.0742028" lon="12.3021069"><ele>-4.0</ele><time>2026-05-03T09:48:00.138Z</time></trkpt><trkpt lat="45.0741118" lon="12.3020507"><ele>-4.0</ele><time>2026-05-03T09:48:02.135Z</time></trkpt><trkpt lat="45.0740195" lon="12.3019947"><ele>-4.0</ele><time>2026-05-03T09:48:04.131Z</time></trkpt><trkpt lat="45.0739261" lon="12.3019342"><ele>-4.0</ele><time>2026-05-03T09:48:06.128Z</time></trkpt><trkpt lat="45.0738319" lon="12.3018731"><ele>-4.0</ele><time>2026-05-03T09:48:08.134Z</time></trkpt><trkpt lat="45.073737" lon="12.3018149"><ele>-4.0</ele><time>2026-05-03T09:48:10.134Z</time></trkpt><trkpt lat="45.0736438" lon="12.3017511"><ele>-4.0</ele><time>2026-05-03T09:48:12.133Z</time></trkpt><trkpt lat="45.0735498" lon="12.3016945"><ele>-4.0</ele><time>2026-05-03T09:48:14.134Z</time></trkpt><trkpt lat="45.0734535" lon="12.3016372"><ele>-4.0</ele><time>2026-05-03T09:48:16.135Z</time></trkpt><trkpt lat="45.0733611" lon="12.3015797"><ele>-3.8000000000000003</ele><time>2026-05-03T09:48:18.137Z</time></trkpt><trkpt lat="45.0732667" lon="12.3015221"><ele>-3.6000000000000005</ele><time>2026-05-03T09:48:20.134Z</time></trkpt><trkpt lat="45.0731721" lon="12.3014633"><ele>-3.4</ele><time>2026-05-03T09:48:22.133Z</time></trkpt><trkpt lat="45.073076" lon="12.3014037"><ele>-3.2</ele><time>2026-05-03T09:48:24.135Z</time></trkpt><trkpt lat="45.0729786" lon="12.3013445"><ele>-3.0</ele><time>2026-05-03T09:48:26.137Z</time></trkpt><trkpt lat="45.0728881" lon="12.3012863"><ele>-3.0</ele><time>2026-05-03T09:48:28.133Z</time></trkpt><trkpt lat="45.0727979" lon="12.3012359"><ele>-3.0</ele><time>2026-05-03T09:48:30.134Z</time></trkpt><trkpt lat="45.0727113" lon="12.3012165"><ele>-3.0</ele><time>2026-05-03T09:48:32.13Z</time></trkpt><trkpt lat="45.0726268" lon="12.3012342"><ele>-3.0</ele><time>2026-05-03T09:48:34.132Z</time></trkpt><trkpt lat="45.0725589" lon="12.3012871"><ele>-3.0</ele><time>2026-05-03T09:48:36.132Z</time></trkpt><trkpt lat="45.0725119" lon="12.3013534"><ele>-3.0</ele><time>2026-05-03T09:48:38.13Z</time></trkpt><trkpt lat="45.072473" lon="12.3014299"><ele>-2.0</ele><time>2026-05-03T09:48:40.134Z</time></trkpt><trkpt lat="45.0724193" lon="12.3015317"><ele>-1.0</ele><time>2026-05-03T09:48:43.134Z</time></trkpt><trkpt lat="45.0723652" lon="12.301604"><ele>0.0</ele><time>2026-05-03T09:48:46.132Z</time></trkpt><trkpt lat="45.0723038" lon="12.3016579"><ele>1.0</ele><time>2026-05-03T09:48:49.134Z</time></trkpt><trkpt lat="45.0722994" lon="12.3017555"><ele>2.0</ele><time>2026-05-03T09:48:52.139Z</time></trkpt><trkpt lat="45.072309" lon="12.3018535"><ele>3.0</ele><time>2026-05-03T09:48:56.136Z</time></trkpt><trkpt lat="45.0722685" lon="12.3019524"><ele>3.0</ele><time>2026-05-03T09:49:00.138Z</time></trkpt><trkpt lat="45.0722229" lon="12.3020319"><ele>3.0</ele><time>2026-05-03T09:49:03.137Z</time></trkpt><trkpt lat="45.0721593" lon="12.3021081"><ele>3.0</ele><time>2026-05-03T09:49:06.137Z</time></trkpt><trkpt lat="45.0720929" lon="12.3021835"><ele>3.0</ele><time>2026-05-03T09:49:09.137Z</time></trkpt><trkpt lat="45.0720115" lon="12.3022571"><ele>3.0</ele><time>2026-05-03T09:49:12.137Z</time></trkpt><trkpt lat="45.0719506" lon="12.3023092"><ele>3.0</ele><time>2026-05-03T09:49:14.139Z</time></trkpt><trkpt lat="45.0718845" lon="12.3023527"><ele>2.5</ele><time>2026-05-03T09:49:16.136Z</time></trkpt><trkpt lat="45.0718157" lon="12.3023954"><ele>2.0</ele><time>2026-05-03T09:49:18.139Z</time></trkpt><trkpt lat="45.0717428" lon="12.3024337"><ele>1.5</ele><time>2026-05-03T09:49:20.131Z</time></trkpt><trkpt lat="45.0716649" lon="12.3024646"><ele>1.0</ele><time>2026-05-03T09:49:22.136Z</time></trkpt><trkpt lat="45.0715883" lon="12.3024913"><ele>0.5</ele><time>2026-05-03T09:49:24.137Z</time></trkpt><trkpt lat="45.0715126" lon="12.3025215"><ele>0.0</ele><time>2026-05-03T09:49:26.139Z</time></trkpt><trkpt lat="45.0714334" lon="12.302554"><ele>0.0</ele><time>2026-05-03T09:49:28.141Z</time></trkpt><trkpt lat="45.0713534" lon="12.3025763"><ele>0.0</ele><time>2026-05-03T09:49:30.139Z</time></trkpt><trkpt lat="45.0712732" lon="12.3025948"><ele>0.0</ele><time>2026-05-03T09:49:32.137Z</time></trkpt><trkpt lat="45.0711877" lon="12.3026237"><ele>0.0</ele><time>2026-05-03T09:49:34.142Z</time></trkpt><trkpt lat="45.0711047" lon="12.302642"><ele>0.0</ele><time>2026-05-03T09:49:36.139Z</time></trkpt><trkpt lat="45.0710206" lon="12.3026674"><ele>0.0</ele><time>2026-05-03T09:49:38.144Z</time></trkpt><trkpt lat="45.0709373" lon="12.3026938"><ele>0.0</ele><time>2026-05-03T09:49:40.143Z</time></trkpt><trkpt lat="45.0708507" lon="12.3027194"><ele>0.0</ele><time>2026-05-03T09:49:42.14Z</time></trkpt><trkpt lat="45.0707614" lon="12.3027502"><ele>0.0</ele><time>2026-05-03T09:49:44.134Z</time></trkpt><trkpt lat="45.070675" lon="12.3027806"><ele>0.0</ele><time>2026-05-03T09:49:46.136Z</time></trkpt><trkpt lat="45.0705903" lon="12.3028061"><ele>0.0</ele><time>2026-05-03T09:49:48.139Z</time></trkpt><trkpt lat="45.0705014" lon="12.3028303"><ele>0.0</ele><time>2026-05-03T09:49:50.135Z</time></trkpt><trkpt lat="45.0704159" lon="12.3028536"><ele>-0.6666666666666666</ele><time>2026-05-03T09:49:52.136Z</time></trkpt><trkpt lat="45.0703373" lon="12.3028768"><ele>-1.3333333333333333</ele><time>2026-05-03T09:49:54.137Z</time></trkpt><trkpt lat="45.0702668" lon="12.3029041"><ele>-2.0</ele><time>2026-05-03T09:49:56.141Z</time></trkpt><trkpt lat="45.0702019" lon="12.3029296"><ele>-2.6666666666666665</ele><time>2026-05-03T09:49:58.139Z</time></trkpt><trkpt lat="45.0701296" lon="12.3029515"><ele>-3.333333333333333</ele><time>2026-05-03T09:50:00.137Z</time></trkpt><trkpt lat="45.0700484" lon="12.3029701"><ele>-4.0</ele><time>2026-05-03T09:50:02.133Z</time></trkpt><trkpt lat="45.0699622" lon="12.3029938"><ele>-3.8000000000000003</ele><time>2026-05-03T09:50:04.134Z</time></trkpt><trkpt lat="45.069871" lon="12.303019"><ele>-3.6000000000000005</ele><time>2026-05-03T09:50:06.132Z</time></trkpt><trkpt lat="45.0697779" lon="12.303043"><ele>-3.4</ele><time>2026-05-03T09:50:08.136Z</time></trkpt><trkpt lat="45.0696831" lon="12.3030722"><ele>-3.2</ele><time>2026-05-03T09:50:10.141Z</time></trkpt><trkpt lat="45.0695892" lon="12.3031071"><ele>-3.0</ele><time>2026-05-03T09:50:12.141Z</time></trkpt><trkpt lat="45.0695009" lon="12.3031466"><ele>-2.8</ele><time>2026-05-03T09:50:14.133Z</time></trkpt><trkpt lat="45.0694148" lon="12.3031954"><ele>-2.5999999999999996</ele><time>2026-05-03T09:50:16.14Z</time></trkpt><trkpt lat="45.0693304" lon="12.3032505"><ele>-2.4000000000000004</ele><time>2026-05-03T09:50:18.136Z</time></trkpt><trkpt lat="45.0692486" lon="12.3033065"><ele>-2.2</ele><time>2026-05-03T09:50:20.136Z</time></trkpt><trkpt lat="45.0691668" lon="12.3033609"><ele>-2.0</ele><time>2026-05-03T09:50:22.138Z</time></trkpt><trkpt lat="45.0690828" lon="12.3034189"><ele>-1.8</ele><time>2026-05-03T09:50:24.13Z</time></trkpt><trkpt lat="45.069" lon="12.3034771"><ele>-1.6</ele><time>2026-05-03T09:50:26.139Z</time></trkpt><trkpt lat="45.0689179" lon="12.3035371"><ele>-1.4000000000000001</ele><time>2026-05-03T09:50:28.142Z</time></trkpt><trkpt lat="45.0688343" lon="12.3035959"><ele>-1.2000000000000002</ele><time>2026-05-03T09:50:30.14Z</time></trkpt><trkpt lat="45.0687478" lon="12.3036524"><ele>-1.0</ele><time>2026-05-03T09:50:32.137Z</time></trkpt><trkpt lat="45.0686633" lon="12.3037139"><ele>-1.0</ele><time>2026-05-03T09:50:34.138Z</time></trkpt><trkpt lat="45.0685822" lon="12.3037891"><ele>-1.0</ele><time>2026-05-03T09:50:36.139Z</time></trkpt><trkpt lat="45.0684999" lon="12.3038683"><ele>-1.0</ele><time>2026-05-03T09:50:38.136Z</time></trkpt><trkpt lat="45.0684243" lon="12.3039449"><ele>-1.0</ele><time>2026-05-03T09:50:40.135Z</time></trkpt><trkpt lat="45.0683559" lon="12.3040404"><ele>-1.0</ele><time>2026-05-03T09:50:42.138Z</time></trkpt><trkpt lat="45.0682918" lon="12.3041503"><ele>-1.4</ele><time>2026-05-03T09:50:44.137Z</time></trkpt><trkpt lat="45.0682319" lon="12.3042652"><ele>-1.8</ele><time>2026-05-03T09:50:46.131Z</time></trkpt><trkpt lat="45.0681767" lon="12.3043783"><ele>-2.1999999999999997</ele><time>2026-05-03T09:50:48.135Z</time></trkpt><trkpt lat="45.0681272" lon="12.3044959"><ele>-2.6</ele><time>2026-05-03T09:50:50.139Z</time></trkpt><trkpt lat="45.0680799" lon="12.3046139"><ele>-3.0</ele><time>2026-05-03T09:50:52.133Z</time></trkpt><trkpt lat="45.068038" lon="12.3047283"><ele>-3.0</ele><time>2026-05-03T09:50:54.139Z</time></trkpt><trkpt lat="45.0679934" lon="12.3048407"><ele>-3.0</ele><time>2026-05-03T09:50:56.135Z</time></trkpt><trkpt lat="45.0679441" lon="12.304955"><ele>-3.0</ele><time>2026-05-03T09:50:58.139Z</time></trkpt><trkpt lat="45.0678918" lon="12.3050661"><ele>-3.0</ele><time>2026-05-03T09:51:00.144Z</time></trkpt><trkpt lat="45.0678378" lon="12.3051684"><ele>-3.0</ele><time>2026-05-03T09:51:02.136Z</time></trkpt><trkpt lat="45.0677733" lon="12.3052588"><ele>-3.0</ele><time>2026-05-03T09:51:04.14Z</time></trkpt><trkpt lat="45.0677103" lon="12.3053564"><ele>-3.0</ele><time>2026-05-03T09:51:06.139Z</time></trkpt><trkpt lat="45.067647" lon="12.3054548"><ele>-3.0</ele><time>2026-05-03T09:51:08.138Z</time></trkpt><trkpt lat="45.067581" lon="12.3055452"><ele>-3.0</ele><time>2026-05-03T09:51:10.136Z</time></trkpt><trkpt lat="45.0675138" lon="12.3056364"><ele>-3.0</ele><time>2026-05-03T09:51:12.133Z</time></trkpt><trkpt lat="45.0674448" lon="12.3057287"><ele>-3.0</ele><time>2026-05-03T09:51:14.138Z</time></trkpt><trkpt lat="45.0673729" lon="12.3058238"><ele>-3.0</ele><time>2026-05-03T09:51:16.14Z</time></trkpt><trkpt lat="45.0672997" lon="12.3059214"><ele>-3.0</ele><time>2026-05-03T09:51:18.132Z</time></trkpt><trkpt lat="45.0672239" lon="12.3060138"><ele>-3.0</ele><time>2026-05-03T09:51:20.14Z</time></trkpt><trkpt lat="45.067151" lon="12.3061041"><ele>-3.0</ele><time>2026-05-03T09:51:22.139Z</time></trkpt><trkpt lat="45.0670821" lon="12.3061952"><ele>-3.0</ele><time>2026-05-03T09:51:24.134Z</time></trkpt><trkpt lat="45.0670121" lon="12.3062852"><ele>-3.0</ele><time>2026-05-03T09:51:26.131Z</time></trkpt><trkpt lat="45.0669431" lon="12.3063737"><ele>-3.0</ele><time>2026-05-03T09:51:28.134Z</time></trkpt><trkpt lat="45.0668741" lon="12.3064684"><ele>-3.0</ele><time>2026-05-03T09:51:30.136Z</time></trkpt><trkpt lat="45.0668049" lon="12.306562"><ele>-3.0</ele><time>2026-05-03T09:51:32.136Z</time></trkpt><trkpt lat="45.0667392" lon="12.3066608"><ele>-2.8</ele><time>2026-05-03T09:51:34.136Z</time></trkpt><trkpt lat="45.0666789" lon="12.3067616"><ele>-2.5999999999999996</ele><time>2026-05-03T09:51:36.133Z</time></trkpt><trkpt lat="45.0666188" lon="12.3068709"><ele>-2.4000000000000004</ele><time>2026-05-03T09:51:38.139Z</time></trkpt><trkpt lat="45.0665635" lon="12.3069845"><ele>-2.2</ele><time>2026-05-03T09:51:40.131Z</time></trkpt><trkpt lat="45.0665052" lon="12.307094"><ele>-2.0</ele><time>2026-05-03T09:51:42.135Z</time></trkpt><trkpt lat="45.0664518" lon="12.3072073"><ele>-1.6</ele><time>2026-05-03T09:51:44.135Z</time></trkpt><trkpt lat="45.0663949" lon="12.3073211"><ele>-1.2000000000000002</ele><time>2026-05-03T09:51:46.134Z</time></trkpt><trkpt lat="45.0663401" lon="12.3074345"><ele>-0.8</ele><time>2026-05-03T09:51:48.138Z</time></trkpt><trkpt lat="45.0662808" lon="12.3075401"><ele>-0.4</ele><time>2026-05-03T09:51:50.134Z</time></trkpt><trkpt lat="45.0662163" lon="12.3076489"><ele>0.0</ele><time>2026-05-03T09:51:52.13Z</time></trkpt><trkpt lat="45.0661576" lon="12.3077573"><ele>0.0</ele><time>2026-05-03T09:51:54.134Z</time></trkpt><trkpt lat="45.0661013" lon="12.3078757"><ele>0.0</ele><time>2026-05-03T09:51:56.133Z</time></trkpt><trkpt lat="45.066042" lon="12.3079925"><ele>0.0</ele><time>2026-05-03T09:51:58.137Z</time></trkpt><trkpt lat="45.0659833" lon="12.308107"><ele>0.0</ele><time>2026-05-03T09:52:00.138Z</time></trkpt><trkpt lat="45.0659258" lon="12.3082158"><ele>0.0</ele><time>2026-05-03T09:52:02.134Z</time></trkpt><trkpt lat="45.065862" lon="12.3083245"><ele>-0.6</ele><time>2026-05-03T09:52:04.14Z</time></trkpt><trkpt lat="45.0657936" lon="12.3084275"><ele>-1.2</ele><time>2026-05-03T09:52:06.137Z</time></trkpt><trkpt lat="45.0657239" lon="12.3085244"><ele>-1.7999999999999998</ele><time>2026-05-03T09:52:08.137Z</time></trkpt><trkpt lat="45.0656552" lon="12.3086172"><ele>-2.4</ele><time>2026-05-03T09:52:10.132Z</time></trkpt><trkpt lat="45.0655847" lon="12.308712"><ele>-3.0</ele><time>2026-05-03T09:52:12.134Z</time></trkpt><trkpt lat="45.0655157" lon="12.3088123"><ele>-2.8</ele><time>2026-05-03T09:52:14.139Z</time></trkpt><trkpt lat="45.0654471" lon="12.3089111"><ele>-2.5999999999999996</ele><time>2026-05-03T09:52:16.138Z</time></trkpt><trkpt lat="45.0653799" lon="12.3090138"><ele>-2.4000000000000004</ele><time>2026-05-03T09:52:18.136Z</time></trkpt><trkpt lat="45.0653155" lon="12.3091227"><ele>-2.2</ele><time>2026-05-03T09:52:20.135Z</time></trkpt><trkpt lat="45.0652553" lon="12.3092328"><ele>-2.0</ele><time>2026-05-03T09:52:22.143Z</time></trkpt><trkpt lat="45.0651976" lon="12.309343"><ele>-2.0</ele><time>2026-05-03T09:52:24.145Z</time></trkpt><trkpt lat="45.0651378" lon="12.3094597"><ele>-2.0</ele><time>2026-05-03T09:52:26.138Z</time></trkpt><trkpt lat="45.0650827" lon="12.3095765"><ele>-2.0</ele><time>2026-05-03T09:52:28.143Z</time></trkpt><trkpt lat="45.0650314" lon="12.309699"><ele>-2.0</ele><time>2026-05-03T09:52:30.143Z</time></trkpt><trkpt lat="45.0649856" lon="12.309824"><ele>-2.0</ele><time>2026-05-03T09:52:32.136Z</time></trkpt><trkpt lat="45.0649502" lon="12.3099565"><ele>-2.2</ele><time>2026-05-03T09:52:34.138Z</time></trkpt><trkpt lat="45.0649254" lon="12.3100914"><ele>-2.4000000000000004</ele><time>2026-05-03T09:52:36.142Z</time></trkpt><trkpt lat="45.0649082" lon="12.3102291"><ele>-2.5999999999999996</ele><time>2026-05-03T09:52:38.133Z</time></trkpt><trkpt lat="45.0649037" lon="12.3103659"><ele>-2.8</ele><time>2026-05-03T09:52:40.134Z</time></trkpt><trkpt lat="45.0649055" lon="12.3105008"><ele>-3.0</ele><time>2026-05-03T09:52:42.133Z</time></trkpt><trkpt lat="45.0649095" lon="12.3106393"><ele>-3.0</ele><time>2026-05-03T09:52:44.137Z</time></trkpt><trkpt lat="45.0649161" lon="12.3107771"><ele>-3.0</ele><time>2026-05-03T09:52:46.142Z</time></trkpt><trkpt lat="45.0649271" lon="12.3109123"><ele>-3.0</ele><time>2026-05-03T09:52:48.141Z</time></trkpt><trkpt lat="45.0649487" lon="12.3110501"><ele>-3.0</ele><time>2026-05-03T09:52:50.14Z</time></trkpt><trkpt lat="45.0649794" lon="12.3111879"><ele>-3.0</ele><time>2026-05-03T09:52:52.138Z</time></trkpt><trkpt lat="45.0650194" lon="12.3113202"><ele>-2.6</ele><time>2026-05-03T09:52:54.14Z</time></trkpt><trkpt lat="45.0650643" lon="12.3114485"><ele>-2.1999999999999997</ele><time>2026-05-03T09:52:56.138Z</time></trkpt><trkpt lat="45.0651075" lon="12.31157"><ele>-1.8</ele><time>2026-05-03T09:52:58.141Z</time></trkpt><trkpt lat="45.0651353" lon="12.311687"><ele>-1.4</ele><time>2026-05-03T09:53:00.139Z</time></trkpt><trkpt lat="45.0651456" lon="12.3117993"><ele>-1.0</ele><time>2026-05-03T09:53:02.137Z</time></trkpt><trkpt lat="45.0651504" lon="12.3119217"><ele>-1.0</ele><time>2026-05-03T09:53:04.139Z</time></trkpt><trkpt lat="45.0651498" lon="12.3120547"><ele>-1.0</ele><time>2026-05-03T09:53:06.131Z</time></trkpt><trkpt lat="45.0651473" lon="12.3121921"><ele>-1.0</ele><time>2026-05-03T09:53:08.141Z</time></trkpt><trkpt lat="45.065146" lon="12.3123303"><ele>-1.0</ele><time>2026-05-03T09:53:10.14Z</time></trkpt><trkpt lat="45.0651478" lon="12.3124656"><ele>-1.0</ele><time>2026-05-03T09:53:12.133Z</time></trkpt><trkpt lat="45.0651452" lon="12.312601"><ele>-1.2000000000000002</ele><time>2026-05-03T09:53:14.135Z</time></trkpt><trkpt lat="45.0651443" lon="12.3127384"><ele>-1.4000000000000001</ele><time>2026-05-03T09:53:16.139Z</time></trkpt><trkpt lat="45.06514" lon="12.312883"><ele>-1.6</ele><time>2026-05-03T09:53:18.138Z</time></trkpt><trkpt lat="45.0651323" lon="12.3130241"><ele>-1.8</ele><time>2026-05-03T09:53:20.134Z</time></trkpt><trkpt lat="45.0651193" lon="12.3131579"><ele>-2.0</ele><time>2026-05-03T09:53:22.138Z</time></trkpt><trkpt lat="45.0651095" lon="12.3132928"><ele>-2.0</ele><time>2026-05-03T09:53:24.135Z</time></trkpt><trkpt lat="45.0651018" lon="12.313423"><ele>-2.0</ele><time>2026-05-03T09:53:26.138Z</time></trkpt><trkpt lat="45.065095" lon="12.3135557"><ele>-2.0</ele><time>2026-05-03T09:53:28.138Z</time></trkpt><trkpt lat="45.065087" lon="12.3136921"><ele>-2.0</ele><time>2026-05-03T09:53:30.137Z</time></trkpt><trkpt lat="45.0650781" lon="12.3138259"><ele>-2.0</ele><time>2026-05-03T09:53:32.139Z</time></trkpt><trkpt lat="45.0650678" lon="12.3139615"><ele>-1.8</ele><time>2026-05-03T09:53:34.139Z</time></trkpt><trkpt lat="45.0650597" lon="12.3140961"><ele>-1.6</ele><time>2026-05-03T09:53:36.138Z</time></trkpt><trkpt lat="45.0650504" lon="12.3142299"><ele>-1.4000000000000001</ele><time>2026-05-03T09:53:38.137Z</time></trkpt><trkpt lat="45.0650406" lon="12.3143664"><ele>-1.2000000000000002</ele><time>2026-05-03T09:53:40.135Z</time></trkpt><trkpt lat="45.0650267" lon="12.3144996"><ele>-1.0</ele><time>2026-05-03T09:53:42.135Z</time></trkpt><trkpt lat="45.065002" lon="12.3146327"><ele>-1.0</ele><time>2026-05-03T09:53:44.132Z</time></trkpt><trkpt lat="45.0649661" lon="12.3147613"><ele>-1.0</ele><time>2026-05-03T09:53:46.136Z</time></trkpt><trkpt lat="45.0649187" lon="12.3148846"><ele>-1.0</ele><time>2026-05-03T09:53:48.137Z</time></trkpt><trkpt lat="45.0648635" lon="12.3150031"><ele>-1.0</ele><time>2026-05-03T09:53:50.138Z</time></trkpt><trkpt lat="45.0648056" lon="12.3151188"><ele>-1.0</ele><time>2026-05-03T09:53:52.138Z</time></trkpt><trkpt lat="45.0647449" lon="12.315231"><ele>-1.0</ele><time>2026-05-03T09:53:54.132Z</time></trkpt><trkpt lat="45.0646859" lon="12.3153424"><ele>-1.0</ele><time>2026-05-03T09:53:56.135Z</time></trkpt><trkpt lat="45.0646279" lon="12.3154485"><ele>-1.0</ele><time>2026-05-03T09:53:58.135Z</time></trkpt><trkpt lat="45.0645683" lon="12.3155578"><ele>-1.0</ele><time>2026-05-03T09:54:00.136Z</time></trkpt><trkpt lat="45.0645119" lon="12.3156701"><ele>-1.0</ele><time>2026-05-03T09:54:02.141Z</time></trkpt><trkpt lat="45.0644546" lon="12.3157781"><ele>-1.4</ele><time>2026-05-03T09:54:04.133Z</time></trkpt><trkpt lat="45.0643937" lon="12.3158863"><ele>-1.8</ele><time>2026-05-03T09:54:06.135Z</time></trkpt><trkpt lat="45.0643358" lon="12.3159953"><ele>-2.1999999999999997</ele><time>2026-05-03T09:54:08.14Z</time></trkpt><trkpt lat="45.0642786" lon="12.3161014"><ele>-2.6</ele><time>2026-05-03T09:54:10.137Z</time></trkpt><trkpt lat="45.0642188" lon="12.3162111"><ele>-3.0</ele><time>2026-05-03T09:54:12.136Z</time></trkpt><trkpt lat="45.0641589" lon="12.3163247"><ele>-3.4</ele><time>2026-05-03T09:54:14.134Z</time></trkpt><trkpt lat="45.0641008" lon="12.3164357"><ele>-3.8</ele><time>2026-05-03T09:54:16.135Z</time></trkpt><trkpt lat="45.064042" lon="12.3165424"><ele>-4.2</ele><time>2026-05-03T09:54:18.137Z</time></trkpt><trkpt lat="45.0639818" lon="12.3166485"><ele>-4.6</ele><time>2026-05-03T09:54:20.137Z</time></trkpt><trkpt lat="45.0639233" lon="12.3167569"><ele>-5.0</ele><time>2026-05-03T09:54:22.137Z</time></trkpt><trkpt lat="45.063868" lon="12.3168706"><ele>-5.0</ele><time>2026-05-03T09:54:24.139Z</time></trkpt><trkpt lat="45.0638105" lon="12.3169814"><ele>-5.0</ele><time>2026-05-03T09:54:26.135Z</time></trkpt><trkpt lat="45.0637551" lon="12.3170928"><ele>-5.0</ele><time>2026-05-03T09:54:28.138Z</time></trkpt><trkpt lat="45.0637018" lon="12.3172085"><ele>-5.0</ele><time>2026-05-03T09:54:30.136Z</time></trkpt><trkpt lat="45.0636519" lon="12.3173281"><ele>-5.0</ele><time>2026-05-03T09:54:32.136Z</time></trkpt><trkpt lat="45.0636069" lon="12.3174496"><ele>-4.6</ele><time>2026-05-03T09:54:34.138Z</time></trkpt><trkpt lat="45.0635626" lon="12.3175735"><ele>-4.2</ele><time>2026-05-03T09:54:36.14Z</time></trkpt><trkpt lat="45.0635217" lon="12.3176961"><ele>-3.8</ele><time>2026-05-03T09:54:38.14Z</time></trkpt><trkpt lat="45.063483" lon="12.3178159"><ele>-3.4</ele><time>2026-05-03T09:54:40.138Z</time></trkpt><trkpt lat="45.0634446" lon="12.3179337"><ele>-3.0</ele><time>2026-05-03T09:54:42.138Z</time></trkpt><trkpt lat="45.0634136" lon="12.3180555"><ele>-3.0</ele><time>2026-05-03T09:54:44.133Z</time></trkpt><trkpt lat="45.0633827" lon="12.31818"><ele>-3.0</ele><time>2026-05-03T09:54:46.138Z</time></trkpt><trkpt lat="45.0633525" lon="12.3183027"><ele>-3.0</ele><time>2026-05-03T09:54:48.138Z</time></trkpt><trkpt lat="45.0633236" lon="12.3184277"><ele>-3.0</ele><time>2026-05-03T09:54:50.139Z</time></trkpt><trkpt lat="45.0632989" lon="12.3185524"><ele>-3.0</ele><time>2026-05-03T09:54:52.134Z</time></trkpt><trkpt lat="45.0632775" lon="12.3186803"><ele>-3.0</ele><time>2026-05-03T09:54:54.139Z</time></trkpt><trkpt lat="45.0632569" lon="12.318809"><ele>-3.0</ele><time>2026-05-03T09:54:56.138Z</time></trkpt><trkpt lat="45.0632343" lon="12.3189399"><ele>-3.0</ele><time>2026-05-03T09:54:58.135Z</time></trkpt><trkpt lat="45.0632163" lon="12.3190715"><ele>-3.0</ele><time>2026-05-03T09:55:00.14Z</time></trkpt><trkpt lat="45.0632043" lon="12.3192031"><ele>-3.0</ele><time>2026-05-03T09:55:02.137Z</time></trkpt><trkpt lat="45.0631976" lon="12.3193393"><ele>-2.8</ele><time>2026-05-03T09:55:04.138Z</time></trkpt><trkpt lat="45.0631934" lon="12.3194779"><ele>-2.5999999999999996</ele><time>2026-05-03T09:55:06.138Z</time></trkpt><trkpt lat="45.0631922" lon="12.3196163"><ele>-2.4000000000000004</ele><time>2026-05-03T09:55:08.139Z</time></trkpt><trkpt lat="45.0631947" lon="12.319755"><ele>-2.2</ele><time>2026-05-03T09:55:10.141Z</time></trkpt><trkpt lat="45.0632025" lon="12.3198901"><ele>-2.0</ele><time>2026-05-03T09:55:12.139Z</time></trkpt><trkpt lat="45.063211" lon="12.3200235"><ele>-2.0</ele><time>2026-05-03T09:55:14.136Z</time></trkpt><trkpt lat="45.0632198" lon="12.3201586"><ele>-2.0</ele><time>2026-05-03T09:55:16.135Z</time></trkpt><trkpt lat="45.0632268" lon="12.320291"><ele>-2.0</ele><time>2026-05-03T09:55:18.14Z</time></trkpt><trkpt lat="45.0632345" lon="12.3204215"><ele>-2.0</ele><time>2026-05-03T09:55:20.137Z</time></trkpt><trkpt lat="45.0632427" lon="12.3205541"><ele>-2.0</ele><time>2026-05-03T09:55:22.137Z</time></trkpt><trkpt lat="45.0632516" lon="12.3206897"><ele>-2.0</ele><time>2026-05-03T09:55:24.137Z</time></trkpt><trkpt lat="45.0632668" lon="12.3208276"><ele>-2.0</ele><time>2026-05-03T09:55:26.141Z</time></trkpt><trkpt lat="45.0632821" lon="12.3209683"><ele>-2.0</ele><time>2026-05-03T09:55:28.139Z</time></trkpt><trkpt lat="45.0632949" lon="12.3211113"><ele>-2.0</ele><time>2026-05-03T09:55:30.141Z</time></trkpt><trkpt lat="45.063306" lon="12.3212535"><ele>-2.0</ele><time>2026-05-03T09:55:32.141Z</time></trkpt><trkpt lat="45.0633176" lon="12.3213912"><ele>-1.8</ele><time>2026-05-03T09:55:34.14Z</time></trkpt><trkpt lat="45.0633309" lon="12.3215305"><ele>-1.6</ele><time>2026-05-03T09:55:36.134Z</time></trkpt><trkpt lat="45.0633447" lon="12.3216699"><ele>-1.4000000000000001</ele><time>2026-05-03T09:55:38.142Z</time></trkpt><trkpt lat="45.06336" lon="12.321806"><ele>-1.2000000000000002</ele><time>2026-05-03T09:55:40.144Z</time></trkpt><trkpt lat="45.0633755" lon="12.3219444"><ele>-1.0</ele><time>2026-05-03T09:55:42.135Z</time></trkpt><trkpt lat="45.0633909" lon="12.3220807"><ele>-1.0</ele><time>2026-05-03T09:55:44.138Z</time></trkpt><trkpt lat="45.0634086" lon="12.3222133"><ele>-1.0</ele><time>2026-05-03T09:55:46.137Z</time></trkpt><trkpt lat="45.0634284" lon="12.3223455"><ele>-1.0</ele><time>2026-05-03T09:55:48.138Z</time></trkpt><trkpt lat="45.0634468" lon="12.3224813"><ele>-1.0</ele><time>2026-05-03T09:55:50.141Z</time></trkpt><trkpt lat="45.0634685" lon="12.3226197"><ele>-1.0</ele><time>2026-05-03T09:55:52.137Z</time></trkpt><trkpt lat="45.0634884" lon="12.322759"><ele>-1.0</ele><time>2026-05-03T09:55:54.139Z</time></trkpt><trkpt lat="45.0634993" lon="12.3229019"><ele>-1.0</ele><time>2026-05-03T09:55:56.138Z</time></trkpt><trkpt lat="45.0634912" lon="12.3230455"><ele>-1.0</ele><time>2026-05-03T09:55:58.131Z</time></trkpt><trkpt lat="45.063477" lon="12.3231829"><ele>-1.0</ele><time>2026-05-03T09:56:00.133Z</time></trkpt><trkpt lat="45.0634596" lon="12.3233148"><ele>-1.0</ele><time>2026-05-03T09:56:02.138Z</time></trkpt><trkpt lat="45.0634592" lon="12.3234491"><ele>-1.2000000000000002</ele><time>2026-05-03T09:56:04.136Z</time></trkpt><trkpt lat="45.0634977" lon="12.3235779"><ele>-1.4000000000000001</ele><time>2026-05-03T09:56:06.138Z</time></trkpt><trkpt lat="45.0635481" lon="12.3237"><ele>-1.6</ele><time>2026-05-03T09:56:08.142Z</time></trkpt><trkpt lat="45.0635604" lon="12.3238303"><ele>-1.8</ele><time>2026-05-03T09:56:10.141Z</time></trkpt><trkpt lat="45.0635181" lon="12.3239503"><ele>-2.0</ele><time>2026-05-03T09:56:12.138Z</time></trkpt><trkpt lat="45.0634531" lon="12.3240675"><ele>-2.2</ele><time>2026-05-03T09:56:14.132Z</time></trkpt><trkpt lat="45.0633871" lon="12.3241681"><ele>-2.4000000000000004</ele><time>2026-05-03T09:56:16.141Z</time></trkpt><trkpt lat="45.0633146" lon="12.3242515"><ele>-2.5999999999999996</ele><time>2026-05-03T09:56:18.133Z</time></trkpt><trkpt lat="45.0632375" lon="12.3243288"><ele>-2.8</ele><time>2026-05-03T09:56:20.137Z</time></trkpt><trkpt lat="45.0631618" lon="12.3244123"><ele>-3.0</ele><time>2026-05-03T09:56:22.132Z</time></trkpt><trkpt lat="45.0630958" lon="12.3245112"><ele>-3.0</ele><time>2026-05-03T09:56:24.137Z</time></trkpt><trkpt lat="45.0630342" lon="12.3246243"><ele>-3.0</ele><time>2026-05-03T09:56:26.141Z</time></trkpt><trkpt lat="45.0629735" lon="12.3247424"><ele>-3.0</ele><time>2026-05-03T09:56:28.138Z</time></trkpt><trkpt lat="45.062911" lon="12.3248579"><ele>-3.0</ele><time>2026-05-03T09:56:30.138Z</time></trkpt><trkpt lat="45.0628497" lon="12.3249675"><ele>-3.0</ele><time>2026-05-03T09:56:32.141Z</time></trkpt><trkpt lat="45.0627882" lon="12.3250764"><ele>-3.0</ele><time>2026-05-03T09:56:34.136Z</time></trkpt><trkpt lat="45.0627276" lon="12.3251897"><ele>-3.0</ele><time>2026-05-03T09:56:36.139Z</time></trkpt><trkpt lat="45.0626681" lon="12.3252994"><ele>-3.0</ele><time>2026-05-03T09:56:38.14Z</time></trkpt><trkpt lat="45.0626129" lon="12.3253938"><ele>-3.0</ele><time>2026-05-03T09:56:40.141Z</time></trkpt><trkpt lat="45.0625647" lon="12.3254796"><ele>-3.0</ele><time>2026-05-03T09:56:42.135Z</time></trkpt><trkpt lat="45.0625228" lon="12.3255631"><ele>-3.0</ele><time>2026-05-03T09:56:44.133Z</time></trkpt><trkpt lat="45.0624852" lon="12.3256443"><ele>-3.0</ele><time>2026-05-03T09:56:46.14Z</time></trkpt><trkpt lat="45.0624462" lon="12.3257201"><ele>-3.0</ele><time>2026-05-03T09:56:48.136Z</time></trkpt><trkpt lat="45.062395" lon="12.3258269"><ele>-3.0</ele><time>2026-05-03T09:56:51.136Z</time></trkpt><trkpt lat="45.0623461" lon="12.3259158"><ele>-3.0</ele><time>2026-05-03T09:56:54.135Z</time></trkpt><trkpt lat="45.0622946" lon="12.3260153"><ele>-3.0</ele><time>2026-05-03T09:56:57.138Z</time></trkpt><trkpt lat="45.0622483" lon="12.3260938"><ele>-3.0</ele><time>2026-05-03T09:56:59.139Z</time></trkpt><trkpt lat="45.0622028" lon="12.326174"><ele>-3.0</ele><time>2026-05-03T09:57:01.142Z</time></trkpt><trkpt lat="45.0621538" lon="12.3262565"><ele>-3.0</ele><time>2026-05-03T09:57:03.141Z</time></trkpt><trkpt lat="45.0621013" lon="12.3263425"><ele>-3.0</ele><time>2026-05-03T09:57:05.138Z</time></trkpt><trkpt lat="45.0620462" lon="12.3264273"><ele>-3.0</ele><time>2026-05-03T09:57:07.136Z</time></trkpt><trkpt lat="45.061998" lon="12.3265165"><ele>-3.0</ele><time>2026-05-03T09:57:09.135Z</time></trkpt><trkpt lat="45.0619458" lon="12.326602"><ele>-3.0</ele><time>2026-05-03T09:57:11.138Z</time></trkpt><trkpt lat="45.0618903" lon="12.3266927"><ele>-3.0</ele><time>2026-05-03T09:57:13.135Z</time></trkpt><trkpt lat="45.0618356" lon="12.3267859"><ele>-3.0</ele><time>2026-05-03T09:57:15.14Z</time></trkpt><trkpt lat="45.0617794" lon="12.3268767"><ele>-3.0</ele><time>2026-05-03T09:57:17.135Z</time></trkpt><trkpt lat="45.0617251" lon="12.3269674"><ele>-3.0</ele><time>2026-05-03T09:57:19.139Z</time></trkpt><trkpt lat="45.0616705" lon="12.3270585"><ele>-3.0</ele><time>2026-05-03T09:57:21.131Z</time></trkpt><trkpt lat="45.0616104" lon="12.3271499"><ele>-3.0</ele><time>2026-05-03T09:57:23.137Z</time></trkpt><trkpt lat="45.061554" lon="12.3272366"><ele>-3.0</ele><time>2026-05-03T09:57:25.137Z</time></trkpt><trkpt lat="45.0614985" lon="12.3273258"><ele>-3.0</ele><time>2026-05-03T09:57:27.138Z</time></trkpt><trkpt lat="45.0614418" lon="12.3274188"><ele>-3.0</ele><time>2026-05-03T09:57:29.137Z</time></trkpt><trkpt lat="45.0613845" lon="12.3275151"><ele>-3.0</ele><time>2026-05-03T09:57:31.137Z</time></trkpt><trkpt lat="45.0613235" lon="12.3276125"><ele>-3.0</ele><time>2026-05-03T09:57:33.138Z</time></trkpt><trkpt lat="45.0612608" lon="12.3277113"><ele>-3.0</ele><time>2026-05-03T09:57:35.138Z</time></trkpt><trkpt lat="45.0611948" lon="12.3278069"><ele>-3.0</ele><time>2026-05-03T09:57:37.132Z</time></trkpt><trkpt lat="45.0611303" lon="12.3278989"><ele>-3.0</ele><time>2026-05-03T09:57:39.137Z</time></trkpt><trkpt lat="45.0610546" lon="12.3279755"><ele>-3.0</ele><time>2026-05-03T09:57:41.138Z</time></trkpt><trkpt lat="45.0609744" lon="12.3280328"><ele>-3.0</ele><time>2026-05-03T09:57:43.137Z</time></trkpt><trkpt lat="45.0608883" lon="12.3280613"><ele>-3.0</ele><time>2026-05-03T09:57:45.136Z</time></trkpt><trkpt lat="45.0608041" lon="12.3280713"><ele>-3.0</ele><time>2026-05-03T09:57:47.137Z</time></trkpt><trkpt lat="45.0607222" lon="12.3280713"><ele>-2.5</ele><time>2026-05-03T09:57:49.137Z</time></trkpt><trkpt lat="45.0606356" lon="12.3280695"><ele>-2.0</ele><time>2026-05-03T09:57:51.134Z</time></trkpt><trkpt lat="45.0605434" lon="12.3280748"><ele>-1.5</ele><time>2026-05-03T09:57:53.136Z</time></trkpt><trkpt lat="45.0604503" lon="12.328088"><ele>-1.0</ele><time>2026-05-03T09:57:55.136Z</time></trkpt><trkpt lat="45.0603612" lon="12.328084"><ele>-0.5</ele><time>2026-05-03T09:57:57.135Z</time></trkpt><trkpt lat="45.0602758" lon="12.3280848"><ele>0.0</ele><time>2026-05-03T09:57:59.14Z</time></trkpt><trkpt lat="45.0601961" lon="12.3280935"><ele>0.0</ele><time>2026-05-03T09:58:01.134Z</time></trkpt><trkpt lat="45.0601247" lon="12.3280969"><ele>0.0</ele><time>2026-05-03T09:58:03.14Z</time></trkpt><trkpt lat="45.0600558" lon="12.3281006"><ele>0.0</ele><time>2026-05-03T09:58:05.144Z</time></trkpt><trkpt lat="45.0599823" lon="12.3281042"><ele>0.0</ele><time>2026-05-03T09:58:07.139Z</time></trkpt><trkpt lat="45.0599035" lon="12.3281145"><ele>0.0</ele><time>2026-05-03T09:58:09.138Z</time></trkpt><trkpt lat="45.0598142" lon="12.3281226"><ele>0.0</ele><time>2026-05-03T09:58:11.137Z</time></trkpt><trkpt lat="45.0597202" lon="12.328131"><ele>-0.2</ele><time>2026-05-03T09:58:13.142Z</time></trkpt><trkpt lat="45.0596244" lon="12.3281433"><ele>-0.4</ele><time>2026-05-03T09:58:15.137Z</time></trkpt><trkpt lat="45.0595288" lon="12.3281508"><ele>-0.6000000000000001</ele><time>2026-05-03T09:58:17.137Z</time></trkpt><trkpt lat="45.0594342" lon="12.3281556"><ele>-0.8</ele><time>2026-05-03T09:58:19.137Z</time></trkpt><trkpt lat="45.059342" lon="12.3281626"><ele>-1.0</ele><time>2026-05-03T09:58:21.136Z</time></trkpt><trkpt lat="45.0592509" lon="12.3281697"><ele>-1.0</ele><time>2026-05-03T09:58:23.137Z</time></trkpt><trkpt lat="45.0591566" lon="12.3281761"><ele>-1.0</ele><time>2026-05-03T09:58:25.136Z</time></trkpt><trkpt lat="45.0590603" lon="12.3281841"><ele>-1.0</ele><time>2026-05-03T09:58:27.13Z</time></trkpt><trkpt lat="45.058964" lon="12.3281917"><ele>-1.0</ele><time>2026-05-03T09:58:29.139Z</time></trkpt><trkpt lat="45.0588687" lon="12.3282019"><ele>-1.0</ele><time>2026-05-03T09:58:31.136Z</time></trkpt><trkpt lat="45.0587722" lon="12.3282074"><ele>-1.2000000000000002</ele><time>2026-05-03T09:58:33.141Z</time></trkpt><trkpt lat="45.0586763" lon="12.3282184"><ele>-1.4000000000000001</ele><time>2026-05-03T09:58:35.14Z</time></trkpt><trkpt lat="45.0585815" lon="12.3282305"><ele>-1.6</ele><time>2026-05-03T09:58:37.132Z</time></trkpt><trkpt lat="45.0584866" lon="12.328241"><ele>-1.8</ele><time>2026-05-03T09:58:39.14Z</time></trkpt><trkpt lat="45.0583929" lon="12.3282491"><ele>-2.0</ele><time>2026-05-03T09:58:41.138Z</time></trkpt><trkpt lat="45.0582998" lon="12.3282613"><ele>-2.0</ele><time>2026-05-03T09:58:43.138Z</time></trkpt><trkpt lat="45.0582058" lon="12.3282732"><ele>-2.0</ele><time>2026-05-03T09:58:45.137Z</time></trkpt><trkpt lat="45.0581094" lon="12.3282816"><ele>-2.0</ele><time>2026-05-03T09:58:47.14Z</time></trkpt><trkpt lat="45.058011" lon="12.3282916"><ele>-2.0</ele><time>2026-05-03T09:58:49.14Z</time></trkpt><trkpt lat="45.0579121" lon="12.3282986"><ele>-2.0</ele><time>2026-05-03T09:58:51.134Z</time></trkpt><trkpt lat="45.0578153" lon="12.3283062"><ele>-2.0</ele><time>2026-05-03T09:58:53.14Z</time></trkpt><trkpt lat="45.0577192" lon="12.3283134"><ele>-2.0</ele><time>2026-05-03T09:58:55.138Z</time></trkpt><trkpt lat="45.0576215" lon="12.3283253"><ele>-2.0</ele><time>2026-05-03T09:58:57.137Z</time></trkpt><trkpt lat="45.0575256" lon="12.3283366"><ele>-2.0</ele><time>2026-05-03T09:58:59.134Z</time></trkpt><trkpt lat="45.057427" lon="12.3283459"><ele>-2.0</ele><time>2026-05-03T09:59:01.136Z</time></trkpt><trkpt lat="45.0573271" lon="12.3283517"><ele>-2.0</ele><time>2026-05-03T09:59:03.139Z</time></trkpt><trkpt lat="45.0572299" lon="12.3283586"><ele>-2.0</ele><time>2026-05-03T09:59:05.136Z</time></trkpt><trkpt lat="45.0571318" lon="12.3283699"><ele>-2.0</ele><time>2026-05-03T09:59:07.138Z</time></trkpt><trkpt lat="45.0570345" lon="12.3283874"><ele>-2.0</ele><time>2026-05-03T09:59:09.136Z</time></trkpt><trkpt lat="45.0569319" lon="12.328403"><ele>-2.0</ele><time>2026-05-03T09:59:11.128Z</time></trkpt><trkpt lat="45.0568269" lon="12.3284202"><ele>-2.0</ele><time>2026-05-03T09:59:13.139Z</time></trkpt><trkpt lat="45.0567269" lon="12.3284358"><ele>-2.0</ele><time>2026-05-03T09:59:15.131Z</time></trkpt><trkpt lat="45.0566241" lon="12.3284467"><ele>-2.0</ele><time>2026-05-03T09:59:17.138Z</time></trkpt><trkpt lat="45.0565205" lon="12.3284573"><ele>-2.0</ele><time>2026-05-03T09:59:19.134Z</time></trkpt><trkpt lat="45.0564142" lon="12.3284647"><ele>-2.0</ele><time>2026-05-03T09:59:21.138Z</time></trkpt><trkpt lat="45.056307" lon="12.3284724"><ele>-2.0</ele><time>2026-05-03T09:59:23.135Z</time></trkpt><trkpt lat="45.0562035" lon="12.3284864"><ele>-2.0</ele><time>2026-05-03T09:59:25.137Z</time></trkpt><trkpt lat="45.0560996" lon="12.3284979"><ele>-2.0</ele><time>2026-05-03T09:59:27.136Z</time></trkpt><trkpt lat="45.0560008" lon="12.3285024"><ele>-2.0</ele><time>2026-05-03T09:59:29.136Z</time></trkpt><trkpt lat="45.0558961" lon="12.3285113"><ele>-2.0</ele><time>2026-05-03T09:59:31.14Z</time></trkpt><trkpt lat="45.0557917" lon="12.3285238"><ele>-2.2</ele><time>2026-05-03T09:59:33.144Z</time></trkpt><trkpt lat="45.0556882" lon="12.3285385"><ele>-2.4000000000000004</ele><time>2026-05-03T09:59:35.135Z</time></trkpt><trkpt lat="45.0555854" lon="12.3285507"><ele>-2.5999999999999996</ele><time>2026-05-03T09:59:37.137Z</time></trkpt><trkpt lat="45.0554816" lon="12.3285651"><ele>-2.8</ele><time>2026-05-03T09:59:39.136Z</time></trkpt><trkpt lat="45.0553783" lon="12.3285751"><ele>-3.0</ele><time>2026-05-03T09:59:41.136Z</time></trkpt><trkpt lat="45.0552752" lon="12.3285909"><ele>-3.0</ele><time>2026-05-03T09:59:43.135Z</time></trkpt><trkpt lat="45.0551698" lon="12.3286014"><ele>-3.0</ele><time>2026-05-03T09:59:45.133Z</time></trkpt><trkpt lat="45.0550665" lon="12.3286081"><ele>-3.0</ele><time>2026-05-03T09:59:47.132Z</time></trkpt><trkpt lat="45.054964" lon="12.3286171"><ele>-3.0</ele><time>2026-05-03T09:59:49.136Z</time></trkpt><trkpt lat="45.0548599" lon="12.3286279"><ele>-3.0</ele><time>2026-05-03T09:59:51.129Z</time></trkpt><trkpt lat="45.0547564" lon="12.3286424"><ele>-3.0</ele><time>2026-05-03T09:59:53.131Z</time></trkpt><trkpt lat="45.0546579" lon="12.3286563"><ele>-3.0</ele><time>2026-05-03T09:59:55.133Z</time></trkpt><trkpt lat="45.0545597" lon="12.3286644"><ele>-3.0</ele><time>2026-05-03T09:59:57.134Z</time></trkpt><trkpt lat="45.0544587" lon="12.3286723"><ele>-3.0</ele><time>2026-05-03T09:59:59.132Z</time></trkpt><trkpt lat="45.0543585" lon="12.3286863"><ele>-3.0</ele><time>2026-05-03T10:00:01.126Z</time></trkpt><trkpt lat="45.0542585" lon="12.3286974"><ele>-3.0</ele><time>2026-05-03T10:00:03.124Z</time></trkpt><trkpt lat="45.0541555" lon="12.3287059"><ele>-3.0</ele><time>2026-05-03T10:00:05.126Z</time></trkpt><trkpt lat="45.0540597" lon="12.328707"><ele>-3.0</ele><time>2026-05-03T10:00:07.13Z</time></trkpt><trkpt lat="45.0539594" lon="12.3287169"><ele>-3.0</ele><time>2026-05-03T10:00:09.134Z</time></trkpt><trkpt lat="45.0538545" lon="12.3287345"><ele>-3.0</ele><time>2026-05-03T10:00:11.133Z</time></trkpt><trkpt lat="45.0537516" lon="12.3287429"><ele>-2.8</ele><time>2026-05-03T10:00:13.141Z</time></trkpt><trkpt lat="45.0536506" lon="12.328749"><ele>-2.5999999999999996</ele><time>2026-05-03T10:00:15.135Z</time></trkpt><trkpt lat="45.0535495" lon="12.3287582"><ele>-2.4000000000000004</ele><time>2026-05-03T10:00:17.133Z</time></trkpt><trkpt lat="45.0534487" lon="12.3287671"><ele>-2.2</ele><time>2026-05-03T10:00:19.136Z</time></trkpt><trkpt lat="45.0533462" lon="12.3287793"><ele>-2.0</ele><time>2026-05-03T10:00:21.136Z</time></trkpt><trkpt lat="45.0532414" lon="12.3287927"><ele>-2.4000000000000004</ele><time>2026-05-03T10:00:23.134Z</time></trkpt><trkpt lat="45.0531379" lon="12.3288027"><ele>-2.8000000000000003</ele><time>2026-05-03T10:00:25.137Z</time></trkpt><trkpt lat="45.0530334" lon="12.3288068"><ele>-3.2</ele><time>2026-05-03T10:00:27.135Z</time></trkpt><trkpt lat="45.0529308" lon="12.3288133"><ele>-3.6</ele><time>2026-05-03T10:00:29.136Z</time></trkpt><trkpt lat="45.0528288" lon="12.3288217"><ele>-4.0</ele><time>2026-05-03T10:00:31.131Z</time></trkpt><trkpt lat="45.0527284" lon="12.3288318"><ele>-4.0</ele><time>2026-05-03T10:00:33.136Z</time></trkpt><trkpt lat="45.052624" lon="12.3288424"><ele>-4.0</ele><time>2026-05-03T10:00:35.134Z</time></trkpt><trkpt lat="45.0525187" lon="12.3288559"><ele>-4.0</ele><time>2026-05-03T10:00:37.13Z</time></trkpt><trkpt lat="45.0524133" lon="12.3288674"><ele>-4.0</ele><time>2026-05-03T10:00:39.132Z</time></trkpt><trkpt lat="45.0523078" lon="12.328877"><ele>-4.0</ele><time>2026-05-03T10:00:41.132Z</time></trkpt><trkpt lat="45.0522039" lon="12.328888"><ele>-3.0</ele><time>2026-05-03T10:00:43.14Z</time></trkpt><trkpt lat="45.0521026" lon="12.3289027"><ele>-2.0000000000000004</ele><time>2026-05-03T10:00:45.133Z</time></trkpt><trkpt lat="45.0520001" lon="12.3289133"><ele>-1.0</ele><time>2026-05-03T10:00:47.139Z</time></trkpt><trkpt lat="45.0518964" lon="12.3289202"><ele>0.0</ele><time>2026-05-03T10:00:49.137Z</time></trkpt><trkpt lat="45.0517899" lon="12.3289278"><ele>1.0</ele><time>2026-05-03T10:00:51.133Z</time></trkpt><trkpt lat="45.0516848" lon="12.3289381"><ele>0.6000000000000001</ele><time>2026-05-03T10:00:53.133Z</time></trkpt><trkpt lat="45.0515815" lon="12.3289482"><ele>0.20000000000000007</ele><time>2026-05-03T10:00:55.134Z</time></trkpt><trkpt lat="45.0514777" lon="12.3289583"><ele>-0.20000000000000007</ele><time>2026-05-03T10:00:57.135Z</time></trkpt><trkpt lat="45.0513743" lon="12.3289742"><ele>-0.6000000000000001</ele><time>2026-05-03T10:00:59.132Z</time></trkpt><trkpt lat="45.0512691" lon="12.3289888"><ele>-1.0</ele><time>2026-05-03T10:01:01.13Z</time></trkpt><trkpt lat="45.0511629" lon="12.3289966"><ele>-1.0</ele><time>2026-05-03T10:01:03.135Z</time></trkpt><trkpt lat="45.0510616" lon="12.3290078"><ele>-1.0</ele><time>2026-05-03T10:01:05.136Z</time></trkpt><trkpt lat="45.0509553" lon="12.3290213"><ele>-1.0</ele><time>2026-05-03T10:01:07.133Z</time></trkpt><trkpt lat="45.0508482" lon="12.3290305"><ele>-1.0</ele><time>2026-05-03T10:01:09.131Z</time></trkpt><trkpt lat="45.0507408" lon="12.3290398"><ele>-1.0</ele><time>2026-05-03T10:01:11.133Z</time></trkpt><trkpt lat="45.0506347" lon="12.329052"><ele>-1.4</ele><time>2026-05-03T10:01:13.14Z</time></trkpt><trkpt lat="45.0505315" lon="12.3290595"><ele>-1.8</ele><time>2026-05-03T10:01:15.131Z</time></trkpt><trkpt lat="45.0504297" lon="12.3290696"><ele>-2.1999999999999997</ele><time>2026-05-03T10:01:17.135Z</time></trkpt><trkpt lat="45.0503314" lon="12.3290813"><ele>-2.6</ele><time>2026-05-03T10:01:19.137Z</time></trkpt><trkpt lat="45.0502377" lon="12.3290913"><ele>-3.0</ele><time>2026-05-03T10:01:21.139Z</time></trkpt><trkpt lat="45.0501515" lon="12.3291006"><ele>-3.0</ele><time>2026-05-03T10:01:23.133Z</time></trkpt><trkpt lat="45.0500688" lon="12.3291067"><ele>-3.0</ele><time>2026-05-03T10:01:25.132Z</time></trkpt><trkpt lat="45.0499827" lon="12.3291097"><ele>-3.0</ele><time>2026-05-03T10:01:27.133Z</time></trkpt><trkpt lat="45.0498975" lon="12.329118"><ele>-3.0</ele><time>2026-05-03T10:01:29.135Z</time></trkpt><trkpt lat="45.0498051" lon="12.3291299"><ele>-3.0</ele><time>2026-05-03T10:01:31.135Z</time></trkpt><trkpt lat="45.0497161" lon="12.3291398"><ele>-3.0</ele><time>2026-05-03T10:01:33.135Z</time></trkpt><trkpt lat="45.0496256" lon="12.3291455"><ele>-2.6</ele><time>2026-05-03T10:01:35.133Z</time></trkpt><trkpt lat="45.0495332" lon="12.3291571"><ele>-2.1999999999999997</ele><time>2026-05-03T10:01:37.131Z</time></trkpt><trkpt lat="45.0494392" lon="12.3291719"><ele>-1.8</ele><time>2026-05-03T10:01:39.133Z</time></trkpt><trkpt lat="45.0493427" lon="12.3291837"><ele>-1.4</ele><time>2026-05-03T10:01:41.134Z</time></trkpt><trkpt lat="45.0492461" lon="12.3291921"><ele>-1.0</ele><time>2026-05-03T10:01:43.142Z</time></trkpt><trkpt lat="45.0491543" lon="12.3292012"><ele>-1.1666666666666665</ele><time>2026-05-03T10:01:45.134Z</time></trkpt><trkpt lat="45.0490684" lon="12.3292107"><ele>-1.3333333333333333</ele><time>2026-05-03T10:01:47.137Z</time></trkpt><trkpt lat="45.0489869" lon="12.3292254"><ele>-1.5</ele><time>2026-05-03T10:01:49.136Z</time></trkpt><trkpt lat="45.048909" lon="12.3292354"><ele>-1.6666666666666665</ele><time>2026-05-03T10:01:51.134Z</time></trkpt><trkpt lat="45.0488348" lon="12.3292418"><ele>-1.8333333333333333</ele><time>2026-05-03T10:01:53.137Z</time></trkpt><trkpt lat="45.0487572" lon="12.3292486"><ele>-2.0</ele><time>2026-05-03T10:01:55.136Z</time></trkpt><trkpt lat="45.0486707" lon="12.3292596"><ele>-1.9999999999999998</ele><time>2026-05-03T10:01:57.135Z</time></trkpt><trkpt lat="45.0485783" lon="12.3292669"><ele>-2.0</ele><time>2026-05-03T10:01:59.133Z</time></trkpt><trkpt lat="45.0484873" lon="12.3292742"><ele>-2.0</ele><time>2026-05-03T10:02:01.135Z</time></trkpt><trkpt lat="45.0483996" lon="12.3292848"><ele>-2.0</ele><time>2026-05-03T10:02:03.137Z</time></trkpt><trkpt lat="45.0483129" lon="12.3293008"><ele>-1.9999999999999998</ele><time>2026-05-03T10:02:05.136Z</time></trkpt><trkpt lat="45.0482278" lon="12.3293146"><ele>-2.0</ele><time>2026-05-03T10:02:07.128Z</time></trkpt><trkpt lat="45.048145" lon="12.3293272"><ele>-2.1666666666666665</ele><time>2026-05-03T10:02:09.132Z</time></trkpt><trkpt lat="45.0480582" lon="12.3293388"><ele>-2.333333333333333</ele><time>2026-05-03T10:02:11.132Z</time></trkpt><trkpt lat="45.0479688" lon="12.3293454"><ele>-2.5</ele><time>2026-05-03T10:02:13.139Z</time></trkpt><trkpt lat="45.047878" lon="12.3293347"><ele>-2.6666666666666665</ele><time>2026-05-03T10:02:15.136Z</time></trkpt><trkpt lat="45.0477858" lon="12.3293414"><ele>-2.8333333333333335</ele><time>2026-05-03T10:02:17.137Z</time></trkpt><trkpt lat="45.0476983" lon="12.3293535"><ele>-3.0</ele><time>2026-05-03T10:02:19.132Z</time></trkpt><trkpt lat="45.0476147" lon="12.329364"><ele>-3.0</ele><time>2026-05-03T10:02:21.136Z</time></trkpt><trkpt lat="45.0475256" lon="12.3293701"><ele>-3.0</ele><time>2026-05-03T10:02:23.144Z</time></trkpt><trkpt lat="45.047433" lon="12.3293827"><ele>-3.0</ele><time>2026-05-03T10:02:25.133Z</time></trkpt><trkpt lat="45.0473467" lon="12.3293874"><ele>-3.0</ele><time>2026-05-03T10:02:27.136Z</time></trkpt><trkpt lat="45.0472625" lon="12.329396"><ele>-3.0</ele><time>2026-05-03T10:02:29.128Z</time></trkpt><trkpt lat="45.0471806" lon="12.3294039"><ele>-3.0</ele><time>2026-05-03T10:02:31.133Z</time></trkpt><trkpt lat="45.0470984" lon="12.329415"><ele>-3.0</ele><time>2026-05-03T10:02:33.139Z</time></trkpt><trkpt lat="45.0470206" lon="12.3294231"><ele>-3.0</ele><time>2026-05-03T10:02:35.138Z</time></trkpt><trkpt lat="45.0469491" lon="12.3294331"><ele>-3.0</ele><time>2026-05-03T10:02:37.138Z</time></trkpt><trkpt lat="45.0468852" lon="12.3294455"><ele>-3.0</ele><time>2026-05-03T10:02:39.13Z</time></trkpt><trkpt lat="45.0467976" lon="12.3294575"><ele>-3.0</ele><time>2026-05-03T10:02:42.136Z</time></trkpt><trkpt lat="45.0467064" lon="12.3294574"><ele>-3.0</ele><time>2026-05-03T10:02:45.138Z</time></trkpt><trkpt lat="45.0466191" lon="12.3294703"><ele>-3.0</ele><time>2026-05-03T10:02:48.135Z</time></trkpt><trkpt lat="45.0465434" lon="12.3294785"><ele>-3.0</ele><time>2026-05-03T10:02:51.134Z</time></trkpt><trkpt lat="45.0464798" lon="12.3294426"><ele>-3.0</ele><time>2026-05-03T10:02:54.137Z</time></trkpt><trkpt lat="45.0465405" lon="12.3295054"><ele>-3.0</ele><time>2026-05-03T10:03:28.132Z</time></trkpt><trkpt lat="45.0466214" lon="12.3294996"><ele>-3.0</ele><time>2026-05-03T10:03:32.141Z</time></trkpt><trkpt lat="45.0467047" lon="12.3294908"><ele>-3.0</ele><time>2026-05-03T10:03:35.136Z</time></trkpt><trkpt lat="45.046787" lon="12.3294757"><ele>-2.8333333333333335</ele><time>2026-05-03T10:03:38.133Z</time></trkpt><trkpt lat="45.0468641" lon="12.329454"><ele>-2.6666666666666665</ele><time>2026-05-03T10:03:41.132Z</time></trkpt><trkpt lat="45.0469428" lon="12.3294539"><ele>-2.5</ele><time>2026-05-03T10:03:44.135Z</time></trkpt><trkpt lat="45.0470238" lon="12.3294436"><ele>-2.333333333333333</ele><time>2026-05-03T10:03:47.134Z</time></trkpt><trkpt lat="45.0470978" lon="12.3294283"><ele>-2.1666666666666665</ele><time>2026-05-03T10:03:50.138Z</time></trkpt><trkpt lat="45.0471655" lon="12.329414"><ele>-2.0</ele><time>2026-05-03T10:03:53.139Z</time></trkpt><trkpt lat="45.0472396" lon="12.3293977"><ele>-1.9999999999999998</ele><time>2026-05-03T10:03:56.13Z</time></trkpt><trkpt lat="45.0473287" lon="12.3293946"><ele>-2.0</ele><time>2026-05-03T10:03:59.134Z</time></trkpt><trkpt lat="45.0473917" lon="12.3293875"><ele>-2.0</ele><time>2026-05-03T10:04:01.134Z</time></trkpt><trkpt lat="45.0474866" lon="12.3293868"><ele>-2.0</ele><time>2026-05-03T10:04:04.14Z</time></trkpt><trkpt lat="45.0475501" lon="12.3293875"><ele>-1.9999999999999998</ele><time>2026-05-03T10:04:06.133Z</time></trkpt><trkpt lat="45.0476354" lon="12.3293717"><ele>-2.0</ele><time>2026-05-03T10:04:09.135Z</time></trkpt><trkpt lat="45.047724" lon="12.3293566"><ele>-2.1666666666666665</ele><time>2026-05-03T10:04:12.13Z</time></trkpt><trkpt lat="45.0478153" lon="12.3293541"><ele>-2.333333333333333</ele><time>2026-05-03T10:04:15.138Z</time></trkpt><trkpt lat="45.0478804" lon="12.3293411"><ele>-2.5</ele><time>2026-05-03T10:04:17.133Z</time></trkpt><trkpt lat="45.047945" lon="12.3293451"><ele>-2.6666666666666665</ele><time>2026-05-03T10:04:19.133Z</time></trkpt><trkpt lat="45.0480306" lon="12.3293368"><ele>-2.8333333333333335</ele><time>2026-05-03T10:04:22.139Z</time></trkpt><trkpt lat="45.0481068" lon="12.3293205"><ele>-3.0</ele><time>2026-05-03T10:04:25.135Z</time></trkpt><trkpt lat="45.0481856" lon="12.3293096"><ele>-2.9999999999999996</ele><time>2026-05-03T10:04:28.137Z</time></trkpt><trkpt lat="45.0482741" lon="12.3293019"><ele>-3.0</ele><time>2026-05-03T10:04:31.14Z</time></trkpt><trkpt lat="45.0483394" lon="12.3293108"><ele>-3.0</ele><time>2026-05-03T10:04:49.13Z</time></trkpt><trkpt lat="45.04841" lon="12.3292963"><ele>-3.0</ele><time>2026-05-03T10:04:52.138Z</time></trkpt><trkpt lat="45.0484757" lon="12.3292954"><ele>-3.0</ele><time>2026-05-03T10:04:54.138Z</time></trkpt><trkpt lat="45.0485412" lon="12.3292905"><ele>-2.9999999999999996</ele><time>2026-05-03T10:04:56.137Z</time></trkpt><trkpt lat="45.0486114" lon="12.32928"><ele>-3.0</ele><time>2026-05-03T10:04:58.136Z</time></trkpt><trkpt lat="45.0486876" lon="12.3292703"><ele>-2.8333333333333335</ele><time>2026-05-03T10:05:00.135Z</time></trkpt><trkpt lat="45.0487615" lon="12.3292557"><ele>-2.6666666666666665</ele><time>2026-05-03T10:05:02.131Z</time></trkpt><trkpt lat="45.0488367" lon="12.3292534"><ele>-2.5</ele><time>2026-05-03T10:05:04.134Z</time></trkpt><trkpt lat="45.048917" lon="12.3292513"><ele>-2.333333333333333</ele><time>2026-05-03T10:05:06.134Z</time></trkpt><trkpt lat="45.0489995" lon="12.3292415"><ele>-2.1666666666666665</ele><time>2026-05-03T10:05:08.132Z</time></trkpt><trkpt lat="45.0490862" lon="12.3292293"><ele>-2.0</ele><time>2026-05-03T10:05:10.138Z</time></trkpt><trkpt lat="45.0491689" lon="12.3292242"><ele>-1.8333333333333333</ele><time>2026-05-03T10:05:12.133Z</time></trkpt><trkpt lat="45.0492441" lon="12.3292166"><ele>-1.6666666666666665</ele><time>2026-05-03T10:05:14.136Z</time></trkpt><trkpt lat="45.0493177" lon="12.3292029"><ele>-1.5</ele><time>2026-05-03T10:05:16.131Z</time></trkpt><trkpt lat="45.0493974" lon="12.3291886"><ele>-1.3333333333333333</ele><time>2026-05-03T10:05:18.136Z</time></trkpt><trkpt lat="45.0494822" lon="12.3291811"><ele>-1.1666666666666665</ele><time>2026-05-03T10:05:20.135Z</time></trkpt><trkpt lat="45.0495663" lon="12.3291741"><ele>-1.0</ele><time>2026-05-03T10:05:22.132Z</time></trkpt><trkpt lat="45.0496543" lon="12.3291664"><ele>-0.9999999999999999</ele><time>2026-05-03T10:05:24.137Z</time></trkpt><trkpt lat="45.0497416" lon="12.329158"><ele>-1.0</ele><time>2026-05-03T10:05:26.137Z</time></trkpt><trkpt lat="45.0498308" lon="12.3291474"><ele>-1.0</ele><time>2026-05-03T10:05:28.128Z</time></trkpt><trkpt lat="45.0499225" lon="12.3291379"><ele>-1.0</ele><time>2026-05-03T10:05:30.135Z</time></trkpt><trkpt lat="45.050012" lon="12.3291318"><ele>-0.9999999999999999</ele><time>2026-05-03T10:05:32.137Z</time></trkpt><trkpt lat="45.0501016" lon="12.3291228"><ele>-1.0</ele><time>2026-05-03T10:05:34.136Z</time></trkpt><trkpt lat="45.0501871" lon="12.3291114"><ele>-1.4</ele><time>2026-05-03T10:05:36.138Z</time></trkpt><trkpt lat="45.0502749" lon="12.3291019"><ele>-1.8</ele><time>2026-05-03T10:05:38.138Z</time></trkpt><trkpt lat="45.0503635" lon="12.3290949"><ele>-2.1999999999999997</ele><time>2026-05-03T10:05:40.13Z</time></trkpt><trkpt lat="45.0504547" lon="12.3290926"><ele>-2.6</ele><time>2026-05-03T10:05:42.137Z</time></trkpt><trkpt lat="45.0505467" lon="12.3290947"><ele>-3.0</ele><time>2026-05-03T10:05:44.139Z</time></trkpt><trkpt lat="45.0506374" lon="12.3290803"><ele>-3.0</ele><time>2026-05-03T10:05:46.134Z</time></trkpt><trkpt lat="45.0507314" lon="12.3290632"><ele>-3.0</ele><time>2026-05-03T10:05:48.133Z</time></trkpt><trkpt lat="45.0508251" lon="12.3290454"><ele>-3.0</ele><time>2026-05-03T10:05:50.138Z</time></trkpt><trkpt lat="45.0509192" lon="12.3290349"><ele>-3.0</ele><time>2026-05-03T10:05:52.136Z</time></trkpt><trkpt lat="45.0510148" lon="12.3290354"><ele>-3.0</ele><time>2026-05-03T10:05:54.131Z</time></trkpt><trkpt lat="45.0511112" lon="12.3290289"><ele>-2.6</ele><time>2026-05-03T10:05:56.135Z</time></trkpt><trkpt lat="45.0512091" lon="12.3290228"><ele>-2.1999999999999997</ele><time>2026-05-03T10:05:58.132Z</time></trkpt><trkpt lat="45.0513091" lon="12.3290163"><ele>-1.8</ele><time>2026-05-03T10:06:00.138Z</time></trkpt><trkpt lat="45.0514089" lon="12.3290092"><ele>-1.4</ele><time>2026-05-03T10:06:02.132Z</time></trkpt><trkpt lat="45.051506" lon="12.3290008"><ele>-1.0</ele><time>2026-05-03T10:06:04.134Z</time></trkpt><trkpt lat="45.0516044" lon="12.3289884"><ele>-0.6000000000000001</ele><time>2026-05-03T10:06:06.138Z</time></trkpt><trkpt lat="45.0516985" lon="12.3289729"><ele>-0.20000000000000007</ele><time>2026-05-03T10:06:08.135Z</time></trkpt><trkpt lat="45.0518" lon="12.3289624"><ele>0.20000000000000007</ele><time>2026-05-03T10:06:10.129Z</time></trkpt><trkpt lat="45.0518997" lon="12.328955"><ele>0.6000000000000001</ele><time>2026-05-03T10:06:12.134Z</time></trkpt><trkpt lat="45.0519965" lon="12.328944"><ele>1.0</ele><time>2026-05-03T10:06:14.13Z</time></trkpt><trkpt lat="45.0520974" lon="12.3289293"><ele>1.0</ele><time>2026-05-03T10:06:16.132Z</time></trkpt><trkpt lat="45.0521972" lon="12.3289144"><ele>1.0</ele><time>2026-05-03T10:06:18.134Z</time></trkpt><trkpt lat="45.0523008" lon="12.3289042"><ele>1.0</ele><time>2026-05-03T10:06:20.136Z</time></trkpt><trkpt lat="45.0524062" lon="12.3288962"><ele>1.0</ele><time>2026-05-03T10:06:22.136Z</time></trkpt><trkpt lat="45.0525097" lon="12.3288874"><ele>1.0</ele><time>2026-05-03T10:06:24.134Z</time></trkpt><trkpt lat="45.0526108" lon="12.3288803"><ele>0.0</ele><time>2026-05-03T10:06:26.131Z</time></trkpt><trkpt lat="45.0527065" lon="12.3288699"><ele>-1.0</ele><time>2026-05-03T10:06:28.134Z</time></trkpt><trkpt lat="45.0528018" lon="12.3288594"><ele>-2.0000000000000004</ele><time>2026-05-03T10:06:30.134Z</time></trkpt><trkpt lat="45.0529043" lon="12.3288517"><ele>-3.0</ele><time>2026-05-03T10:06:32.134Z</time></trkpt><trkpt lat="45.0530042" lon="12.3288436"><ele>-4.0</ele><time>2026-05-03T10:06:34.139Z</time></trkpt><trkpt lat="45.0531023" lon="12.3288351"><ele>-4.0</ele><time>2026-05-03T10:06:36.139Z</time></trkpt><trkpt lat="45.0532015" lon="12.3288266"><ele>-4.0</ele><time>2026-05-03T10:06:38.133Z</time></trkpt><trkpt lat="45.0533013" lon="12.3288184"><ele>-4.0</ele><time>2026-05-03T10:06:40.138Z</time></trkpt><trkpt lat="45.0534021" lon="12.3288091"><ele>-4.0</ele><time>2026-05-03T10:06:42.131Z</time></trkpt><trkpt lat="45.0535018" lon="12.3287987"><ele>-4.0</ele><time>2026-05-03T10:06:44.134Z</time></trkpt><trkpt lat="45.053601" lon="12.3287907"><ele>-3.6</ele><time>2026-05-03T10:06:46.137Z</time></trkpt><trkpt lat="45.053703" lon="12.3287792"><ele>-3.2</ele><time>2026-05-03T10:06:48.136Z</time></trkpt><trkpt lat="45.0538051" lon="12.3287662"><ele>-2.8000000000000003</ele><time>2026-05-03T10:06:50.136Z</time></trkpt><trkpt lat="45.0539094" lon="12.3287547"><ele>-2.4000000000000004</ele><time>2026-05-03T10:06:52.136Z</time></trkpt><trkpt lat="45.0540125" lon="12.3287392"><ele>-2.0</ele><time>2026-05-03T10:06:54.141Z</time></trkpt><trkpt lat="45.0541161" lon="12.3287293"><ele>-2.2</ele><time>2026-05-03T10:06:56.139Z</time></trkpt><trkpt lat="45.0542209" lon="12.3287209"><ele>-2.4000000000000004</ele><time>2026-05-03T10:06:58.134Z</time></trkpt><trkpt lat="45.0543247" lon="12.3287133"><ele>-2.5999999999999996</ele><time>2026-05-03T10:07:00.14Z</time></trkpt><trkpt lat="45.0544269" lon="12.3287043"><ele>-2.8</ele><time>2026-05-03T10:07:02.136Z</time></trkpt><trkpt lat="45.0545272" lon="12.3286944"><ele>-3.0</ele><time>2026-05-03T10:07:04.137Z</time></trkpt><trkpt lat="45.0546293" lon="12.3286864"><ele>-3.0</ele><time>2026-05-03T10:07:06.132Z</time></trkpt><trkpt lat="45.0547332" lon="12.3286779"><ele>-3.0</ele><time>2026-05-03T10:07:08.136Z</time></trkpt><trkpt lat="45.054836" lon="12.3286689"><ele>-3.0</ele><time>2026-05-03T10:07:10.137Z</time></trkpt><trkpt lat="45.0549397" lon="12.3286583"><ele>-3.0</ele><time>2026-05-03T10:07:12.135Z</time></trkpt><trkpt lat="45.0550429" lon="12.3286454"><ele>-3.0</ele><time>2026-05-03T10:07:14.136Z</time></trkpt><trkpt lat="45.055145" lon="12.3286323"><ele>-3.0</ele><time>2026-05-03T10:07:16.139Z</time></trkpt><trkpt lat="45.0552497" lon="12.3286178"><ele>-3.0</ele><time>2026-05-03T10:07:18.137Z</time></trkpt><trkpt lat="45.0553535" lon="12.3286062"><ele>-3.0</ele><time>2026-05-03T10:07:20.135Z</time></trkpt><trkpt lat="45.0554555" lon="12.3285936"><ele>-3.0</ele><time>2026-05-03T10:07:22.136Z</time></trkpt><trkpt lat="45.0555559" lon="12.3285823"><ele>-3.0</ele><time>2026-05-03T10:07:24.137Z</time></trkpt><trkpt lat="45.0556569" lon="12.3285703"><ele>-3.0</ele><time>2026-05-03T10:07:26.128Z</time></trkpt><trkpt lat="45.0557582" lon="12.328554"><ele>-3.0</ele><time>2026-05-03T10:07:28.136Z</time></trkpt><trkpt lat="45.0558629" lon="12.3285416"><ele>-3.0</ele><time>2026-05-03T10:07:30.137Z</time></trkpt><trkpt lat="45.0559675" lon="12.3285382"><ele>-3.0</ele><time>2026-05-03T10:07:32.135Z</time></trkpt><trkpt lat="45.0560687" lon="12.3285282"><ele>-3.0</ele><time>2026-05-03T10:07:34.133Z</time></trkpt><trkpt lat="45.0561628" lon="12.3285148"><ele>-2.8</ele><time>2026-05-03T10:07:36.14Z</time></trkpt><trkpt lat="45.0562625" lon="12.3285043"><ele>-2.5999999999999996</ele><time>2026-05-03T10:07:38.133Z</time></trkpt><trkpt lat="45.0563686" lon="12.3285008"><ele>-2.4000000000000004</ele><time>2026-05-03T10:07:40.138Z</time></trkpt><trkpt lat="45.0564723" lon="12.3284918"><ele>-2.2</ele><time>2026-05-03T10:07:42.135Z</time></trkpt><trkpt lat="45.0565743" lon="12.3284811"><ele>-2.0</ele><time>2026-05-03T10:07:44.135Z</time></trkpt><trkpt lat="45.0566784" lon="12.3284695"><ele>-2.0</ele><time>2026-05-03T10:07:46.138Z</time></trkpt><trkpt lat="45.056789" lon="12.328465"><ele>-2.0</ele><time>2026-05-03T10:07:48.135Z</time></trkpt><trkpt lat="45.0568922" lon="12.3284533"><ele>-2.0</ele><time>2026-05-03T10:07:50.136Z</time></trkpt><trkpt lat="45.056994" lon="12.3284367"><ele>-2.0</ele><time>2026-05-03T10:07:52.134Z</time></trkpt><trkpt lat="45.0570956" lon="12.328427"><ele>-2.0</ele><time>2026-05-03T10:07:54.139Z</time></trkpt><trkpt lat="45.0571962" lon="12.3284147"><ele>-2.0</ele><time>2026-05-03T10:07:56.136Z</time></trkpt><trkpt lat="45.0572982" lon="12.3283977"><ele>-2.0</ele><time>2026-05-03T10:07:58.137Z</time></trkpt><trkpt lat="45.0574051" lon="12.3283848"><ele>-2.0</ele><time>2026-05-03T10:08:00.136Z</time></trkpt><trkpt lat="45.0575121" lon="12.3283729"><ele>-2.0</ele><time>2026-05-03T10:08:02.133Z</time></trkpt><trkpt lat="45.0576187" lon="12.3283584"><ele>-2.0</ele><time>2026-05-03T10:08:04.142Z</time></trkpt><trkpt lat="45.0577277" lon="12.328344"><ele>-2.0</ele><time>2026-05-03T10:08:06.134Z</time></trkpt><trkpt lat="45.0578336" lon="12.3283305"><ele>-2.0</ele><time>2026-05-03T10:08:08.135Z</time></trkpt><trkpt lat="45.0579355" lon="12.3283149"><ele>-2.0</ele><time>2026-05-03T10:08:10.136Z</time></trkpt><trkpt lat="45.0580395" lon="12.3283059"><ele>-2.0</ele><time>2026-05-03T10:08:12.134Z</time></trkpt><trkpt lat="45.0581435" lon="12.3282957"><ele>-2.0</ele><time>2026-05-03T10:08:14.134Z</time></trkpt><trkpt lat="45.0582473" lon="12.3282882"><ele>-2.0</ele><time>2026-05-03T10:08:16.131Z</time></trkpt><trkpt lat="45.0583543" lon="12.3282772"><ele>-2.0</ele><time>2026-05-03T10:08:18.132Z</time></trkpt><trkpt lat="45.0584613" lon="12.328269"><ele>-2.0</ele><time>2026-05-03T10:08:20.134Z</time></trkpt><trkpt lat="45.0585673" lon="12.328257"><ele>-2.0</ele><time>2026-05-03T10:08:22.133Z</time></trkpt><trkpt lat="45.0586693" lon="12.3282435"><ele>-2.0</ele><time>2026-05-03T10:08:24.133Z</time></trkpt><trkpt lat="45.0587744" lon="12.3282299"><ele>-2.0</ele><time>2026-05-03T10:08:26.134Z</time></trkpt><trkpt lat="45.05888" lon="12.3282165"><ele>-2.0</ele><time>2026-05-03T10:08:28.132Z</time></trkpt><trkpt lat="45.0589848" lon="12.3282052"><ele>-2.0</ele><time>2026-05-03T10:08:30.133Z</time></trkpt><trkpt lat="45.0590915" lon="12.328198"><ele>-2.0</ele><time>2026-05-03T10:08:32.137Z</time></trkpt><trkpt lat="45.0591981" lon="12.3281907"><ele>-2.0</ele><time>2026-05-03T10:08:34.134Z</time></trkpt><trkpt lat="45.0593065" lon="12.3281858"><ele>-1.8</ele><time>2026-05-03T10:08:36.134Z</time></trkpt><trkpt lat="45.0594124" lon="12.3281783"><ele>-1.6</ele><time>2026-05-03T10:08:38.131Z</time></trkpt><trkpt lat="45.0595183" lon="12.3281718"><ele>-1.4000000000000001</ele><time>2026-05-03T10:08:40.134Z</time></trkpt><trkpt lat="45.0596221" lon="12.3281586"><ele>-1.2000000000000002</ele><time>2026-05-03T10:08:42.138Z</time></trkpt><trkpt lat="45.0597298" lon="12.3281457"><ele>-1.0</ele><time>2026-05-03T10:08:44.136Z</time></trkpt><trkpt lat="45.0598378" lon="12.3281359"><ele>-1.0</ele><time>2026-05-03T10:08:46.135Z</time></trkpt><trkpt lat="45.0599435" lon="12.3281249"><ele>-1.0</ele><time>2026-05-03T10:08:48.134Z</time></trkpt><trkpt lat="45.0600469" lon="12.3281117"><ele>-1.0</ele><time>2026-05-03T10:08:50.135Z</time></trkpt><trkpt lat="45.0601535" lon="12.3281028"><ele>-1.0</ele><time>2026-05-03T10:08:52.134Z</time></trkpt><trkpt lat="45.0602603" lon="12.3280948"><ele>-1.0</ele><time>2026-05-03T10:08:54.135Z</time></trkpt><trkpt lat="45.0603669" lon="12.3280894"><ele>-0.8</ele><time>2026-05-03T10:08:56.131Z</time></trkpt><trkpt lat="45.0604743" lon="12.3280805"><ele>-0.6000000000000001</ele><time>2026-05-03T10:08:58.135Z</time></trkpt><trkpt lat="45.0605793" lon="12.3280716"><ele>-0.4</ele><time>2026-05-03T10:09:00.126Z</time></trkpt><trkpt lat="45.0606862" lon="12.3280617"><ele>-0.2</ele><time>2026-05-03T10:09:02.131Z</time></trkpt><trkpt lat="45.0607897" lon="12.328054"><ele>0.0</ele><time>2026-05-03T10:09:04.135Z</time></trkpt><trkpt lat="45.0608904" lon="12.328044"><ele>-0.6</ele><time>2026-05-03T10:09:06.137Z</time></trkpt><trkpt lat="45.0609918" lon="12.3280346"><ele>-1.2</ele><time>2026-05-03T10:09:08.135Z</time></trkpt><trkpt lat="45.0610907" lon="12.327991"><ele>-1.7999999999999998</ele><time>2026-05-03T10:09:10.138Z</time></trkpt><trkpt lat="45.061175" lon="12.3278981"><ele>-2.4</ele><time>2026-05-03T10:09:12.137Z</time></trkpt><trkpt lat="45.0612495" lon="12.3277852"><ele>-3.0</ele><time>2026-05-03T10:09:14.134Z</time></trkpt><trkpt lat="45.061321" lon="12.3276689"><ele>-3.0</ele><time>2026-05-03T10:09:16.13Z</time></trkpt><trkpt lat="45.0613914" lon="12.3275511"><ele>-3.0</ele><time>2026-05-03T10:09:18.13Z</time></trkpt><trkpt lat="45.061463" lon="12.3274384"><ele>-3.0</ele><time>2026-05-03T10:09:20.137Z</time></trkpt><trkpt lat="45.0615305" lon="12.3273233"><ele>-3.0</ele><time>2026-05-03T10:09:22.13Z</time></trkpt><trkpt lat="45.0615942" lon="12.3272085"><ele>-3.0</ele><time>2026-05-03T10:09:24.136Z</time></trkpt><trkpt lat="45.0616616" lon="12.3270905"><ele>-2.5</ele><time>2026-05-03T10:09:26.136Z</time></trkpt><trkpt lat="45.0617334" lon="12.3269735"><ele>-2.0</ele><time>2026-05-03T10:09:28.128Z</time></trkpt><trkpt lat="45.0618072" lon="12.3268544"><ele>-1.5</ele><time>2026-05-03T10:09:30.134Z</time></trkpt><trkpt lat="45.0618805" lon="12.3267321"><ele>-1.0</ele><time>2026-05-03T10:09:32.131Z</time></trkpt><trkpt lat="45.0619554" lon="12.3266076"><ele>-1.0</ele><time>2026-05-03T10:09:34.14Z</time></trkpt><trkpt lat="45.062029" lon="12.326487"><ele>-1.0</ele><time>2026-05-03T10:09:36.14Z</time></trkpt><trkpt lat="45.0621019" lon="12.3263701"><ele>-1.0</ele><time>2026-05-03T10:09:38.134Z</time></trkpt><trkpt lat="45.0621705" lon="12.3262532"><ele>-1.0</ele><time>2026-05-03T10:09:40.135Z</time></trkpt><trkpt lat="45.0622396" lon="12.3261417"><ele>-1.0</ele><time>2026-05-03T10:09:42.13Z</time></trkpt><trkpt lat="45.0623081" lon="12.3260228"><ele>-1.2000000000000002</ele><time>2026-05-03T10:09:44.136Z</time></trkpt><trkpt lat="45.0623787" lon="12.325908"><ele>-1.4000000000000001</ele><time>2026-05-03T10:09:46.138Z</time></trkpt><trkpt lat="45.0624442" lon="12.3257834"><ele>-1.6</ele><time>2026-05-03T10:09:48.136Z</time></trkpt><trkpt lat="45.0625154" lon="12.3256586"><ele>-1.8</ele><time>2026-05-03T10:09:50.134Z</time></trkpt><trkpt lat="45.0625824" lon="12.3255337"><ele>-2.0</ele><time>2026-05-03T10:09:52.128Z</time></trkpt><trkpt lat="45.062648" lon="12.325409"><ele>-2.0</ele><time>2026-05-03T10:09:54.135Z</time></trkpt><trkpt lat="45.0627133" lon="12.325282"><ele>-2.0</ele><time>2026-05-03T10:09:56.142Z</time></trkpt><trkpt lat="45.0627814" lon="12.3251528"><ele>-2.0</ele><time>2026-05-03T10:09:58.134Z</time></trkpt><trkpt lat="45.0628457" lon="12.3250224"><ele>-2.0</ele><time>2026-05-03T10:10:00.141Z</time></trkpt><trkpt lat="45.0629166" lon="12.3248957"><ele>-2.0</ele><time>2026-05-03T10:10:02.134Z</time></trkpt><trkpt lat="45.0629848" lon="12.3247695"><ele>-2.0</ele><time>2026-05-03T10:10:04.133Z</time></trkpt><trkpt lat="45.0630533" lon="12.3246469"><ele>-2.0</ele><time>2026-05-03T10:10:06.13Z</time></trkpt><trkpt lat="45.0631223" lon="12.3245207"><ele>-2.0</ele><time>2026-05-03T10:10:08.134Z</time></trkpt><trkpt lat="45.0631999" lon="12.324401"><ele>-2.0</ele><time>2026-05-03T10:10:10.14Z</time></trkpt><trkpt lat="45.0632838" lon="12.3242988"><ele>-2.0</ele><time>2026-05-03T10:10:12.133Z</time></trkpt><trkpt lat="45.063371" lon="12.3242092"><ele>-2.0</ele><time>2026-05-03T10:10:14.13Z</time></trkpt><trkpt lat="45.063452" lon="12.3241058"><ele>-2.0</ele><time>2026-05-03T10:10:16.136Z</time></trkpt><trkpt lat="45.0635188" lon="12.3239812"><ele>-2.0</ele><time>2026-05-03T10:10:18.136Z</time></trkpt><trkpt lat="45.0635606" lon="12.3238343"><ele>-2.0</ele><time>2026-05-03T10:10:20.138Z</time></trkpt><trkpt lat="45.0635678" lon="12.323675"><ele>-2.0</ele><time>2026-05-03T10:10:22.129Z</time></trkpt><trkpt lat="45.0635249" lon="12.3235182"><ele>-2.0</ele><time>2026-05-03T10:10:24.131Z</time></trkpt><trkpt lat="45.0634773" lon="12.3233634"><ele>-2.0</ele><time>2026-05-03T10:10:26.136Z</time></trkpt><trkpt lat="45.0634763" lon="12.3231973"><ele>-1.75</ele><time>2026-05-03T10:10:28.139Z</time></trkpt><trkpt lat="45.0634996" lon="12.3230329"><ele>-1.5</ele><time>2026-05-03T10:10:30.132Z</time></trkpt><trkpt lat="45.0635052" lon="12.3228743"><ele>-1.25</ele><time>2026-05-03T10:10:32.132Z</time></trkpt><trkpt lat="45.0634921" lon="12.3227131"><ele>-1.0</ele><time>2026-05-03T10:10:34.13Z</time></trkpt><trkpt lat="45.0634711" lon="12.3225498"><ele>-1.0</ele><time>2026-05-03T10:10:36.139Z</time></trkpt><trkpt lat="45.0634468" lon="12.3223844"><ele>-1.0</ele><time>2026-05-03T10:10:38.136Z</time></trkpt><trkpt lat="45.0634235" lon="12.3222214"><ele>-1.0</ele><time>2026-05-03T10:10:40.134Z</time></trkpt><trkpt lat="45.0634063" lon="12.3220583"><ele>-1.0</ele><time>2026-05-03T10:10:42.131Z</time></trkpt><trkpt lat="45.0633902" lon="12.3218989"><ele>-1.0</ele><time>2026-05-03T10:10:44.134Z</time></trkpt><trkpt lat="45.0633772" lon="12.3217449"><ele>-1.0</ele><time>2026-05-03T10:10:46.133Z</time></trkpt><trkpt lat="45.0633699" lon="12.3215905"><ele>-1.0</ele><time>2026-05-03T10:10:48.134Z</time></trkpt><trkpt lat="45.0633538" lon="12.3214349"><ele>-1.0</ele><time>2026-05-03T10:10:50.132Z</time></trkpt><trkpt lat="45.0633343" lon="12.3212781"><ele>-1.0</ele><time>2026-05-03T10:10:52.135Z</time></trkpt><trkpt lat="45.0633158" lon="12.3211175"><ele>-1.25</ele><time>2026-05-03T10:10:54.135Z</time></trkpt><trkpt lat="45.0633036" lon="12.3209544"><ele>-1.5</ele><time>2026-05-03T10:10:56.134Z</time></trkpt><trkpt lat="45.0632906" lon="12.3207943"><ele>-1.75</ele><time>2026-05-03T10:10:58.136Z</time></trkpt><trkpt lat="45.0632733" lon="12.320635"><ele>-2.0</ele><time>2026-05-03T10:11:00.137Z</time></trkpt><trkpt lat="45.0632629" lon="12.320469"><ele>-2.0</ele><time>2026-05-03T10:11:02.134Z</time></trkpt><trkpt lat="45.0632596" lon="12.3203062"><ele>-2.0</ele><time>2026-05-03T10:11:04.135Z</time></trkpt><trkpt lat="45.0632534" lon="12.3201448"><ele>-2.0</ele><time>2026-05-03T10:11:06.135Z</time></trkpt><trkpt lat="45.0632426" lon="12.3199837"><ele>-2.0</ele><time>2026-05-03T10:11:08.138Z</time></trkpt><trkpt lat="45.0632348" lon="12.319821"><ele>-2.0</ele><time>2026-05-03T10:11:10.134Z</time></trkpt><trkpt lat="45.0632321" lon="12.3196567"><ele>-2.0</ele><time>2026-05-03T10:11:12.132Z</time></trkpt><trkpt lat="45.0632353" lon="12.3194903"><ele>-2.0</ele><time>2026-05-03T10:11:14.133Z</time></trkpt><trkpt lat="45.0632353" lon="12.319326"><ele>-2.0</ele><time>2026-05-03T10:11:16.139Z</time></trkpt><trkpt lat="45.0632427" lon="12.3191599"><ele>-2.0</ele><time>2026-05-03T10:11:18.135Z</time></trkpt><trkpt lat="45.0632606" lon="12.3189989"><ele>-2.0</ele><time>2026-05-03T10:11:20.133Z</time></trkpt><trkpt lat="45.0632804" lon="12.3188386"><ele>-2.0</ele><time>2026-05-03T10:11:22.132Z</time></trkpt><trkpt lat="45.0633081" lon="12.3186823"><ele>-2.0</ele><time>2026-05-03T10:11:24.138Z</time></trkpt><trkpt lat="45.0633374" lon="12.3185245"><ele>-2.25</ele><time>2026-05-03T10:11:26.136Z</time></trkpt><trkpt lat="45.0633699" lon="12.3183648"><ele>-2.5</ele><time>2026-05-03T10:11:28.133Z</time></trkpt><trkpt lat="45.0634085" lon="12.3182119"><ele>-2.75</ele><time>2026-05-03T10:11:30.138Z</time></trkpt><trkpt lat="45.0634444" lon="12.318058"><ele>-3.0</ele><time>2026-05-03T10:11:32.134Z</time></trkpt><trkpt lat="45.0634875" lon="12.3179048"><ele>-3.0</ele><time>2026-05-03T10:11:34.138Z</time></trkpt><trkpt lat="45.0635338" lon="12.3177512"><ele>-3.0</ele><time>2026-05-03T10:11:36.133Z</time></trkpt><trkpt lat="45.0635814" lon="12.3175968"><ele>-3.0</ele><time>2026-05-03T10:11:38.131Z</time></trkpt><trkpt lat="45.0636328" lon="12.3174445"><ele>-3.0</ele><time>2026-05-03T10:11:40.135Z</time></trkpt><trkpt lat="45.0636888" lon="12.317292"><ele>-3.5</ele><time>2026-05-03T10:11:42.131Z</time></trkpt><trkpt lat="45.0637506" lon="12.3171406"><ele>-4.0</ele><time>2026-05-03T10:11:44.132Z</time></trkpt><trkpt lat="45.0638182" lon="12.3169958"><ele>-4.5</ele><time>2026-05-03T10:11:46.132Z</time></trkpt><trkpt lat="45.0638891" lon="12.3168534"><ele>-5.0</ele><time>2026-05-03T10:11:48.136Z</time></trkpt><trkpt lat="45.0639617" lon="12.316713"><ele>-5.0</ele><time>2026-05-03T10:11:50.134Z</time></trkpt><trkpt lat="45.0640371" lon="12.3165776"><ele>-5.0</ele><time>2026-05-03T10:11:52.135Z</time></trkpt><trkpt lat="45.0641122" lon="12.3164439"><ele>-5.0</ele><time>2026-05-03T10:11:54.138Z</time></trkpt><trkpt lat="45.0641869" lon="12.3163065"><ele>-5.0</ele><time>2026-05-03T10:11:56.136Z</time></trkpt><trkpt lat="45.0642587" lon="12.31617"><ele>-4.5</ele><time>2026-05-03T10:11:58.137Z</time></trkpt><trkpt lat="45.0643312" lon="12.3160339"><ele>-4.0</ele><time>2026-05-03T10:12:00.135Z</time></trkpt><trkpt lat="45.0644037" lon="12.315898"><ele>-3.5</ele><time>2026-05-03T10:12:02.132Z</time></trkpt><trkpt lat="45.0644742" lon="12.3157638"><ele>-3.0</ele><time>2026-05-03T10:12:04.137Z</time></trkpt><trkpt lat="45.0645476" lon="12.31563"><ele>-2.6</ele><time>2026-05-03T10:12:06.132Z</time></trkpt><trkpt lat="45.064622" lon="12.3154943"><ele>-2.1999999999999997</ele><time>2026-05-03T10:12:08.137Z</time></trkpt><trkpt lat="45.0646933" lon="12.315358"><ele>-1.8</ele><time>2026-05-03T10:12:10.133Z</time></trkpt><trkpt lat="45.0647634" lon="12.3152188"><ele>-1.4</ele><time>2026-05-03T10:12:12.137Z</time></trkpt><trkpt lat="45.0648028" lon="12.3151487"><ele>-1.0</ele><time>2026-05-03T10:12:13.139Z</time></trkpt><trkpt lat="45.0648798" lon="12.3150148"><ele>-1.0</ele><time>2026-05-03T10:12:15.139Z</time></trkpt><trkpt lat="45.0649486" lon="12.3148684"><ele>-1.0</ele><time>2026-05-03T10:12:17.136Z</time></trkpt><trkpt lat="45.0649984" lon="12.3147107"><ele>-1.0</ele><time>2026-05-03T10:12:19.134Z</time></trkpt><trkpt lat="45.0650339" lon="12.3145504"><ele>-1.0</ele><time>2026-05-03T10:12:21.136Z</time></trkpt><trkpt lat="45.0650541" lon="12.3143848"><ele>-1.0</ele><time>2026-05-03T10:12:23.137Z</time></trkpt><trkpt lat="45.0650634" lon="12.3142198"><ele>-1.0</ele><time>2026-05-03T10:12:25.141Z</time></trkpt><trkpt lat="45.065072" lon="12.3140521"><ele>-1.0</ele><time>2026-05-03T10:12:27.14Z</time></trkpt><trkpt lat="45.0650828" lon="12.3138844"><ele>-1.0</ele><time>2026-05-03T10:12:29.135Z</time></trkpt><trkpt lat="45.0650949" lon="12.31372"><ele>-1.25</ele><time>2026-05-03T10:12:31.138Z</time></trkpt><trkpt lat="45.0651022" lon="12.3135474"><ele>-1.5</ele><time>2026-05-03T10:12:33.138Z</time></trkpt><trkpt lat="45.0651104" lon="12.3133775"><ele>-1.75</ele><time>2026-05-03T10:12:35.139Z</time></trkpt><trkpt lat="45.0651226" lon="12.3132102"><ele>-2.0</ele><time>2026-05-03T10:12:37.134Z</time></trkpt><trkpt lat="45.0651325" lon="12.3130378"><ele>-2.25</ele><time>2026-05-03T10:12:39.138Z</time></trkpt><trkpt lat="45.0651452" lon="12.3128713"><ele>-2.5</ele><time>2026-05-03T10:12:41.137Z</time></trkpt><trkpt lat="45.0651523" lon="12.3126987"><ele>-2.75</ele><time>2026-05-03T10:12:43.138Z</time></trkpt><trkpt lat="45.0651577" lon="12.3125276"><ele>-3.0</ele><time>2026-05-03T10:12:45.142Z</time></trkpt><trkpt lat="45.06516" lon="12.3123557"><ele>-2.5</ele><time>2026-05-03T10:12:47.139Z</time></trkpt><trkpt lat="45.0651589" lon="12.3121845"><ele>-2.0</ele><time>2026-05-03T10:12:49.135Z</time></trkpt><trkpt lat="45.0651563" lon="12.3120134"><ele>-1.5</ele><time>2026-05-03T10:12:51.137Z</time></trkpt><trkpt lat="45.0651521" lon="12.3118416"><ele>-1.0</ele><time>2026-05-03T10:12:53.135Z</time></trkpt><trkpt lat="45.0651369" lon="12.3116729"><ele>-1.0</ele><time>2026-05-03T10:12:55.133Z</time></trkpt><trkpt lat="45.0650992" lon="12.3115095"><ele>-1.0</ele><time>2026-05-03T10:12:57.138Z</time></trkpt><trkpt lat="45.0650462" lon="12.311351"><ele>-1.0</ele><time>2026-05-03T10:12:59.138Z</time></trkpt><trkpt lat="45.0649931" lon="12.3111998"><ele>-1.0</ele><time>2026-05-03T10:13:01.138Z</time></trkpt><trkpt lat="45.0649491" lon="12.3110395"><ele>-1.5</ele><time>2026-05-03T10:13:03.134Z</time></trkpt><trkpt lat="45.0649241" lon="12.3108761"><ele>-2.0</ele><time>2026-05-03T10:13:05.136Z</time></trkpt><trkpt lat="45.0649132" lon="12.3107075"><ele>-2.5</ele><time>2026-05-03T10:13:07.136Z</time></trkpt><trkpt lat="45.0649137" lon="12.3105391"><ele>-3.0</ele><time>2026-05-03T10:13:09.14Z</time></trkpt><trkpt lat="45.0649158" lon="12.3103709"><ele>-3.0</ele><time>2026-05-03T10:13:11.138Z</time></trkpt><trkpt lat="45.0649232" lon="12.3101998"><ele>-3.0</ele><time>2026-05-03T10:13:13.14Z</time></trkpt><trkpt lat="45.0649462" lon="12.3100318"><ele>-3.0</ele><time>2026-05-03T10:13:15.139Z</time></trkpt><trkpt lat="45.064984" lon="12.3098713"><ele>-3.0</ele><time>2026-05-03T10:13:17.136Z</time></trkpt><trkpt lat="45.065037" lon="12.3097231"><ele>-2.75</ele><time>2026-05-03T10:13:19.138Z</time></trkpt><trkpt lat="45.0650959" lon="12.3095791"><ele>-2.5</ele><time>2026-05-03T10:13:21.135Z</time></trkpt><trkpt lat="45.0651601" lon="12.3094388"><ele>-2.25</ele><time>2026-05-03T10:13:23.137Z</time></trkpt><trkpt lat="45.0652363" lon="12.3093025"><ele>-2.0</ele><time>2026-05-03T10:13:25.14Z</time></trkpt><trkpt lat="45.0653123" lon="12.309173"><ele>-2.0</ele><time>2026-05-03T10:13:27.136Z</time></trkpt><trkpt lat="45.0653879" lon="12.3090423"><ele>-2.0</ele><time>2026-05-03T10:13:29.135Z</time></trkpt><trkpt lat="45.0654664" lon="12.3089168"><ele>-2.0</ele><time>2026-05-03T10:13:31.134Z</time></trkpt><trkpt lat="45.0655494" lon="12.3088009"><ele>-2.0</ele><time>2026-05-03T10:13:33.138Z</time></trkpt><trkpt lat="45.0656343" lon="12.3086848"><ele>-2.25</ele><time>2026-05-03T10:13:35.138Z</time></trkpt><trkpt lat="45.0657191" lon="12.3085685"><ele>-2.5</ele><time>2026-05-03T10:13:37.138Z</time></trkpt><trkpt lat="45.0658025" lon="12.3084518"><ele>-2.75</ele><time>2026-05-03T10:13:39.138Z</time></trkpt><trkpt lat="45.0658819" lon="12.3083289"><ele>-3.0</ele><time>2026-05-03T10:13:41.138Z</time></trkpt><trkpt lat="45.06596" lon="12.3082057"><ele>-3.25</ele><time>2026-05-03T10:13:43.142Z</time></trkpt><trkpt lat="45.0660316" lon="12.3080797"><ele>-3.5</ele><time>2026-05-03T10:13:45.129Z</time></trkpt><trkpt lat="45.0660955" lon="12.3079459"><ele>-3.75</ele><time>2026-05-03T10:13:47.132Z</time></trkpt><trkpt lat="45.0661607" lon="12.3078128"><ele>-4.0</ele><time>2026-05-03T10:13:49.135Z</time></trkpt><trkpt lat="45.0662258" lon="12.3076822"><ele>-3.5</ele><time>2026-05-03T10:13:51.139Z</time></trkpt><trkpt lat="45.0662949" lon="12.3075511"><ele>-3.0</ele><time>2026-05-03T10:13:53.139Z</time></trkpt><trkpt lat="45.066366" lon="12.3074164"><ele>-2.5</ele><time>2026-05-03T10:13:55.137Z</time></trkpt><trkpt lat="45.0664347" lon="12.3072815"><ele>-2.0</ele><time>2026-05-03T10:13:57.131Z</time></trkpt><trkpt lat="45.0665033" lon="12.3071446"><ele>-2.0</ele><time>2026-05-03T10:13:59.14Z</time></trkpt><trkpt lat="45.0665757" lon="12.3070074"><ele>-2.0</ele><time>2026-05-03T10:14:01.135Z</time></trkpt><trkpt lat="45.0666439" lon="12.3068642"><ele>-2.0</ele><time>2026-05-03T10:14:03.136Z</time></trkpt><trkpt lat="45.0667146" lon="12.3067257"><ele>-2.0</ele><time>2026-05-03T10:14:05.14Z</time></trkpt><trkpt lat="45.0667955" lon="12.3065961"><ele>-2.0</ele><time>2026-05-03T10:14:07.138Z</time></trkpt><trkpt lat="45.0668815" lon="12.3064766"><ele>-2.0</ele><time>2026-05-03T10:14:09.135Z</time></trkpt><trkpt lat="45.066974" lon="12.3063632"><ele>-2.0</ele><time>2026-05-03T10:14:11.138Z</time></trkpt><trkpt lat="45.0670621" lon="12.3062497"><ele>-2.0</ele><time>2026-05-03T10:14:13.144Z</time></trkpt><trkpt lat="45.0671526" lon="12.3061359"><ele>-2.25</ele><time>2026-05-03T10:14:15.137Z</time></trkpt><trkpt lat="45.0672426" lon="12.3060231"><ele>-2.5</ele><time>2026-05-03T10:14:17.145Z</time></trkpt><trkpt lat="45.0673278" lon="12.3059134"><ele>-2.75</ele><time>2026-05-03T10:14:19.142Z</time></trkpt><trkpt lat="45.0674184" lon="12.3058025"><ele>-3.0</ele><time>2026-05-03T10:14:21.138Z</time></trkpt><trkpt lat="45.0675107" lon="12.3056883"><ele>-3.0</ele><time>2026-05-03T10:14:23.137Z</time></trkpt><trkpt lat="45.067594" lon="12.3055721"><ele>-3.0</ele><time>2026-05-03T10:14:25.142Z</time></trkpt><trkpt lat="45.0676733" lon="12.3054546"><ele>-3.0</ele><time>2026-05-03T10:14:27.131Z</time></trkpt><trkpt lat="45.0677522" lon="12.3053329"><ele>-3.0</ele><time>2026-05-03T10:14:29.139Z</time></trkpt><trkpt lat="45.0678288" lon="12.305205"><ele>-3.0</ele><time>2026-05-03T10:14:31.135Z</time></trkpt><trkpt lat="45.0678961" lon="12.3050683"><ele>-3.0</ele><time>2026-05-03T10:14:33.143Z</time></trkpt><trkpt lat="45.0679597" lon="12.3049236"><ele>-3.0</ele><time>2026-05-03T10:14:35.138Z</time></trkpt><trkpt lat="45.0680254" lon="12.3047827"><ele>-3.0</ele><time>2026-05-03T10:14:37.14Z</time></trkpt><trkpt lat="45.0680844" lon="12.3046412"><ele>-3.0</ele><time>2026-05-03T10:14:39.133Z</time></trkpt><trkpt lat="45.0681435" lon="12.3044952"><ele>-3.0</ele><time>2026-05-03T10:14:41.135Z</time></trkpt><trkpt lat="45.068206" lon="12.3043524"><ele>-3.0</ele><time>2026-05-03T10:14:43.139Z</time></trkpt><trkpt lat="45.0682713" lon="12.3042116"><ele>-3.0</ele><time>2026-05-03T10:14:45.135Z</time></trkpt><trkpt lat="45.0683467" lon="12.3040781"><ele>-2.8</ele><time>2026-05-03T10:14:47.136Z</time></trkpt><trkpt lat="45.068431" lon="12.3039557"><ele>-2.5999999999999996</ele><time>2026-05-03T10:14:49.141Z</time></trkpt><trkpt lat="45.0685301" lon="12.303848"><ele>-2.4000000000000004</ele><time>2026-05-03T10:14:51.139Z</time></trkpt><trkpt lat="45.0685832" lon="12.3037983"><ele>-2.2</ele><time>2026-05-03T10:14:52.135Z</time></trkpt><trkpt lat="45.0686907" lon="12.3037119"><ele>-2.0</ele><time>2026-05-03T10:14:54.138Z</time></trkpt><trkpt lat="45.0688016" lon="12.3036371"><ele>-2.0</ele><time>2026-05-03T10:14:56.136Z</time></trkpt><trkpt lat="45.0689114" lon="12.3035654"><ele>-2.0</ele><time>2026-05-03T10:14:58.132Z</time></trkpt><trkpt lat="45.0690218" lon="12.3034934"><ele>-2.0</ele><time>2026-05-03T10:15:00.134Z</time></trkpt><trkpt lat="45.0691315" lon="12.3034249"><ele>-2.0</ele><time>2026-05-03T10:15:02.134Z</time></trkpt><trkpt lat="45.0692377" lon="12.3033492"><ele>-2.0</ele><time>2026-05-03T10:15:04.136Z</time></trkpt><trkpt lat="45.0693453" lon="12.3032736"><ele>-2.0</ele><time>2026-05-03T10:15:06.131Z</time></trkpt><trkpt lat="45.0694527" lon="12.3032023"><ele>-2.0</ele><time>2026-05-03T10:15:08.13Z</time></trkpt><trkpt lat="45.0695652" lon="12.3031373"><ele>-2.0</ele><time>2026-05-03T10:15:10.137Z</time></trkpt><trkpt lat="45.0696783" lon="12.3030905"><ele>-2.25</ele><time>2026-05-03T10:15:12.131Z</time></trkpt><trkpt lat="45.069794" lon="12.3030605"><ele>-2.5</ele><time>2026-05-03T10:15:14.132Z</time></trkpt><trkpt lat="45.069912" lon="12.3030315"><ele>-2.75</ele><time>2026-05-03T10:15:16.134Z</time></trkpt><trkpt lat="45.0700254" lon="12.3029967"><ele>-3.0</ele><time>2026-05-03T10:15:18.14Z</time></trkpt><trkpt lat="45.0701375" lon="12.3029624"><ele>-3.25</ele><time>2026-05-03T10:15:20.138Z</time></trkpt><trkpt lat="45.0702522" lon="12.302928"><ele>-3.5</ele><time>2026-05-03T10:15:22.131Z</time></trkpt><trkpt lat="45.0703652" lon="12.302894"><ele>-3.75</ele><time>2026-05-03T10:15:24.13Z</time></trkpt><trkpt lat="45.0704793" lon="12.3028604"><ele>-4.0</ele><time>2026-05-03T10:15:26.136Z</time></trkpt><trkpt lat="45.0705929" lon="12.3028258"><ele>-4.0</ele><time>2026-05-03T10:15:28.138Z</time></trkpt><trkpt lat="45.070705" lon="12.3027918"><ele>-4.0</ele><time>2026-05-03T10:15:30.133Z</time></trkpt><trkpt lat="45.0708136" lon="12.3027562"><ele>-4.0</ele><time>2026-05-03T10:15:32.138Z</time></trkpt><trkpt lat="45.0709261" lon="12.30272"><ele>-4.0</ele><time>2026-05-03T10:15:34.132Z</time></trkpt><trkpt lat="45.0710448" lon="12.3026845"><ele>-3.0</ele><time>2026-05-03T10:15:36.135Z</time></trkpt><trkpt lat="45.0711613" lon="12.3026495"><ele>-2.0</ele><time>2026-05-03T10:15:38.135Z</time></trkpt><trkpt lat="45.0712764" lon="12.3026113"><ele>-1.0</ele><time>2026-05-03T10:15:40.136Z</time></trkpt><trkpt lat="45.0713899" lon="12.3025748"><ele>0.0</ele><time>2026-05-03T10:15:42.132Z</time></trkpt><trkpt lat="45.0715029" lon="12.3025329"><ele>-0.25</ele><time>2026-05-03T10:15:44.134Z</time></trkpt><trkpt lat="45.0716159" lon="12.3024885"><ele>-0.5</ele><time>2026-05-03T10:15:46.141Z</time></trkpt><trkpt lat="45.071727" lon="12.3024381"><ele>-0.75</ele><time>2026-05-03T10:15:48.137Z</time></trkpt><trkpt lat="45.0718385" lon="12.3023833"><ele>-1.0</ele><time>2026-05-03T10:15:50.133Z</time></trkpt><trkpt lat="45.0719428" lon="12.3023223"><ele>-1.0</ele><time>2026-05-03T10:15:52.14Z</time></trkpt><trkpt lat="45.0720407" lon="12.3022551"><ele>-1.0</ele><time>2026-05-03T10:15:54.138Z</time></trkpt><trkpt lat="45.0721234" lon="12.302167"><ele>-1.0</ele><time>2026-05-03T10:15:56.138Z</time></trkpt><trkpt lat="45.0722006" lon="12.3020764"><ele>-1.0</ele><time>2026-05-03T10:15:58.133Z</time></trkpt><trkpt lat="45.0722703" lon="12.3019762"><ele>-1.0</ele><time>2026-05-03T10:16:00.14Z</time></trkpt><trkpt lat="45.0723154" lon="12.301863"><ele>-1.2000000000000002</ele><time>2026-05-03T10:16:02.134Z</time></trkpt><trkpt lat="45.0723383" lon="12.3017266"><ele>-1.4000000000000001</ele><time>2026-05-03T10:16:04.133Z</time></trkpt><trkpt lat="45.0723973" lon="12.3015952"><ele>-1.6</ele><time>2026-05-03T10:16:06.13Z</time></trkpt><trkpt lat="45.0724716" lon="12.3014635"><ele>-1.8</ele><time>2026-05-03T10:16:08.138Z</time></trkpt><trkpt lat="45.0725475" lon="12.3013349"><ele>-2.0</ele><time>2026-05-03T10:16:10.137Z</time></trkpt><trkpt lat="45.0726373" lon="12.3012545"><ele>-2.0</ele><time>2026-05-03T10:16:12.138Z</time></trkpt><trkpt lat="45.0727428" lon="12.3012474"><ele>-2.0</ele><time>2026-05-03T10:16:14.138Z</time></trkpt><trkpt lat="45.0728523" lon="12.3013039"><ele>-2.0</ele><time>2026-05-03T10:16:16.135Z</time></trkpt><trkpt lat="45.0729518" lon="12.3013758"><ele>-2.0</ele><time>2026-05-03T10:16:18.128Z</time></trkpt><trkpt lat="45.073046" lon="12.3014427"><ele>-2.0</ele><time>2026-05-03T10:16:20.134Z</time></trkpt><trkpt lat="45.0731423" lon="12.3015047"><ele>-2.0</ele><time>2026-05-03T10:16:22.134Z</time></trkpt><trkpt lat="45.0732418" lon="12.3015626"><ele>-2.0</ele><time>2026-05-03T10:16:24.137Z</time></trkpt><trkpt lat="45.0733405" lon="12.3016217"><ele>-2.0</ele><time>2026-05-03T10:16:26.137Z</time></trkpt><trkpt lat="45.0734402" lon="12.3016803"><ele>-2.0</ele><time>2026-05-03T10:16:28.13Z</time></trkpt><trkpt lat="45.0735423" lon="12.3017371"><ele>-2.0</ele><time>2026-05-03T10:16:30.135Z</time></trkpt><trkpt lat="45.0736406" lon="12.3017975"><ele>-2.4000000000000004</ele><time>2026-05-03T10:16:32.129Z</time></trkpt><trkpt lat="45.0737405" lon="12.3018573"><ele>-2.8000000000000003</ele><time>2026-05-03T10:16:34.13Z</time></trkpt><trkpt lat="45.0738393" lon="12.301917"><ele>-3.2</ele><time>2026-05-03T10:16:36.134Z</time></trkpt><trkpt lat="45.0739378" lon="12.3019802"><ele>-3.6</ele><time>2026-05-03T10:16:38.134Z</time></trkpt><trkpt lat="45.0740417" lon="12.3020439"><ele>-4.0</ele><time>2026-05-03T10:16:40.135Z</time></trkpt><trkpt lat="45.0741396" lon="12.3021084"><ele>-4.0</ele><time>2026-05-03T10:16:42.129Z</time></trkpt><trkpt lat="45.074238" lon="12.302174"><ele>-4.0</ele><time>2026-05-03T10:16:44.128Z</time></trkpt><trkpt lat="45.0743389" lon="12.3022413"><ele>-4.0</ele><time>2026-05-03T10:16:46.131Z</time></trkpt><trkpt lat="45.0744387" lon="12.3023061"><ele>-4.0</ele><time>2026-05-03T10:16:48.136Z</time></trkpt><trkpt lat="45.0745412" lon="12.3023734"><ele>-4.0</ele><time>2026-05-03T10:16:50.13Z</time></trkpt><trkpt lat="45.07464" lon="12.3024356"><ele>-3.8000000000000003</ele><time>2026-05-03T10:16:52.129Z</time></trkpt><trkpt lat="45.0747347" lon="12.3024991"><ele>-3.6000000000000005</ele><time>2026-05-03T10:16:54.127Z</time></trkpt><trkpt lat="45.0748295" lon="12.3025605"><ele>-3.4</ele><time>2026-05-03T10:16:56.13Z</time></trkpt><trkpt lat="45.074928" lon="12.3026216"><ele>-3.2</ele><time>2026-05-03T10:16:58.137Z</time></trkpt><trkpt lat="45.0750302" lon="12.3026832"><ele>-3.0</ele><time>2026-05-03T10:17:00.132Z</time></trkpt><trkpt lat="45.0751289" lon="12.3027368"><ele>-3.0</ele><time>2026-05-03T10:17:02.128Z</time></trkpt><trkpt lat="45.0752262" lon="12.3027681"><ele>-3.0</ele><time>2026-05-03T10:17:04.131Z</time></trkpt><trkpt lat="45.0753247" lon="12.3027406"><ele>-3.0</ele><time>2026-05-03T10:17:06.129Z</time></trkpt><trkpt lat="45.0754134" lon="12.3026576"><ele>-3.0</ele><time>2026-05-03T10:17:08.131Z</time></trkpt><trkpt lat="45.0754679" lon="12.3025474"><ele>-3.0</ele><time>2026-05-03T10:17:10.133Z</time></trkpt><trkpt lat="45.0755091" lon="12.3024258"><ele>-3.0</ele><time>2026-05-03T10:17:12.13Z</time></trkpt><trkpt lat="45.0755501" lon="12.3022919"><ele>-3.0</ele><time>2026-05-03T10:17:14.13Z</time></trkpt><trkpt lat="45.0755951" lon="12.3021598"><ele>-3.0</ele><time>2026-05-03T10:17:16.129Z</time></trkpt><trkpt lat="45.0756457" lon="12.3020239"><ele>-3.0</ele><time>2026-05-03T10:17:18.132Z</time></trkpt><trkpt lat="45.0757063" lon="12.3018978"><ele>-3.0</ele><time>2026-05-03T10:17:20.136Z</time></trkpt><trkpt lat="45.0757694" lon="12.3017668"><ele>-3.0</ele><time>2026-05-03T10:17:22.132Z</time></trkpt><trkpt lat="45.0758334" lon="12.3016354"><ele>-3.0</ele><time>2026-05-03T10:17:24.136Z</time></trkpt><trkpt lat="45.0758994" lon="12.3015044"><ele>-3.0</ele><time>2026-05-03T10:17:26.134Z</time></trkpt><trkpt lat="45.075963" lon="12.3013716"><ele>-3.0</ele><time>2026-05-03T10:17:28.131Z</time></trkpt><trkpt lat="45.0760258" lon="12.301241"><ele>-3.0</ele><time>2026-05-03T10:17:30.136Z</time></trkpt><trkpt lat="45.0760912" lon="12.3011095"><ele>-3.0</ele><time>2026-05-03T10:17:32.134Z</time></trkpt><trkpt lat="45.0761542" lon="12.3009738"><ele>-3.0</ele><time>2026-05-03T10:17:34.13Z</time></trkpt><trkpt lat="45.0762169" lon="12.3008384"><ele>-3.0</ele><time>2026-05-03T10:17:36.13Z</time></trkpt><trkpt lat="45.0762821" lon="12.3007007"><ele>-3.25</ele><time>2026-05-03T10:17:38.134Z</time></trkpt><trkpt lat="45.0763438" lon="12.3005635"><ele>-3.5</ele><time>2026-05-03T10:17:40.135Z</time></trkpt><trkpt lat="45.0764073" lon="12.3004242"><ele>-3.75</ele><time>2026-05-03T10:17:42.135Z</time></trkpt><trkpt lat="45.0764723" lon="12.3002881"><ele>-4.0</ele><time>2026-05-03T10:17:44.134Z</time></trkpt><trkpt lat="45.0765384" lon="12.3001568"><ele>-4.0</ele><time>2026-05-03T10:17:46.136Z</time></trkpt><trkpt lat="45.0766067" lon="12.3000256"><ele>-4.0</ele><time>2026-05-03T10:17:48.132Z</time></trkpt><trkpt lat="45.0766726" lon="12.2998915"><ele>-4.0</ele><time>2026-05-03T10:17:50.129Z</time></trkpt><trkpt lat="45.0767327" lon="12.299754"><ele>-4.0</ele><time>2026-05-03T10:17:52.133Z</time></trkpt><trkpt lat="45.0768004" lon="12.2996157"><ele>-4.0</ele><time>2026-05-03T10:17:54.137Z</time></trkpt><trkpt lat="45.0768676" lon="12.2994793"><ele>-4.0</ele><time>2026-05-03T10:17:56.139Z</time></trkpt><trkpt lat="45.0769323" lon="12.2993414"><ele>-4.0</ele><time>2026-05-03T10:17:58.129Z</time></trkpt><trkpt lat="45.0769975" lon="12.2992055"><ele>-4.0</ele><time>2026-05-03T10:18:00.133Z</time></trkpt><trkpt lat="45.0770604" lon="12.2990657"><ele>-4.0</ele><time>2026-05-03T10:18:02.134Z</time></trkpt><trkpt lat="45.0771263" lon="12.2989287"><ele>-4.0</ele><time>2026-05-03T10:18:04.138Z</time></trkpt><trkpt lat="45.0771919" lon="12.2987955"><ele>-4.0</ele><time>2026-05-03T10:18:06.132Z</time></trkpt><trkpt lat="45.0772581" lon="12.2986623"><ele>-4.0</ele><time>2026-05-03T10:18:08.132Z</time></trkpt><trkpt lat="45.0773254" lon="12.2985257"><ele>-3.75</ele><time>2026-05-03T10:18:10.131Z</time></trkpt><trkpt lat="45.077395" lon="12.2983857"><ele>-3.5</ele><time>2026-05-03T10:18:12.132Z</time></trkpt><trkpt lat="45.0774561" lon="12.2982442"><ele>-3.25</ele><time>2026-05-03T10:18:14.139Z</time></trkpt><trkpt lat="45.0775194" lon="12.2981044"><ele>-3.0</ele><time>2026-05-03T10:18:16.13Z</time></trkpt><trkpt lat="45.0775823" lon="12.297968"><ele>-3.0</ele><time>2026-05-03T10:18:18.131Z</time></trkpt><trkpt lat="45.077648" lon="12.2978306"><ele>-3.0</ele><time>2026-05-03T10:18:20.131Z</time></trkpt><trkpt lat="45.0777083" lon="12.2976929"><ele>-3.0</ele><time>2026-05-03T10:18:22.135Z</time></trkpt><trkpt lat="45.0777688" lon="12.2975543"><ele>-3.0</ele><time>2026-05-03T10:18:24.13Z</time></trkpt><trkpt lat="45.0778371" lon="12.2974169"><ele>-3.0</ele><time>2026-05-03T10:18:26.131Z</time></trkpt><trkpt lat="45.0779073" lon="12.2972833"><ele>-3.0</ele><time>2026-05-03T10:18:28.131Z</time></trkpt><trkpt lat="45.0779766" lon="12.2971516"><ele>-3.0</ele><time>2026-05-03T10:18:30.135Z</time></trkpt><trkpt lat="45.0780437" lon="12.2970165"><ele>-3.0</ele><time>2026-05-03T10:18:32.13Z</time></trkpt><trkpt lat="45.0781113" lon="12.2968771"><ele>-3.0</ele><time>2026-05-03T10:18:34.133Z</time></trkpt><trkpt lat="45.0781753" lon="12.2967395"><ele>-3.0</ele><time>2026-05-03T10:18:36.133Z</time></trkpt><trkpt lat="45.0782404" lon="12.2966002"><ele>-3.0</ele><time>2026-05-03T10:18:38.136Z</time></trkpt><trkpt lat="45.0783082" lon="12.2964546"><ele>-3.0</ele><time>2026-05-03T10:18:40.137Z</time></trkpt><trkpt lat="45.0783722" lon="12.2963124"><ele>-3.0</ele><time>2026-05-03T10:18:42.136Z</time></trkpt><trkpt lat="45.0784414" lon="12.2961729"><ele>-3.0</ele><time>2026-05-03T10:18:44.13Z</time></trkpt><trkpt lat="45.0785067" lon="12.2960325"><ele>-3.0</ele><time>2026-05-03T10:18:46.128Z</time></trkpt><trkpt lat="45.0785751" lon="12.2958939"><ele>-3.0</ele><time>2026-05-03T10:18:48.135Z</time></trkpt><trkpt lat="45.078644" lon="12.2957488"><ele>-3.0</ele><time>2026-05-03T10:18:50.135Z</time></trkpt><trkpt lat="45.0786802" lon="12.2956751"><ele>-3.0</ele><time>2026-05-03T10:18:51.133Z</time></trkpt><trkpt lat="45.0787179" lon="12.2956013"><ele>-3.0</ele><time>2026-05-03T10:18:52.131Z</time></trkpt><trkpt lat="45.0787551" lon="12.2955281"><ele>-3.0</ele><time>2026-05-03T10:18:53.139Z</time></trkpt><trkpt lat="45.0788238" lon="12.2953844"><ele>-3.0</ele><time>2026-05-03T10:18:55.134Z</time></trkpt><trkpt lat="45.0788935" lon="12.2952409"><ele>-3.0</ele><time>2026-05-03T10:18:57.132Z</time></trkpt><trkpt lat="45.0789645" lon="12.2950973"><ele>-3.25</ele><time>2026-05-03T10:18:59.131Z</time></trkpt><trkpt lat="45.0790354" lon="12.294959"><ele>-3.5</ele><time>2026-05-03T10:19:01.133Z</time></trkpt><trkpt lat="45.0791131" lon="12.2948246"><ele>-3.75</ele><time>2026-05-03T10:19:03.14Z</time></trkpt><trkpt lat="45.0791871" lon="12.294685"><ele>-4.0</ele><time>2026-05-03T10:19:05.138Z</time></trkpt><trkpt lat="45.0792565" lon="12.2945394"><ele>-3.6666666666666665</ele><time>2026-05-03T10:19:07.132Z</time></trkpt><trkpt lat="45.0793124" lon="12.2943844"><ele>-3.333333333333333</ele><time>2026-05-03T10:19:09.135Z</time></trkpt><trkpt lat="45.0793372" lon="12.2943023"><ele>-3.0</ele><time>2026-05-03T10:19:10.128Z</time></trkpt><trkpt lat="45.079362" lon="12.2942161"><ele>-2.6666666666666665</ele><time>2026-05-03T10:19:11.133Z</time></trkpt><trkpt lat="45.0793858" lon="12.2941293"><ele>-2.333333333333333</ele><time>2026-05-03T10:19:12.13Z</time></trkpt><trkpt lat="45.0794065" lon="12.2940382"><ele>-2.0</ele><time>2026-05-03T10:19:13.135Z</time></trkpt><trkpt lat="45.0794286" lon="12.293947"><ele>-2.2857142857142856</ele><time>2026-05-03T10:19:14.135Z</time></trkpt><trkpt lat="45.079451" lon="12.2938545"><ele>-2.571428571428571</ele><time>2026-05-03T10:19:15.133Z</time></trkpt><trkpt lat="45.0794734" lon="12.2937613"><ele>-2.8571428571428568</ele><time>2026-05-03T10:19:16.129Z</time></trkpt><trkpt lat="45.079496" lon="12.2936706"><ele>-3.142857142857143</ele><time>2026-05-03T10:19:17.135Z</time></trkpt><trkpt lat="45.0795196" lon="12.2935817"><ele>-3.428571428571428</ele><time>2026-05-03T10:19:18.132Z</time></trkpt><trkpt lat="45.0795423" lon="12.2934923"><ele>-3.714285714285714</ele><time>2026-05-03T10:19:19.131Z</time></trkpt><trkpt lat="45.0795653" lon="12.2934027"><ele>-4.0</ele><time>2026-05-03T10:19:20.136Z</time></trkpt><trkpt lat="45.0795882" lon="12.2933151"><ele>-4.0</ele><time>2026-05-03T10:19:21.13Z</time></trkpt><trkpt lat="45.0796109" lon="12.2932287"><ele>-3.9999999999999996</ele><time>2026-05-03T10:19:22.135Z</time></trkpt><trkpt lat="45.0796343" lon="12.2931418"><ele>-4.0</ele><time>2026-05-03T10:19:23.138Z</time></trkpt><trkpt lat="45.0796584" lon="12.293054"><ele>-4.0</ele><time>2026-05-03T10:19:24.132Z</time></trkpt><trkpt lat="45.0796832" lon="12.292968"><ele>-3.9999999999999996</ele><time>2026-05-03T10:19:25.134Z</time></trkpt><trkpt lat="45.0797066" lon="12.2928793"><ele>-4.0</ele><time>2026-05-03T10:19:26.135Z</time></trkpt><trkpt lat="45.0797304" lon="12.2927907"><ele>-4.0</ele><time>2026-05-03T10:19:27.131Z</time></trkpt><trkpt lat="45.0797544" lon="12.2927026"><ele>-4.0</ele><time>2026-05-03T10:19:28.133Z</time></trkpt><trkpt lat="45.079779" lon="12.292616"><ele>-3.9999999999999996</ele><time>2026-05-03T10:19:29.132Z</time></trkpt><trkpt lat="45.0798015" lon="12.2925286"><ele>-4.0</ele><time>2026-05-03T10:19:30.13Z</time></trkpt><trkpt lat="45.0798228" lon="12.2924415"><ele>-4.0</ele><time>2026-05-03T10:19:31.138Z</time></trkpt><trkpt lat="45.0798452" lon="12.2923531"><ele>-3.9999999999999996</ele><time>2026-05-03T10:19:32.131Z</time></trkpt><trkpt lat="45.0798667" lon="12.2922634"><ele>-4.0</ele><time>2026-05-03T10:19:33.131Z</time></trkpt><trkpt lat="45.0798871" lon="12.2921727"><ele>-4.0</ele><time>2026-05-03T10:19:34.129Z</time></trkpt><trkpt lat="45.0799081" lon="12.2920825"><ele>-3.714285714285714</ele><time>2026-05-03T10:19:35.13Z</time></trkpt><trkpt lat="45.0799288" lon="12.2919937"><ele>-3.428571428571428</ele><time>2026-05-03T10:19:36.137Z</time></trkpt><trkpt lat="45.0799505" lon="12.2919074"><ele>-3.142857142857143</ele><time>2026-05-03T10:19:37.134Z</time></trkpt><trkpt lat="45.0799737" lon="12.2918224"><ele>-2.8571428571428568</ele><time>2026-05-03T10:19:38.134Z</time></trkpt><trkpt lat="45.079996" lon="12.2917356"><ele>-2.571428571428571</ele><time>2026-05-03T10:19:39.13Z</time></trkpt><trkpt lat="45.0800183" lon="12.2916487"><ele>-2.2857142857142856</ele><time>2026-05-03T10:19:40.137Z</time></trkpt><trkpt lat="45.0800395" lon="12.2915636"><ele>-2.0</ele><time>2026-05-03T10:19:41.13Z</time></trkpt><trkpt lat="45.0800581" lon="12.2914776"><ele>-1.6</ele><time>2026-05-03T10:19:42.134Z</time></trkpt><trkpt lat="45.0800927" lon="12.2913137"><ele>-1.2000000000000002</ele><time>2026-05-03T10:19:44.134Z</time></trkpt><trkpt lat="45.0801438" lon="12.2911839"><ele>-0.8</ele><time>2026-05-03T10:19:46.127Z</time></trkpt><trkpt lat="45.0802416" lon="12.2911566"><ele>-0.4</ele><time>2026-05-03T10:19:48.13Z</time></trkpt><trkpt lat="45.0803492" lon="12.2912375"><ele>0.0</ele><time>2026-05-03T10:19:50.135Z</time></trkpt><trkpt lat="45.0804616" lon="12.2913223"><ele>0.0</ele><time>2026-05-03T10:19:52.132Z</time></trkpt><trkpt lat="45.0805707" lon="12.2913915"><ele>0.0</ele><time>2026-05-03T10:19:54.13Z</time></trkpt><trkpt lat="45.0806731" lon="12.2914578"><ele>0.0</ele><time>2026-05-03T10:19:56.132Z</time></trkpt><trkpt lat="45.0807741" lon="12.2915252"><ele>0.0</ele><time>2026-05-03T10:19:58.132Z</time></trkpt><trkpt lat="45.0808777" lon="12.2915808"><ele>0.0</ele><time>2026-05-03T10:20:00.132Z</time></trkpt><trkpt lat="45.0809837" lon="12.2916471"><ele>0.0</ele><time>2026-05-03T10:20:02.134Z</time></trkpt><trkpt lat="45.0810827" lon="12.2917135"><ele>0.0</ele><time>2026-05-03T10:20:04.133Z</time></trkpt><trkpt lat="45.0811825" lon="12.2917793"><ele>0.0</ele><time>2026-05-03T10:20:06.129Z</time></trkpt><trkpt lat="45.081288" lon="12.2918447"><ele>0.0</ele><time>2026-05-03T10:20:08.129Z</time></trkpt><trkpt lat="45.0813921" lon="12.2919077"><ele>0.0</ele><time>2026-05-03T10:20:10.134Z</time></trkpt><trkpt lat="45.0814941" lon="12.2919721"><ele>0.0</ele><time>2026-05-03T10:20:12.134Z</time></trkpt><trkpt lat="45.0816016" lon="12.2920127"><ele>0.0</ele><time>2026-05-03T10:20:14.13Z</time></trkpt><trkpt lat="45.0817133" lon="12.2920373"><ele>0.0</ele><time>2026-05-03T10:20:16.127Z</time></trkpt><trkpt lat="45.0818216" lon="12.292067"><ele>0.0</ele><time>2026-05-03T10:20:18.133Z</time></trkpt><trkpt lat="45.0819262" lon="12.2921079"><ele>0.0</ele><time>2026-05-03T10:20:20.131Z</time></trkpt><trkpt lat="45.0820283" lon="12.2921617"><ele>0.0</ele><time>2026-05-03T10:20:22.132Z</time></trkpt><trkpt lat="45.0821259" lon="12.2922231"><ele>0.0</ele><time>2026-05-03T10:20:24.132Z</time></trkpt><trkpt lat="45.0822215" lon="12.2922864"><ele>0.0</ele><time>2026-05-03T10:20:26.129Z</time></trkpt><trkpt lat="45.0823225" lon="12.2923523"><ele>0.2</ele><time>2026-05-03T10:20:28.128Z</time></trkpt><trkpt lat="45.0824252" lon="12.2924137"><ele>0.4</ele><time>2026-05-03T10:20:30.131Z</time></trkpt><trkpt lat="45.0825254" lon="12.2924794"><ele>0.6000000000000001</ele><time>2026-05-03T10:20:32.13Z</time></trkpt><trkpt lat="45.0826226" lon="12.2925423"><ele>0.8</ele><time>2026-05-03T10:20:34.129Z</time></trkpt><trkpt lat="45.0827189" lon="12.2926044"><ele>1.0</ele><time>2026-05-03T10:20:36.137Z</time></trkpt><trkpt lat="45.0828153" lon="12.2926671"><ele>1.0</ele><time>2026-05-03T10:20:38.132Z</time></trkpt><trkpt lat="45.0829121" lon="12.2927269"><ele>1.0</ele><time>2026-05-03T10:20:40.129Z</time></trkpt><trkpt lat="45.083014" lon="12.2927728"><ele>1.0</ele><time>2026-05-03T10:20:42.128Z</time></trkpt><trkpt lat="45.0831273" lon="12.292791"><ele>1.0</ele><time>2026-05-03T10:20:44.132Z</time></trkpt><trkpt lat="45.0832358" lon="12.2927996"><ele>1.0</ele><time>2026-05-03T10:20:46.129Z</time></trkpt><trkpt lat="45.0833425" lon="12.2928115"><ele>0.8</ele><time>2026-05-03T10:20:48.138Z</time></trkpt><trkpt lat="45.0834477" lon="12.2928239"><ele>0.6000000000000001</ele><time>2026-05-03T10:20:50.137Z</time></trkpt><trkpt lat="45.0835571" lon="12.2928388"><ele>0.4</ele><time>2026-05-03T10:20:52.129Z</time></trkpt><trkpt lat="45.0836645" lon="12.2928748"><ele>0.2</ele><time>2026-05-03T10:20:54.134Z</time></trkpt><trkpt lat="45.0837681" lon="12.2929334"><ele>0.0</ele><time>2026-05-03T10:20:56.136Z</time></trkpt><trkpt lat="45.0838661" lon="12.2930007"><ele>0.0</ele><time>2026-05-03T10:20:58.133Z</time></trkpt><trkpt lat="45.0839627" lon="12.2930675"><ele>0.0</ele><time>2026-05-03T10:21:00.132Z</time></trkpt><trkpt lat="45.0840585" lon="12.2931311"><ele>0.0</ele><time>2026-05-03T10:21:02.135Z</time></trkpt><trkpt lat="45.08415" lon="12.2931956"><ele>0.0</ele><time>2026-05-03T10:21:04.138Z</time></trkpt><trkpt lat="45.0842451" lon="12.2932602"><ele>0.0</ele><time>2026-05-03T10:21:06.124Z</time></trkpt><trkpt lat="45.0843431" lon="12.2933249"><ele>0.2</ele><time>2026-05-03T10:21:08.131Z</time></trkpt><trkpt lat="45.0844353" lon="12.2933841"><ele>0.4</ele><time>2026-05-03T10:21:10.138Z</time></trkpt><trkpt lat="45.0845313" lon="12.2934391"><ele>0.6000000000000001</ele><time>2026-05-03T10:21:12.133Z</time></trkpt><trkpt lat="45.0846286" lon="12.2935041"><ele>0.8</ele><time>2026-05-03T10:21:14.13Z</time></trkpt><trkpt lat="45.084729" lon="12.293569"><ele>1.0</ele><time>2026-05-03T10:21:16.136Z</time></trkpt><trkpt lat="45.0848254" lon="12.2936294"><ele>1.0</ele><time>2026-05-03T10:21:18.137Z</time></trkpt><trkpt lat="45.0849218" lon="12.2936866"><ele>1.0</ele><time>2026-05-03T10:21:20.133Z</time></trkpt><trkpt lat="45.0850154" lon="12.2937411"><ele>1.0</ele><time>2026-05-03T10:21:22.135Z</time></trkpt><trkpt lat="45.0851055" lon="12.293805"><ele>1.0</ele><time>2026-05-03T10:21:24.134Z</time></trkpt><trkpt lat="45.0851963" lon="12.293869"><ele>1.0</ele><time>2026-05-03T10:21:26.13Z</time></trkpt><trkpt lat="45.0852882" lon="12.2939319"><ele>0.8</ele><time>2026-05-03T10:21:28.133Z</time></trkpt><trkpt lat="45.0853812" lon="12.2939904"><ele>0.6000000000000001</ele><time>2026-05-03T10:21:30.133Z</time></trkpt><trkpt lat="45.0854727" lon="12.2940505"><ele>0.4</ele><time>2026-05-03T10:21:32.136Z</time></trkpt><trkpt lat="45.0855618" lon="12.2941112"><ele>0.2</ele><time>2026-05-03T10:21:34.136Z</time></trkpt><trkpt lat="45.0856574" lon="12.2941745"><ele>0.0</ele><time>2026-05-03T10:21:36.136Z</time></trkpt><trkpt lat="45.0857563" lon="12.2942341"><ele>-0.6</ele><time>2026-05-03T10:21:38.138Z</time></trkpt><trkpt lat="45.085855" lon="12.2942954"><ele>-1.2</ele><time>2026-05-03T10:21:40.132Z</time></trkpt><trkpt lat="45.0859497" lon="12.2943577"><ele>-1.7999999999999998</ele><time>2026-05-03T10:21:42.13Z</time></trkpt><trkpt lat="45.0860379" lon="12.2944241"><ele>-2.4</ele><time>2026-05-03T10:21:44.135Z</time></trkpt><trkpt lat="45.0861288" lon="12.2944898"><ele>-3.0</ele><time>2026-05-03T10:21:46.135Z</time></trkpt><trkpt lat="45.0862192" lon="12.2945602"><ele>-3.0</ele><time>2026-05-03T10:21:48.132Z</time></trkpt><trkpt lat="45.0863078" lon="12.2946328"><ele>-3.0</ele><time>2026-05-03T10:21:50.13Z</time></trkpt><trkpt lat="45.0863987" lon="12.2946998"><ele>-3.0</ele><time>2026-05-03T10:21:52.136Z</time></trkpt><trkpt lat="45.0864852" lon="12.2947703"><ele>-3.0</ele><time>2026-05-03T10:21:54.138Z</time></trkpt><trkpt lat="45.0865705" lon="12.2948379"><ele>-3.0</ele><time>2026-05-03T10:21:56.134Z</time></trkpt><trkpt lat="45.0866579" lon="12.2949084"><ele>-3.0</ele><time>2026-05-03T10:21:58.133Z</time></trkpt><trkpt lat="45.0867464" lon="12.2949781"><ele>-3.0</ele><time>2026-05-03T10:22:00.13Z</time></trkpt><trkpt lat="45.0868339" lon="12.2950447"><ele>-3.0</ele><time>2026-05-03T10:22:02.132Z</time></trkpt><trkpt lat="45.0869251" lon="12.2951156"><ele>-3.0</ele><time>2026-05-03T10:22:04.134Z</time></trkpt><trkpt lat="45.0870177" lon="12.2951864"><ele>-3.0</ele><time>2026-05-03T10:22:06.136Z</time></trkpt><trkpt lat="45.0871132" lon="12.2952499"><ele>-3.0</ele><time>2026-05-03T10:22:08.134Z</time></trkpt><trkpt lat="45.0872064" lon="12.295316"><ele>-3.0</ele><time>2026-05-03T10:22:10.132Z</time></trkpt><trkpt lat="45.0872918" lon="12.2953905"><ele>-3.0</ele><time>2026-05-03T10:22:12.131Z</time></trkpt><trkpt lat="45.0873821" lon="12.2954593"><ele>-3.0</ele><time>2026-05-03T10:22:14.129Z</time></trkpt><trkpt lat="45.0874705" lon="12.2955293"><ele>-3.0</ele><time>2026-05-03T10:22:16.134Z</time></trkpt><trkpt lat="45.0875587" lon="12.2955952"><ele>-2.4</ele><time>2026-05-03T10:22:18.131Z</time></trkpt><trkpt lat="45.0876485" lon="12.2956649"><ele>-1.7999999999999998</ele><time>2026-05-03T10:22:20.134Z</time></trkpt><trkpt lat="45.087737" lon="12.2957368"><ele>-1.2</ele><time>2026-05-03T10:22:22.129Z</time></trkpt><trkpt lat="45.0878283" lon="12.2958079"><ele>-0.6</ele><time>2026-05-03T10:22:24.131Z</time></trkpt><trkpt lat="45.0879184" lon="12.2958798"><ele>0.0</ele><time>2026-05-03T10:22:26.13Z</time></trkpt><trkpt lat="45.0880134" lon="12.2959444"><ele>0.0</ele><time>2026-05-03T10:22:28.136Z</time></trkpt><trkpt lat="45.0881148" lon="12.2959828"><ele>0.0</ele><time>2026-05-03T10:22:30.136Z</time></trkpt><trkpt lat="45.088223" lon="12.295983"><ele>0.0</ele><time>2026-05-03T10:22:32.134Z</time></trkpt><trkpt lat="45.0883241" lon="12.2959552"><ele>0.0</ele><time>2026-05-03T10:22:34.133Z</time></trkpt><trkpt lat="45.0884243" lon="12.2959157"><ele>0.0</ele><time>2026-05-03T10:22:36.133Z</time></trkpt><trkpt lat="45.0885238" lon="12.2958797"><ele>0.0</ele><time>2026-05-03T10:22:38.134Z</time></trkpt><trkpt lat="45.0886246" lon="12.2958514"><ele>0.0</ele><time>2026-05-03T10:22:40.132Z</time></trkpt><trkpt lat="45.0887283" lon="12.2958245"><ele>0.0</ele><time>2026-05-03T10:22:42.133Z</time></trkpt><trkpt lat="45.0888377" lon="12.2958008"><ele>0.0</ele><time>2026-05-03T10:22:44.129Z</time></trkpt><trkpt lat="45.0889439" lon="12.2957745"><ele>0.0</ele><time>2026-05-03T10:22:46.127Z</time></trkpt><trkpt lat="45.0890446" lon="12.295737"><ele>0.0</ele><time>2026-05-03T10:22:48.138Z</time></trkpt><trkpt lat="45.0891444" lon="12.2956855"><ele>0.0</ele><time>2026-05-03T10:22:50.13Z</time></trkpt><trkpt lat="45.0892443" lon="12.2956283"><ele>0.0</ele><time>2026-05-03T10:22:52.131Z</time></trkpt><trkpt lat="45.0893415" lon="12.2955714"><ele>0.0</ele><time>2026-05-03T10:22:54.132Z</time></trkpt><trkpt lat="45.0894394" lon="12.2955147"><ele>0.0</ele><time>2026-05-03T10:22:56.134Z</time></trkpt><trkpt lat="45.0895378" lon="12.2954589"><ele>0.0</ele><time>2026-05-03T10:22:58.132Z</time></trkpt><trkpt lat="45.0896353" lon="12.2954028"><ele>0.0</ele><time>2026-05-03T10:23:00.136Z</time></trkpt><trkpt lat="45.089722" lon="12.2953476"><ele>0.0</ele><time>2026-05-03T10:23:02.134Z</time></trkpt><trkpt lat="45.0898014" lon="12.2952928"><ele>0.0</ele><time>2026-05-03T10:23:04.13Z</time></trkpt><trkpt lat="45.089877" lon="12.2952409"><ele>0.0</ele><time>2026-05-03T10:23:06.139Z</time></trkpt><trkpt lat="45.0899493" lon="12.295188"><ele>0.0</ele><time>2026-05-03T10:23:08.133Z</time></trkpt><trkpt lat="45.0900188" lon="12.2951308"><ele>0.0</ele><time>2026-05-03T10:23:10.137Z</time></trkpt><trkpt lat="45.090095" lon="12.2950786"><ele>0.0</ele><time>2026-05-03T10:23:12.135Z</time></trkpt><trkpt lat="45.0901747" lon="12.2950283"><ele>0.0</ele><time>2026-05-03T10:23:14.136Z</time></trkpt><trkpt lat="45.0902472" lon="12.2949762"><ele>0.0</ele><time>2026-05-03T10:23:16.134Z</time></trkpt><trkpt lat="45.0903131" lon="12.2949288"><ele>0.0</ele><time>2026-05-03T10:23:18.132Z</time></trkpt><trkpt lat="45.0903727" lon="12.2948772"><ele>0.0</ele><time>2026-05-03T10:23:20.134Z</time></trkpt><trkpt lat="45.0904307" lon="12.2948313"><ele>0.0</ele><time>2026-05-03T10:23:22.134Z</time></trkpt><trkpt lat="45.0904913" lon="12.2947871"><ele>0.0</ele><time>2026-05-03T10:23:24.136Z</time></trkpt><trkpt lat="45.0905631" lon="12.2947259"><ele>0.0</ele><time>2026-05-03T10:23:26.131Z</time></trkpt><trkpt lat="45.0906455" lon="12.2946607"><ele>0.0</ele><time>2026-05-03T10:23:28.13Z</time></trkpt><trkpt lat="45.0907358" lon="12.2945915"><ele>0.0</ele><time>2026-05-03T10:23:30.134Z</time></trkpt><trkpt lat="45.0908295" lon="12.2945183"><ele>0.0</ele><time>2026-05-03T10:23:32.138Z</time></trkpt><trkpt lat="45.0909242" lon="12.2944551"><ele>0.0</ele><time>2026-05-03T10:23:34.135Z</time></trkpt><trkpt lat="45.0910198" lon="12.2943954"><ele>0.0</ele><time>2026-05-03T10:23:36.133Z</time></trkpt><trkpt lat="45.091121" lon="12.2943512"><ele>0.0</ele><time>2026-05-03T10:23:38.13Z</time></trkpt><trkpt lat="45.0912275" lon="12.2943206"><ele>0.0</ele><time>2026-05-03T10:23:40.133Z</time></trkpt><trkpt lat="45.0913315" lon="12.2942943"><ele>0.0</ele><time>2026-05-03T10:23:42.134Z</time></trkpt><trkpt lat="45.0914407" lon="12.2942679"><ele>0.0</ele><time>2026-05-03T10:23:44.126Z</time></trkpt><trkpt lat="45.0915477" lon="12.2942425"><ele>0.0</ele><time>2026-05-03T10:23:46.136Z</time></trkpt><trkpt lat="45.0916522" lon="12.2942148"><ele>0.0</ele><time>2026-05-03T10:23:48.135Z</time></trkpt><trkpt lat="45.0917567" lon="12.2941874"><ele>0.0</ele><time>2026-05-03T10:23:50.134Z</time></trkpt><trkpt lat="45.0918632" lon="12.2941613"><ele>0.0</ele><time>2026-05-03T10:23:52.134Z</time></trkpt><trkpt lat="45.0919704" lon="12.2941325"><ele>0.0</ele><time>2026-05-03T10:23:54.133Z</time></trkpt><trkpt lat="45.0920756" lon="12.2941035"><ele>0.0</ele><time>2026-05-03T10:23:56.136Z</time></trkpt><trkpt lat="45.0921836" lon="12.2940705"><ele>0.0</ele><time>2026-05-03T10:23:58.129Z</time></trkpt><trkpt lat="45.0922876" lon="12.2940369"><ele>0.0</ele><time>2026-05-03T10:24:00.128Z</time></trkpt><trkpt lat="45.0923948" lon="12.293998"><ele>0.0</ele><time>2026-05-03T10:24:02.136Z</time></trkpt><trkpt lat="45.0925018" lon="12.2939576"><ele>0.0</ele><time>2026-05-03T10:24:04.134Z</time></trkpt><trkpt lat="45.0926066" lon="12.2939125"><ele>0.0</ele><time>2026-05-03T10:24:06.135Z</time></trkpt><trkpt lat="45.0927104" lon="12.2938649"><ele>0.0</ele><time>2026-05-03T10:24:08.135Z</time></trkpt><trkpt lat="45.0928078" lon="12.2938181"><ele>0.0</ele><time>2026-05-03T10:24:10.135Z</time></trkpt><trkpt lat="45.0929091" lon="12.2937682"><ele>-0.2</ele><time>2026-05-03T10:24:12.131Z</time></trkpt><trkpt lat="45.0930091" lon="12.293725"><ele>-0.4</ele><time>2026-05-03T10:24:14.134Z</time></trkpt><trkpt lat="45.0931139" lon="12.2936951"><ele>-0.6000000000000001</ele><time>2026-05-03T10:24:16.131Z</time></trkpt><trkpt lat="45.0932197" lon="12.2936839"><ele>-0.8</ele><time>2026-05-03T10:24:18.135Z</time></trkpt><trkpt lat="45.0933158" lon="12.293681"><ele>-1.0</ele><time>2026-05-03T10:24:20.13Z</time></trkpt><trkpt lat="45.0934015" lon="12.2936791"><ele>-0.9999999999999999</ele><time>2026-05-03T10:24:22.136Z</time></trkpt><trkpt lat="45.0934843" lon="12.2936748"><ele>-1.0</ele><time>2026-05-03T10:24:24.132Z</time></trkpt><trkpt lat="45.093572" lon="12.2936627"><ele>-1.0</ele><time>2026-05-03T10:24:26.127Z</time></trkpt><trkpt lat="45.0936597" lon="12.2936422"><ele>-1.0</ele><time>2026-05-03T10:24:28.133Z</time></trkpt><trkpt lat="45.0937413" lon="12.2936144"><ele>-0.9999999999999999</ele><time>2026-05-03T10:24:30.127Z</time></trkpt><trkpt lat="45.0938219" lon="12.2935737"><ele>-1.0</ele><time>2026-05-03T10:24:32.133Z</time></trkpt><trkpt lat="45.0939067" lon="12.2935134"><ele>-1.0</ele><time>2026-05-03T10:24:34.136Z</time></trkpt><trkpt lat="45.0939822" lon="12.2934336"><ele>-1.0</ele><time>2026-05-03T10:24:36.131Z</time></trkpt><trkpt lat="45.0940571" lon="12.2933454"><ele>-1.0</ele><time>2026-05-03T10:24:38.138Z</time></trkpt><trkpt lat="45.0941465" lon="12.293272"><ele>-1.0</ele><time>2026-05-03T10:24:40.131Z</time></trkpt><trkpt lat="45.0942467" lon="12.2932396"><ele>-1.0</ele><time>2026-05-03T10:24:42.129Z</time></trkpt><trkpt lat="45.094345" lon="12.2932457"><ele>-1.2000000000000002</ele><time>2026-05-03T10:24:44.135Z</time></trkpt><trkpt lat="45.0944517" lon="12.2932527"><ele>-1.4000000000000001</ele><time>2026-05-03T10:24:46.136Z</time></trkpt><trkpt lat="45.0945601" lon="12.2932555"><ele>-1.6</ele><time>2026-05-03T10:24:48.135Z</time></trkpt><trkpt lat="45.0946636" lon="12.2932649"><ele>-1.8</ele><time>2026-05-03T10:24:50.14Z</time></trkpt><trkpt lat="45.094761" lon="12.2932826"><ele>-2.0</ele><time>2026-05-03T10:24:52.138Z</time></trkpt><trkpt lat="45.0948588" lon="12.2933047"><ele>-1.6</ele><time>2026-05-03T10:24:54.134Z</time></trkpt><trkpt lat="45.0949553" lon="12.2933305"><ele>-1.2000000000000002</ele><time>2026-05-03T10:24:56.134Z</time></trkpt><trkpt lat="45.0950522" lon="12.2933465"><ele>-0.8</ele><time>2026-05-03T10:24:58.131Z</time></trkpt><trkpt lat="45.0951489" lon="12.2933608"><ele>-0.4</ele><time>2026-05-03T10:25:00.135Z</time></trkpt><trkpt lat="45.0952507" lon="12.2933714"><ele>0.0</ele><time>2026-05-03T10:25:02.137Z</time></trkpt><trkpt lat="45.0953528" lon="12.2933828"><ele>0.0</ele><time>2026-05-03T10:25:04.136Z</time></trkpt><trkpt lat="45.0954501" lon="12.293386"><ele>0.0</ele><time>2026-05-03T10:25:06.141Z</time></trkpt><trkpt lat="45.0955466" lon="12.2933652"><ele>0.0</ele><time>2026-05-03T10:25:08.138Z</time></trkpt><trkpt lat="45.0956396" lon="12.2933477"><ele>0.0</ele><time>2026-05-03T10:25:10.132Z</time></trkpt><trkpt lat="45.0957157" lon="12.2934062"><ele>0.0</ele><time>2026-05-03T10:25:12.13Z</time></trkpt><trkpt lat="45.0957477" lon="12.2935284"><ele>0.0</ele><time>2026-05-03T10:25:14.141Z</time></trkpt><trkpt lat="45.0957535" lon="12.2936415"><ele>0.0</ele><time>2026-05-03T10:25:16.131Z</time></trkpt><trkpt lat="45.0957517" lon="12.2937407"><ele>0.0</ele><time>2026-05-03T10:25:18.13Z</time></trkpt><trkpt lat="45.0957232" lon="12.2938329"><ele>0.0</ele><time>2026-05-03T10:25:20.139Z</time></trkpt><trkpt lat="45.09566" lon="12.2939061"><ele>0.0</ele><time>2026-05-03T10:25:22.135Z</time></trkpt><trkpt lat="45.0955877" lon="12.2939893"><ele>0.0</ele><time>2026-05-03T10:25:24.131Z</time></trkpt><trkpt lat="45.0955121" lon="12.29409"><ele>-0.75</ele><time>2026-05-03T10:25:26.135Z</time></trkpt><trkpt lat="45.0954265" lon="12.2941983"><ele>-1.5</ele><time>2026-05-03T10:25:28.137Z</time></trkpt><trkpt lat="45.0953367" lon="12.2943137"><ele>-2.25</ele><time>2026-05-03T10:25:30.132Z</time></trkpt><trkpt lat="45.0952578" lon="12.2944335"><ele>-3.0</ele><time>2026-05-03T10:25:32.14Z</time></trkpt><trkpt lat="45.0951882" lon="12.2945571"><ele>-3.0</ele><time>2026-05-03T10:25:34.131Z</time></trkpt><trkpt lat="45.0951365" lon="12.2946867"><ele>-3.0</ele><time>2026-05-03T10:25:36.133Z</time></trkpt><trkpt lat="45.0951129" lon="12.2948237"><ele>-3.0</ele><time>2026-05-03T10:25:38.142Z</time></trkpt><trkpt lat="45.0951115" lon="12.2949649"><ele>-3.0</ele><time>2026-05-03T10:25:40.133Z</time></trkpt><trkpt lat="45.0951348" lon="12.2951063"><ele>-3.0</ele><time>2026-05-03T10:25:42.131Z</time></trkpt><trkpt lat="45.0951782" lon="12.2952427"><ele>-3.0</ele><time>2026-05-03T10:25:44.138Z</time></trkpt><trkpt lat="45.0952422" lon="12.2953616"><ele>-3.0</ele><time>2026-05-03T10:25:46.128Z</time></trkpt><trkpt lat="45.0953182" lon="12.295466"><ele>-3.0</ele><time>2026-05-03T10:25:48.13Z</time></trkpt><trkpt lat="45.0953941" lon="12.2955522"><ele>-3.0</ele><time>2026-05-03T10:25:50.135Z</time></trkpt><trkpt lat="45.0954583" lon="12.2956342"><ele>-3.0</ele><time>2026-05-03T10:25:52.134Z</time></trkpt><trkpt lat="45.095526" lon="12.2957201"><ele>-2.6</ele><time>2026-05-03T10:25:54.132Z</time></trkpt><trkpt lat="45.0955994" lon="12.2958134"><ele>-2.1999999999999997</ele><time>2026-05-03T10:25:56.134Z</time></trkpt><trkpt lat="45.0956747" lon="12.2959129"><ele>-1.8</ele><time>2026-05-03T10:25:58.133Z</time></trkpt><trkpt lat="45.0957515" lon="12.2960146"><ele>-1.4</ele><time>2026-05-03T10:26:00.133Z</time></trkpt><trkpt lat="45.0958281" lon="12.2961194"><ele>-1.0</ele><time>2026-05-03T10:26:02.137Z</time></trkpt><trkpt lat="45.0959051" lon="12.2962229"><ele>-0.8</ele><time>2026-05-03T10:26:04.133Z</time></trkpt><trkpt lat="45.0959861" lon="12.2963154"><ele>-0.6000000000000001</ele><time>2026-05-03T10:26:06.141Z</time></trkpt><trkpt lat="45.0960623" lon="12.2964068"><ele>-0.4</ele><time>2026-05-03T10:26:08.137Z</time></trkpt><trkpt lat="45.0961305" lon="12.2964877"><ele>-0.2</ele><time>2026-05-03T10:26:10.138Z</time></trkpt><trkpt lat="45.0961961" lon="12.2965714"><ele>0.0</ele><time>2026-05-03T10:26:12.134Z</time></trkpt><trkpt lat="45.0962648" lon="12.2966714"><ele>0.0</ele><time>2026-05-03T10:26:14.133Z</time></trkpt><trkpt lat="45.0963427" lon="12.2967933"><ele>0.0</ele><time>2026-05-03T10:26:16.131Z</time></trkpt><trkpt lat="45.0964317" lon="12.2969121"><ele>0.0</ele><time>2026-05-03T10:26:18.133Z</time></trkpt><trkpt lat="45.0965253" lon="12.2970247"><ele>0.0</ele><time>2026-05-03T10:26:20.135Z</time></trkpt><trkpt lat="45.0966174" lon="12.2971349"><ele>0.0</ele><time>2026-05-03T10:26:22.133Z</time></trkpt><trkpt lat="45.0967065" lon="12.2972448"><ele>0.0</ele><time>2026-05-03T10:26:24.135Z</time></trkpt><trkpt lat="45.0967904" lon="12.2973618"><ele>0.0</ele><time>2026-05-03T10:26:26.138Z</time></trkpt><trkpt lat="45.0968702" lon="12.2974777"><ele>0.0</ele><time>2026-05-03T10:26:28.132Z</time></trkpt><trkpt lat="45.0969537" lon="12.2975896"><ele>0.0</ele><time>2026-05-03T10:26:30.131Z</time></trkpt><trkpt lat="45.0970395" lon="12.2977007"><ele>0.0</ele><time>2026-05-03T10:26:32.138Z</time></trkpt><trkpt lat="45.0971223" lon="12.2978063"><ele>0.0</ele><time>2026-05-03T10:26:34.128Z</time></trkpt><trkpt lat="45.097202" lon="12.2979147"><ele>0.0</ele><time>2026-05-03T10:26:36.132Z</time></trkpt><trkpt lat="45.0972822" lon="12.2980232"><ele>0.0</ele><time>2026-05-03T10:26:38.135Z</time></trkpt><trkpt lat="45.0973642" lon="12.2981317"><ele>0.0</ele><time>2026-05-03T10:26:40.132Z</time></trkpt><trkpt lat="45.0974425" lon="12.298242"><ele>0.0</ele><time>2026-05-03T10:26:42.131Z</time></trkpt><trkpt lat="45.0975205" lon="12.2983471"><ele>0.0</ele><time>2026-05-03T10:26:44.132Z</time></trkpt><trkpt lat="45.097601" lon="12.2984526"><ele>0.0</ele><time>2026-05-03T10:26:46.128Z</time></trkpt><trkpt lat="45.0976829" lon="12.2985599"><ele>0.0</ele><time>2026-05-03T10:26:48.129Z</time></trkpt><trkpt lat="45.0977716" lon="12.2986621"><ele>0.0</ele><time>2026-05-03T10:26:50.136Z</time></trkpt><trkpt lat="45.097855" lon="12.2987728"><ele>0.0</ele><time>2026-05-03T10:26:52.131Z</time></trkpt><trkpt lat="45.0979356" lon="12.2988822"><ele>0.0</ele><time>2026-05-03T10:26:54.129Z</time></trkpt><trkpt lat="45.0980178" lon="12.2989827"><ele>0.0</ele><time>2026-05-03T10:26:56.127Z</time></trkpt><trkpt lat="45.0980969" lon="12.2990868"><ele>0.0</ele><time>2026-05-03T10:26:58.135Z</time></trkpt><trkpt lat="45.0981722" lon="12.2991919"><ele>0.0</ele><time>2026-05-03T10:27:00.135Z</time></trkpt><trkpt lat="45.0982459" lon="12.299296"><ele>0.0</ele><time>2026-05-03T10:27:02.131Z</time></trkpt><trkpt lat="45.0983237" lon="12.2993958"><ele>0.0</ele><time>2026-05-03T10:27:04.136Z</time></trkpt><trkpt lat="45.0984013" lon="12.2994948"><ele>0.0</ele><time>2026-05-03T10:27:06.137Z</time></trkpt><trkpt lat="45.0984819" lon="12.2995945"><ele>0.0</ele><time>2026-05-03T10:27:08.136Z</time></trkpt><trkpt lat="45.0985632" lon="12.2996975"><ele>0.0</ele><time>2026-05-03T10:27:10.135Z</time></trkpt><trkpt lat="45.0986449" lon="12.2998005"><ele>0.0</ele><time>2026-05-03T10:27:12.136Z</time></trkpt><trkpt lat="45.0987296" lon="12.2998942"><ele>0.0</ele><time>2026-05-03T10:27:14.136Z</time></trkpt><trkpt lat="45.098817" lon="12.2999789"><ele>0.0</ele><time>2026-05-03T10:27:16.134Z</time></trkpt><trkpt lat="45.0989062" lon="12.300061"><ele>0.0</ele><time>2026-05-03T10:27:18.133Z</time></trkpt><trkpt lat="45.0989967" lon="12.3001417"><ele>0.0</ele><time>2026-05-03T10:27:20.132Z</time></trkpt><trkpt lat="45.0990926" lon="12.3002162"><ele>0.0</ele><time>2026-05-03T10:27:22.136Z</time></trkpt><trkpt lat="45.0991852" lon="12.3002862"><ele>0.0</ele><time>2026-05-03T10:27:24.134Z</time></trkpt><trkpt lat="45.0992778" lon="12.3003526"><ele>0.0</ele><time>2026-05-03T10:27:26.135Z</time></trkpt><trkpt lat="45.0993693" lon="12.3004138"><ele>0.0</ele><time>2026-05-03T10:27:28.137Z</time></trkpt><trkpt lat="45.0994611" lon="12.3004803"><ele>0.0</ele><time>2026-05-03T10:27:30.135Z</time></trkpt><trkpt lat="45.0995581" lon="12.3005485"><ele>0.0</ele><time>2026-05-03T10:27:32.134Z</time></trkpt><trkpt lat="45.0996595" lon="12.3006078"><ele>0.0</ele><time>2026-05-03T10:27:34.133Z</time></trkpt><trkpt lat="45.0997677" lon="12.3006686"><ele>0.0</ele><time>2026-05-03T10:27:36.126Z</time></trkpt><trkpt lat="45.0998712" lon="12.3007295"><ele>0.0</ele><time>2026-05-03T10:27:38.129Z</time></trkpt><trkpt lat="45.0999752" lon="12.3007939"><ele>0.0</ele><time>2026-05-03T10:27:40.132Z</time></trkpt><trkpt lat="45.1000753" lon="12.3008619"><ele>0.0</ele><time>2026-05-03T10:27:42.134Z</time></trkpt><trkpt lat="45.1001703" lon="12.3009352"><ele>0.0</ele><time>2026-05-03T10:27:44.134Z</time></trkpt><trkpt lat="45.1002655" lon="12.3010093"><ele>0.0</ele><time>2026-05-03T10:27:46.131Z</time></trkpt><trkpt lat="45.100357" lon="12.3010958"><ele>0.0</ele><time>2026-05-03T10:27:48.135Z</time></trkpt><trkpt lat="45.1004485" lon="12.3011749"><ele>0.0</ele><time>2026-05-03T10:27:50.129Z</time></trkpt><trkpt lat="45.1005382" lon="12.3012534"><ele>0.0</ele><time>2026-05-03T10:27:52.129Z</time></trkpt><trkpt lat="45.1006225" lon="12.3013364"><ele>0.0</ele><time>2026-05-03T10:27:54.135Z</time></trkpt><trkpt lat="45.1007096" lon="12.3014138"><ele>0.0</ele><time>2026-05-03T10:27:56.132Z</time></trkpt><trkpt lat="45.1007955" lon="12.3014912"><ele>0.0</ele><time>2026-05-03T10:27:58.133Z</time></trkpt><trkpt lat="45.1008832" lon="12.3015729"><ele>0.0</ele><time>2026-05-03T10:28:00.13Z</time></trkpt><trkpt lat="45.1010224" lon="12.3016953"><ele>0.0</ele><time>2026-05-03T10:28:03.134Z</time></trkpt><trkpt lat="45.1011175" lon="12.3017763"><ele>0.0</ele><time>2026-05-03T10:28:05.138Z</time></trkpt><trkpt lat="45.1012122" lon="12.3018568"><ele>0.0</ele><time>2026-05-03T10:28:07.131Z</time></trkpt><trkpt lat="45.1013053" lon="12.3019392"><ele>0.0</ele><time>2026-05-03T10:28:09.135Z</time></trkpt><trkpt lat="45.1013988" lon="12.3020246"><ele>0.0</ele><time>2026-05-03T10:28:11.137Z</time></trkpt><trkpt lat="45.1014931" lon="12.3021088"><ele>0.0</ele><time>2026-05-03T10:28:13.14Z</time></trkpt><trkpt lat="45.1015899" lon="12.3021915"><ele>0.0</ele><time>2026-05-03T10:28:15.132Z</time></trkpt><trkpt lat="45.1016852" lon="12.3022752"><ele>0.0</ele><time>2026-05-03T10:28:17.133Z</time></trkpt><trkpt lat="45.1017804" lon="12.30236"><ele>0.0</ele><time>2026-05-03T10:28:19.133Z</time></trkpt><trkpt lat="45.1018733" lon="12.3024421"><ele>0.0</ele><time>2026-05-03T10:28:21.134Z</time></trkpt><trkpt lat="45.1019726" lon="12.3025077"><ele>0.0</ele><time>2026-05-03T10:28:23.132Z</time></trkpt><trkpt lat="45.1020825" lon="12.3025466"><ele>0.0</ele><time>2026-05-03T10:28:25.133Z</time></trkpt><trkpt lat="45.1021919" lon="12.3025508"><ele>0.0</ele><time>2026-05-03T10:28:27.137Z</time></trkpt><trkpt lat="45.1022997" lon="12.3025453"><ele>0.0</ele><time>2026-05-03T10:28:29.134Z</time></trkpt><trkpt lat="45.1024108" lon="12.3025436"><ele>0.0</ele><time>2026-05-03T10:28:31.135Z</time></trkpt><trkpt lat="45.102522" lon="12.3025493"><ele>0.0</ele><time>2026-05-03T10:28:33.136Z</time></trkpt><trkpt lat="45.1026335" lon="12.3025531"><ele>0.0</ele><time>2026-05-03T10:28:35.132Z</time></trkpt><trkpt lat="45.102745" lon="12.3025568"><ele>0.0</ele><time>2026-05-03T10:28:37.138Z</time></trkpt><trkpt lat="45.1028565" lon="12.3025604"><ele>0.0</ele><time>2026-05-03T10:28:39.137Z</time></trkpt><trkpt lat="45.1029664" lon="12.3025665"><ele>0.0</ele><time>2026-05-03T10:28:41.136Z</time></trkpt><trkpt lat="45.1030803" lon="12.3025754"><ele>0.0</ele><time>2026-05-03T10:28:43.137Z</time></trkpt><trkpt lat="45.1031942" lon="12.302584"><ele>0.0</ele><time>2026-05-03T10:28:45.134Z</time></trkpt><trkpt lat="45.1032956" lon="12.3025903"><ele>0.0</ele><time>2026-05-03T10:28:47.133Z</time></trkpt><trkpt lat="45.1033908" lon="12.3025973"><ele>0.0</ele><time>2026-05-03T10:28:49.136Z</time></trkpt><trkpt lat="45.103486" lon="12.3025933"><ele>0.0</ele><time>2026-05-03T10:28:51.137Z</time></trkpt><trkpt lat="45.1035671" lon="12.3025678"><ele>0.0</ele><time>2026-05-03T10:28:53.129Z</time></trkpt><trkpt lat="45.1036454" lon="12.3025234"><ele>0.0</ele><time>2026-05-03T10:28:55.138Z</time></trkpt><trkpt lat="45.1037265" lon="12.3024676"><ele>0.0</ele><time>2026-05-03T10:28:57.134Z</time></trkpt><trkpt lat="45.103811" lon="12.3023979"><ele>0.0</ele><time>2026-05-03T10:28:59.137Z</time></trkpt><trkpt lat="45.1039029" lon="12.3023291"><ele>0.0</ele><time>2026-05-03T10:29:01.134Z</time></trkpt><trkpt lat="45.1039946" lon="12.3022716"><ele>0.0</ele><time>2026-05-03T10:29:03.133Z</time></trkpt><trkpt lat="45.1040833" lon="12.3022425"><ele>0.0</ele><time>2026-05-03T10:29:05.134Z</time></trkpt><trkpt lat="45.1041641" lon="12.3022399"><ele>0.0</ele><time>2026-05-03T10:29:07.13Z</time></trkpt><trkpt lat="45.1042383" lon="12.3022521"><ele>0.0</ele><time>2026-05-03T10:29:09.13Z</time></trkpt><trkpt lat="45.1043156" lon="12.302296"><ele>0.0</ele><time>2026-05-03T10:29:11.132Z</time></trkpt><trkpt lat="45.1043984" lon="12.302345"><ele>0.0</ele><time>2026-05-03T10:29:13.137Z</time></trkpt><trkpt lat="45.1044925" lon="12.3023892"><ele>0.0</ele><time>2026-05-03T10:29:15.137Z</time></trkpt><trkpt lat="45.1045902" lon="12.3024221"><ele>0.0</ele><time>2026-05-03T10:29:17.135Z</time></trkpt><trkpt lat="45.1046888" lon="12.3024398"><ele>0.0</ele><time>2026-05-03T10:29:19.134Z</time></trkpt><trkpt lat="45.104787" lon="12.3024499"><ele>0.0</ele><time>2026-05-03T10:29:21.13Z</time></trkpt><trkpt lat="45.1048912" lon="12.3024504"><ele>0.0</ele><time>2026-05-03T10:29:23.141Z</time></trkpt><trkpt lat="45.1049962" lon="12.3024465"><ele>0.0</ele><time>2026-05-03T10:29:25.136Z</time></trkpt><trkpt lat="45.1050942" lon="12.3024295"><ele>0.0</ele><time>2026-05-03T10:29:27.131Z</time></trkpt><trkpt lat="45.1052013" lon="12.3024032"><ele>0.0</ele><time>2026-05-03T10:29:29.128Z</time></trkpt><trkpt lat="45.1053175" lon="12.3023576"><ele>0.0</ele><time>2026-05-03T10:29:31.131Z</time></trkpt><trkpt lat="45.1053761" lon="12.302319"><ele>0.0</ele><time>2026-05-03T10:29:32.135Z</time></trkpt><trkpt lat="45.1054298" lon="12.302265"><ele>0.0</ele><time>2026-05-03T10:29:33.138Z</time></trkpt><trkpt lat="45.1054815" lon="12.3022014"><ele>0.0</ele><time>2026-05-03T10:29:34.133Z</time></trkpt><trkpt lat="45.1055389" lon="12.3021422"><ele>0.0</ele><time>2026-05-03T10:29:35.135Z</time></trkpt><trkpt lat="45.1056006" lon="12.3020909"><ele>0.0</ele><time>2026-05-03T10:29:36.132Z</time></trkpt><trkpt lat="45.1056658" lon="12.3020553"><ele>0.0</ele><time>2026-05-03T10:29:37.132Z</time></trkpt><trkpt lat="45.1057331" lon="12.302041"><ele>0.0</ele><time>2026-05-03T10:29:38.131Z</time></trkpt><trkpt lat="45.1058013" lon="12.302046"><ele>0.0</ele><time>2026-05-03T10:29:39.136Z</time></trkpt><trkpt lat="45.1058654" lon="12.3020736"><ele>0.0</ele><time>2026-05-03T10:29:40.13Z</time></trkpt><trkpt lat="45.105926" lon="12.3021153"><ele>0.0</ele><time>2026-05-03T10:29:41.134Z</time></trkpt><trkpt lat="45.1059822" lon="12.3021642"><ele>0.0</ele><time>2026-05-03T10:29:42.135Z</time></trkpt><trkpt lat="45.1060372" lon="12.302217"><ele>0.2</ele><time>2026-05-03T10:29:43.131Z</time></trkpt><trkpt lat="45.106089" lon="12.3022718"><ele>0.4</ele><time>2026-05-03T10:29:44.134Z</time></trkpt><trkpt lat="45.1061392" lon="12.3023284"><ele>0.6000000000000001</ele><time>2026-05-03T10:29:45.13Z</time></trkpt><trkpt lat="45.1062281" lon="12.302445"><ele>0.8</ele><time>2026-05-03T10:29:47.133Z</time></trkpt><trkpt lat="45.1063066" lon="12.3025771"><ele>1.0</ele><time>2026-05-03T10:29:49.137Z</time></trkpt><trkpt lat="45.1063873" lon="12.302704"><ele>1.0</ele><time>2026-05-03T10:29:51.132Z</time></trkpt><trkpt lat="45.1064763" lon="12.3028217"><ele>1.0</ele><time>2026-05-03T10:29:53.136Z</time></trkpt><trkpt lat="45.1065602" lon="12.3029424"><ele>1.0</ele><time>2026-05-03T10:29:55.133Z</time></trkpt><trkpt lat="45.1066424" lon="12.3030577"><ele>1.0</ele><time>2026-05-03T10:29:57.137Z</time></trkpt><trkpt lat="45.1067243" lon="12.3031636"><ele>1.0</ele><time>2026-05-03T10:29:59.134Z</time></trkpt><trkpt lat="45.1068063" lon="12.3032665"><ele>1.0</ele><time>2026-05-03T10:30:01.132Z</time></trkpt><trkpt lat="45.1068812" lon="12.3033866"><ele>1.0</ele><time>2026-05-03T10:30:03.131Z</time></trkpt><trkpt lat="45.1069426" lon="12.3035246"><ele>1.0</ele><time>2026-05-03T10:30:05.124Z</time></trkpt><trkpt lat="45.1070082" lon="12.3036653"><ele>1.0</ele><time>2026-05-03T10:30:07.126Z</time></trkpt><trkpt lat="45.1070788" lon="12.3037875"><ele>1.0</ele><time>2026-05-03T10:30:09.125Z</time></trkpt><trkpt lat="45.1071517" lon="12.3039024"><ele>1.0</ele><time>2026-05-03T10:30:11.13Z</time></trkpt><trkpt lat="45.1072261" lon="12.3040141"><ele>1.0</ele><time>2026-05-03T10:30:13.138Z</time></trkpt><trkpt lat="45.1072836" lon="12.3041346"><ele>1.0</ele><time>2026-05-03T10:30:15.131Z</time></trkpt><trkpt lat="45.1073418" lon="12.304261"><ele>0.8</ele><time>2026-05-03T10:30:17.136Z</time></trkpt><trkpt lat="45.1074042" lon="12.3043796"><ele>0.6000000000000001</ele><time>2026-05-03T10:30:19.134Z</time></trkpt><trkpt lat="45.1074763" lon="12.3044838"><ele>0.4</ele><time>2026-05-03T10:30:21.13Z</time></trkpt><trkpt lat="45.1075569" lon="12.3045716"><ele>0.2</ele><time>2026-05-03T10:30:23.14Z</time></trkpt><trkpt lat="45.107648" lon="12.3046446"><ele>0.0</ele><time>2026-05-03T10:30:25.129Z</time></trkpt><trkpt lat="45.1077411" lon="12.3047171"><ele>-0.4</ele><time>2026-05-03T10:30:27.136Z</time></trkpt><trkpt lat="45.1078378" lon="12.304787"><ele>-0.8</ele><time>2026-05-03T10:30:29.135Z</time></trkpt><trkpt lat="45.1079325" lon="12.3048558"><ele>-1.2000000000000002</ele><time>2026-05-03T10:30:31.132Z</time></trkpt><trkpt lat="45.1080249" lon="12.304929"><ele>-1.6</ele><time>2026-05-03T10:30:33.134Z</time></trkpt><trkpt lat="45.1081144" lon="12.3049972"><ele>-2.0</ele><time>2026-05-03T10:30:35.124Z</time></trkpt><trkpt lat="45.108204" lon="12.3050701"><ele>-1.6</ele><time>2026-05-03T10:30:37.13Z</time></trkpt><trkpt lat="45.1082955" lon="12.3051457"><ele>-1.2000000000000002</ele><time>2026-05-03T10:30:39.133Z</time></trkpt><trkpt lat="45.1083874" lon="12.3052181"><ele>-0.8</ele><time>2026-05-03T10:30:41.132Z</time></trkpt><trkpt lat="45.1084819" lon="12.3052895"><ele>-0.4</ele><time>2026-05-03T10:30:43.133Z</time></trkpt><trkpt lat="45.1085734" lon="12.3053589"><ele>0.0</ele><time>2026-05-03T10:30:45.134Z</time></trkpt><trkpt lat="45.1086629" lon="12.3054285"><ele>0.0</ele><time>2026-05-03T10:30:47.136Z</time></trkpt><trkpt lat="45.1087509" lon="12.3055"><ele>0.0</ele><time>2026-05-03T10:30:49.137Z</time></trkpt><trkpt lat="45.1088423" lon="12.3055685"><ele>0.0</ele><time>2026-05-03T10:30:51.135Z</time></trkpt><trkpt lat="45.1089329" lon="12.3056425"><ele>0.0</ele><time>2026-05-03T10:30:53.13Z</time></trkpt><trkpt lat="45.1090244" lon="12.3057158"><ele>0.0</ele><time>2026-05-03T10:30:55.135Z</time></trkpt><trkpt lat="45.1091161" lon="12.3057895"><ele>0.0</ele><time>2026-05-03T10:30:57.134Z</time></trkpt><trkpt lat="45.1092047" lon="12.3058613"><ele>0.0</ele><time>2026-05-03T10:30:59.133Z</time></trkpt><trkpt lat="45.1092911" lon="12.3059304"><ele>0.0</ele><time>2026-05-03T10:31:01.137Z</time></trkpt><trkpt lat="45.1093795" lon="12.3060019"><ele>0.0</ele><time>2026-05-03T10:31:03.135Z</time></trkpt><trkpt lat="45.1094723" lon="12.3060705"><ele>0.0</ele><time>2026-05-03T10:31:05.131Z</time></trkpt><trkpt lat="45.1095674" lon="12.3061294"><ele>0.0</ele><time>2026-05-03T10:31:07.134Z</time></trkpt><trkpt lat="45.1096747" lon="12.306172"><ele>0.0</ele><time>2026-05-03T10:31:09.134Z</time></trkpt><trkpt lat="45.109784" lon="12.3061988"><ele>0.0</ele><time>2026-05-03T10:31:11.134Z</time></trkpt><trkpt lat="45.1098923" lon="12.3062141"><ele>0.0</ele><time>2026-05-03T10:31:13.139Z</time></trkpt><trkpt lat="45.1099948" lon="12.3062251"><ele>0.0</ele><time>2026-05-03T10:31:15.132Z</time></trkpt><trkpt lat="45.1100899" lon="12.3062308"><ele>0.0</ele><time>2026-05-03T10:31:17.137Z</time></trkpt><trkpt lat="45.1101791" lon="12.3062403"><ele>0.0</ele><time>2026-05-03T10:31:19.136Z</time></trkpt><trkpt lat="45.1102648" lon="12.3062455"><ele>0.0</ele><time>2026-05-03T10:31:21.133Z</time></trkpt><trkpt lat="45.1103428" lon="12.3062499"><ele>0.0</ele><time>2026-05-03T10:31:23.133Z</time></trkpt><trkpt lat="45.1104146" lon="12.3062548"><ele>0.0</ele><time>2026-05-03T10:31:25.134Z</time></trkpt><trkpt lat="45.1104886" lon="12.3062574"><ele>0.0</ele><time>2026-05-03T10:31:27.136Z</time></trkpt><trkpt lat="45.1105674" lon="12.3062609"><ele>0.0</ele><time>2026-05-03T10:31:29.129Z</time></trkpt><trkpt lat="45.1106592" lon="12.306269"><ele>0.0</ele><time>2026-05-03T10:31:31.136Z</time></trkpt><trkpt lat="45.1107583" lon="12.3062708"><ele>0.0</ele><time>2026-05-03T10:31:33.132Z</time></trkpt><trkpt lat="45.1108561" lon="12.3062774"><ele>0.0</ele><time>2026-05-03T10:31:35.131Z</time></trkpt><trkpt lat="45.1109529" lon="12.3062825"><ele>0.0</ele><time>2026-05-03T10:31:37.133Z</time></trkpt><trkpt lat="45.1110541" lon="12.3062928"><ele>0.0</ele><time>2026-05-03T10:31:39.136Z</time></trkpt><trkpt lat="45.1111598" lon="12.3062937"><ele>0.0</ele><time>2026-05-03T10:31:41.132Z</time></trkpt><trkpt lat="45.1112686" lon="12.3062874"><ele>0.0</ele><time>2026-05-03T10:31:43.137Z</time></trkpt><trkpt lat="45.1113747" lon="12.3062865"><ele>0.0</ele><time>2026-05-03T10:31:45.136Z</time></trkpt><trkpt lat="45.1114818" lon="12.3062988"><ele>0.0</ele><time>2026-05-03T10:31:47.13Z</time></trkpt><trkpt lat="45.111592" lon="12.3063005"><ele>0.0</ele><time>2026-05-03T10:31:49.133Z</time></trkpt><trkpt lat="45.1116998" lon="12.3062922"><ele>0.0</ele><time>2026-05-03T10:31:51.131Z</time></trkpt><trkpt lat="45.1118046" lon="12.3062634"><ele>0.0</ele><time>2026-05-03T10:31:53.138Z</time></trkpt><trkpt lat="45.1119062" lon="12.3062175"><ele>0.0</ele><time>2026-05-03T10:31:55.14Z</time></trkpt><trkpt lat="45.1120091" lon="12.3061528"><ele>0.0</ele><time>2026-05-03T10:31:57.137Z</time></trkpt><trkpt lat="45.1121045" lon="12.3060683"><ele>0.0</ele><time>2026-05-03T10:31:59.139Z</time></trkpt><trkpt lat="45.112199" lon="12.3059782"><ele>0.0</ele><time>2026-05-03T10:32:01.133Z</time></trkpt><trkpt lat="45.1122982" lon="12.3058957"><ele>0.0</ele><time>2026-05-03T10:32:03.138Z</time></trkpt><trkpt lat="45.1124009" lon="12.305819"><ele>0.0</ele><time>2026-05-03T10:32:05.135Z</time></trkpt><trkpt lat="45.1125065" lon="12.3057482"><ele>0.0</ele><time>2026-05-03T10:32:07.133Z</time></trkpt><trkpt lat="45.1126129" lon="12.3056867"><ele>0.0</ele><time>2026-05-03T10:32:09.133Z</time></trkpt><trkpt lat="45.1127221" lon="12.3056376"><ele>0.0</ele><time>2026-05-03T10:32:11.137Z</time></trkpt><trkpt lat="45.1128315" lon="12.3056005"><ele>0.0</ele><time>2026-05-03T10:32:13.141Z</time></trkpt><trkpt lat="45.1129411" lon="12.3055755"><ele>0.0</ele><time>2026-05-03T10:32:15.136Z</time></trkpt><trkpt lat="45.1130507" lon="12.3055627"><ele>0.0</ele><time>2026-05-03T10:32:17.132Z</time></trkpt><trkpt lat="45.11316" lon="12.3055605"><ele>0.0</ele><time>2026-05-03T10:32:19.138Z</time></trkpt><trkpt lat="45.1132696" lon="12.3055534"><ele>0.0</ele><time>2026-05-03T10:32:21.137Z</time></trkpt><trkpt lat="45.1133748" lon="12.3055484"><ele>0.0</ele><time>2026-05-03T10:32:23.136Z</time></trkpt><trkpt lat="45.1134832" lon="12.3055458"><ele>0.0</ele><time>2026-05-03T10:32:25.135Z</time></trkpt><trkpt lat="45.1135946" lon="12.3055477"><ele>0.0</ele><time>2026-05-03T10:32:27.136Z</time></trkpt><trkpt lat="45.1137059" lon="12.3055481"><ele>0.0</ele><time>2026-05-03T10:32:29.134Z</time></trkpt><trkpt lat="45.1138166" lon="12.3055498"><ele>0.0</ele><time>2026-05-03T10:32:31.131Z</time></trkpt><trkpt lat="45.1139285" lon="12.3055477"><ele>0.0</ele><time>2026-05-03T10:32:33.138Z</time></trkpt><trkpt lat="45.1140415" lon="12.3055475"><ele>0.0</ele><time>2026-05-03T10:32:35.133Z</time></trkpt><trkpt lat="45.1141519" lon="12.305542"><ele>0.0</ele><time>2026-05-03T10:32:37.133Z</time></trkpt><trkpt lat="45.1142613" lon="12.3055385"><ele>0.0</ele><time>2026-05-03T10:32:39.132Z</time></trkpt><trkpt lat="45.1143706" lon="12.3055376"><ele>0.0</ele><time>2026-05-03T10:32:41.134Z</time></trkpt><trkpt lat="45.1144776" lon="12.3055314"><ele>0.0</ele><time>2026-05-03T10:32:43.136Z</time></trkpt><trkpt lat="45.114587" lon="12.3055301"><ele>0.0</ele><time>2026-05-03T10:32:45.131Z</time></trkpt><trkpt lat="45.1146947" lon="12.305543"><ele>0.0</ele><time>2026-05-03T10:32:47.13Z</time></trkpt><trkpt lat="45.1148032" lon="12.3055709"><ele>0.0</ele><time>2026-05-03T10:32:49.131Z</time></trkpt><trkpt lat="45.1149083" lon="12.3056124"><ele>0.0</ele><time>2026-05-03T10:32:51.136Z</time></trkpt><trkpt lat="45.1150084" lon="12.3056698"><ele>0.0</ele><time>2026-05-03T10:32:53.132Z</time></trkpt><trkpt lat="45.115098" lon="12.3057539"><ele>0.0</ele><time>2026-05-03T10:32:55.136Z</time></trkpt><trkpt lat="45.1151723" lon="12.3058622"><ele>0.0</ele><time>2026-05-03T10:32:57.136Z</time></trkpt><trkpt lat="45.1152335" lon="12.3059864"><ele>0.0</ele><time>2026-05-03T10:32:59.136Z</time></trkpt><trkpt lat="45.1152814" lon="12.3061193"><ele>0.0</ele><time>2026-05-03T10:33:01.134Z</time></trkpt><trkpt lat="45.115333" lon="12.3062537"><ele>0.0</ele><time>2026-05-03T10:33:03.139Z</time></trkpt><trkpt lat="45.1153849" lon="12.3063856"><ele>0.0</ele><time>2026-05-03T10:33:05.137Z</time></trkpt><trkpt lat="45.1154369" lon="12.3065173"><ele>0.0</ele><time>2026-05-03T10:33:07.133Z</time></trkpt><trkpt lat="45.1154872" lon="12.3066473"><ele>0.0</ele><time>2026-05-03T10:33:09.136Z</time></trkpt><trkpt lat="45.1155387" lon="12.3067782"><ele>0.0</ele><time>2026-05-03T10:33:11.129Z</time></trkpt><trkpt lat="45.115592" lon="12.3069067"><ele>0.0</ele><time>2026-05-03T10:33:13.134Z</time></trkpt><trkpt lat="45.1156454" lon="12.3070376"><ele>0.0</ele><time>2026-05-03T10:33:15.135Z</time></trkpt><trkpt lat="45.1156979" lon="12.3071688"><ele>0.0</ele><time>2026-05-03T10:33:17.13Z</time></trkpt><trkpt lat="45.115749" lon="12.3072955"><ele>0.0</ele><time>2026-05-03T10:33:19.134Z</time></trkpt><trkpt lat="45.1158053" lon="12.3074156"><ele>0.0</ele><time>2026-05-03T10:33:21.137Z</time></trkpt><trkpt lat="45.1158769" lon="12.3075199"><ele>0.0</ele><time>2026-05-03T10:33:23.142Z</time></trkpt><trkpt lat="45.1159719" lon="12.3075958"><ele>0.0</ele><time>2026-05-03T10:33:25.134Z</time></trkpt><trkpt lat="45.1160714" lon="12.3076607"><ele>0.0</ele><time>2026-05-03T10:33:27.134Z</time></trkpt><trkpt lat="45.1161647" lon="12.3077248"><ele>0.0</ele><time>2026-05-03T10:33:29.132Z</time></trkpt><trkpt lat="45.1162568" lon="12.3077859"><ele>0.0</ele><time>2026-05-03T10:33:31.133Z</time></trkpt><trkpt lat="45.1163509" lon="12.3078572"><ele>0.0</ele><time>2026-05-03T10:33:33.139Z</time></trkpt><trkpt lat="45.1164486" lon="12.3079286"><ele>0.0</ele><time>2026-05-03T10:33:35.136Z</time></trkpt><trkpt lat="45.1165442" lon="12.3080005"><ele>0.0</ele><time>2026-05-03T10:33:37.132Z</time></trkpt><trkpt lat="45.1166402" lon="12.3080716"><ele>0.0</ele><time>2026-05-03T10:33:39.134Z</time></trkpt><trkpt lat="45.1167395" lon="12.3081396"><ele>0.0</ele><time>2026-05-03T10:33:41.131Z</time></trkpt><trkpt lat="45.1168359" lon="12.3082103"><ele>0.0</ele><time>2026-05-03T10:33:43.15Z</time></trkpt><trkpt lat="45.1169314" lon="12.3082796"><ele>0.0</ele><time>2026-05-03T10:33:45.137Z</time></trkpt><trkpt lat="45.1170308" lon="12.3083522"><ele>0.0</ele><time>2026-05-03T10:33:47.136Z</time></trkpt><trkpt lat="45.117132" lon="12.308422"><ele>0.0</ele><time>2026-05-03T10:33:49.131Z</time></trkpt><trkpt lat="45.1172354" lon="12.3084801"><ele>0.0</ele><time>2026-05-03T10:33:51.14Z</time></trkpt><trkpt lat="45.1173416" lon="12.3085228"><ele>0.0</ele><time>2026-05-03T10:33:53.14Z</time></trkpt><trkpt lat="45.1174444" lon="12.3085183"><ele>0.0</ele><time>2026-05-03T10:33:55.138Z</time></trkpt><trkpt lat="45.1175309" lon="12.3084497"><ele>0.0</ele><time>2026-05-03T10:33:57.132Z</time></trkpt><trkpt lat="45.1175915" lon="12.3083248"><ele>0.0</ele><time>2026-05-03T10:33:59.129Z</time></trkpt><trkpt lat="45.117647" lon="12.3081808"><ele>0.0</ele><time>2026-05-03T10:34:01.128Z</time></trkpt><trkpt lat="45.1176996" lon="12.3080387"><ele>0.0</ele><time>2026-05-03T10:34:03.14Z</time></trkpt><trkpt lat="45.1177533" lon="12.3078973"><ele>0.0</ele><time>2026-05-03T10:34:05.131Z</time></trkpt><trkpt lat="45.1178072" lon="12.3077573"><ele>0.0</ele><time>2026-05-03T10:34:07.139Z</time></trkpt><trkpt lat="45.1178627" lon="12.3076164"><ele>0.0</ele><time>2026-05-03T10:34:09.134Z</time></trkpt><trkpt lat="45.1179169" lon="12.3074767"><ele>0.0</ele><time>2026-05-03T10:34:11.136Z</time></trkpt><trkpt lat="45.1179694" lon="12.3073372"><ele>0.0</ele><time>2026-05-03T10:34:13.141Z</time></trkpt><trkpt lat="45.1180202" lon="12.307205"><ele>0.0</ele><time>2026-05-03T10:34:15.143Z</time></trkpt><trkpt lat="45.1180697" lon="12.3070778"><ele>0.0</ele><time>2026-05-03T10:34:17.138Z</time></trkpt><trkpt lat="45.1181155" lon="12.3069487"><ele>0.0</ele><time>2026-05-03T10:34:19.133Z</time></trkpt><trkpt lat="45.1181561" lon="12.3068279"><ele>0.0</ele><time>2026-05-03T10:34:21.136Z</time></trkpt><trkpt lat="45.1181963" lon="12.3067166"><ele>0.0</ele><time>2026-05-03T10:34:23.134Z</time></trkpt><trkpt lat="45.1182422" lon="12.3066097"><ele>0.0</ele><time>2026-05-03T10:34:25.13Z</time></trkpt><trkpt lat="45.1182821" lon="12.3065057"><ele>0.0</ele><time>2026-05-03T10:34:27.137Z</time></trkpt><trkpt lat="45.1183214" lon="12.3064019"><ele>0.0</ele><time>2026-05-03T10:34:29.136Z</time></trkpt><trkpt lat="45.1183604" lon="12.3062901"><ele>0.0</ele><time>2026-05-03T10:34:31.134Z</time></trkpt><trkpt lat="45.1184032" lon="12.3061678"><ele>0.0</ele><time>2026-05-03T10:34:33.133Z</time></trkpt><trkpt lat="45.1184536" lon="12.3060358"><ele>0.0</ele><time>2026-05-03T10:34:35.139Z</time></trkpt><trkpt lat="45.1185039" lon="12.3059029"><ele>0.0</ele><time>2026-05-03T10:34:37.137Z</time></trkpt><trkpt lat="45.118559" lon="12.3057672"><ele>0.0</ele><time>2026-05-03T10:34:39.142Z</time></trkpt><trkpt lat="45.1186118" lon="12.3056239"><ele>0.0</ele><time>2026-05-03T10:34:41.13Z</time></trkpt><trkpt lat="45.1186646" lon="12.3054746"><ele>0.0</ele><time>2026-05-03T10:34:43.138Z</time></trkpt><trkpt lat="45.1187202" lon="12.3053277"><ele>0.0</ele><time>2026-05-03T10:34:45.139Z</time></trkpt><trkpt lat="45.1187752" lon="12.3051823"><ele>0.0</ele><time>2026-05-03T10:34:47.137Z</time></trkpt><trkpt lat="45.1188322" lon="12.3050486"><ele>0.0</ele><time>2026-05-03T10:34:49.135Z</time></trkpt><trkpt lat="45.1188824" lon="12.3049209"><ele>0.0</ele><time>2026-05-03T10:34:51.129Z</time></trkpt><trkpt lat="45.1189217" lon="12.3047957"><ele>0.0</ele><time>2026-05-03T10:34:53.137Z</time></trkpt><trkpt lat="45.1189689" lon="12.3046729"><ele>0.0</ele><time>2026-05-03T10:34:55.134Z</time></trkpt><trkpt lat="45.1190176" lon="12.3045525"><ele>0.0</ele><time>2026-05-03T10:34:57.134Z</time></trkpt><trkpt lat="45.119069" lon="12.3044326"><ele>0.0</ele><time>2026-05-03T10:34:59.133Z</time></trkpt><trkpt lat="45.1191217" lon="12.304304"><ele>0.0</ele><time>2026-05-03T10:35:01.128Z</time></trkpt><trkpt lat="45.119171" lon="12.3041641"><ele>0.0</ele><time>2026-05-03T10:35:03.136Z</time></trkpt><trkpt lat="45.1192268" lon="12.3040208"><ele>0.0</ele><time>2026-05-03T10:35:05.123Z</time></trkpt><trkpt lat="45.1192862" lon="12.3038805"><ele>0.0</ele><time>2026-05-03T10:35:07.133Z</time></trkpt><trkpt lat="45.1193433" lon="12.3037373"><ele>0.0</ele><time>2026-05-03T10:35:09.131Z</time></trkpt><trkpt lat="45.1194068" lon="12.3035976"><ele>0.0</ele><time>2026-05-03T10:35:11.134Z</time></trkpt><trkpt lat="45.119477" lon="12.3034617"><ele>0.0</ele><time>2026-05-03T10:35:13.14Z</time></trkpt><trkpt lat="45.1195474" lon="12.303327"><ele>0.0</ele><time>2026-05-03T10:35:15.13Z</time></trkpt><trkpt lat="45.1196169" lon="12.303191"><ele>0.0</ele><time>2026-05-03T10:35:17.134Z</time></trkpt><trkpt lat="45.1196871" lon="12.3030528"><ele>0.0</ele><time>2026-05-03T10:35:19.138Z</time></trkpt><trkpt lat="45.1197591" lon="12.3029132"><ele>0.0</ele><time>2026-05-03T10:35:21.133Z</time></trkpt><trkpt lat="45.1198342" lon="12.302773"><ele>0.0</ele><time>2026-05-03T10:35:23.14Z</time></trkpt><trkpt lat="45.1199051" lon="12.3026273"><ele>0.0</ele><time>2026-05-03T10:35:25.135Z</time></trkpt><trkpt lat="45.1199739" lon="12.3024794"><ele>0.0</ele><time>2026-05-03T10:35:27.136Z</time></trkpt><trkpt lat="45.1200459" lon="12.3023343"><ele>0.0</ele><time>2026-05-03T10:35:29.13Z</time></trkpt><trkpt lat="45.1201097" lon="12.3021811"><ele>0.0</ele><time>2026-05-03T10:35:31.129Z</time></trkpt><trkpt lat="45.1201395" lon="12.3021012"><ele>0.0</ele><time>2026-05-03T10:35:32.133Z</time></trkpt><trkpt lat="45.1201686" lon="12.30202"><ele>0.0</ele><time>2026-05-03T10:35:33.141Z</time></trkpt><trkpt lat="45.1201988" lon="12.3019392"><ele>0.0</ele><time>2026-05-03T10:35:34.123Z</time></trkpt><trkpt lat="45.1202284" lon="12.3018585"><ele>0.0</ele><time>2026-05-03T10:35:35.133Z</time></trkpt><trkpt lat="45.1202579" lon="12.3017778"><ele>0.0</ele><time>2026-05-03T10:35:36.132Z</time></trkpt><trkpt lat="45.1202881" lon="12.3016983"><ele>0.0</ele><time>2026-05-03T10:35:37.13Z</time></trkpt><trkpt lat="45.1203171" lon="12.3016185"><ele>0.0</ele><time>2026-05-03T10:35:38.14Z</time></trkpt><trkpt lat="45.120377" lon="12.3014603"><ele>0.0</ele><time>2026-05-03T10:35:40.135Z</time></trkpt><trkpt lat="45.1204057" lon="12.3013808"><ele>0.0</ele><time>2026-05-03T10:35:41.133Z</time></trkpt><trkpt lat="45.1204346" lon="12.3013012"><ele>0.0</ele><time>2026-05-03T10:35:42.137Z</time></trkpt><trkpt lat="45.1204621" lon="12.3012206"><ele>0.0</ele><time>2026-05-03T10:35:43.141Z</time></trkpt><trkpt lat="45.1204908" lon="12.3011394"><ele>0.0</ele><time>2026-05-03T10:35:44.13Z</time></trkpt><trkpt lat="45.1205219" lon="12.3010601"><ele>0.0</ele><time>2026-05-03T10:35:45.135Z</time></trkpt><trkpt lat="45.1205518" lon="12.3009797"><ele>0.0</ele><time>2026-05-03T10:35:46.131Z</time></trkpt><trkpt lat="45.120579" lon="12.3008972"><ele>0.0</ele><time>2026-05-03T10:35:47.135Z</time></trkpt><trkpt lat="45.1206082" lon="12.3008151"><ele>0.0</ele><time>2026-05-03T10:35:48.136Z</time></trkpt><trkpt lat="45.1206382" lon="12.3007347"><ele>0.0</ele><time>2026-05-03T10:35:49.134Z</time></trkpt><trkpt lat="45.1206695" lon="12.3006542"><ele>0.0</ele><time>2026-05-03T10:35:50.134Z</time></trkpt><trkpt lat="45.1206994" lon="12.3005736"><ele>0.0</ele><time>2026-05-03T10:35:51.138Z</time></trkpt><trkpt lat="45.1207289" lon="12.3004921"><ele>0.0</ele><time>2026-05-03T10:35:52.136Z</time></trkpt><trkpt lat="45.1207591" lon="12.3004115"><ele>0.0</ele><time>2026-05-03T10:35:53.14Z</time></trkpt><trkpt lat="45.1207881" lon="12.3003322"><ele>0.0</ele><time>2026-05-03T10:35:54.14Z</time></trkpt><trkpt lat="45.1208178" lon="12.3002524"><ele>0.0</ele><time>2026-05-03T10:35:55.131Z</time></trkpt><trkpt lat="45.1208714" lon="12.3000907"><ele>0.0</ele><time>2026-05-03T10:35:57.129Z</time></trkpt><trkpt lat="45.1209197" lon="12.2999275"><ele>0.0</ele><time>2026-05-03T10:35:59.132Z</time></trkpt><trkpt lat="45.1209418" lon="12.2998423"><ele>0.0</ele><time>2026-05-03T10:36:00.136Z</time></trkpt><trkpt lat="45.1209603" lon="12.2997514"><ele>0.0</ele><time>2026-05-03T10:36:01.135Z</time></trkpt><trkpt lat="45.1209765" lon="12.299665"><ele>0.0</ele><time>2026-05-03T10:36:02.136Z</time></trkpt><trkpt lat="45.1209936" lon="12.2995763"><ele>0.0</ele><time>2026-05-03T10:36:03.137Z</time></trkpt><trkpt lat="45.1210096" lon="12.2994891"><ele>0.0</ele><time>2026-05-03T10:36:04.129Z</time></trkpt><trkpt lat="45.1210236" lon="12.2994019"><ele>0.0</ele><time>2026-05-03T10:36:05.133Z</time></trkpt><trkpt lat="45.1210395" lon="12.2993137"><ele>0.0</ele><time>2026-05-03T10:36:06.136Z</time></trkpt><trkpt lat="45.1210528" lon="12.2992249"><ele>0.0</ele><time>2026-05-03T10:36:07.134Z</time></trkpt><trkpt lat="45.1210805" lon="12.2990541"><ele>0.0</ele><time>2026-05-03T10:36:09.138Z</time></trkpt><trkpt lat="45.1210929" lon="12.2989648"><ele>0.0</ele><time>2026-05-03T10:36:10.137Z</time></trkpt><trkpt lat="45.1211249" lon="12.2987919"><ele>0.0</ele><time>2026-05-03T10:36:12.125Z</time></trkpt><trkpt lat="45.1211461" lon="12.2987068"><ele>0.0</ele><time>2026-05-03T10:36:13.142Z</time></trkpt><trkpt lat="45.1211662" lon="12.2986206"><ele>0.0</ele><time>2026-05-03T10:36:14.132Z</time></trkpt><trkpt lat="45.1211833" lon="12.298532"><ele>0.0</ele><time>2026-05-03T10:36:15.131Z</time></trkpt><trkpt lat="45.1211985" lon="12.2984423"><ele>0.0</ele><time>2026-05-03T10:36:16.13Z</time></trkpt><trkpt lat="45.1212141" lon="12.2983538"><ele>0.0</ele><time>2026-05-03T10:36:17.134Z</time></trkpt><trkpt lat="45.1212307" lon="12.2982659"><ele>0.0</ele><time>2026-05-03T10:36:18.137Z</time></trkpt><trkpt lat="45.1212461" lon="12.298175"><ele>0.0</ele><time>2026-05-03T10:36:19.129Z</time></trkpt><trkpt lat="45.1212605" lon="12.2980826"><ele>0.0</ele><time>2026-05-03T10:36:20.133Z</time></trkpt><trkpt lat="45.1212773" lon="12.2979905"><ele>0.0</ele><time>2026-05-03T10:36:21.138Z</time></trkpt><trkpt lat="45.1212955" lon="12.2978984"><ele>0.0</ele><time>2026-05-03T10:36:22.132Z</time></trkpt><trkpt lat="45.1213142" lon="12.2978073"><ele>0.0</ele><time>2026-05-03T10:36:23.132Z</time></trkpt><trkpt lat="45.1213325" lon="12.297717"><ele>0.0</ele><time>2026-05-03T10:36:24.138Z</time></trkpt><trkpt lat="45.1213477" lon="12.297626"><ele>0.0</ele><time>2026-05-03T10:36:25.137Z</time></trkpt><trkpt lat="45.1213638" lon="12.2975323"><ele>0.0</ele><time>2026-05-03T10:36:26.138Z</time></trkpt><trkpt lat="45.1213783" lon="12.2974359"><ele>0.0</ele><time>2026-05-03T10:36:27.136Z</time></trkpt><trkpt lat="45.121394" lon="12.2973385"><ele>0.0</ele><time>2026-05-03T10:36:28.135Z</time></trkpt><trkpt lat="45.1214087" lon="12.2972406"><ele>0.0</ele><time>2026-05-03T10:36:29.137Z</time></trkpt><trkpt lat="45.121423" lon="12.2971425"><ele>0.0</ele><time>2026-05-03T10:36:30.131Z</time></trkpt><trkpt lat="45.1214376" lon="12.2970456"><ele>0.0</ele><time>2026-05-03T10:36:31.134Z</time></trkpt><trkpt lat="45.1214558" lon="12.2969511"><ele>0.0</ele><time>2026-05-03T10:36:32.136Z</time></trkpt><trkpt lat="45.121474" lon="12.296857"><ele>0.0</ele><time>2026-05-03T10:36:33.138Z</time></trkpt><trkpt lat="45.1214917" lon="12.2967624"><ele>0.0</ele><time>2026-05-03T10:36:34.132Z</time></trkpt><trkpt lat="45.1215088" lon="12.2966681"><ele>0.0</ele><time>2026-05-03T10:36:35.135Z</time></trkpt><trkpt lat="45.121526" lon="12.2965736"><ele>0.0</ele><time>2026-05-03T10:36:36.136Z</time></trkpt><trkpt lat="45.1215439" lon="12.29648"><ele>0.0</ele><time>2026-05-03T10:36:37.136Z</time></trkpt><trkpt lat="45.1215609" lon="12.296386"><ele>0.0</ele><time>2026-05-03T10:36:38.133Z</time></trkpt><trkpt lat="45.1215787" lon="12.2962947"><ele>0.0</ele><time>2026-05-03T10:36:39.135Z</time></trkpt><trkpt lat="45.1215963" lon="12.2961997"><ele>0.0</ele><time>2026-05-03T10:36:40.134Z</time></trkpt><trkpt lat="45.1216124" lon="12.2961002"><ele>0.0</ele><time>2026-05-03T10:36:41.129Z</time></trkpt><trkpt lat="45.1216306" lon="12.2960022"><ele>0.0</ele><time>2026-05-03T10:36:42.136Z</time></trkpt><trkpt lat="45.1216509" lon="12.295906"><ele>-0.14285714285714285</ele><time>2026-05-03T10:36:43.138Z</time></trkpt><trkpt lat="45.1216697" lon="12.2958077"><ele>-0.2857142857142857</ele><time>2026-05-03T10:36:44.132Z</time></trkpt><trkpt lat="45.1216874" lon="12.2957101"><ele>-0.42857142857142855</ele><time>2026-05-03T10:36:45.136Z</time></trkpt><trkpt lat="45.1217074" lon="12.2956133"><ele>-0.5714285714285714</ele><time>2026-05-03T10:36:46.13Z</time></trkpt><trkpt lat="45.1217278" lon="12.295516"><ele>-0.7142857142857142</ele><time>2026-05-03T10:36:47.133Z</time></trkpt><trkpt lat="45.1217466" lon="12.2954171"><ele>-0.8571428571428571</ele><time>2026-05-03T10:36:48.13Z</time></trkpt><trkpt lat="45.121767" lon="12.2953221"><ele>-1.0</ele><time>2026-05-03T10:36:49.13Z</time></trkpt><trkpt lat="45.1217848" lon="12.2952253"><ele>-1.0</ele><time>2026-05-03T10:36:50.137Z</time></trkpt><trkpt lat="45.1218009" lon="12.295128"><ele>-0.9999999999999999</ele><time>2026-05-03T10:36:51.133Z</time></trkpt><trkpt lat="45.1218171" lon="12.2950298"><ele>-1.0</ele><time>2026-05-03T10:36:52.135Z</time></trkpt><trkpt lat="45.1218337" lon="12.2949319"><ele>-1.0</ele><time>2026-05-03T10:36:53.141Z</time></trkpt><trkpt lat="45.1218511" lon="12.2948334"><ele>-0.9999999999999999</ele><time>2026-05-03T10:36:54.13Z</time></trkpt><trkpt lat="45.121868" lon="12.2947352"><ele>-1.0</ele><time>2026-05-03T10:36:55.135Z</time></trkpt><trkpt lat="45.1218852" lon="12.2946363"><ele>-1.0</ele><time>2026-05-03T10:36:56.134Z</time></trkpt><trkpt lat="45.1219036" lon="12.2945385"><ele>-1.1428571428571428</ele><time>2026-05-03T10:36:57.139Z</time></trkpt><trkpt lat="45.1219235" lon="12.2944393"><ele>-1.2857142857142856</ele><time>2026-05-03T10:36:58.135Z</time></trkpt><trkpt lat="45.1219404" lon="12.2943389"><ele>-1.4285714285714284</ele><time>2026-05-03T10:36:59.135Z</time></trkpt><trkpt lat="45.1219562" lon="12.2942392"><ele>-1.5714285714285714</ele><time>2026-05-03T10:37:00.136Z</time></trkpt><trkpt lat="45.1219729" lon="12.2941383"><ele>-1.714285714285714</ele><time>2026-05-03T10:37:01.132Z</time></trkpt><trkpt lat="45.1219898" lon="12.294036"><ele>-1.857142857142857</ele><time>2026-05-03T10:37:02.131Z</time></trkpt><trkpt lat="45.1220058" lon="12.2939351"><ele>-2.0</ele><time>2026-05-03T10:37:03.139Z</time></trkpt><trkpt lat="45.1220243" lon="12.2938367"><ele>-2.2857142857142856</ele><time>2026-05-03T10:37:04.133Z</time></trkpt><trkpt lat="45.122044" lon="12.2937416"><ele>-2.571428571428571</ele><time>2026-05-03T10:37:05.137Z</time></trkpt><trkpt lat="45.1220634" lon="12.293646"><ele>-2.8571428571428568</ele><time>2026-05-03T10:37:06.137Z</time></trkpt><trkpt lat="45.1220811" lon="12.2935482"><ele>-3.142857142857143</ele><time>2026-05-03T10:37:07.134Z</time></trkpt><trkpt lat="45.1220999" lon="12.29345"><ele>-3.428571428571428</ele><time>2026-05-03T10:37:08.137Z</time></trkpt><trkpt lat="45.1221186" lon="12.2933513"><ele>-3.714285714285714</ele><time>2026-05-03T10:37:09.136Z</time></trkpt><trkpt lat="45.1221378" lon="12.2932525"><ele>-4.0</ele><time>2026-05-03T10:37:10.135Z</time></trkpt><trkpt lat="45.1221569" lon="12.2931545"><ele>-3.8571428571428568</ele><time>2026-05-03T10:37:11.13Z</time></trkpt><trkpt lat="45.1221752" lon="12.2930529"><ele>-3.714285714285714</ele><time>2026-05-03T10:37:12.125Z</time></trkpt><trkpt lat="45.1221936" lon="12.292953"><ele>-3.571428571428571</ele><time>2026-05-03T10:37:13.136Z</time></trkpt><trkpt lat="45.1222123" lon="12.2928518"><ele>-3.4285714285714284</ele><time>2026-05-03T10:37:14.134Z</time></trkpt><trkpt lat="45.1222299" lon="12.2927517"><ele>-3.2857142857142856</ele><time>2026-05-03T10:37:15.136Z</time></trkpt><trkpt lat="45.1222488" lon="12.2926512"><ele>-3.1428571428571423</ele><time>2026-05-03T10:37:16.137Z</time></trkpt><trkpt lat="45.1222683" lon="12.2925528"><ele>-3.0</ele><time>2026-05-03T10:37:17.135Z</time></trkpt><trkpt lat="45.1222891" lon="12.2924544"><ele>-2.9999999999999996</ele><time>2026-05-03T10:37:18.131Z</time></trkpt><trkpt lat="45.1223074" lon="12.2923546"><ele>-3.0</ele><time>2026-05-03T10:37:19.135Z</time></trkpt><trkpt lat="45.1223253" lon="12.2922506"><ele>-3.0</ele><time>2026-05-03T10:37:20.136Z</time></trkpt><trkpt lat="45.1223409" lon="12.2921504"><ele>-3.0</ele><time>2026-05-03T10:37:21.128Z</time></trkpt><trkpt lat="45.1223564" lon="12.2920465"><ele>-3.0</ele><time>2026-05-03T10:37:22.131Z</time></trkpt><trkpt lat="45.1223751" lon="12.2919428"><ele>-2.9999999999999996</ele><time>2026-05-03T10:37:23.136Z</time></trkpt><trkpt lat="45.1223943" lon="12.2918418"><ele>-3.0</ele><time>2026-05-03T10:37:24.128Z</time></trkpt><trkpt lat="45.122414" lon="12.2917405"><ele>-3.0</ele><time>2026-05-03T10:37:25.136Z</time></trkpt><trkpt lat="45.1224333" lon="12.2916357"><ele>-3.0</ele><time>2026-05-03T10:37:26.134Z</time></trkpt><trkpt lat="45.1224532" lon="12.2915317"><ele>-3.0</ele><time>2026-05-03T10:37:27.137Z</time></trkpt><trkpt lat="45.1224729" lon="12.2914256"><ele>-3.0</ele><time>2026-05-03T10:37:28.133Z</time></trkpt><trkpt lat="45.1224909" lon="12.2913206"><ele>-3.0</ele><time>2026-05-03T10:37:29.132Z</time></trkpt><trkpt lat="45.122507" lon="12.2912154"><ele>-3.0</ele><time>2026-05-03T10:37:30.134Z</time></trkpt><trkpt lat="45.1225254" lon="12.2911135"><ele>-2.8571428571428568</ele><time>2026-05-03T10:37:31.133Z</time></trkpt><trkpt lat="45.122544" lon="12.2910129"><ele>-2.7142857142857144</ele><time>2026-05-03T10:37:32.133Z</time></trkpt><trkpt lat="45.1225604" lon="12.2909126"><ele>-2.571428571428571</ele><time>2026-05-03T10:37:33.138Z</time></trkpt><trkpt lat="45.1225804" lon="12.2908123"><ele>-2.4285714285714284</ele><time>2026-05-03T10:37:34.134Z</time></trkpt><trkpt lat="45.1226012" lon="12.2907112"><ele>-2.2857142857142856</ele><time>2026-05-03T10:37:35.13Z</time></trkpt><trkpt lat="45.1226184" lon="12.2906099"><ele>-2.142857142857143</ele><time>2026-05-03T10:37:36.135Z</time></trkpt><trkpt lat="45.1226357" lon="12.2905098"><ele>-2.0</ele><time>2026-05-03T10:37:37.129Z</time></trkpt><trkpt lat="45.1226543" lon="12.2904101"><ele>-2.0</ele><time>2026-05-03T10:37:38.129Z</time></trkpt><trkpt lat="45.1226715" lon="12.2903093"><ele>-1.9999999999999998</ele><time>2026-05-03T10:37:39.134Z</time></trkpt><trkpt lat="45.1226857" lon="12.2902065"><ele>-2.0</ele><time>2026-05-03T10:37:40.131Z</time></trkpt><trkpt lat="45.1226964" lon="12.290103"><ele>-2.0</ele><time>2026-05-03T10:37:41.137Z</time></trkpt><trkpt lat="45.122705" lon="12.289998"><ele>-1.9999999999999998</ele><time>2026-05-03T10:37:42.136Z</time></trkpt><trkpt lat="45.1227083" lon="12.2898922"><ele>-2.0</ele><time>2026-05-03T10:37:43.136Z</time></trkpt><trkpt lat="45.1227099" lon="12.2897887"><ele>-2.0</ele><time>2026-05-03T10:37:44.134Z</time></trkpt><trkpt lat="45.1227082" lon="12.289685"><ele>-2.0</ele><time>2026-05-03T10:37:45.135Z</time></trkpt><trkpt lat="45.1227054" lon="12.289581"><ele>-1.9999999999999998</ele><time>2026-05-03T10:37:46.129Z</time></trkpt><trkpt lat="45.1227012" lon="12.2894766"><ele>-2.0</ele><time>2026-05-03T10:37:47.136Z</time></trkpt><trkpt lat="45.1226952" lon="12.2893726"><ele>-2.0</ele><time>2026-05-03T10:37:48.129Z</time></trkpt><trkpt lat="45.122686" lon="12.2892695"><ele>-1.9999999999999998</ele><time>2026-05-03T10:37:49.134Z</time></trkpt><trkpt lat="45.1226765" lon="12.2891682"><ele>-2.0</ele><time>2026-05-03T10:37:50.132Z</time></trkpt><trkpt lat="45.1226676" lon="12.2890673"><ele>-2.0</ele><time>2026-05-03T10:37:51.132Z</time></trkpt><trkpt lat="45.1226601" lon="12.2889659"><ele>-2.142857142857143</ele><time>2026-05-03T10:37:52.134Z</time></trkpt><trkpt lat="45.1226521" lon="12.2888656"><ele>-2.2857142857142856</ele><time>2026-05-03T10:37:53.136Z</time></trkpt><trkpt lat="45.1226473" lon="12.2887666"><ele>-2.4285714285714284</ele><time>2026-05-03T10:37:54.139Z</time></trkpt><trkpt lat="45.122646" lon="12.2886685"><ele>-2.571428571428571</ele><time>2026-05-03T10:37:55.131Z</time></trkpt><trkpt lat="45.1226528" lon="12.2885697"><ele>-2.7142857142857144</ele><time>2026-05-03T10:37:56.136Z</time></trkpt><trkpt lat="45.122668" lon="12.2884722"><ele>-2.8571428571428568</ele><time>2026-05-03T10:37:57.137Z</time></trkpt><trkpt lat="45.1226904" lon="12.2883755"><ele>-3.0</ele><time>2026-05-03T10:37:58.131Z</time></trkpt><trkpt lat="45.1227174" lon="12.288283"><ele>-2.9999999999999996</ele><time>2026-05-03T10:37:59.128Z</time></trkpt><trkpt lat="45.1227481" lon="12.2881917"><ele>-3.0</ele><time>2026-05-03T10:38:00.134Z</time></trkpt><trkpt lat="45.1227773" lon="12.2880976"><ele>-3.0</ele><time>2026-05-03T10:38:01.132Z</time></trkpt><trkpt lat="45.1228033" lon="12.2880042"><ele>-3.0</ele><time>2026-05-03T10:38:02.13Z</time></trkpt><trkpt lat="45.1228299" lon="12.2879102"><ele>-3.0</ele><time>2026-05-03T10:38:03.142Z</time></trkpt><trkpt lat="45.1228569" lon="12.2878137"><ele>-2.9999999999999996</ele><time>2026-05-03T10:38:04.137Z</time></trkpt><trkpt lat="45.1228843" lon="12.2877177"><ele>-3.0</ele><time>2026-05-03T10:38:05.131Z</time></trkpt><trkpt lat="45.1229104" lon="12.2876241"><ele>-2.9999999999999996</ele><time>2026-05-03T10:38:06.135Z</time></trkpt><trkpt lat="45.1229342" lon="12.2875285"><ele>-3.0</ele><time>2026-05-03T10:38:07.135Z</time></trkpt><trkpt lat="45.1229585" lon="12.2874328"><ele>-3.0</ele><time>2026-05-03T10:38:08.136Z</time></trkpt><trkpt lat="45.1229823" lon="12.2873369"><ele>-3.0</ele><time>2026-05-03T10:38:09.132Z</time></trkpt><trkpt lat="45.1230069" lon="12.2872411"><ele>-3.0</ele><time>2026-05-03T10:38:10.132Z</time></trkpt><trkpt lat="45.1230317" lon="12.2871443"><ele>-2.9999999999999996</ele><time>2026-05-03T10:38:11.136Z</time></trkpt><trkpt lat="45.1230552" lon="12.2870442"><ele>-3.0</ele><time>2026-05-03T10:38:12.131Z</time></trkpt><trkpt lat="45.123078" lon="12.2869435"><ele>-3.0</ele><time>2026-05-03T10:38:13.133Z</time></trkpt><trkpt lat="45.1231016" lon="12.2868419"><ele>-3.0</ele><time>2026-05-03T10:38:14.136Z</time></trkpt><trkpt lat="45.1231255" lon="12.2867412"><ele>-3.0</ele><time>2026-05-03T10:38:15.134Z</time></trkpt><trkpt lat="45.1231501" lon="12.2866418"><ele>-3.0</ele><time>2026-05-03T10:38:16.14Z</time></trkpt><trkpt lat="45.1231755" lon="12.2865432"><ele>-3.0</ele><time>2026-05-03T10:38:17.134Z</time></trkpt><trkpt lat="45.1232016" lon="12.2864412"><ele>-3.0</ele><time>2026-05-03T10:38:18.127Z</time></trkpt><trkpt lat="45.1232306" lon="12.2863385"><ele>-2.8333333333333335</ele><time>2026-05-03T10:38:19.133Z</time></trkpt><trkpt lat="45.1232606" lon="12.2862349"><ele>-2.6666666666666665</ele><time>2026-05-03T10:38:20.131Z</time></trkpt><trkpt lat="45.1232888" lon="12.2861309"><ele>-2.5</ele><time>2026-05-03T10:38:21.139Z</time></trkpt><trkpt lat="45.1233179" lon="12.2860292"><ele>-2.333333333333333</ele><time>2026-05-03T10:38:22.132Z</time></trkpt><trkpt lat="45.1233493" lon="12.2859295"><ele>-2.1666666666666665</ele><time>2026-05-03T10:38:23.131Z</time></trkpt><trkpt lat="45.1233832" lon="12.2858342"><ele>-2.0</ele><time>2026-05-03T10:38:24.133Z</time></trkpt><trkpt lat="45.1234191" lon="12.2857407"><ele>-2.0</ele><time>2026-05-03T10:38:25.131Z</time></trkpt><trkpt lat="45.1234585" lon="12.2856494"><ele>-1.9999999999999998</ele><time>2026-05-03T10:38:26.132Z</time></trkpt><trkpt lat="45.1234962" lon="12.2855579"><ele>-2.0</ele><time>2026-05-03T10:38:27.132Z</time></trkpt><trkpt lat="45.1235294" lon="12.2854646"><ele>-2.0</ele><time>2026-05-03T10:38:28.135Z</time></trkpt><trkpt lat="45.1235622" lon="12.2853736"><ele>-1.9999999999999998</ele><time>2026-05-03T10:38:29.132Z</time></trkpt><trkpt lat="45.1235928" lon="12.2852815"><ele>-2.0</ele><time>2026-05-03T10:38:30.134Z</time></trkpt><trkpt lat="45.123622" lon="12.2851923"><ele>-2.0</ele><time>2026-05-03T10:38:31.139Z</time></trkpt><trkpt lat="45.1236491" lon="12.2851059"><ele>-1.9999999999999998</ele><time>2026-05-03T10:38:32.131Z</time></trkpt><trkpt lat="45.1236764" lon="12.2850252"><ele>-2.0</ele><time>2026-05-03T10:38:33.137Z</time></trkpt><trkpt lat="45.1237278" lon="12.2848919"><ele>-2.0</ele><time>2026-05-03T10:38:35.139Z</time></trkpt><trkpt lat="45.1237741" lon="12.2847936"><ele>-2.0</ele><time>2026-05-03T10:38:37.13Z</time></trkpt><trkpt lat="45.1238249" lon="12.2846858"><ele>-1.9999999999999998</ele><time>2026-05-03T10:38:40.133Z</time></trkpt><trkpt lat="45.1238559" lon="12.2845679"><ele>-2.0</ele><time>2026-05-03T10:38:43.138Z</time></trkpt><trkpt lat="45.1238969" lon="12.2844579"><ele>-1.8333333333333333</ele><time>2026-05-03T10:38:46.128Z</time></trkpt><trkpt lat="45.123933" lon="12.2843637"><ele>-1.6666666666666665</ele><time>2026-05-03T10:38:49.132Z</time></trkpt><trkpt lat="45.123985" lon="12.2842794"><ele>-1.5</ele><time>2026-05-03T10:38:53.132Z</time></trkpt><trkpt lat="45.1240519" lon="12.2842906"><ele>-1.3333333333333333</ele><time>2026-05-03T10:38:56.133Z</time></trkpt><trkpt lat="45.1240985" lon="12.2841842"><ele>-1.1666666666666665</ele><time>2026-05-03T10:38:59.124Z</time></trkpt><trkpt lat="45.1241053" lon="12.2840829"><ele>-1.0</ele><time>2026-05-03T10:39:01.13Z</time></trkpt><trkpt lat="45.1240581" lon="12.2839911"><ele>-0.8</ele><time>2026-05-03T10:39:03.128Z</time></trkpt><trkpt lat="45.1239665" lon="12.2839133"><ele>-0.6000000000000001</ele><time>2026-05-03T10:39:05.129Z</time></trkpt><trkpt lat="45.1238715" lon="12.2838273"><ele>-0.4</ele><time>2026-05-03T10:39:07.129Z</time></trkpt><trkpt lat="45.1237734" lon="12.283746"><ele>-0.2</ele><time>2026-05-03T10:39:09.134Z</time></trkpt><trkpt lat="45.1236867" lon="12.2836521"><ele>0.0</ele><time>2026-05-03T10:39:11.131Z</time></trkpt><trkpt lat="45.1236005" lon="12.2835545"><ele>0.0</ele><time>2026-05-03T10:39:13.134Z</time></trkpt><trkpt lat="45.1235203" lon="12.2834611"><ele>0.0</ele><time>2026-05-03T10:39:15.133Z</time></trkpt><trkpt lat="45.1234366" lon="12.2833692"><ele>0.0</ele><time>2026-05-03T10:39:17.132Z</time></trkpt><trkpt lat="45.1233538" lon="12.2832694"><ele>0.0</ele><time>2026-05-03T10:39:19.13Z</time></trkpt><trkpt lat="45.1232737" lon="12.2831728"><ele>0.0</ele><time>2026-05-03T10:39:21.133Z</time></trkpt><trkpt lat="45.1231895" lon="12.2830836"><ele>-0.2</ele><time>2026-05-03T10:39:23.138Z</time></trkpt><trkpt lat="45.1231046" lon="12.2829914"><ele>-0.4</ele><time>2026-05-03T10:39:25.129Z</time></trkpt><trkpt lat="45.1230239" lon="12.2828907"><ele>-0.6000000000000001</ele><time>2026-05-03T10:39:27.133Z</time></trkpt><trkpt lat="45.1229384" lon="12.2827889"><ele>-0.8</ele><time>2026-05-03T10:39:29.134Z</time></trkpt><trkpt lat="45.1228497" lon="12.2826714"><ele>-1.0</ele><time>2026-05-03T10:39:31.137Z</time></trkpt><trkpt lat="45.1227661" lon="12.2825602"><ele>-1.0</ele><time>2026-05-03T10:39:33.138Z</time></trkpt><trkpt lat="45.1226834" lon="12.2824503"><ele>-1.0</ele><time>2026-05-03T10:39:35.132Z</time></trkpt><trkpt lat="45.1226008" lon="12.2823445"><ele>-1.0</ele><time>2026-05-03T10:39:37.129Z</time></trkpt><trkpt lat="45.1225152" lon="12.2822333"><ele>-1.0</ele><time>2026-05-03T10:39:39.132Z</time></trkpt><trkpt lat="45.1224357" lon="12.2821114"><ele>-0.75</ele><time>2026-05-03T10:39:41.125Z</time></trkpt><trkpt lat="45.1223566" lon="12.2819925"><ele>-0.5</ele><time>2026-05-03T10:39:43.13Z</time></trkpt><trkpt lat="45.12228" lon="12.2818712"><ele>-0.25</ele><time>2026-05-03T10:39:45.132Z</time></trkpt><trkpt lat="45.122206" lon="12.2817467"><ele>0.0</ele><time>2026-05-03T10:39:47.135Z</time></trkpt><trkpt lat="45.1221326" lon="12.2816214"><ele>0.0</ele><time>2026-05-03T10:39:49.137Z</time></trkpt><trkpt lat="45.1220597" lon="12.2814927"><ele>0.0</ele><time>2026-05-03T10:39:51.131Z</time></trkpt><trkpt lat="45.1219864" lon="12.2813605"><ele>0.0</ele><time>2026-05-03T10:39:53.13Z</time></trkpt><trkpt lat="45.1219143" lon="12.2812242"><ele>0.0</ele><time>2026-05-03T10:39:55.134Z</time></trkpt><trkpt lat="45.1218512" lon="12.281085"><ele>0.25</ele><time>2026-05-03T10:39:57.128Z</time></trkpt><trkpt lat="45.1217957" lon="12.2809428"><ele>0.5</ele><time>2026-05-03T10:39:59.134Z</time></trkpt><trkpt lat="45.1217444" lon="12.2807975"><ele>0.75</ele><time>2026-05-03T10:40:01.128Z</time></trkpt><trkpt lat="45.1216895" lon="12.2806571"><ele>1.0</ele><time>2026-05-03T10:40:03.138Z</time></trkpt><trkpt lat="45.1216345" lon="12.280517"><ele>1.25</ele><time>2026-05-03T10:40:05.132Z</time></trkpt><trkpt lat="45.1215756" lon="12.280372"><ele>1.5</ele><time>2026-05-03T10:40:07.129Z</time></trkpt><trkpt lat="45.1215129" lon="12.2802332"><ele>1.75</ele><time>2026-05-03T10:40:09.133Z</time></trkpt><trkpt lat="45.1214544" lon="12.2800953"><ele>2.0</ele><time>2026-05-03T10:40:11.132Z</time></trkpt><trkpt lat="45.1213953" lon="12.2799576"><ele>2.25</ele><time>2026-05-03T10:40:13.139Z</time></trkpt><trkpt lat="45.1213348" lon="12.2798206"><ele>2.5</ele><time>2026-05-03T10:40:15.129Z</time></trkpt><trkpt lat="45.1212725" lon="12.2796877"><ele>2.75</ele><time>2026-05-03T10:40:17.133Z</time></trkpt><trkpt lat="45.1212063" lon="12.2795488"><ele>3.0</ele><time>2026-05-03T10:40:19.131Z</time></trkpt><trkpt lat="45.1211422" lon="12.2794087"><ele>3.0</ele><time>2026-05-03T10:40:21.13Z</time></trkpt><trkpt lat="45.1210815" lon="12.2792656"><ele>3.0</ele><time>2026-05-03T10:40:23.131Z</time></trkpt><trkpt lat="45.1210159" lon="12.279121"><ele>3.0</ele><time>2026-05-03T10:40:25.132Z</time></trkpt><trkpt lat="45.1209477" lon="12.2789806"><ele>3.0</ele><time>2026-05-03T10:40:27.136Z</time></trkpt><trkpt lat="45.1208777" lon="12.2788409"><ele>2.75</ele><time>2026-05-03T10:40:29.132Z</time></trkpt><trkpt lat="45.1208099" lon="12.2786972"><ele>2.5</ele><time>2026-05-03T10:40:31.133Z</time></trkpt><trkpt lat="45.1207449" lon="12.2785535"><ele>2.25</ele><time>2026-05-03T10:40:33.133Z</time></trkpt><trkpt lat="45.1206832" lon="12.2784178"><ele>2.0</ele><time>2026-05-03T10:40:35.132Z</time></trkpt><trkpt lat="45.1206202" lon="12.2782767"><ele>1.5</ele><time>2026-05-03T10:40:37.128Z</time></trkpt><trkpt lat="45.1205557" lon="12.2781339"><ele>1.0</ele><time>2026-05-03T10:40:39.129Z</time></trkpt><trkpt lat="45.1204957" lon="12.2779924"><ele>0.5</ele><time>2026-05-03T10:40:41.129Z</time></trkpt><trkpt lat="45.1204315" lon="12.2778587"><ele>0.0</ele><time>2026-05-03T10:40:43.132Z</time></trkpt><trkpt lat="45.1203691" lon="12.2777153"><ele>0.0</ele><time>2026-05-03T10:40:45.132Z</time></trkpt><trkpt lat="45.1203085" lon="12.2775737"><ele>0.0</ele><time>2026-05-03T10:40:47.128Z</time></trkpt><trkpt lat="45.120249" lon="12.2774338"><ele>0.0</ele><time>2026-05-03T10:40:49.134Z</time></trkpt><trkpt lat="45.1201828" lon="12.2772956"><ele>0.0</ele><time>2026-05-03T10:40:51.135Z</time></trkpt><trkpt lat="45.120116" lon="12.2771578"><ele>-0.25</ele><time>2026-05-03T10:40:53.134Z</time></trkpt><trkpt lat="45.1200482" lon="12.2770205"><ele>-0.5</ele><time>2026-05-03T10:40:55.127Z</time></trkpt><trkpt lat="45.1199781" lon="12.2768823"><ele>-0.75</ele><time>2026-05-03T10:40:57.129Z</time></trkpt><trkpt lat="45.1199111" lon="12.276743"><ele>-1.0</ele><time>2026-05-03T10:40:59.134Z</time></trkpt><trkpt lat="45.1198478" lon="12.2766023"><ele>-1.0</ele><time>2026-05-03T10:41:01.129Z</time></trkpt><trkpt lat="45.1197868" lon="12.2764614"><ele>-1.0</ele><time>2026-05-03T10:41:03.126Z</time></trkpt><trkpt lat="45.1197281" lon="12.2763238"><ele>-1.0</ele><time>2026-05-03T10:41:05.132Z</time></trkpt><trkpt lat="45.1196641" lon="12.2761893"><ele>-1.0</ele><time>2026-05-03T10:41:07.132Z</time></trkpt><trkpt lat="45.1196023" lon="12.2760536"><ele>-0.75</ele><time>2026-05-03T10:41:09.13Z</time></trkpt><trkpt lat="45.1195391" lon="12.2759159"><ele>-0.5</ele><time>2026-05-03T10:41:11.132Z</time></trkpt><trkpt lat="45.1194756" lon="12.2757779"><ele>-0.25</ele><time>2026-05-03T10:41:13.135Z</time></trkpt><trkpt lat="45.1194117" lon="12.2756414"><ele>0.0</ele><time>2026-05-03T10:41:15.131Z</time></trkpt><trkpt lat="45.1193528" lon="12.2755021"><ele>0.0</ele><time>2026-05-03T10:41:17.132Z</time></trkpt><trkpt lat="45.1192927" lon="12.2753667"><ele>0.0</ele><time>2026-05-03T10:41:19.134Z</time></trkpt><trkpt lat="45.119229" lon="12.2752376"><ele>0.0</ele><time>2026-05-03T10:41:21.137Z</time></trkpt><trkpt lat="45.1191669" lon="12.2751051"><ele>0.0</ele><time>2026-05-03T10:41:23.131Z</time></trkpt><trkpt lat="45.119103" lon="12.2749677"><ele>-0.5</ele><time>2026-05-03T10:41:25.129Z</time></trkpt><trkpt lat="45.1190365" lon="12.2748327"><ele>-1.0</ele><time>2026-05-03T10:41:27.13Z</time></trkpt><trkpt lat="45.1189747" lon="12.2746954"><ele>-1.5</ele><time>2026-05-03T10:41:29.134Z</time></trkpt><trkpt lat="45.1189117" lon="12.2745623"><ele>-2.0</ele><time>2026-05-03T10:41:31.134Z</time></trkpt><trkpt lat="45.1188501" lon="12.2744259"><ele>-2.0</ele><time>2026-05-03T10:41:33.133Z</time></trkpt><trkpt lat="45.1187895" lon="12.2742817"><ele>-2.0</ele><time>2026-05-03T10:41:35.126Z</time></trkpt><trkpt lat="45.1187254" lon="12.2741382"><ele>-2.0</ele><time>2026-05-03T10:41:37.135Z</time></trkpt><trkpt lat="45.1186624" lon="12.2739904"><ele>-2.0</ele><time>2026-05-03T10:41:39.131Z</time></trkpt><trkpt lat="45.1185976" lon="12.273848"><ele>-1.75</ele><time>2026-05-03T10:41:41.134Z</time></trkpt><trkpt lat="45.1185307" lon="12.2737067"><ele>-1.5</ele><time>2026-05-03T10:41:43.128Z</time></trkpt><trkpt lat="45.1184656" lon="12.2735666"><ele>-1.25</ele><time>2026-05-03T10:41:45.133Z</time></trkpt><trkpt lat="45.1183997" lon="12.2734253"><ele>-1.0</ele><time>2026-05-03T10:41:47.136Z</time></trkpt><trkpt lat="45.1183339" lon="12.2732838"><ele>-1.0</ele><time>2026-05-03T10:41:49.129Z</time></trkpt><trkpt lat="45.1182676" lon="12.2731441"><ele>-1.0</ele><time>2026-05-03T10:41:51.137Z</time></trkpt><trkpt lat="45.1182008" lon="12.2730046"><ele>-1.0</ele><time>2026-05-03T10:41:53.138Z</time></trkpt><trkpt lat="45.1181346" lon="12.272865"><ele>-1.0</ele><time>2026-05-03T10:41:55.134Z</time></trkpt><trkpt lat="45.1180668" lon="12.2727235"><ele>-1.0</ele><time>2026-05-03T10:41:57.127Z</time></trkpt><trkpt lat="45.117999" lon="12.2725876"><ele>-1.0</ele><time>2026-05-03T10:41:59.13Z</time></trkpt><trkpt lat="45.1179328" lon="12.2724504"><ele>-1.0</ele><time>2026-05-03T10:42:01.133Z</time></trkpt><trkpt lat="45.1178624" lon="12.2723132"><ele>-1.0</ele><time>2026-05-03T10:42:03.139Z</time></trkpt><trkpt lat="45.1177956" lon="12.2721714"><ele>-0.5</ele><time>2026-05-03T10:42:05.134Z</time></trkpt><trkpt lat="45.117725" lon="12.2720351"><ele>0.0</ele><time>2026-05-03T10:42:07.126Z</time></trkpt><trkpt lat="45.117655" lon="12.2719019"><ele>0.5</ele><time>2026-05-03T10:42:09.129Z</time></trkpt><trkpt lat="45.1175802" lon="12.2717742"><ele>1.0</ele><time>2026-05-03T10:42:11.132Z</time></trkpt><trkpt lat="45.1175013" lon="12.2716478"><ele>1.0</ele><time>2026-05-03T10:42:13.127Z</time></trkpt><trkpt lat="45.1174217" lon="12.2715194"><ele>1.0</ele><time>2026-05-03T10:42:15.124Z</time></trkpt><trkpt lat="45.1173427" lon="12.2713929"><ele>1.0</ele><time>2026-05-03T10:42:17.124Z</time></trkpt><trkpt lat="45.1172608" lon="12.2712696"><ele>1.0</ele><time>2026-05-03T10:42:19.135Z</time></trkpt><trkpt lat="45.1171822" lon="12.2711392"><ele>0.75</ele><time>2026-05-03T10:42:21.134Z</time></trkpt><trkpt lat="45.1171049" lon="12.27101"><ele>0.5</ele><time>2026-05-03T10:42:23.135Z</time></trkpt><trkpt lat="45.1170241" lon="12.2708814"><ele>0.25</ele><time>2026-05-03T10:42:25.129Z</time></trkpt><trkpt lat="45.1169442" lon="12.270754"><ele>0.0</ele><time>2026-05-03T10:42:27.131Z</time></trkpt><trkpt lat="45.1168634" lon="12.2706307"><ele>0.25</ele><time>2026-05-03T10:42:29.134Z</time></trkpt><trkpt lat="45.1167802" lon="12.2705039"><ele>0.5</ele><time>2026-05-03T10:42:31.129Z</time></trkpt><trkpt lat="45.1167016" lon="12.270378"><ele>0.75</ele><time>2026-05-03T10:42:33.125Z</time></trkpt><trkpt lat="45.1166294" lon="12.2702504"><ele>1.0</ele><time>2026-05-03T10:42:35.137Z</time></trkpt><trkpt lat="45.1165546" lon="12.2701253"><ele>0.5</ele><time>2026-05-03T10:42:37.133Z</time></trkpt><trkpt lat="45.1164792" lon="12.2700065"><ele>0.0</ele><time>2026-05-03T10:42:39.134Z</time></trkpt><trkpt lat="45.1164043" lon="12.2698783"><ele>-0.5</ele><time>2026-05-03T10:42:41.13Z</time></trkpt><trkpt lat="45.1163284" lon="12.269753"><ele>-1.0</ele><time>2026-05-03T10:42:43.138Z</time></trkpt><trkpt lat="45.1162536" lon="12.2696286"><ele>-1.25</ele><time>2026-05-03T10:42:45.129Z</time></trkpt><trkpt lat="45.1161779" lon="12.2694991"><ele>-1.5</ele><time>2026-05-03T10:42:47.13Z</time></trkpt><trkpt lat="45.1161014" lon="12.2693677"><ele>-1.75</ele><time>2026-05-03T10:42:49.133Z</time></trkpt><trkpt lat="45.1160252" lon="12.269234"><ele>-2.0</ele><time>2026-05-03T10:42:51.133Z</time></trkpt><trkpt lat="45.1159484" lon="12.2690998"><ele>-2.0</ele><time>2026-05-03T10:42:53.132Z</time></trkpt><trkpt lat="45.1158768" lon="12.2689592"><ele>-2.0</ele><time>2026-05-03T10:42:55.132Z</time></trkpt><trkpt lat="45.1158096" lon="12.2688115"><ele>-2.0</ele><time>2026-05-03T10:42:57.127Z</time></trkpt><trkpt lat="45.1157449" lon="12.2686608"><ele>-2.0</ele><time>2026-05-03T10:42:59.131Z</time></trkpt><trkpt lat="45.1156778" lon="12.2685139"><ele>-1.5</ele><time>2026-05-03T10:43:01.137Z</time></trkpt><trkpt lat="45.1156085" lon="12.2683675"><ele>-1.0</ele><time>2026-05-03T10:43:03.139Z</time></trkpt><trkpt lat="45.1155401" lon="12.2682195"><ele>-0.5</ele><time>2026-05-03T10:43:05.135Z</time></trkpt><trkpt lat="45.1154748" lon="12.2680697"><ele>0.0</ele><time>2026-05-03T10:43:07.134Z</time></trkpt><trkpt lat="45.1154187" lon="12.2679391"><ele>0.0</ele><time>2026-05-03T10:43:09.132Z</time></trkpt><trkpt lat="45.115373" lon="12.2678242"><ele>0.0</ele><time>2026-05-03T10:43:11.134Z</time></trkpt><trkpt lat="45.1153244" lon="12.2677032"><ele>0.0</ele><time>2026-05-03T10:43:13.127Z</time></trkpt><trkpt lat="45.1152741" lon="12.2675657"><ele>0.0</ele><time>2026-05-03T10:43:15.137Z</time></trkpt><trkpt lat="45.1152238" lon="12.2674199"><ele>0.0</ele><time>2026-05-03T10:43:17.125Z</time></trkpt><trkpt lat="45.1151737" lon="12.2672715"><ele>0.0</ele><time>2026-05-03T10:43:19.129Z</time></trkpt><trkpt lat="45.1151224" lon="12.2671184"><ele>0.0</ele><time>2026-05-03T10:43:21.126Z</time></trkpt><trkpt lat="45.1150714" lon="12.2669633"><ele>0.0</ele><time>2026-05-03T10:43:23.126Z</time></trkpt><trkpt lat="45.1150237" lon="12.2668092"><ele>0.0</ele><time>2026-05-03T10:43:25.132Z</time></trkpt><trkpt lat="45.1149768" lon="12.2666553"><ele>0.0</ele><time>2026-05-03T10:43:27.132Z</time></trkpt><trkpt lat="45.1149264" lon="12.2664993"><ele>0.0</ele><time>2026-05-03T10:43:29.131Z</time></trkpt><trkpt lat="45.1148769" lon="12.2663397"><ele>0.0</ele><time>2026-05-03T10:43:31.128Z</time></trkpt><trkpt lat="45.1148508" lon="12.266258"><ele>0.0</ele><time>2026-05-03T10:43:32.134Z</time></trkpt><trkpt lat="45.1148251" lon="12.2661751"><ele>0.0</ele><time>2026-05-03T10:43:33.141Z</time></trkpt><trkpt lat="45.1147993" lon="12.2660917"><ele>0.0</ele><time>2026-05-03T10:43:34.131Z</time></trkpt><trkpt lat="45.1147728" lon="12.2660087"><ele>0.0</ele><time>2026-05-03T10:43:35.129Z</time></trkpt><trkpt lat="45.1147461" lon="12.2659269"><ele>0.0</ele><time>2026-05-03T10:43:36.132Z</time></trkpt><trkpt lat="45.1147186" lon="12.2658462"><ele>0.0</ele><time>2026-05-03T10:43:37.133Z</time></trkpt><trkpt lat="45.1146899" lon="12.2657668"><ele>0.0</ele><time>2026-05-03T10:43:38.128Z</time></trkpt><trkpt lat="45.114662" lon="12.2656859"><ele>0.0</ele><time>2026-05-03T10:43:39.136Z</time></trkpt><trkpt lat="45.1146045" lon="12.2655276"><ele>0.0</ele><time>2026-05-03T10:43:41.132Z</time></trkpt><trkpt lat="45.1145489" lon="12.2653717"><ele>0.0</ele><time>2026-05-03T10:43:43.139Z</time></trkpt><trkpt lat="45.114494" lon="12.2652144"><ele>0.0</ele><time>2026-05-03T10:43:45.131Z</time></trkpt><trkpt lat="45.1144389" lon="12.265056"><ele>0.0</ele><time>2026-05-03T10:43:47.13Z</time></trkpt><trkpt lat="45.1143809" lon="12.2648999"><ele>0.0</ele><time>2026-05-03T10:43:49.134Z</time></trkpt><trkpt lat="45.1143201" lon="12.2647442"><ele>0.2</ele><time>2026-05-03T10:43:51.13Z</time></trkpt><trkpt lat="45.1142876" lon="12.264665"><ele>0.4</ele><time>2026-05-03T10:43:52.134Z</time></trkpt><trkpt lat="45.114225" lon="12.2645111"><ele>0.6000000000000001</ele><time>2026-05-03T10:43:54.127Z</time></trkpt><trkpt lat="45.1141632" lon="12.2643615"><ele>0.8</ele><time>2026-05-03T10:43:56.132Z</time></trkpt><trkpt lat="45.1140936" lon="12.2642157"><ele>1.0</ele><time>2026-05-03T10:43:58.127Z</time></trkpt><trkpt lat="45.1140254" lon="12.2640696"><ele>0.75</ele><time>2026-05-03T10:44:00.125Z</time></trkpt><trkpt lat="45.1139572" lon="12.2639222"><ele>0.5</ele><time>2026-05-03T10:44:02.132Z</time></trkpt><trkpt lat="45.1138879" lon="12.2637779"><ele>0.25</ele><time>2026-05-03T10:44:04.132Z</time></trkpt><trkpt lat="45.1138181" lon="12.2636372"><ele>0.0</ele><time>2026-05-03T10:44:06.135Z</time></trkpt><trkpt lat="45.1137434" lon="12.2634943"><ele>0.0</ele><time>2026-05-03T10:44:08.129Z</time></trkpt><trkpt lat="45.1136721" lon="12.2633468"><ele>0.0</ele><time>2026-05-03T10:44:10.131Z</time></trkpt><trkpt lat="45.1136015" lon="12.263198"><ele>0.0</ele><time>2026-05-03T10:44:12.132Z</time></trkpt><trkpt lat="45.1135312" lon="12.2630598"><ele>0.0</ele><time>2026-05-03T10:44:14.136Z</time></trkpt><trkpt lat="45.1134629" lon="12.2629264"><ele>0.2</ele><time>2026-05-03T10:44:16.134Z</time></trkpt><trkpt lat="45.1133879" lon="12.2627901"><ele>0.4</ele><time>2026-05-03T10:44:18.13Z</time></trkpt><trkpt lat="45.1133134" lon="12.2626521"><ele>0.6000000000000001</ele><time>2026-05-03T10:44:20.13Z</time></trkpt><trkpt lat="45.1132421" lon="12.262512"><ele>0.8</ele><time>2026-05-03T10:44:22.134Z</time></trkpt><trkpt lat="45.1132054" lon="12.2624391"><ele>1.0</ele><time>2026-05-03T10:44:23.136Z</time></trkpt><trkpt lat="45.113133" lon="12.2622991"><ele>1.2000000000000002</ele><time>2026-05-03T10:44:25.134Z</time></trkpt><trkpt lat="45.1130574" lon="12.2621603"><ele>1.4000000000000001</ele><time>2026-05-03T10:44:27.133Z</time></trkpt><trkpt lat="45.112989" lon="12.2620217"><ele>1.6</ele><time>2026-05-03T10:44:29.134Z</time></trkpt><trkpt lat="45.1129156" lon="12.2618808"><ele>1.8</ele><time>2026-05-03T10:44:31.138Z</time></trkpt><trkpt lat="45.1128762" lon="12.2618075"><ele>2.0</ele><time>2026-05-03T10:44:32.135Z</time></trkpt><trkpt lat="45.1128374" lon="12.2617332"><ele>2.0</ele><time>2026-05-03T10:44:33.142Z</time></trkpt><trkpt lat="45.1127992" lon="12.2616592"><ele>2.0</ele><time>2026-05-03T10:44:34.137Z</time></trkpt><trkpt lat="45.1127282" lon="12.2615134"><ele>2.0</ele><time>2026-05-03T10:44:36.13Z</time></trkpt><trkpt lat="45.1126569" lon="12.261367"><ele>2.0</ele><time>2026-05-03T10:44:38.136Z</time></trkpt><trkpt lat="45.1125866" lon="12.2612247"><ele>2.0</ele><time>2026-05-03T10:44:40.125Z</time></trkpt><trkpt lat="45.1125145" lon="12.2610828"><ele>2.4000000000000004</ele><time>2026-05-03T10:44:42.129Z</time></trkpt><trkpt lat="45.1124451" lon="12.2609393"><ele>2.8000000000000003</ele><time>2026-05-03T10:44:44.136Z</time></trkpt><trkpt lat="45.1123738" lon="12.260795"><ele>3.2</ele><time>2026-05-03T10:44:46.135Z</time></trkpt><trkpt lat="45.1123028" lon="12.2606487"><ele>3.6</ele><time>2026-05-03T10:44:48.133Z</time></trkpt><trkpt lat="45.1122648" lon="12.2605762"><ele>4.0</ele><time>2026-05-03T10:44:49.138Z</time></trkpt><trkpt lat="45.112227" lon="12.2605032"><ele>3.0</ele><time>2026-05-03T10:44:50.136Z</time></trkpt><trkpt lat="45.112189" lon="12.2604308"><ele>2.0000000000000004</ele><time>2026-05-03T10:44:51.135Z</time></trkpt><trkpt lat="45.1121151" lon="12.2602912"><ele>1.0</ele><time>2026-05-03T10:44:53.139Z</time></trkpt><trkpt lat="45.1120381" lon="12.2601481"><ele>0.0</ele><time>2026-05-03T10:44:55.137Z</time></trkpt><trkpt lat="45.1119629" lon="12.2600102"><ele>-1.0</ele><time>2026-05-03T10:44:57.138Z</time></trkpt><trkpt lat="45.111889" lon="12.2598702"><ele>-1.0</ele><time>2026-05-03T10:44:59.135Z</time></trkpt><trkpt lat="45.1118187" lon="12.2597268"><ele>-1.0</ele><time>2026-05-03T10:45:01.127Z</time></trkpt><trkpt lat="45.111746" lon="12.2595816"><ele>-1.0</ele><time>2026-05-03T10:45:03.142Z</time></trkpt><trkpt lat="45.1117081" lon="12.2595084"><ele>-1.0</ele><time>2026-05-03T10:45:04.128Z</time></trkpt><trkpt lat="45.111634" lon="12.2593623"><ele>-1.0</ele><time>2026-05-03T10:45:06.132Z</time></trkpt><trkpt lat="45.1115989" lon="12.2592868"><ele>-1.2000000000000002</ele><time>2026-05-03T10:45:07.129Z</time></trkpt><trkpt lat="45.1115628" lon="12.2592132"><ele>-1.4000000000000001</ele><time>2026-05-03T10:45:08.125Z</time></trkpt><trkpt lat="45.111493" lon="12.2590699"><ele>-1.6</ele><time>2026-05-03T10:45:10.136Z</time></trkpt><trkpt lat="45.1114246" lon="12.2589219"><ele>-1.8</ele><time>2026-05-03T10:45:12.128Z</time></trkpt><trkpt lat="45.1113568" lon="12.2587747"><ele>-2.0</ele><time>2026-05-03T10:45:14.138Z</time></trkpt><trkpt lat="45.1113218" lon="12.2586993"><ele>-2.0</ele><time>2026-05-03T10:45:15.141Z</time></trkpt><trkpt lat="45.1112861" lon="12.258624"><ele>-1.9999999999999998</ele><time>2026-05-03T10:45:16.135Z</time></trkpt><trkpt lat="45.1112505" lon="12.2585492"><ele>-2.0</ele><time>2026-05-03T10:45:17.132Z</time></trkpt><trkpt lat="45.1112164" lon="12.2584729"><ele>-2.0</ele><time>2026-05-03T10:45:18.135Z</time></trkpt><trkpt lat="45.1111845" lon="12.2583948"><ele>-1.9999999999999998</ele><time>2026-05-03T10:45:19.132Z</time></trkpt><trkpt lat="45.1111238" lon="12.2582398"><ele>-2.0</ele><time>2026-05-03T10:45:21.138Z</time></trkpt><trkpt lat="45.1110923" lon="12.2581623"><ele>-2.0</ele><time>2026-05-03T10:45:22.137Z</time></trkpt><trkpt lat="45.1110605" lon="12.258085"><ele>-2.0</ele><time>2026-05-03T10:45:23.134Z</time></trkpt><trkpt lat="45.1110015" lon="12.2579328"><ele>-2.0</ele><time>2026-05-03T10:45:25.132Z</time></trkpt><trkpt lat="45.1109444" lon="12.2577748"><ele>-2.0</ele><time>2026-05-03T10:45:27.127Z</time></trkpt><trkpt lat="45.1109157" lon="12.2576947"><ele>-2.0</ele><time>2026-05-03T10:45:28.133Z</time></trkpt><trkpt lat="45.1108602" lon="12.2575368"><ele>-2.0</ele><time>2026-05-03T10:45:30.133Z</time></trkpt><trkpt lat="45.110808" lon="12.2573801"><ele>-2.25</ele><time>2026-05-03T10:45:32.135Z</time></trkpt><trkpt lat="45.110756" lon="12.2572303"><ele>-2.5</ele><time>2026-05-03T10:45:34.129Z</time></trkpt><trkpt lat="45.1107036" lon="12.2570827"><ele>-2.75</ele><time>2026-05-03T10:45:36.132Z</time></trkpt><trkpt lat="45.1106551" lon="12.2569334"><ele>-3.0</ele><time>2026-05-03T10:45:38.127Z</time></trkpt><trkpt lat="45.1106095" lon="12.2567893"><ele>-3.0</ele><time>2026-05-03T10:45:40.135Z</time></trkpt><trkpt lat="45.1105649" lon="12.2566555"><ele>-3.0</ele><time>2026-05-03T10:45:42.133Z</time></trkpt><trkpt lat="45.1105249" lon="12.2565234"><ele>-3.0</ele><time>2026-05-03T10:45:44.131Z</time></trkpt><trkpt lat="45.1104843" lon="12.2563989"><ele>-3.0</ele><time>2026-05-03T10:45:46.131Z</time></trkpt><trkpt lat="45.1104464" lon="12.2562855"><ele>-3.0</ele><time>2026-05-03T10:45:48.13Z</time></trkpt><trkpt lat="45.1104036" lon="12.2561662"><ele>-3.2</ele><time>2026-05-03T10:45:50.133Z</time></trkpt><trkpt lat="45.1103478" lon="12.2560354"><ele>-3.4</ele><time>2026-05-03T10:45:52.13Z</time></trkpt><trkpt lat="45.1103022" lon="12.2558928"><ele>-3.6000000000000005</ele><time>2026-05-03T10:45:54.136Z</time></trkpt><trkpt lat="45.1102754" lon="12.2557366"><ele>-3.8000000000000003</ele><time>2026-05-03T10:45:56.135Z</time></trkpt><trkpt lat="45.1102504" lon="12.2555775"><ele>-4.0</ele><time>2026-05-03T10:45:58.127Z</time></trkpt><trkpt lat="45.1102268" lon="12.2554133"><ele>-4.0</ele><time>2026-05-03T10:46:00.132Z</time></trkpt><trkpt lat="45.110205" lon="12.2552523"><ele>-4.0</ele><time>2026-05-03T10:46:02.136Z</time></trkpt><trkpt lat="45.1101811" lon="12.2550942"><ele>-4.0</ele><time>2026-05-03T10:46:04.132Z</time></trkpt><trkpt lat="45.1101512" lon="12.2549277"><ele>-4.0</ele><time>2026-05-03T10:46:06.13Z</time></trkpt><trkpt lat="45.1101203" lon="12.2547653"><ele>-3.75</ele><time>2026-05-03T10:46:08.129Z</time></trkpt><trkpt lat="45.1100911" lon="12.254605"><ele>-3.5</ele><time>2026-05-03T10:46:10.134Z</time></trkpt><trkpt lat="45.1100562" lon="12.2544419"><ele>-3.25</ele><time>2026-05-03T10:46:12.127Z</time></trkpt><trkpt lat="45.1100171" lon="12.2542823"><ele>-3.0</ele><time>2026-05-03T10:46:14.128Z</time></trkpt><trkpt lat="45.1099732" lon="12.2541264"><ele>-3.0</ele><time>2026-05-03T10:46:16.134Z</time></trkpt><trkpt lat="45.1099257" lon="12.2539768"><ele>-3.0</ele><time>2026-05-03T10:46:18.135Z</time></trkpt><trkpt lat="45.109873" lon="12.2538224"><ele>-3.0</ele><time>2026-05-03T10:46:20.135Z</time></trkpt><trkpt lat="45.1098224" lon="12.2536673"><ele>-3.0</ele><time>2026-05-03T10:46:22.13Z</time></trkpt><trkpt lat="45.1097663" lon="12.2535147"><ele>-2.6</ele><time>2026-05-03T10:46:24.132Z</time></trkpt><trkpt lat="45.109713" lon="12.2533719"><ele>-2.1999999999999997</ele><time>2026-05-03T10:46:26.124Z</time></trkpt><trkpt lat="45.1096612" lon="12.2532402"><ele>-1.8</ele><time>2026-05-03T10:46:28.127Z</time></trkpt><trkpt lat="45.109608" lon="12.2531199"><ele>-1.4</ele><time>2026-05-03T10:46:30.136Z</time></trkpt><trkpt lat="45.1095582" lon="12.2530066"><ele>-1.0</ele><time>2026-05-03T10:46:32.134Z</time></trkpt><trkpt lat="45.1095201" lon="12.2528973"><ele>-0.9999999999999999</ele><time>2026-05-03T10:46:34.13Z</time></trkpt><trkpt lat="45.1094905" lon="12.2528003"><ele>-1.0</ele><time>2026-05-03T10:46:36.133Z</time></trkpt><trkpt lat="45.1094581" lon="12.2527143"><ele>-1.0</ele><time>2026-05-03T10:46:38.131Z</time></trkpt><trkpt lat="45.1094171" lon="12.2526034"><ele>-1.0</ele><time>2026-05-03T10:46:41.137Z</time></trkpt><trkpt lat="45.1093833" lon="12.2524961"><ele>-0.9999999999999999</ele><time>2026-05-03T10:46:44.132Z</time></trkpt><trkpt lat="45.1093422" lon="12.2523951"><ele>-1.0</ele><time>2026-05-03T10:46:47.14Z</time></trkpt><trkpt lat="45.1093658" lon="12.2522933"><ele>-0.9999999999999999</ele><time>2026-05-03T10:46:51.129Z</time></trkpt><trkpt lat="45.1094259" lon="12.2522573"><ele>-1.0</ele><time>2026-05-03T10:46:53.129Z</time></trkpt><trkpt lat="45.1094895" lon="12.2522133"><ele>-1.0</ele><time>2026-05-03T10:46:55.128Z</time></trkpt><trkpt lat="45.1095666" lon="12.2521644"><ele>-1.0</ele><time>2026-05-03T10:46:57.134Z</time></trkpt><trkpt lat="45.109639" lon="12.25211"><ele>-0.9999999999999999</ele><time>2026-05-03T10:46:59.131Z</time></trkpt><trkpt lat="45.1097213" lon="12.252057"><ele>-1.0</ele><time>2026-05-03T10:47:01.132Z</time></trkpt><trkpt lat="45.1098074" lon="12.2519985"><ele>-1.0</ele><time>2026-05-03T10:47:03.134Z</time></trkpt><trkpt lat="45.1098975" lon="12.2519391"><ele>-1.0</ele><time>2026-05-03T10:47:05.13Z</time></trkpt><trkpt lat="45.109991" lon="12.2518785"><ele>-1.0</ele><time>2026-05-03T10:47:07.139Z</time></trkpt><trkpt lat="45.1100819" lon="12.251819"><ele>-1.0</ele><time>2026-05-03T10:47:09.129Z</time></trkpt><trkpt lat="45.1101712" lon="12.251763"><ele>-1.0</ele><time>2026-05-03T10:47:11.13Z</time></trkpt><trkpt lat="45.1102602" lon="12.2517121"><ele>-1.3333333333333333</ele><time>2026-05-03T10:47:13.138Z</time></trkpt><trkpt lat="45.1103446" lon="12.2516619"><ele>-1.6666666666666665</ele><time>2026-05-03T10:47:15.133Z</time></trkpt><trkpt lat="45.110426" lon="12.2516125"><ele>-2.0</ele><time>2026-05-03T10:47:17.125Z</time></trkpt><trkpt lat="45.1105023" lon="12.2515629"><ele>-2.3333333333333335</ele><time>2026-05-03T10:47:19.136Z</time></trkpt><trkpt lat="45.1105724" lon="12.2515134"><ele>-2.6666666666666665</ele><time>2026-05-03T10:47:21.132Z</time></trkpt><trkpt lat="45.1106377" lon="12.2514654"><ele>-3.0</ele><time>2026-05-03T10:47:23.138Z</time></trkpt><trkpt lat="45.1107069" lon="12.2514414"><ele>-2.8</ele><time>2026-05-03T10:47:25.135Z</time></trkpt><trkpt lat="45.1107562" lon="12.2515263"><ele>-2.5999999999999996</ele><time>2026-05-03T10:47:27.133Z</time></trkpt><trkpt lat="45.1108008" lon="12.251666"><ele>-2.4000000000000004</ele><time>2026-05-03T10:47:29.126Z</time></trkpt><trkpt lat="45.1108607" lon="12.2518041"><ele>-2.2</ele><time>2026-05-03T10:47:31.139Z</time></trkpt><trkpt lat="45.1109114" lon="12.2519395"><ele>-2.0</ele><time>2026-05-03T10:47:33.134Z</time></trkpt><trkpt lat="45.1109657" lon="12.2520725"><ele>-2.0</ele><time>2026-05-03T10:47:35.137Z</time></trkpt><trkpt lat="45.1110222" lon="12.2522085"><ele>-2.0</ele><time>2026-05-03T10:47:37.135Z</time></trkpt><trkpt lat="45.1110815" lon="12.2523421"><ele>-2.0</ele><time>2026-05-03T10:47:39.136Z</time></trkpt><trkpt lat="45.1111333" lon="12.2524756"><ele>-2.0</ele><time>2026-05-03T10:47:41.137Z</time></trkpt><trkpt lat="45.1111848" lon="12.252599"><ele>-2.0</ele><time>2026-05-03T10:47:43.138Z</time></trkpt><trkpt lat="45.1112247" lon="12.2527147"><ele>-2.0</ele><time>2026-05-03T10:47:45.13Z</time></trkpt><trkpt lat="45.1112606" lon="12.2528275"><ele>-2.0</ele><time>2026-05-03T10:47:47.125Z</time></trkpt><trkpt lat="45.1113018" lon="12.2529456"><ele>-2.0</ele><time>2026-05-03T10:47:49.138Z</time></trkpt><trkpt lat="45.1113497" lon="12.2530713"><ele>-2.0</ele><time>2026-05-03T10:47:51.128Z</time></trkpt><trkpt lat="45.1113989" lon="12.2532015"><ele>-2.0</ele><time>2026-05-03T10:47:53.135Z</time></trkpt><trkpt lat="45.1114501" lon="12.2533358"><ele>-2.0</ele><time>2026-05-03T10:47:55.135Z</time></trkpt><trkpt lat="45.1115032" lon="12.2534724"><ele>-2.0</ele><time>2026-05-03T10:47:57.135Z</time></trkpt><trkpt lat="45.1115561" lon="12.2536125"><ele>-2.0</ele><time>2026-05-03T10:47:59.137Z</time></trkpt><trkpt lat="45.1116151" lon="12.2537582"><ele>-2.0</ele><time>2026-05-03T10:48:01.128Z</time></trkpt><trkpt lat="45.1116739" lon="12.253904"><ele>-1.75</ele><time>2026-05-03T10:48:03.132Z</time></trkpt><trkpt lat="45.1117221" lon="12.2540585"><ele>-1.5</ele><time>2026-05-03T10:48:05.137Z</time></trkpt><trkpt lat="45.1117703" lon="12.2542096"><ele>-1.25</ele><time>2026-05-03T10:48:07.136Z</time></trkpt><trkpt lat="45.1118181" lon="12.2543519"><ele>-1.0</ele><time>2026-05-03T10:48:09.136Z</time></trkpt><trkpt lat="45.1118685" lon="12.2544902"><ele>-1.0</ele><time>2026-05-03T10:48:11.133Z</time></trkpt><trkpt lat="45.1119168" lon="12.2546292"><ele>-1.0</ele><time>2026-05-03T10:48:13.139Z</time></trkpt><trkpt lat="45.1119613" lon="12.2547667"><ele>-1.0</ele><time>2026-05-03T10:48:15.127Z</time></trkpt><trkpt lat="45.1120074" lon="12.2549057"><ele>-1.0</ele><time>2026-05-03T10:48:17.135Z</time></trkpt><trkpt lat="45.1120577" lon="12.2550471"><ele>-1.0</ele><time>2026-05-03T10:48:19.14Z</time></trkpt><trkpt lat="45.1121069" lon="12.2551882"><ele>-1.2000000000000002</ele><time>2026-05-03T10:48:21.134Z</time></trkpt><trkpt lat="45.1121509" lon="12.255328"><ele>-1.4000000000000001</ele><time>2026-05-03T10:48:23.139Z</time></trkpt><trkpt lat="45.1121955" lon="12.255468"><ele>-1.6</ele><time>2026-05-03T10:48:25.131Z</time></trkpt><trkpt lat="45.1122444" lon="12.2556071"><ele>-1.8</ele><time>2026-05-03T10:48:27.136Z</time></trkpt><trkpt lat="45.1122873" lon="12.2557401"><ele>-2.0</ele><time>2026-05-03T10:48:29.132Z</time></trkpt><trkpt lat="45.112327" lon="12.2558668"><ele>-2.0</ele><time>2026-05-03T10:48:31.134Z</time></trkpt><trkpt lat="45.1123676" lon="12.2559898"><ele>-2.0</ele><time>2026-05-03T10:48:33.134Z</time></trkpt><trkpt lat="45.1124201" lon="12.2561083"><ele>-2.0</ele><time>2026-05-03T10:48:35.13Z</time></trkpt><trkpt lat="45.1124622" lon="12.2562349"><ele>-2.0</ele><time>2026-05-03T10:48:37.127Z</time></trkpt><trkpt lat="45.1124966" lon="12.256369"><ele>-2.0</ele><time>2026-05-03T10:48:39.137Z</time></trkpt><trkpt lat="45.1125411" lon="12.2564959"><ele>-2.6</ele><time>2026-05-03T10:48:41.13Z</time></trkpt><trkpt lat="45.1125962" lon="12.25662"><ele>-3.2</ele><time>2026-05-03T10:48:43.128Z</time></trkpt><trkpt lat="45.1126475" lon="12.2567423"><ele>-3.8</ele><time>2026-05-03T10:48:45.136Z</time></trkpt><trkpt lat="45.1127028" lon="12.2568601"><ele>-4.4</ele><time>2026-05-03T10:48:47.132Z</time></trkpt><trkpt lat="45.1127613" lon="12.2569821"><ele>-5.0</ele><time>2026-05-03T10:48:49.131Z</time></trkpt><trkpt lat="45.1128202" lon="12.2571021"><ele>-5.0</ele><time>2026-05-03T10:48:51.131Z</time></trkpt><trkpt lat="45.1128773" lon="12.2572163"><ele>-5.0</ele><time>2026-05-03T10:48:53.138Z</time></trkpt><trkpt lat="45.1129362" lon="12.2573277"><ele>-5.0</ele><time>2026-05-03T10:48:55.127Z</time></trkpt><trkpt lat="45.1129954" lon="12.2574418"><ele>-5.0</ele><time>2026-05-03T10:48:57.13Z</time></trkpt><trkpt lat="45.1130535" lon="12.2575561"><ele>-5.0</ele><time>2026-05-03T10:48:59.136Z</time></trkpt><trkpt lat="45.1131147" lon="12.2576702"><ele>-4.4</ele><time>2026-05-03T10:49:01.131Z</time></trkpt><trkpt lat="45.1131805" lon="12.2577831"><ele>-3.8</ele><time>2026-05-03T10:49:03.131Z</time></trkpt><trkpt lat="45.1132476" lon="12.2578953"><ele>-3.2</ele><time>2026-05-03T10:49:05.127Z</time></trkpt><trkpt lat="45.1133172" lon="12.2580053"><ele>-2.6</ele><time>2026-05-03T10:49:07.133Z</time></trkpt><trkpt lat="45.1133829" lon="12.2581095"><ele>-2.0</ele><time>2026-05-03T10:49:09.131Z</time></trkpt><trkpt lat="45.1134528" lon="12.2582226"><ele>-2.0</ele><time>2026-05-03T10:49:11.126Z</time></trkpt><trkpt lat="45.1135271" lon="12.2583356"><ele>-2.0</ele><time>2026-05-03T10:49:13.13Z</time></trkpt><trkpt lat="45.113603" lon="12.2584429"><ele>-2.0</ele><time>2026-05-03T10:49:15.129Z</time></trkpt><trkpt lat="45.1136785" lon="12.2585456"><ele>-2.0</ele><time>2026-05-03T10:49:17.133Z</time></trkpt><trkpt lat="45.1137551" lon="12.2586453"><ele>-2.0</ele><time>2026-05-03T10:49:19.136Z</time></trkpt><trkpt lat="45.1138266" lon="12.2587462"><ele>-2.0</ele><time>2026-05-03T10:49:21.124Z</time></trkpt><trkpt lat="45.1138972" lon="12.258844"><ele>-2.0</ele><time>2026-05-03T10:49:23.131Z</time></trkpt><trkpt lat="45.1139703" lon="12.2589414"><ele>-2.0</ele><time>2026-05-03T10:49:25.127Z</time></trkpt><trkpt lat="45.1140429" lon="12.2590405"><ele>-2.0</ele><time>2026-05-03T10:49:27.132Z</time></trkpt><trkpt lat="45.1141107" lon="12.2591413"><ele>-2.0</ele><time>2026-05-03T10:49:29.126Z</time></trkpt><trkpt lat="45.1141727" lon="12.2592515"><ele>-1.8</ele><time>2026-05-03T10:49:31.129Z</time></trkpt><trkpt lat="45.1142344" lon="12.2593641"><ele>-1.6</ele><time>2026-05-03T10:49:33.137Z</time></trkpt><trkpt lat="45.1143039" lon="12.2594767"><ele>-1.4000000000000001</ele><time>2026-05-03T10:49:35.129Z</time></trkpt><trkpt lat="45.1143793" lon="12.2595913"><ele>-1.2000000000000002</ele><time>2026-05-03T10:49:37.129Z</time></trkpt><trkpt lat="45.1144553" lon="12.2597084"><ele>-1.0</ele><time>2026-05-03T10:49:39.128Z</time></trkpt><trkpt lat="45.1145224" lon="12.2598197"><ele>-1.0</ele><time>2026-05-03T10:49:41.128Z</time></trkpt><trkpt lat="45.1145853" lon="12.2599269"><ele>-1.0</ele><time>2026-05-03T10:49:43.132Z</time></trkpt><trkpt lat="45.1146499" lon="12.2600444"><ele>-1.0</ele><time>2026-05-03T10:49:45.128Z</time></trkpt><trkpt lat="45.1147181" lon="12.2601712"><ele>-1.0</ele><time>2026-05-03T10:49:47.132Z</time></trkpt><trkpt lat="45.1147788" lon="12.2602951"><ele>-1.0</ele><time>2026-05-03T10:49:49.14Z</time></trkpt><trkpt lat="45.1148334" lon="12.2604276"><ele>-1.0</ele><time>2026-05-03T10:49:51.132Z</time></trkpt><trkpt lat="45.1148962" lon="12.2605616"><ele>-1.0</ele><time>2026-05-03T10:49:53.136Z</time></trkpt><trkpt lat="45.1149561" lon="12.2606946"><ele>-1.0</ele><time>2026-05-03T10:49:55.129Z</time></trkpt><trkpt lat="45.1150059" lon="12.2608279"><ele>-1.0</ele><time>2026-05-03T10:49:57.131Z</time></trkpt><trkpt lat="45.1150575" lon="12.2609626"><ele>-1.0</ele><time>2026-05-03T10:49:59.133Z</time></trkpt><trkpt lat="45.1151045" lon="12.2610981"><ele>-1.0</ele><time>2026-05-03T10:50:01.131Z</time></trkpt><trkpt lat="45.1151527" lon="12.2612372"><ele>-1.0</ele><time>2026-05-03T10:50:03.131Z</time></trkpt><trkpt lat="45.1152017" lon="12.2613724"><ele>-1.0</ele><time>2026-05-03T10:50:05.131Z</time></trkpt><trkpt lat="45.1152553" lon="12.2615087"><ele>-1.0</ele><time>2026-05-03T10:50:07.13Z</time></trkpt><trkpt lat="45.1153054" lon="12.2616452"><ele>-1.0</ele><time>2026-05-03T10:50:09.132Z</time></trkpt><trkpt lat="45.1153569" lon="12.2617866"><ele>-1.0</ele><time>2026-05-03T10:50:11.132Z</time></trkpt><trkpt lat="45.1154086" lon="12.2619277"><ele>-1.0</ele><time>2026-05-03T10:50:13.132Z</time></trkpt><trkpt lat="45.1154599" lon="12.2620638"><ele>-1.0</ele><time>2026-05-03T10:50:15.131Z</time></trkpt><trkpt lat="45.115508" lon="12.2621952"><ele>-1.0</ele><time>2026-05-03T10:50:17.131Z</time></trkpt><trkpt lat="45.1155548" lon="12.2623241"><ele>-1.0</ele><time>2026-05-03T10:50:19.127Z</time></trkpt><trkpt lat="45.1155959" lon="12.2624619"><ele>-0.8</ele><time>2026-05-03T10:50:21.133Z</time></trkpt><trkpt lat="45.1156409" lon="12.2626018"><ele>-0.6000000000000001</ele><time>2026-05-03T10:50:23.139Z</time></trkpt><trkpt lat="45.1156867" lon="12.2627371"><ele>-0.4</ele><time>2026-05-03T10:50:25.129Z</time></trkpt><trkpt lat="45.115729" lon="12.2628721"><ele>-0.2</ele><time>2026-05-03T10:50:27.131Z</time></trkpt><trkpt lat="45.1157748" lon="12.2630106"><ele>0.0</ele><time>2026-05-03T10:50:29.129Z</time></trkpt><trkpt lat="45.1158282" lon="12.2631506"><ele>0.0</ele><time>2026-05-03T10:50:31.137Z</time></trkpt><trkpt lat="45.1158796" lon="12.2632871"><ele>0.0</ele><time>2026-05-03T10:50:33.127Z</time></trkpt><trkpt lat="45.1159301" lon="12.2634236"><ele>0.0</ele><time>2026-05-03T10:50:35.136Z</time></trkpt><trkpt lat="45.1159797" lon="12.2635601"><ele>0.0</ele><time>2026-05-03T10:50:37.136Z</time></trkpt><trkpt lat="45.1160273" lon="12.2636944"><ele>0.0</ele><time>2026-05-03T10:50:39.134Z</time></trkpt><trkpt lat="45.1160781" lon="12.2638255"><ele>0.0</ele><time>2026-05-03T10:50:41.126Z</time></trkpt><trkpt lat="45.1161247" lon="12.2639594"><ele>0.0</ele><time>2026-05-03T10:50:43.139Z</time></trkpt><trkpt lat="45.1161741" lon="12.2640943"><ele>0.0</ele><time>2026-05-03T10:50:45.131Z</time></trkpt><trkpt lat="45.1162228" lon="12.2642252"><ele>0.0</ele><time>2026-05-03T10:50:47.128Z</time></trkpt><trkpt lat="45.1162725" lon="12.2643579"><ele>0.0</ele><time>2026-05-03T10:50:49.128Z</time></trkpt><trkpt lat="45.1163191" lon="12.2644886"><ele>0.0</ele><time>2026-05-03T10:50:51.14Z</time></trkpt><trkpt lat="45.1163658" lon="12.2646106"><ele>0.0</ele><time>2026-05-03T10:50:53.14Z</time></trkpt><trkpt lat="45.1164059" lon="12.2647239"><ele>0.0</ele><time>2026-05-03T10:50:55.137Z</time></trkpt><trkpt lat="45.1164479" lon="12.2648298"><ele>0.0</ele><time>2026-05-03T10:50:57.131Z</time></trkpt><trkpt lat="45.1164835" lon="12.2649246"><ele>0.0</ele><time>2026-05-03T10:50:59.132Z</time></trkpt><trkpt lat="45.1165149" lon="12.2650141"><ele>0.0</ele><time>2026-05-03T10:51:01.135Z</time></trkpt><trkpt lat="45.1165454" lon="12.2650998"><ele>0.0</ele><time>2026-05-03T10:51:03.139Z</time></trkpt><trkpt lat="45.1165862" lon="12.2652148"><ele>0.0</ele><time>2026-05-03T10:51:06.13Z</time></trkpt><trkpt lat="45.1166241" lon="12.2653359"><ele>0.0</ele><time>2026-05-03T10:51:09.136Z</time></trkpt><trkpt lat="45.1166575" lon="12.2654346"><ele>0.0</ele><time>2026-05-03T10:51:11.126Z</time></trkpt><trkpt lat="45.1166913" lon="12.2655438"><ele>0.0</ele><time>2026-05-03T10:51:13.137Z</time></trkpt><trkpt lat="45.1167311" lon="12.2656583"><ele>0.0</ele><time>2026-05-03T10:51:15.138Z</time></trkpt><trkpt lat="45.1167827" lon="12.2657707"><ele>0.0</ele><time>2026-05-03T10:51:17.128Z</time></trkpt><trkpt lat="45.1168323" lon="12.2658856"><ele>0.0</ele><time>2026-05-03T10:51:19.127Z</time></trkpt><trkpt lat="45.1168782" lon="12.2660055"><ele>0.0</ele><time>2026-05-03T10:51:21.133Z</time></trkpt><trkpt lat="45.116923" lon="12.26612"><ele>0.0</ele><time>2026-05-03T10:51:23.138Z</time></trkpt><trkpt lat="45.1169668" lon="12.2662345"><ele>0.0</ele><time>2026-05-03T10:51:25.136Z</time></trkpt><trkpt lat="45.1170118" lon="12.2663496"><ele>0.0</ele><time>2026-05-03T10:51:27.136Z</time></trkpt><trkpt lat="45.1170626" lon="12.2664654"><ele>0.0</ele><time>2026-05-03T10:51:29.132Z</time></trkpt><trkpt lat="45.1171172" lon="12.2665827"><ele>0.0</ele><time>2026-05-03T10:51:31.137Z</time></trkpt><trkpt lat="45.1171722" lon="12.2666996"><ele>0.0</ele><time>2026-05-03T10:51:33.136Z</time></trkpt><trkpt lat="45.1172296" lon="12.2668146"><ele>0.0</ele><time>2026-05-03T10:51:35.135Z</time></trkpt><trkpt lat="45.1172923" lon="12.2669278"><ele>0.0</ele><time>2026-05-03T10:51:37.136Z</time></trkpt><trkpt lat="45.1173576" lon="12.267045"><ele>0.0</ele><time>2026-05-03T10:51:39.131Z</time></trkpt><trkpt lat="45.1174267" lon="12.2671558"><ele>0.0</ele><time>2026-05-03T10:51:41.134Z</time></trkpt><trkpt lat="45.1175001" lon="12.2672622"><ele>0.0</ele><time>2026-05-03T10:51:43.133Z</time></trkpt><trkpt lat="45.1175797" lon="12.2673656"><ele>0.0</ele><time>2026-05-03T10:51:45.131Z</time></trkpt><trkpt lat="45.1176614" lon="12.267469"><ele>0.0</ele><time>2026-05-03T10:51:47.127Z</time></trkpt><trkpt lat="45.1177413" lon="12.2675676"><ele>0.0</ele><time>2026-05-03T10:51:49.13Z</time></trkpt><trkpt lat="45.1178172" lon="12.2676612"><ele>0.0</ele><time>2026-05-03T10:51:51.136Z</time></trkpt><trkpt lat="45.1178923" lon="12.2677521"><ele>0.0</ele><time>2026-05-03T10:51:53.139Z</time></trkpt><trkpt lat="45.1179709" lon="12.2678448"><ele>0.0</ele><time>2026-05-03T10:51:55.135Z</time></trkpt><trkpt lat="45.1180489" lon="12.2679388"><ele>0.0</ele><time>2026-05-03T10:51:57.131Z</time></trkpt><trkpt lat="45.1181267" lon="12.2680305"><ele>0.0</ele><time>2026-05-03T10:51:59.132Z</time></trkpt><trkpt lat="45.1182094" lon="12.2681197"><ele>0.0</ele><time>2026-05-03T10:52:01.136Z</time></trkpt><trkpt lat="45.1182931" lon="12.2681941"><ele>0.0</ele><time>2026-05-03T10:52:03.137Z</time></trkpt><trkpt lat="45.1183705" lon="12.2682662"><ele>0.0</ele><time>2026-05-03T10:52:05.135Z</time></trkpt><trkpt lat="45.1184443" lon="12.2683377"><ele>-0.16666666666666666</ele><time>2026-05-03T10:52:07.134Z</time></trkpt><trkpt lat="45.1185185" lon="12.2683971"><ele>-0.3333333333333333</ele><time>2026-05-03T10:52:09.13Z</time></trkpt><trkpt lat="45.1185932" lon="12.2684573"><ele>-0.5</ele><time>2026-05-03T10:52:11.127Z</time></trkpt><trkpt lat="45.1186707" lon="12.2685304"><ele>-0.6666666666666666</ele><time>2026-05-03T10:52:13.135Z</time></trkpt><trkpt lat="45.1187509" lon="12.2685754"><ele>-0.8333333333333333</ele><time>2026-05-03T10:52:15.133Z</time></trkpt><trkpt lat="45.1188229" lon="12.2685111"><ele>-1.0</ele><time>2026-05-03T10:52:17.128Z</time></trkpt><trkpt lat="45.1188379" lon="12.2683702"><ele>-1.0</ele><time>2026-05-03T10:52:19.138Z</time></trkpt><trkpt lat="45.1188361" lon="12.2682301"><ele>-1.0</ele><time>2026-05-03T10:52:21.127Z</time></trkpt><trkpt lat="45.1188577" lon="12.2681004"><ele>-1.0</ele><time>2026-05-03T10:52:23.137Z</time></trkpt><trkpt lat="45.1189545" lon="12.2680421"><ele>-1.0</ele><time>2026-05-03T10:52:25.127Z</time></trkpt><trkpt lat="45.1190194" lon="12.268038"><ele>-1.0</ele><time>2026-05-03T10:52:26.124Z</time></trkpt><trkpt lat="45.1191389" lon="12.2680293"><ele>-1.0</ele><time>2026-05-03T10:52:28.125Z</time></trkpt><trkpt lat="45.1192463" lon="12.268011"><ele>-1.0</ele><time>2026-05-03T10:52:30.13Z</time></trkpt><trkpt lat="45.1193524" lon="12.2679905"><ele>-1.0</ele><time>2026-05-03T10:52:32.123Z</time></trkpt><trkpt lat="45.1194578" lon="12.2679733"><ele>-1.0</ele><time>2026-05-03T10:52:34.123Z</time></trkpt><trkpt lat="45.1195582" lon="12.2679498"><ele>-1.0</ele><time>2026-05-03T10:52:36.132Z</time></trkpt><trkpt lat="45.1196597" lon="12.2679266"><ele>-1.0</ele><time>2026-05-03T10:52:38.129Z</time></trkpt><trkpt lat="45.1197606" lon="12.2679049"><ele>-1.0</ele><time>2026-05-03T10:52:40.127Z</time></trkpt><trkpt lat="45.1198637" lon="12.2678817"><ele>-1.0</ele><time>2026-05-03T10:52:42.133Z</time></trkpt><trkpt lat="45.119966" lon="12.2678594"><ele>-1.0</ele><time>2026-05-03T10:52:44.13Z</time></trkpt><trkpt lat="45.1200681" lon="12.2678389"><ele>-1.0</ele><time>2026-05-03T10:52:46.136Z</time></trkpt><trkpt lat="45.1201732" lon="12.2678179"><ele>-1.0</ele><time>2026-05-03T10:52:48.13Z</time></trkpt><trkpt lat="45.1202781" lon="12.2677953"><ele>-1.0</ele><time>2026-05-03T10:52:50.133Z</time></trkpt><trkpt lat="45.1203819" lon="12.267776"><ele>-1.0</ele><time>2026-05-03T10:52:52.135Z</time></trkpt><trkpt lat="45.1204851" lon="12.2677563"><ele>-1.0</ele><time>2026-05-03T10:52:54.127Z</time></trkpt><trkpt lat="45.1205881" lon="12.2677355"><ele>-1.0</ele><time>2026-05-03T10:52:56.129Z</time></trkpt><trkpt lat="45.1206882" lon="12.2676944"><ele>-1.0</ele><time>2026-05-03T10:52:58.126Z</time></trkpt><trkpt lat="45.120774" lon="12.2676141"><ele>-1.0</ele><time>2026-05-03T10:53:00.132Z</time></trkpt><trkpt lat="45.1208609" lon="12.2675313"><ele>-1.0</ele><time>2026-05-03T10:53:02.131Z</time></trkpt><trkpt lat="45.1209555" lon="12.2674834"><ele>-1.0</ele><time>2026-05-03T10:53:04.126Z</time></trkpt><trkpt lat="45.1210531" lon="12.2674594"><ele>-1.0</ele><time>2026-05-03T10:53:06.133Z</time></trkpt><trkpt lat="45.1211515" lon="12.2674507"><ele>-0.9999999999999999</ele><time>2026-05-03T10:53:08.128Z</time></trkpt><trkpt lat="45.1212382" lon="12.2674504"><ele>-1.0</ele><time>2026-05-03T10:53:10.123Z</time></trkpt><trkpt lat="45.1213175" lon="12.2674696"><ele>-1.0</ele><time>2026-05-03T10:53:12.126Z</time></trkpt><trkpt lat="45.1214012" lon="12.2674887"><ele>-1.0</ele><time>2026-05-03T10:53:14.126Z</time></trkpt><trkpt lat="45.1214817" lon="12.2675036"><ele>-0.9999999999999999</ele><time>2026-05-03T10:53:16.125Z</time></trkpt><trkpt lat="45.1215581" lon="12.2675172"><ele>-1.0</ele><time>2026-05-03T10:53:18.124Z</time></trkpt><trkpt lat="45.121642" lon="12.2675282"><ele>-1.2000000000000002</ele><time>2026-05-03T10:53:20.129Z</time></trkpt><trkpt lat="45.121741" lon="12.2675292"><ele>-1.4000000000000001</ele><time>2026-05-03T10:53:22.131Z</time></trkpt><trkpt lat="45.1218478" lon="12.267511"><ele>-1.6</ele><time>2026-05-03T10:53:24.132Z</time></trkpt><trkpt lat="45.1219554" lon="12.2674857"><ele>-1.8</ele><time>2026-05-03T10:53:26.131Z</time></trkpt><trkpt lat="45.122063" lon="12.2674622"><ele>-2.0</ele><time>2026-05-03T10:53:28.13Z</time></trkpt><trkpt lat="45.1221744" lon="12.2674401"><ele>-2.0</ele><time>2026-05-03T10:53:30.128Z</time></trkpt><trkpt lat="45.1222814" lon="12.2674171"><ele>-2.0</ele><time>2026-05-03T10:53:32.125Z</time></trkpt><trkpt lat="45.1223856" lon="12.2673873"><ele>-2.0</ele><time>2026-05-03T10:53:34.127Z</time></trkpt><trkpt lat="45.1224933" lon="12.2673617"><ele>-2.0</ele><time>2026-05-03T10:53:36.128Z</time></trkpt><trkpt lat="45.1226039" lon="12.2673419"><ele>-2.0</ele><time>2026-05-03T10:53:38.127Z</time></trkpt><trkpt lat="45.1227138" lon="12.2673237"><ele>-2.2</ele><time>2026-05-03T10:53:40.128Z</time></trkpt><trkpt lat="45.1228164" lon="12.2673014"><ele>-2.4000000000000004</ele><time>2026-05-03T10:53:42.127Z</time></trkpt><trkpt lat="45.1229184" lon="12.2672882"><ele>-2.5999999999999996</ele><time>2026-05-03T10:53:44.128Z</time></trkpt><trkpt lat="45.1230207" lon="12.2672685"><ele>-2.8</ele><time>2026-05-03T10:53:46.131Z</time></trkpt><trkpt lat="45.1231176" lon="12.267245"><ele>-3.0</ele><time>2026-05-03T10:53:48.131Z</time></trkpt><trkpt lat="45.1232118" lon="12.2672223"><ele>-1.7999999999999998</ele><time>2026-05-03T10:53:50.13Z</time></trkpt><trkpt lat="45.1233079" lon="12.2672041"><ele>-0.5999999999999999</ele><time>2026-05-03T10:53:52.132Z</time></trkpt><trkpt lat="45.1234097" lon="12.2671891"><ele>0.5999999999999999</ele><time>2026-05-03T10:53:54.126Z</time></trkpt><trkpt lat="45.1235114" lon="12.2671706"><ele>1.7999999999999998</ele><time>2026-05-03T10:53:56.132Z</time></trkpt><trkpt lat="45.1236132" lon="12.2671488"><ele>3.0</ele><time>2026-05-03T10:53:58.129Z</time></trkpt><trkpt lat="45.1237173" lon="12.2671355"><ele>3.0</ele><time>2026-05-03T10:54:00.128Z</time></trkpt><trkpt lat="45.1238247" lon="12.2671232"><ele>3.0</ele><time>2026-05-03T10:54:02.131Z</time></trkpt><trkpt lat="45.1239324" lon="12.2671282"><ele>3.0</ele><time>2026-05-03T10:54:04.129Z</time></trkpt><trkpt lat="45.1240397" lon="12.2671527"><ele>3.0</ele><time>2026-05-03T10:54:06.128Z</time></trkpt><trkpt lat="45.1241392" lon="12.2671836"><ele>3.0</ele><time>2026-05-03T10:54:08.13Z</time></trkpt><trkpt lat="45.1242358" lon="12.2672088"><ele>3.0</ele><time>2026-05-03T10:54:10.129Z</time></trkpt><trkpt lat="45.1243305" lon="12.2672173"><ele>3.0</ele><time>2026-05-03T10:54:12.13Z</time></trkpt><trkpt lat="45.1244223" lon="12.2672165"><ele>3.0</ele><time>2026-05-03T10:54:14.124Z</time></trkpt><trkpt lat="45.1245179" lon="12.2672195"><ele>3.0</ele><time>2026-05-03T10:54:16.136Z</time></trkpt><trkpt lat="45.1246162" lon="12.2672201"><ele>3.0</ele><time>2026-05-03T10:54:18.134Z</time></trkpt><trkpt lat="45.1247198" lon="12.2672258"><ele>3.0</ele><time>2026-05-03T10:54:20.132Z</time></trkpt><trkpt lat="45.1248299" lon="12.2672374"><ele>3.0</ele><time>2026-05-03T10:54:22.132Z</time></trkpt><trkpt lat="45.12493" lon="12.2672556"><ele>3.0</ele><time>2026-05-03T10:54:24.134Z</time></trkpt><trkpt lat="45.1250179" lon="12.267274"><ele>3.0</ele><time>2026-05-03T10:54:26.13Z</time></trkpt><trkpt lat="45.1251084" lon="12.2672912"><ele>3.0</ele><time>2026-05-03T10:54:28.127Z</time></trkpt><trkpt lat="45.125202" lon="12.2673128"><ele>2.6666666666666665</ele><time>2026-05-03T10:54:30.127Z</time></trkpt><trkpt lat="45.1252824" lon="12.2673409"><ele>2.3333333333333335</ele><time>2026-05-03T10:54:32.131Z</time></trkpt><trkpt lat="45.1253578" lon="12.2673755"><ele>2.0</ele><time>2026-05-03T10:54:34.126Z</time></trkpt><trkpt lat="45.1254338" lon="12.2673745"><ele>1.6666666666666665</ele><time>2026-05-03T10:54:36.125Z</time></trkpt><trkpt lat="45.1255026" lon="12.2673659"><ele>1.3333333333333333</ele><time>2026-05-03T10:54:38.132Z</time></trkpt><trkpt lat="45.1255673" lon="12.2673562"><ele>1.0</ele><time>2026-05-03T10:54:40.126Z</time></trkpt><trkpt lat="45.1256588" lon="12.2673397"><ele>1.1666666666666665</ele><time>2026-05-03T10:54:43.128Z</time></trkpt><trkpt lat="45.1257296" lon="12.2673415"><ele>1.3333333333333333</ele><time>2026-05-03T10:54:45.128Z</time></trkpt><trkpt lat="45.1258042" lon="12.2673424"><ele>1.5</ele><time>2026-05-03T10:54:47.126Z</time></trkpt><trkpt lat="45.1258814" lon="12.2673402"><ele>1.6666666666666665</ele><time>2026-05-03T10:54:49.127Z</time></trkpt><trkpt lat="45.1259614" lon="12.2673464"><ele>1.8333333333333333</ele><time>2026-05-03T10:54:51.126Z</time></trkpt><trkpt lat="45.1260284" lon="12.2673699"><ele>2.0</ele><time>2026-05-03T10:54:53.128Z</time></trkpt><trkpt lat="45.1261037" lon="12.2674085"><ele>1.9999999999999998</ele><time>2026-05-03T10:54:55.128Z</time></trkpt><trkpt lat="45.126179" lon="12.2674557"><ele>2.0</ele><time>2026-05-03T10:54:57.127Z</time></trkpt><trkpt lat="45.1262555" lon="12.2675047"><ele>2.0</ele><time>2026-05-03T10:54:59.124Z</time></trkpt><trkpt lat="45.1263366" lon="12.2675527"><ele>2.0</ele><time>2026-05-03T10:55:01.13Z</time></trkpt><trkpt lat="45.1264161" lon="12.2675841"><ele>1.9999999999999998</ele><time>2026-05-03T10:55:03.123Z</time></trkpt><trkpt lat="45.1264994" lon="12.2676052"><ele>2.0</ele><time>2026-05-03T10:55:05.129Z</time></trkpt><trkpt lat="45.1265873" lon="12.2676174"><ele>2.6666666666666665</ele><time>2026-05-03T10:55:07.129Z</time></trkpt><trkpt lat="45.1266741" lon="12.2676234"><ele>3.333333333333333</ele><time>2026-05-03T10:55:09.129Z</time></trkpt><trkpt lat="45.1267575" lon="12.2676123"><ele>4.0</ele><time>2026-05-03T10:55:11.126Z</time></trkpt><trkpt lat="45.1268425" lon="12.267599"><ele>4.666666666666667</ele><time>2026-05-03T10:55:13.126Z</time></trkpt><trkpt lat="45.1269197" lon="12.2675857"><ele>5.333333333333333</ele><time>2026-05-03T10:55:15.135Z</time></trkpt><trkpt lat="45.1270003" lon="12.2675789"><ele>6.0</ele><time>2026-05-03T10:55:17.128Z</time></trkpt><trkpt lat="45.1270895" lon="12.2675816"><ele>6.0</ele><time>2026-05-03T10:55:19.125Z</time></trkpt><trkpt lat="45.1271812" lon="12.2675866"><ele>6.0</ele><time>2026-05-03T10:55:21.13Z</time></trkpt><trkpt lat="45.1272687" lon="12.2675971"><ele>6.0</ele><time>2026-05-03T10:55:23.134Z</time></trkpt><trkpt lat="45.1273516" lon="12.26761"><ele>6.0</ele><time>2026-05-03T10:55:25.122Z</time></trkpt><trkpt lat="45.1274322" lon="12.2676185"><ele>6.0</ele><time>2026-05-03T10:55:27.133Z</time></trkpt><trkpt lat="45.1275162" lon="12.2676233"><ele>6.0</ele><time>2026-05-03T10:55:29.126Z</time></trkpt><trkpt lat="45.1276032" lon="12.2676265"><ele>6.4</ele><time>2026-05-03T10:55:31.128Z</time></trkpt><trkpt lat="45.1276977" lon="12.2676333"><ele>6.8</ele><time>2026-05-03T10:55:33.13Z</time></trkpt><trkpt lat="45.1277962" lon="12.267645"><ele>7.200000000000001</ele><time>2026-05-03T10:55:35.127Z</time></trkpt><trkpt lat="45.1278903" lon="12.2676575"><ele>7.6000000000000005</ele><time>2026-05-03T10:55:37.131Z</time></trkpt><trkpt lat="45.1279942" lon="12.2676718"><ele>8.0</ele><time>2026-05-03T10:55:39.129Z</time></trkpt><trkpt lat="45.1280902" lon="12.2676794"><ele>8.0</ele><time>2026-05-03T10:55:41.131Z</time></trkpt><trkpt lat="45.128182" lon="12.2676887"><ele>8.0</ele><time>2026-05-03T10:55:43.124Z</time></trkpt><trkpt lat="45.1282707" lon="12.2676976"><ele>8.0</ele><time>2026-05-03T10:55:45.128Z</time></trkpt><trkpt lat="45.1283556" lon="12.2677133"><ele>8.0</ele><time>2026-05-03T10:55:47.129Z</time></trkpt><trkpt lat="45.1284482" lon="12.2677398"><ele>8.0</ele><time>2026-05-03T10:55:49.126Z</time></trkpt><trkpt lat="45.1285378" lon="12.2677629"><ele>7.800000000000001</ele><time>2026-05-03T10:55:51.125Z</time></trkpt><trkpt lat="45.1286303" lon="12.267777"><ele>7.6000000000000005</ele><time>2026-05-03T10:55:53.127Z</time></trkpt><trkpt lat="45.128731" lon="12.2677912"><ele>7.3999999999999995</ele><time>2026-05-03T10:55:55.133Z</time></trkpt><trkpt lat="45.1288344" lon="12.2678077"><ele>7.199999999999999</ele><time>2026-05-03T10:55:57.129Z</time></trkpt><trkpt lat="45.1289296" lon="12.2678218"><ele>7.0</ele><time>2026-05-03T10:55:59.134Z</time></trkpt><trkpt lat="45.1290358" lon="12.267841"><ele>6.5</ele><time>2026-05-03T10:56:01.134Z</time></trkpt><trkpt lat="45.1291564" lon="12.267852"><ele>6.0</ele><time>2026-05-03T10:56:03.132Z</time></trkpt><trkpt lat="45.1292695" lon="12.2678624"><ele>5.5</ele><time>2026-05-03T10:56:05.126Z</time></trkpt><trkpt lat="45.1293803" lon="12.2678737"><ele>5.0</ele><time>2026-05-03T10:56:07.125Z</time></trkpt><trkpt lat="45.1294864" lon="12.267878"><ele>5.0</ele><time>2026-05-03T10:56:09.13Z</time></trkpt><trkpt lat="45.1295866" lon="12.2678791"><ele>5.0</ele><time>2026-05-03T10:56:11.132Z</time></trkpt><trkpt lat="45.1296856" lon="12.2678833"><ele>5.0</ele><time>2026-05-03T10:56:13.129Z</time></trkpt><trkpt lat="45.1297797" lon="12.2678886"><ele>5.0</ele><time>2026-05-03T10:56:15.128Z</time></trkpt><trkpt lat="45.1298719" lon="12.2678988"><ele>5.0</ele><time>2026-05-03T10:56:17.128Z</time></trkpt><trkpt lat="45.1299808" lon="12.2678998"><ele>5.2</ele><time>2026-05-03T10:56:19.124Z</time></trkpt><trkpt lat="45.130084" lon="12.2678999"><ele>5.4</ele><time>2026-05-03T10:56:21.128Z</time></trkpt><trkpt lat="45.1301839" lon="12.2679019"><ele>5.6</ele><time>2026-05-03T10:56:23.13Z</time></trkpt><trkpt lat="45.1302845" lon="12.2679071"><ele>5.8</ele><time>2026-05-03T10:56:25.124Z</time></trkpt><trkpt lat="45.1303842" lon="12.2679138"><ele>6.0</ele><time>2026-05-03T10:56:27.129Z</time></trkpt><trkpt lat="45.1304766" lon="12.2679165"><ele>6.0</ele><time>2026-05-03T10:56:29.128Z</time></trkpt><trkpt lat="45.130583" lon="12.2679218"><ele>6.0</ele><time>2026-05-03T10:56:31.131Z</time></trkpt><trkpt lat="45.1306879" lon="12.2679288"><ele>6.0</ele><time>2026-05-03T10:56:33.131Z</time></trkpt><trkpt lat="45.1307892" lon="12.267938"><ele>6.0</ele><time>2026-05-03T10:56:35.123Z</time></trkpt><trkpt lat="45.1309097" lon="12.2679555"><ele>6.0</ele><time>2026-05-03T10:56:37.126Z</time></trkpt><trkpt lat="45.1310217" lon="12.2679691"><ele>6.0</ele><time>2026-05-03T10:56:39.127Z</time></trkpt><trkpt lat="45.1311294" lon="12.2679829"><ele>6.0</ele><time>2026-05-03T10:56:41.132Z</time></trkpt><trkpt lat="45.1312354" lon="12.2679974"><ele>6.0</ele><time>2026-05-03T10:56:43.131Z</time></trkpt><trkpt lat="45.1313375" lon="12.2680165"><ele>6.0</ele><time>2026-05-03T10:56:45.126Z</time></trkpt><trkpt lat="45.1314345" lon="12.2680282"><ele>6.0</ele><time>2026-05-03T10:56:47.131Z</time></trkpt><trkpt lat="45.1315304" lon="12.2680411"><ele>6.0</ele><time>2026-05-03T10:56:49.135Z</time></trkpt><trkpt lat="45.1316213" lon="12.268054"><ele>6.0</ele><time>2026-05-03T10:56:51.127Z</time></trkpt><trkpt lat="45.1317177" lon="12.2680674"><ele>6.0</ele><time>2026-05-03T10:56:53.136Z</time></trkpt><trkpt lat="45.1318172" lon="12.26808"><ele>6.0</ele><time>2026-05-03T10:56:55.132Z</time></trkpt><trkpt lat="45.1319208" lon="12.2680889"><ele>6.0</ele><time>2026-05-03T10:56:57.131Z</time></trkpt><trkpt lat="45.1320246" lon="12.2680964"><ele>5.0</ele><time>2026-05-03T10:56:59.133Z</time></trkpt><trkpt lat="45.1321304" lon="12.2681113"><ele>3.9999999999999996</ele><time>2026-05-03T10:57:01.134Z</time></trkpt><trkpt lat="45.1322352" lon="12.2681252"><ele>3.0</ele><time>2026-05-03T10:57:03.136Z</time></trkpt><trkpt lat="45.1323379" lon="12.2681369"><ele>2.0</ele><time>2026-05-03T10:57:05.132Z</time></trkpt><trkpt lat="45.1324407" lon="12.2681516"><ele>1.0</ele><time>2026-05-03T10:57:07.127Z</time></trkpt><trkpt lat="45.1325453" lon="12.2681678"><ele>1.0</ele><time>2026-05-03T10:57:09.125Z</time></trkpt><trkpt lat="45.1326535" lon="12.2681828"><ele>1.0</ele><time>2026-05-03T10:57:11.13Z</time></trkpt><trkpt lat="45.1327624" lon="12.2681947"><ele>1.0</ele><time>2026-05-03T10:57:13.132Z</time></trkpt><trkpt lat="45.1328672" lon="12.2682066"><ele>1.0</ele><time>2026-05-03T10:57:15.128Z</time></trkpt><trkpt lat="45.1329689" lon="12.268214"><ele>1.0</ele><time>2026-05-03T10:57:17.129Z</time></trkpt><trkpt lat="45.1330646" lon="12.26823"><ele>1.0</ele><time>2026-05-03T10:57:19.133Z</time></trkpt><trkpt lat="45.1331738" lon="12.2682474"><ele>1.0</ele><time>2026-05-03T10:57:21.125Z</time></trkpt><trkpt lat="45.1332755" lon="12.2682548"><ele>1.0</ele><time>2026-05-03T10:57:23.131Z</time></trkpt><trkpt lat="45.133372" lon="12.2682583"><ele>1.0</ele><time>2026-05-03T10:57:25.13Z</time></trkpt><trkpt lat="45.1334683" lon="12.2682656"><ele>1.0</ele><time>2026-05-03T10:57:27.131Z</time></trkpt><trkpt lat="45.1335724" lon="12.2682765"><ele>1.8</ele><time>2026-05-03T10:57:29.13Z</time></trkpt><trkpt lat="45.1336717" lon="12.2682909"><ele>2.6</ele><time>2026-05-03T10:57:31.127Z</time></trkpt><trkpt lat="45.1337659" lon="12.2682997"><ele>3.4</ele><time>2026-05-03T10:57:33.126Z</time></trkpt><trkpt lat="45.133868" lon="12.2683076"><ele>4.2</ele><time>2026-05-03T10:57:35.124Z</time></trkpt><trkpt lat="45.1339766" lon="12.2683163"><ele>5.0</ele><time>2026-05-03T10:57:37.131Z</time></trkpt><trkpt lat="45.1340926" lon="12.2683312"><ele>5.0</ele><time>2026-05-03T10:57:39.125Z</time></trkpt><trkpt lat="45.1342062" lon="12.2683467"><ele>5.0</ele><time>2026-05-03T10:57:41.127Z</time></trkpt><trkpt lat="45.1343194" lon="12.2683613"><ele>5.0</ele><time>2026-05-03T10:57:43.131Z</time></trkpt><trkpt lat="45.13442" lon="12.2683643"><ele>5.0</ele><time>2026-05-03T10:57:45.128Z</time></trkpt><trkpt lat="45.1345188" lon="12.2683674"><ele>5.0</ele><time>2026-05-03T10:57:47.13Z</time></trkpt><trkpt lat="45.1346142" lon="12.2683698"><ele>5.0</ele><time>2026-05-03T10:57:49.125Z</time></trkpt><trkpt lat="45.1347141" lon="12.2683743"><ele>5.0</ele><time>2026-05-03T10:57:51.129Z</time></trkpt><trkpt lat="45.1348137" lon="12.268388"><ele>5.0</ele><time>2026-05-03T10:57:53.132Z</time></trkpt><trkpt lat="45.1349111" lon="12.2683975"><ele>5.0</ele><time>2026-05-03T10:57:55.125Z</time></trkpt><trkpt lat="45.1350231" lon="12.2684229"><ele>5.0</ele><time>2026-05-03T10:57:57.131Z</time></trkpt><trkpt lat="45.1351336" lon="12.2684378"><ele>5.0</ele><time>2026-05-03T10:57:59.128Z</time></trkpt><trkpt lat="45.1352523" lon="12.268447"><ele>5.0</ele><time>2026-05-03T10:58:01.127Z</time></trkpt><trkpt lat="45.1353693" lon="12.2684578"><ele>5.0</ele><time>2026-05-03T10:58:03.128Z</time></trkpt><trkpt lat="45.1354815" lon="12.2684709"><ele>5.0</ele><time>2026-05-03T10:58:05.126Z</time></trkpt><trkpt lat="45.1355952" lon="12.2684832"><ele>5.0</ele><time>2026-05-03T10:58:07.128Z</time></trkpt><trkpt lat="45.1357073" lon="12.2684963"><ele>5.0</ele><time>2026-05-03T10:58:09.126Z</time></trkpt><trkpt lat="45.1358138" lon="12.2685062"><ele>5.0</ele><time>2026-05-03T10:58:11.128Z</time></trkpt><trkpt lat="45.1359192" lon="12.2685136"><ele>5.0</ele><time>2026-05-03T10:58:13.127Z</time></trkpt><trkpt lat="45.1360234" lon="12.2685187"><ele>5.0</ele><time>2026-05-03T10:58:15.131Z</time></trkpt><trkpt lat="45.1361257" lon="12.2685291"><ele>4.8</ele><time>2026-05-03T10:58:17.124Z</time></trkpt><trkpt lat="45.136223" lon="12.2685416"><ele>4.6</ele><time>2026-05-03T10:58:19.127Z</time></trkpt><trkpt lat="45.1363224" lon="12.2685476"><ele>4.4</ele><time>2026-05-03T10:58:21.129Z</time></trkpt><trkpt lat="45.1364229" lon="12.2685549"><ele>4.2</ele><time>2026-05-03T10:58:23.129Z</time></trkpt><trkpt lat="45.136532" lon="12.2685574"><ele>4.0</ele><time>2026-05-03T10:58:25.128Z</time></trkpt><trkpt lat="45.1366351" lon="12.2685568"><ele>3.8000000000000003</ele><time>2026-05-03T10:58:27.129Z</time></trkpt><trkpt lat="45.1367307" lon="12.268561"><ele>3.6000000000000005</ele><time>2026-05-03T10:58:29.128Z</time></trkpt><trkpt lat="45.1368375" lon="12.26857"><ele>3.4</ele><time>2026-05-03T10:58:31.125Z</time></trkpt><trkpt lat="45.136939" lon="12.2685806"><ele>3.2</ele><time>2026-05-03T10:58:33.123Z</time></trkpt><trkpt lat="45.1370434" lon="12.2685904"><ele>3.0</ele><time>2026-05-03T10:58:35.13Z</time></trkpt><trkpt lat="45.1371485" lon="12.2685987"><ele>3.0</ele><time>2026-05-03T10:58:37.126Z</time></trkpt><trkpt lat="45.1372517" lon="12.2686084"><ele>3.0</ele><time>2026-05-03T10:58:39.132Z</time></trkpt><trkpt lat="45.1373533" lon="12.2686191"><ele>3.0</ele><time>2026-05-03T10:58:41.127Z</time></trkpt><trkpt lat="45.137447" lon="12.2686264"><ele>3.0</ele><time>2026-05-03T10:58:43.136Z</time></trkpt><trkpt lat="45.1375343" lon="12.2686363"><ele>3.0</ele><time>2026-05-03T10:58:45.127Z</time></trkpt><trkpt lat="45.1376136" lon="12.2686465"><ele>2.9999999999999996</ele><time>2026-05-03T10:58:47.128Z</time></trkpt><trkpt lat="45.1376937" lon="12.2686556"><ele>3.0</ele><time>2026-05-03T10:58:49.135Z</time></trkpt><trkpt lat="45.1377676" lon="12.2686629"><ele>3.0</ele><time>2026-05-03T10:58:51.13Z</time></trkpt><trkpt lat="45.1378363" lon="12.2686699"><ele>3.0</ele><time>2026-05-03T10:58:53.13Z</time></trkpt><trkpt lat="45.1378997" lon="12.2686723"><ele>3.0</ele><time>2026-05-03T10:58:55.127Z</time></trkpt><trkpt lat="45.1379675" lon="12.2686828"><ele>2.9999999999999996</ele><time>2026-05-03T10:58:57.13Z</time></trkpt><trkpt lat="45.1380414" lon="12.2686951"><ele>3.0</ele><time>2026-05-03T10:58:59.139Z</time></trkpt><trkpt lat="45.1381203" lon="12.26871"><ele>3.0</ele><time>2026-05-03T10:59:01.134Z</time></trkpt><trkpt lat="45.1382039" lon="12.2687194"><ele>3.0</ele><time>2026-05-03T10:59:03.132Z</time></trkpt><trkpt lat="45.1382879" lon="12.2687266"><ele>3.0</ele><time>2026-05-03T10:59:05.129Z</time></trkpt><trkpt lat="45.1383755" lon="12.2687401"><ele>3.0</ele><time>2026-05-03T10:59:07.122Z</time></trkpt><trkpt lat="45.1384702" lon="12.2687532"><ele>3.0</ele><time>2026-05-03T10:59:09.141Z</time></trkpt><trkpt lat="45.1385644" lon="12.2687683"><ele>3.0</ele><time>2026-05-03T10:59:11.134Z</time></trkpt><trkpt lat="45.1386563" lon="12.2687811"><ele>3.0</ele><time>2026-05-03T10:59:13.133Z</time></trkpt><trkpt lat="45.1387485" lon="12.2687976"><ele>3.0</ele><time>2026-05-03T10:59:15.134Z</time></trkpt><trkpt lat="45.1388405" lon="12.2688188"><ele>3.0</ele><time>2026-05-03T10:59:17.13Z</time></trkpt><trkpt lat="45.1389329" lon="12.2688385"><ele>3.0</ele><time>2026-05-03T10:59:19.129Z</time></trkpt><trkpt lat="45.1390262" lon="12.2688579"><ele>3.0</ele><time>2026-05-03T10:59:21.132Z</time></trkpt><trkpt lat="45.1391173" lon="12.2688765"><ele>2.8333333333333335</ele><time>2026-05-03T10:59:23.129Z</time></trkpt><trkpt lat="45.139208" lon="12.2688971"><ele>2.6666666666666665</ele><time>2026-05-03T10:59:25.128Z</time></trkpt><trkpt lat="45.1392968" lon="12.2689184"><ele>2.5</ele><time>2026-05-03T10:59:27.126Z</time></trkpt><trkpt lat="45.139385" lon="12.2689317"><ele>2.333333333333333</ele><time>2026-05-03T10:59:29.126Z</time></trkpt><trkpt lat="45.13947" lon="12.2689339"><ele>2.1666666666666665</ele><time>2026-05-03T10:59:31.13Z</time></trkpt><trkpt lat="45.1395466" lon="12.2689503"><ele>2.0</ele><time>2026-05-03T10:59:33.13Z</time></trkpt><trkpt lat="45.1396226" lon="12.2689588"><ele>1.9999999999999998</ele><time>2026-05-03T10:59:35.125Z</time></trkpt><trkpt lat="45.1397041" lon="12.2689659"><ele>2.0</ele><time>2026-05-03T10:59:37.129Z</time></trkpt><trkpt lat="45.1397877" lon="12.2689789"><ele>2.0</ele><time>2026-05-03T10:59:39.122Z</time></trkpt><trkpt lat="45.1398753" lon="12.2689982"><ele>2.0</ele><time>2026-05-03T10:59:41.125Z</time></trkpt><trkpt lat="45.1399694" lon="12.2690086"><ele>1.9999999999999998</ele><time>2026-05-03T10:59:43.131Z</time></trkpt><trkpt lat="45.1400583" lon="12.2690159"><ele>2.0</ele><time>2026-05-03T10:59:45.129Z</time></trkpt><trkpt lat="45.1401453" lon="12.2690194"><ele>1.8</ele><time>2026-05-03T10:59:47.127Z</time></trkpt><trkpt lat="45.1402337" lon="12.2690309"><ele>1.6</ele><time>2026-05-03T10:59:49.134Z</time></trkpt><trkpt lat="45.1403246" lon="12.2690391"><ele>1.4000000000000001</ele><time>2026-05-03T10:59:51.134Z</time></trkpt><trkpt lat="45.1404179" lon="12.2690442"><ele>1.2000000000000002</ele><time>2026-05-03T10:59:53.132Z</time></trkpt><trkpt lat="45.14052" lon="12.2690476"><ele>1.0</ele><time>2026-05-03T10:59:55.132Z</time></trkpt><trkpt lat="45.1406197" lon="12.2690666"><ele>0.8</ele><time>2026-05-03T10:59:57.13Z</time></trkpt><trkpt lat="45.14072" lon="12.2690859"><ele>0.6000000000000001</ele><time>2026-05-03T10:59:59.133Z</time></trkpt><trkpt lat="45.140823" lon="12.2691082"><ele>0.4</ele><time>2026-05-03T11:00:01.128Z</time></trkpt><trkpt lat="45.1409228" lon="12.2691215"><ele>0.2</ele><time>2026-05-03T11:00:03.123Z</time></trkpt><trkpt lat="45.1410097" lon="12.2691316"><ele>0.0</ele><time>2026-05-03T11:00:05.125Z</time></trkpt><trkpt lat="45.1410999" lon="12.2691432"><ele>0.0</ele><time>2026-05-03T11:00:07.125Z</time></trkpt><trkpt lat="45.1411944" lon="12.2691638"><ele>0.0</ele><time>2026-05-03T11:00:09.124Z</time></trkpt><trkpt lat="45.1412859" lon="12.2691815"><ele>0.0</ele><time>2026-05-03T11:00:11.129Z</time></trkpt><trkpt lat="45.141376" lon="12.2691909"><ele>0.0</ele><time>2026-05-03T11:00:13.134Z</time></trkpt><trkpt lat="45.1414685" lon="12.2692038"><ele>0.0</ele><time>2026-05-03T11:00:15.126Z</time></trkpt><trkpt lat="45.1415629" lon="12.2692288"><ele>0.2</ele><time>2026-05-03T11:00:17.13Z</time></trkpt><trkpt lat="45.1416613" lon="12.2692393"><ele>0.4</ele><time>2026-05-03T11:00:19.125Z</time></trkpt><trkpt lat="45.1417615" lon="12.2692507"><ele>0.6000000000000001</ele><time>2026-05-03T11:00:21.129Z</time></trkpt><trkpt lat="45.1418608" lon="12.2692572"><ele>0.8</ele><time>2026-05-03T11:00:23.132Z</time></trkpt><trkpt lat="45.1419537" lon="12.2692575"><ele>1.0</ele><time>2026-05-03T11:00:25.131Z</time></trkpt><trkpt lat="45.1420486" lon="12.2692546"><ele>1.0</ele><time>2026-05-03T11:00:27.133Z</time></trkpt><trkpt lat="45.1421472" lon="12.2692436"><ele>1.0</ele><time>2026-05-03T11:00:29.13Z</time></trkpt><trkpt lat="45.1422446" lon="12.2692307"><ele>1.0</ele><time>2026-05-03T11:00:31.124Z</time></trkpt><trkpt lat="45.1423418" lon="12.269215"><ele>1.0</ele><time>2026-05-03T11:00:33.126Z</time></trkpt><trkpt lat="45.1424386" lon="12.2691967"><ele>1.0</ele><time>2026-05-03T11:00:35.119Z</time></trkpt><trkpt lat="45.1425311" lon="12.269173"><ele>1.2000000000000002</ele><time>2026-05-03T11:00:37.127Z</time></trkpt><trkpt lat="45.1426292" lon="12.2691527"><ele>1.4000000000000001</ele><time>2026-05-03T11:00:39.125Z</time></trkpt><trkpt lat="45.1427256" lon="12.2691357"><ele>1.6</ele><time>2026-05-03T11:00:41.126Z</time></trkpt><trkpt lat="45.1428249" lon="12.2691083"><ele>1.8</ele><time>2026-05-03T11:00:43.132Z</time></trkpt><trkpt lat="45.142921" lon="12.2690703"><ele>2.0</ele><time>2026-05-03T11:00:45.132Z</time></trkpt><trkpt lat="45.1430186" lon="12.2690291"><ele>2.0</ele><time>2026-05-03T11:00:47.131Z</time></trkpt><trkpt lat="45.143121" lon="12.2689882"><ele>2.0</ele><time>2026-05-03T11:00:49.132Z</time></trkpt><trkpt lat="45.1432246" lon="12.2689422"><ele>2.0</ele><time>2026-05-03T11:00:51.131Z</time></trkpt><trkpt lat="45.1433252" lon="12.2688926"><ele>2.0</ele><time>2026-05-03T11:00:53.131Z</time></trkpt><trkpt lat="45.1434273" lon="12.2688461"><ele>2.0</ele><time>2026-05-03T11:00:55.132Z</time></trkpt><trkpt lat="45.1435327" lon="12.2688039"><ele>2.0</ele><time>2026-05-03T11:00:57.127Z</time></trkpt><trkpt lat="45.1436394" lon="12.268767"><ele>2.0</ele><time>2026-05-03T11:00:59.132Z</time></trkpt><trkpt lat="45.1437488" lon="12.2687358"><ele>2.0</ele><time>2026-05-03T11:01:01.128Z</time></trkpt><trkpt lat="45.1438531" lon="12.2687035"><ele>2.0</ele><time>2026-05-03T11:01:03.129Z</time></trkpt><trkpt lat="45.1439595" lon="12.2686735"><ele>2.0</ele><time>2026-05-03T11:01:05.125Z</time></trkpt><trkpt lat="45.1440668" lon="12.2686471"><ele>2.0</ele><time>2026-05-03T11:01:07.124Z</time></trkpt><trkpt lat="45.1441767" lon="12.2686329"><ele>2.0</ele><time>2026-05-03T11:01:09.122Z</time></trkpt><trkpt lat="45.1442866" lon="12.2686266"><ele>2.0</ele><time>2026-05-03T11:01:11.132Z</time></trkpt><trkpt lat="45.1443954" lon="12.2686449"><ele>2.0</ele><time>2026-05-03T11:01:13.133Z</time></trkpt><trkpt lat="45.144502" lon="12.2686856"><ele>2.0</ele><time>2026-05-03T11:01:15.131Z</time></trkpt><trkpt lat="45.1446112" lon="12.2687249"><ele>2.0</ele><time>2026-05-03T11:01:17.128Z</time></trkpt><trkpt lat="45.1447177" lon="12.2687483"><ele>2.0</ele><time>2026-05-03T11:01:19.129Z</time></trkpt><trkpt lat="45.1448222" lon="12.2687545"><ele>2.0</ele><time>2026-05-03T11:01:21.131Z</time></trkpt><trkpt lat="45.1449168" lon="12.2687341"><ele>2.0</ele><time>2026-05-03T11:01:23.133Z</time></trkpt><trkpt lat="45.1450004" lon="12.2687316"><ele>2.0</ele><time>2026-05-03T11:01:25.129Z</time></trkpt><trkpt lat="45.1450557" lon="12.2687928"><ele>1.8333333333333333</ele><time>2026-05-03T11:01:27.129Z</time></trkpt><trkpt lat="45.1451488" lon="12.268843"><ele>1.6666666666666665</ele><time>2026-05-03T11:01:30.129Z</time></trkpt><trkpt lat="45.1452238" lon="12.2688706"><ele>1.5</ele><time>2026-05-03T11:01:32.128Z</time></trkpt><trkpt lat="45.1452897" lon="12.2689033"><ele>1.3333333333333333</ele><time>2026-05-03T11:01:34.125Z</time></trkpt><trkpt lat="45.1453717" lon="12.2689263"><ele>1.1666666666666665</ele><time>2026-05-03T11:01:37.122Z</time></trkpt><trkpt lat="45.1454396" lon="12.2689469"><ele>1.0</ele><time>2026-05-03T11:01:40.127Z</time></trkpt><trkpt lat="45.1455073" lon="12.2689722"><ele>0.9999999999999999</ele><time>2026-05-03T11:01:43.127Z</time></trkpt><trkpt lat="45.1455994" lon="12.2690162"><ele>1.0</ele><time>2026-05-03T11:01:46.13Z</time></trkpt><trkpt lat="45.1456744" lon="12.2690446"><ele>1.0</ele><time>2026-05-03T11:01:48.129Z</time></trkpt><trkpt lat="45.1457513" lon="12.2690745"><ele>1.0</ele><time>2026-05-03T11:01:50.127Z</time></trkpt><trkpt lat="45.145833" lon="12.269103"><ele>0.9999999999999999</ele><time>2026-05-03T11:01:52.135Z</time></trkpt><trkpt lat="45.1459167" lon="12.2691303"><ele>1.0</ele><time>2026-05-03T11:01:54.126Z</time></trkpt><trkpt lat="45.1460005" lon="12.2691613"><ele>1.3333333333333333</ele><time>2026-05-03T11:01:56.127Z</time></trkpt><trkpt lat="45.1460761" lon="12.2691859"><ele>1.6666666666666665</ele><time>2026-05-03T11:01:58.126Z</time></trkpt><trkpt lat="45.1461505" lon="12.2692209"><ele>2.0</ele><time>2026-05-03T11:02:00.132Z</time></trkpt><trkpt lat="45.1462261" lon="12.2692723"><ele>2.3333333333333335</ele><time>2026-05-03T11:02:02.122Z</time></trkpt><trkpt lat="45.1462878" lon="12.2693405"><ele>2.6666666666666665</ele><time>2026-05-03T11:02:04.127Z</time></trkpt><trkpt lat="45.1463416" lon="12.2694137"><ele>3.0</ele><time>2026-05-03T11:02:06.122Z</time></trkpt><trkpt lat="45.1464066" lon="12.2695022"><ele>3.0</ele><time>2026-05-03T11:02:08.122Z</time></trkpt><trkpt lat="45.146468" lon="12.269582"><ele>3.0</ele><time>2026-05-03T11:02:10.129Z</time></trkpt><trkpt lat="45.1465259" lon="12.2696441"><ele>3.0</ele><time>2026-05-03T11:02:12.123Z</time></trkpt><trkpt lat="45.1465951" lon="12.2697145"><ele>3.0</ele><time>2026-05-03T11:02:15.131Z</time></trkpt><trkpt lat="45.146645" lon="12.2697832"><ele>3.0</ele><time>2026-05-03T11:02:17.127Z</time></trkpt><trkpt lat="45.1467116" lon="12.2698568"><ele>3.0</ele><time>2026-05-03T11:02:19.127Z</time></trkpt><trkpt lat="45.146783" lon="12.269919"><ele>2.6</ele><time>2026-05-03T11:02:21.128Z</time></trkpt><trkpt lat="45.1468444" lon="12.2699838"><ele>2.1999999999999997</ele><time>2026-05-03T11:02:23.127Z</time></trkpt><trkpt lat="45.1469181" lon="12.2700572"><ele>1.8</ele><time>2026-05-03T11:02:25.139Z</time></trkpt><trkpt lat="45.1470028" lon="12.2701442"><ele>1.4</ele><time>2026-05-03T11:02:27.132Z</time></trkpt><trkpt lat="45.1470808" lon="12.2702361"><ele>1.0</ele><time>2026-05-03T11:02:29.126Z</time></trkpt><trkpt lat="45.1471278" lon="12.2703243"><ele>0.9999999999999999</ele><time>2026-05-03T11:02:31.126Z</time></trkpt><trkpt lat="45.1471801" lon="12.2703884"><ele>1.0</ele><time>2026-05-03T11:02:34.125Z</time></trkpt><trkpt lat="45.1472425" lon="12.2704198"><ele>1.0</ele><time>2026-05-03T11:02:36.128Z</time></trkpt><trkpt lat="45.1473323" lon="12.2704529"><ele>1.0</ele><time>2026-05-03T11:02:38.125Z</time></trkpt><trkpt lat="45.1474185" lon="12.270485"><ele>0.9999999999999999</ele><time>2026-05-03T11:02:40.127Z</time></trkpt><trkpt lat="45.1475053" lon="12.2705154"><ele>1.0</ele><time>2026-05-03T11:02:42.131Z</time></trkpt><trkpt lat="45.1475944" lon="12.2705505"><ele>0.8</ele><time>2026-05-03T11:02:44.134Z</time></trkpt><trkpt lat="45.1476767" lon="12.2705941"><ele>0.6000000000000001</ele><time>2026-05-03T11:02:46.128Z</time></trkpt><trkpt lat="45.1477572" lon="12.2706426"><ele>0.4</ele><time>2026-05-03T11:02:48.13Z</time></trkpt><trkpt lat="45.1478449" lon="12.2706875"><ele>0.2</ele><time>2026-05-03T11:02:50.133Z</time></trkpt><trkpt lat="45.1479303" lon="12.2707368"><ele>0.0</ele><time>2026-05-03T11:02:52.128Z</time></trkpt><trkpt lat="45.1480192" lon="12.2707864"><ele>0.0</ele><time>2026-05-03T11:02:54.127Z</time></trkpt><trkpt lat="45.1481111" lon="12.2708317"><ele>0.0</ele><time>2026-05-03T11:02:56.129Z</time></trkpt><trkpt lat="45.1482051" lon="12.27088"><ele>0.0</ele><time>2026-05-03T11:02:58.129Z</time></trkpt><trkpt lat="45.1482955" lon="12.2709208"><ele>0.0</ele><time>2026-05-03T11:03:00.127Z</time></trkpt><trkpt lat="45.1483832" lon="12.2709637"><ele>0.0</ele><time>2026-05-03T11:03:02.127Z</time></trkpt><trkpt lat="45.148477" lon="12.2710048"><ele>0.0</ele><time>2026-05-03T11:03:04.128Z</time></trkpt><trkpt lat="45.1485719" lon="12.2710442"><ele>0.0</ele><time>2026-05-03T11:03:06.128Z</time></trkpt><trkpt lat="45.1486686" lon="12.2710812"><ele>0.0</ele><time>2026-05-03T11:03:08.127Z</time></trkpt><trkpt lat="45.1487627" lon="12.2711093"><ele>0.0</ele><time>2026-05-03T11:03:10.128Z</time></trkpt><trkpt lat="45.1488629" lon="12.271118"><ele>0.0</ele><time>2026-05-03T11:03:12.126Z</time></trkpt><trkpt lat="45.1489623" lon="12.2711075"><ele>0.4</ele><time>2026-05-03T11:03:14.128Z</time></trkpt><trkpt lat="45.1490612" lon="12.2710996"><ele>0.8</ele><time>2026-05-03T11:03:16.128Z</time></trkpt><trkpt lat="45.1491596" lon="12.2711024"><ele>1.2000000000000002</ele><time>2026-05-03T11:03:18.136Z</time></trkpt><trkpt lat="45.1492611" lon="12.2711209"><ele>1.6</ele><time>2026-05-03T11:03:20.133Z</time></trkpt><trkpt lat="45.1493639" lon="12.2711425"><ele>2.0</ele><time>2026-05-03T11:03:22.123Z</time></trkpt><trkpt lat="45.1494703" lon="12.271161"><ele>2.0</ele><time>2026-05-03T11:03:24.131Z</time></trkpt><trkpt lat="45.149577" lon="12.271177"><ele>2.0</ele><time>2026-05-03T11:03:26.13Z</time></trkpt><trkpt lat="45.1496832" lon="12.2711906"><ele>2.0</ele><time>2026-05-03T11:03:28.133Z</time></trkpt><trkpt lat="45.1497816" lon="12.2712024"><ele>2.0</ele><time>2026-05-03T11:03:30.127Z</time></trkpt><trkpt lat="45.1498795" lon="12.2712115"><ele>2.0</ele><time>2026-05-03T11:03:32.129Z</time></trkpt><trkpt lat="45.1499805" lon="12.271228"><ele>1.6</ele><time>2026-05-03T11:03:34.129Z</time></trkpt><trkpt lat="45.1500882" lon="12.2712467"><ele>1.2000000000000002</ele><time>2026-05-03T11:03:36.124Z</time></trkpt><trkpt lat="45.1501991" lon="12.2712633"><ele>0.8</ele><time>2026-05-03T11:03:38.129Z</time></trkpt><trkpt lat="45.1503055" lon="12.2712936"><ele>0.4</ele><time>2026-05-03T11:03:40.132Z</time></trkpt><trkpt lat="45.1504101" lon="12.2713432"><ele>0.0</ele><time>2026-05-03T11:03:42.123Z</time></trkpt><trkpt lat="45.1505138" lon="12.2713972"><ele>-0.2</ele><time>2026-05-03T11:03:44.131Z</time></trkpt><trkpt lat="45.1506182" lon="12.2714487"><ele>-0.4</ele><time>2026-05-03T11:03:46.13Z</time></trkpt><trkpt lat="45.1507279" lon="12.2714805"><ele>-0.6000000000000001</ele><time>2026-05-03T11:03:48.13Z</time></trkpt><trkpt lat="45.1508369" lon="12.2714763"><ele>-0.8</ele><time>2026-05-03T11:03:50.134Z</time></trkpt><trkpt lat="45.1509441" lon="12.2714575"><ele>-1.0</ele><time>2026-05-03T11:03:52.131Z</time></trkpt><trkpt lat="45.1510491" lon="12.2714248"><ele>-0.6000000000000001</ele><time>2026-05-03T11:03:54.128Z</time></trkpt><trkpt lat="45.151149" lon="12.2713828"><ele>-0.20000000000000007</ele><time>2026-05-03T11:03:56.13Z</time></trkpt><trkpt lat="45.1512461" lon="12.2713417"><ele>0.20000000000000007</ele><time>2026-05-03T11:03:58.131Z</time></trkpt><trkpt lat="45.1513486" lon="12.271305"><ele>0.6000000000000001</ele><time>2026-05-03T11:04:00.131Z</time></trkpt><trkpt lat="45.1514576" lon="12.2712724"><ele>1.0</ele><time>2026-05-03T11:04:02.131Z</time></trkpt><trkpt lat="45.1515653" lon="12.2712434"><ele>1.2000000000000002</ele><time>2026-05-03T11:04:04.132Z</time></trkpt><trkpt lat="45.1516618" lon="12.2712198"><ele>1.4000000000000001</ele><time>2026-05-03T11:04:06.13Z</time></trkpt><trkpt lat="45.1517565" lon="12.2711893"><ele>1.6</ele><time>2026-05-03T11:04:08.128Z</time></trkpt><trkpt lat="45.1518463" lon="12.2711495"><ele>1.8</ele><time>2026-05-03T11:04:10.128Z</time></trkpt><trkpt lat="45.1519382" lon="12.2710922"><ele>2.0</ele><time>2026-05-03T11:04:12.13Z</time></trkpt><trkpt lat="45.1520325" lon="12.271033"><ele>1.9999999999999998</ele><time>2026-05-03T11:04:14.125Z</time></trkpt><trkpt lat="45.1521242" lon="12.2709636"><ele>2.0</ele><time>2026-05-03T11:04:16.133Z</time></trkpt><trkpt lat="45.1522019" lon="12.2708879"><ele>2.0</ele><time>2026-05-03T11:04:18.125Z</time></trkpt><trkpt lat="45.1522391" lon="12.2707813"><ele>2.0</ele><time>2026-05-03T11:04:20.136Z</time></trkpt><trkpt lat="45.1522492" lon="12.2706874"><ele>1.9999999999999998</ele><time>2026-05-03T11:04:22.128Z</time></trkpt><trkpt lat="45.1523434" lon="12.2706767"><ele>2.0</ele><time>2026-05-03T11:04:25.126Z</time></trkpt><trkpt lat="45.1524145" lon="12.270726"><ele>1.4000000000000001</ele><time>2026-05-03T11:04:27.126Z</time></trkpt><trkpt lat="45.1524885" lon="12.2707699"><ele>0.8000000000000002</ele><time>2026-05-03T11:04:29.127Z</time></trkpt><trkpt lat="45.1525754" lon="12.2708109"><ele>0.19999999999999996</ele><time>2026-05-03T11:04:31.126Z</time></trkpt><trkpt lat="45.1526753" lon="12.2708571"><ele>-0.4</ele><time>2026-05-03T11:04:33.129Z</time></trkpt><trkpt lat="45.152773" lon="12.2709086"><ele>-1.0</ele><time>2026-05-03T11:04:35.131Z</time></trkpt><trkpt lat="45.1528713" lon="12.2709518"><ele>-1.0</ele><time>2026-05-03T11:04:37.126Z</time></trkpt><trkpt lat="45.1529657" lon="12.2709952"><ele>-1.0</ele><time>2026-05-03T11:04:39.134Z</time></trkpt><trkpt lat="45.1530627" lon="12.2710387"><ele>-1.0</ele><time>2026-05-03T11:04:41.131Z</time></trkpt><trkpt lat="45.1531579" lon="12.2710837"><ele>-1.0</ele><time>2026-05-03T11:04:43.136Z</time></trkpt><trkpt lat="45.1532537" lon="12.271126"><ele>-1.0</ele><time>2026-05-03T11:04:45.133Z</time></trkpt><trkpt lat="45.1533504" lon="12.2711672"><ele>-0.8</ele><time>2026-05-03T11:04:47.133Z</time></trkpt><trkpt lat="45.1534529" lon="12.2712034"><ele>-0.6000000000000001</ele><time>2026-05-03T11:04:49.131Z</time></trkpt><trkpt lat="45.1535593" lon="12.2712376"><ele>-0.4</ele><time>2026-05-03T11:04:51.128Z</time></trkpt><trkpt lat="45.1536645" lon="12.2712717"><ele>-0.2</ele><time>2026-05-03T11:04:53.135Z</time></trkpt><trkpt lat="45.1537683" lon="12.2713073"><ele>0.0</ele><time>2026-05-03T11:04:55.13Z</time></trkpt><trkpt lat="45.1538741" lon="12.2713399"><ele>0.0</ele><time>2026-05-03T11:04:57.129Z</time></trkpt><trkpt lat="45.1539774" lon="12.2713697"><ele>0.0</ele><time>2026-05-03T11:04:59.13Z</time></trkpt><trkpt lat="45.1540837" lon="12.2713997"><ele>0.0</ele><time>2026-05-03T11:05:01.13Z</time></trkpt><trkpt lat="45.1541906" lon="12.2714294"><ele>0.0</ele><time>2026-05-03T11:05:03.128Z</time></trkpt><trkpt lat="45.1542954" lon="12.2714533"><ele>0.0</ele><time>2026-05-03T11:05:05.126Z</time></trkpt><trkpt lat="45.1544036" lon="12.271475"><ele>-0.2</ele><time>2026-05-03T11:05:07.132Z</time></trkpt><trkpt lat="45.1545112" lon="12.271497"><ele>-0.4</ele><time>2026-05-03T11:05:09.135Z</time></trkpt><trkpt lat="45.1546171" lon="12.2715172"><ele>-0.6000000000000001</ele><time>2026-05-03T11:05:11.131Z</time></trkpt><trkpt lat="45.1547226" lon="12.271537"><ele>-0.8</ele><time>2026-05-03T11:05:13.136Z</time></trkpt><trkpt lat="45.154834" lon="12.2715573"><ele>-1.0</ele><time>2026-05-03T11:05:15.124Z</time></trkpt><trkpt lat="45.1549447" lon="12.2715741"><ele>-1.0</ele><time>2026-05-03T11:05:17.13Z</time></trkpt><trkpt lat="45.1550574" lon="12.27159"><ele>-1.0</ele><time>2026-05-03T11:05:19.131Z</time></trkpt><trkpt lat="45.1551664" lon="12.2716048"><ele>-1.0</ele><time>2026-05-03T11:05:21.132Z</time></trkpt><trkpt lat="45.1552746" lon="12.2716202"><ele>-1.0</ele><time>2026-05-03T11:05:23.132Z</time></trkpt><trkpt lat="45.1553829" lon="12.2716376"><ele>-1.0</ele><time>2026-05-03T11:05:25.132Z</time></trkpt><trkpt lat="45.1554853" lon="12.2716569"><ele>-1.0</ele><time>2026-05-03T11:05:27.129Z</time></trkpt><trkpt lat="45.1555928" lon="12.2716726"><ele>-1.0</ele><time>2026-05-03T11:05:29.128Z</time></trkpt><trkpt lat="45.1557008" lon="12.2716896"><ele>-1.0</ele><time>2026-05-03T11:05:31.127Z</time></trkpt><trkpt lat="45.1558112" lon="12.2717082"><ele>-1.0</ele><time>2026-05-03T11:05:33.14Z</time></trkpt><trkpt lat="45.1559219" lon="12.271731"><ele>-1.0</ele><time>2026-05-03T11:05:35.134Z</time></trkpt><trkpt lat="45.1560311" lon="12.2717482"><ele>-1.0</ele><time>2026-05-03T11:05:37.13Z</time></trkpt><trkpt lat="45.1561407" lon="12.2717648"><ele>-1.0</ele><time>2026-05-03T11:05:39.13Z</time></trkpt><trkpt lat="45.1562473" lon="12.2717812"><ele>-1.0</ele><time>2026-05-03T11:05:41.132Z</time></trkpt><trkpt lat="45.1563517" lon="12.2717965"><ele>-1.0</ele><time>2026-05-03T11:05:43.13Z</time></trkpt><trkpt lat="45.1564589" lon="12.2718138"><ele>-1.0</ele><time>2026-05-03T11:05:45.131Z</time></trkpt><trkpt lat="45.1565613" lon="12.2718377"><ele>-1.2000000000000002</ele><time>2026-05-03T11:05:47.132Z</time></trkpt><trkpt lat="45.1566607" lon="12.2718569"><ele>-1.4000000000000001</ele><time>2026-05-03T11:05:49.128Z</time></trkpt><trkpt lat="45.1567598" lon="12.2718796"><ele>-1.6</ele><time>2026-05-03T11:05:51.128Z</time></trkpt><trkpt lat="45.1568655" lon="12.2718986"><ele>-1.8</ele><time>2026-05-03T11:05:53.133Z</time></trkpt><trkpt lat="45.1569774" lon="12.2719162"><ele>-2.0</ele><time>2026-05-03T11:05:55.135Z</time></trkpt><trkpt lat="45.157085" lon="12.2719349"><ele>-2.0</ele><time>2026-05-03T11:05:57.127Z</time></trkpt><trkpt lat="45.157191" lon="12.2719527"><ele>-2.0</ele><time>2026-05-03T11:05:59.128Z</time></trkpt><trkpt lat="45.157297" lon="12.2719668"><ele>-2.0</ele><time>2026-05-03T11:06:01.129Z</time></trkpt><trkpt lat="45.1574103" lon="12.2719784"><ele>-2.0</ele><time>2026-05-03T11:06:03.136Z</time></trkpt><trkpt lat="45.1575148" lon="12.2719951"><ele>-2.0</ele><time>2026-05-03T11:06:05.127Z</time></trkpt><trkpt lat="45.1576079" lon="12.272044"><ele>-1.8</ele><time>2026-05-03T11:06:07.131Z</time></trkpt><trkpt lat="45.1576871" lon="12.2721319"><ele>-1.6</ele><time>2026-05-03T11:06:09.126Z</time></trkpt><trkpt lat="45.157769" lon="12.2722133"><ele>-1.4000000000000001</ele><time>2026-05-03T11:06:11.128Z</time></trkpt><trkpt lat="45.1578507" lon="12.2722834"><ele>-1.2000000000000002</ele><time>2026-05-03T11:06:13.138Z</time></trkpt><trkpt lat="45.1579212" lon="12.2723555"><ele>-1.0</ele><time>2026-05-03T11:06:15.13Z</time></trkpt><trkpt lat="45.1579888" lon="12.2724248"><ele>-0.9999999999999999</ele><time>2026-05-03T11:06:17.128Z</time></trkpt><trkpt lat="45.158059" lon="12.2724814"><ele>-1.0</ele><time>2026-05-03T11:06:19.13Z</time></trkpt><trkpt lat="45.1581263" lon="12.2725383"><ele>-1.0</ele><time>2026-05-03T11:06:21.131Z</time></trkpt><trkpt lat="45.1581905" lon="12.2725823"><ele>-1.0</ele><time>2026-05-03T11:06:23.128Z</time></trkpt><trkpt lat="45.1582535" lon="12.2726202"><ele>-0.9999999999999999</ele><time>2026-05-03T11:06:25.13Z</time></trkpt><trkpt lat="45.1583113" lon="12.2726597"><ele>-1.0</ele><time>2026-05-03T11:06:27.13Z</time></trkpt><trkpt lat="45.1583905" lon="12.2727262"><ele>-0.8333333333333333</ele><time>2026-05-03T11:06:30.132Z</time></trkpt><trkpt lat="45.1584563" lon="12.2727683"><ele>-0.6666666666666666</ele><time>2026-05-03T11:06:32.126Z</time></trkpt><trkpt lat="45.1585361" lon="12.2728144"><ele>-0.5</ele><time>2026-05-03T11:06:34.127Z</time></trkpt><trkpt lat="45.1586225" lon="12.272863"><ele>-0.3333333333333333</ele><time>2026-05-03T11:06:36.129Z</time></trkpt><trkpt lat="45.1587066" lon="12.272925"><ele>-0.16666666666666666</ele><time>2026-05-03T11:06:38.131Z</time></trkpt><trkpt lat="45.1587889" lon="12.2729863"><ele>0.0</ele><time>2026-05-03T11:06:40.133Z</time></trkpt><trkpt lat="45.1588675" lon="12.2730536"><ele>-0.2</ele><time>2026-05-03T11:06:42.124Z</time></trkpt><trkpt lat="45.1589433" lon="12.2731254"><ele>-0.4</ele><time>2026-05-03T11:06:44.132Z</time></trkpt><trkpt lat="45.1590195" lon="12.2732092"><ele>-0.6000000000000001</ele><time>2026-05-03T11:06:46.132Z</time></trkpt><trkpt lat="45.1591009" lon="12.2732979"><ele>-0.8</ele><time>2026-05-03T11:06:48.128Z</time></trkpt><trkpt lat="45.1591825" lon="12.2733798"><ele>-1.0</ele><time>2026-05-03T11:06:50.131Z</time></trkpt><trkpt lat="45.1592695" lon="12.2734521"><ele>-1.0</ele><time>2026-05-03T11:06:52.136Z</time></trkpt><trkpt lat="45.1593598" lon="12.2735147"><ele>-1.0</ele><time>2026-05-03T11:06:54.134Z</time></trkpt><trkpt lat="45.1594584" lon="12.2735619"><ele>-1.0</ele><time>2026-05-03T11:06:56.131Z</time></trkpt><trkpt lat="45.1595575" lon="12.2736044"><ele>-1.0</ele><time>2026-05-03T11:06:58.126Z</time></trkpt><trkpt lat="45.1596562" lon="12.2736517"><ele>-1.0</ele><time>2026-05-03T11:07:00.132Z</time></trkpt><trkpt lat="45.1597525" lon="12.2737088"><ele>-1.0</ele><time>2026-05-03T11:07:02.132Z</time></trkpt><trkpt lat="45.1598428" lon="12.2737775"><ele>-1.0</ele><time>2026-05-03T11:07:04.134Z</time></trkpt><trkpt lat="45.1599219" lon="12.2738617"><ele>-1.0</ele><time>2026-05-03T11:07:06.129Z</time></trkpt><trkpt lat="45.1599942" lon="12.2739579"><ele>-1.0</ele><time>2026-05-03T11:07:08.127Z</time></trkpt><trkpt lat="45.160068" lon="12.274052"><ele>-1.0</ele><time>2026-05-03T11:07:10.128Z</time></trkpt><trkpt lat="45.160145" lon="12.274144"><ele>-1.0</ele><time>2026-05-03T11:07:12.128Z</time></trkpt><trkpt lat="45.1602315" lon="12.2742252"><ele>-1.0</ele><time>2026-05-03T11:07:14.134Z</time></trkpt><trkpt lat="45.1603252" lon="12.27429"><ele>-1.0</ele><time>2026-05-03T11:07:16.126Z</time></trkpt><trkpt lat="45.1604217" lon="12.2743471"><ele>-1.0</ele><time>2026-05-03T11:07:18.13Z</time></trkpt><trkpt lat="45.1605177" lon="12.2743999"><ele>-1.0</ele><time>2026-05-03T11:07:20.126Z</time></trkpt><trkpt lat="45.1606108" lon="12.2744564"><ele>-1.0</ele><time>2026-05-03T11:07:22.129Z</time></trkpt><trkpt lat="45.1607071" lon="12.2745145"><ele>-1.0</ele><time>2026-05-03T11:07:24.13Z</time></trkpt><trkpt lat="45.1608002" lon="12.2745814"><ele>-1.0</ele><time>2026-05-03T11:07:26.13Z</time></trkpt><trkpt lat="45.1608892" lon="12.2746496"><ele>-1.0</ele><time>2026-05-03T11:07:28.131Z</time></trkpt><trkpt lat="45.1609784" lon="12.2747211"><ele>-1.0</ele><time>2026-05-03T11:07:30.135Z</time></trkpt><trkpt lat="45.1610651" lon="12.2748004"><ele>-1.0</ele><time>2026-05-03T11:07:32.128Z</time></trkpt><trkpt lat="45.1611505" lon="12.2748812"><ele>-1.0</ele><time>2026-05-03T11:07:34.126Z</time></trkpt><trkpt lat="45.1612362" lon="12.2749591"><ele>-1.0</ele><time>2026-05-03T11:07:36.127Z</time></trkpt><trkpt lat="45.1613223" lon="12.2750395"><ele>-1.0</ele><time>2026-05-03T11:07:38.129Z</time></trkpt><trkpt lat="45.161405" lon="12.275123"><ele>-1.0</ele><time>2026-05-03T11:07:40.127Z</time></trkpt><trkpt lat="45.1614896" lon="12.2752011"><ele>-0.8</ele><time>2026-05-03T11:07:42.128Z</time></trkpt><trkpt lat="45.1615751" lon="12.2752785"><ele>-0.6000000000000001</ele><time>2026-05-03T11:07:44.131Z</time></trkpt><trkpt lat="45.1616622" lon="12.2753564"><ele>-0.4</ele><time>2026-05-03T11:07:46.128Z</time></trkpt><trkpt lat="45.1617519" lon="12.2754273"><ele>-0.2</ele><time>2026-05-03T11:07:48.127Z</time></trkpt><trkpt lat="45.1618449" lon="12.2754914"><ele>0.0</ele><time>2026-05-03T11:07:50.127Z</time></trkpt><trkpt lat="45.161941" lon="12.27555"><ele>0.0</ele><time>2026-05-03T11:07:52.131Z</time></trkpt><trkpt lat="45.1620417" lon="12.2755987"><ele>0.0</ele><time>2026-05-03T11:07:54.131Z</time></trkpt><trkpt lat="45.162145" lon="12.275648"><ele>0.0</ele><time>2026-05-03T11:07:56.124Z</time></trkpt><trkpt lat="45.1622451" lon="12.2756979"><ele>0.0</ele><time>2026-05-03T11:07:58.128Z</time></trkpt><trkpt lat="45.1623419" lon="12.275748"><ele>0.0</ele><time>2026-05-03T11:08:00.129Z</time></trkpt><trkpt lat="45.1624341" lon="12.2757992"><ele>-0.6</ele><time>2026-05-03T11:08:02.127Z</time></trkpt><trkpt lat="45.1625295" lon="12.2758431"><ele>-1.2</ele><time>2026-05-03T11:08:04.131Z</time></trkpt><trkpt lat="45.1626294" lon="12.2758888"><ele>-1.7999999999999998</ele><time>2026-05-03T11:08:06.13Z</time></trkpt><trkpt lat="45.1627288" lon="12.2759353"><ele>-2.4</ele><time>2026-05-03T11:08:08.131Z</time></trkpt><trkpt lat="45.1628272" lon="12.2759788"><ele>-3.0</ele><time>2026-05-03T11:08:10.129Z</time></trkpt><trkpt lat="45.1629258" lon="12.2760267"><ele>-3.0</ele><time>2026-05-03T11:08:12.128Z</time></trkpt><trkpt lat="45.1630236" lon="12.2760692"><ele>-3.0</ele><time>2026-05-03T11:08:14.132Z</time></trkpt><trkpt lat="45.1631219" lon="12.2761127"><ele>-3.0</ele><time>2026-05-03T11:08:16.128Z</time></trkpt><trkpt lat="45.163218" lon="12.2761578"><ele>-3.0</ele><time>2026-05-03T11:08:18.135Z</time></trkpt><trkpt lat="45.1633159" lon="12.2761996"><ele>-3.0</ele><time>2026-05-03T11:08:20.131Z</time></trkpt><trkpt lat="45.1634149" lon="12.276234"><ele>-2.6</ele><time>2026-05-03T11:08:22.125Z</time></trkpt><trkpt lat="45.1635165" lon="12.276257"><ele>-2.1999999999999997</ele><time>2026-05-03T11:08:24.128Z</time></trkpt><trkpt lat="45.1636232" lon="12.2762741"><ele>-1.8</ele><time>2026-05-03T11:08:26.124Z</time></trkpt><trkpt lat="45.1637283" lon="12.2762858"><ele>-1.4</ele><time>2026-05-03T11:08:28.134Z</time></trkpt><trkpt lat="45.1638285" lon="12.2762966"><ele>-1.0</ele><time>2026-05-03T11:08:30.135Z</time></trkpt><trkpt lat="45.1639272" lon="12.2763045"><ele>-1.0</ele><time>2026-05-03T11:08:32.131Z</time></trkpt><trkpt lat="45.164028" lon="12.2763045"><ele>-1.0</ele><time>2026-05-03T11:08:34.132Z</time></trkpt><trkpt lat="45.1641284" lon="12.2763025"><ele>-1.0</ele><time>2026-05-03T11:08:36.136Z</time></trkpt><trkpt lat="45.1642306" lon="12.2762917"><ele>-1.0</ele><time>2026-05-03T11:08:38.131Z</time></trkpt><trkpt lat="45.1643379" lon="12.2762664"><ele>-1.0</ele><time>2026-05-03T11:08:40.134Z</time></trkpt><trkpt lat="45.1644476" lon="12.2762454"><ele>-1.2000000000000002</ele><time>2026-05-03T11:08:42.128Z</time></trkpt><trkpt lat="45.1645565" lon="12.2762265"><ele>-1.4000000000000001</ele><time>2026-05-03T11:08:44.131Z</time></trkpt><trkpt lat="45.1646636" lon="12.2762076"><ele>-1.6</ele><time>2026-05-03T11:08:46.132Z</time></trkpt><trkpt lat="45.1647721" lon="12.2761903"><ele>-1.8</ele><time>2026-05-03T11:08:48.127Z</time></trkpt><trkpt lat="45.1648799" lon="12.2761705"><ele>-2.0</ele><time>2026-05-03T11:08:50.136Z</time></trkpt><trkpt lat="45.1649876" lon="12.2761543"><ele>-2.0</ele><time>2026-05-03T11:08:52.132Z</time></trkpt><trkpt lat="45.1650964" lon="12.2761402"><ele>-2.0</ele><time>2026-05-03T11:08:54.132Z</time></trkpt><trkpt lat="45.1652023" lon="12.2761256"><ele>-2.0</ele><time>2026-05-03T11:08:56.134Z</time></trkpt><trkpt lat="45.1653118" lon="12.2761223"><ele>-2.0</ele><time>2026-05-03T11:08:58.132Z</time></trkpt><trkpt lat="45.1654212" lon="12.2761301"><ele>-2.0</ele><time>2026-05-03T11:09:00.13Z</time></trkpt><trkpt lat="45.1655274" lon="12.276141"><ele>-2.0</ele><time>2026-05-03T11:09:02.134Z</time></trkpt><trkpt lat="45.1656341" lon="12.2761484"><ele>-2.0</ele><time>2026-05-03T11:09:04.132Z</time></trkpt><trkpt lat="45.1657427" lon="12.2761529"><ele>-2.0</ele><time>2026-05-03T11:09:06.133Z</time></trkpt><trkpt lat="45.1658498" lon="12.276164"><ele>-2.0</ele><time>2026-05-03T11:09:08.129Z</time></trkpt><trkpt lat="45.1659527" lon="12.27619"><ele>-2.0</ele><time>2026-05-03T11:09:10.133Z</time></trkpt><trkpt lat="45.1660594" lon="12.2762063"><ele>-2.0</ele><time>2026-05-03T11:09:12.13Z</time></trkpt><trkpt lat="45.1661648" lon="12.276214"><ele>-2.0</ele><time>2026-05-03T11:09:14.129Z</time></trkpt><trkpt lat="45.1662689" lon="12.2762131"><ele>-2.0</ele><time>2026-05-03T11:09:16.135Z</time></trkpt><trkpt lat="45.1663769" lon="12.2762059"><ele>-2.0</ele><time>2026-05-03T11:09:18.133Z</time></trkpt><trkpt lat="45.1664855" lon="12.2762024"><ele>-2.0</ele><time>2026-05-03T11:09:20.133Z</time></trkpt><trkpt lat="45.1665923" lon="12.2762056"><ele>-1.6</ele><time>2026-05-03T11:09:22.134Z</time></trkpt><trkpt lat="45.166701" lon="12.2762105"><ele>-1.2000000000000002</ele><time>2026-05-03T11:09:24.132Z</time></trkpt><trkpt lat="45.166809" lon="12.2762236"><ele>-0.8</ele><time>2026-05-03T11:09:26.133Z</time></trkpt><trkpt lat="45.1669125" lon="12.2762621"><ele>-0.4</ele><time>2026-05-03T11:09:28.136Z</time></trkpt><trkpt lat="45.1670101" lon="12.2763122"><ele>0.0</ele><time>2026-05-03T11:09:30.132Z</time></trkpt><trkpt lat="45.1671046" lon="12.2763687"><ele>0.0</ele><time>2026-05-03T11:09:32.128Z</time></trkpt><trkpt lat="45.167199" lon="12.2764211"><ele>0.0</ele><time>2026-05-03T11:09:34.138Z</time></trkpt><trkpt lat="45.1672953" lon="12.2764692"><ele>0.0</ele><time>2026-05-03T11:09:36.133Z</time></trkpt><trkpt lat="45.167391" lon="12.2765169"><ele>0.0</ele><time>2026-05-03T11:09:38.127Z</time></trkpt><trkpt lat="45.1674821" lon="12.2765631"><ele>0.0</ele><time>2026-05-03T11:09:40.131Z</time></trkpt><trkpt lat="45.1675672" lon="12.2766021"><ele>0.0</ele><time>2026-05-03T11:09:42.134Z</time></trkpt><trkpt lat="45.167644" lon="12.2766385"><ele>0.0</ele><time>2026-05-03T11:09:44.129Z</time></trkpt><trkpt lat="45.1677174" lon="12.2766709"><ele>0.0</ele><time>2026-05-03T11:09:46.13Z</time></trkpt><trkpt lat="45.1677875" lon="12.2767038"><ele>0.0</ele><time>2026-05-03T11:09:48.128Z</time></trkpt><trkpt lat="45.1678476" lon="12.2767419"><ele>0.0</ele><time>2026-05-03T11:09:50.127Z</time></trkpt><trkpt lat="45.1679081" lon="12.2767786"><ele>0.0</ele><time>2026-05-03T11:09:52.133Z</time></trkpt><trkpt lat="45.1679771" lon="12.2768198"><ele>0.0</ele><time>2026-05-03T11:09:54.13Z</time></trkpt><trkpt lat="45.1680522" lon="12.2768577"><ele>0.0</ele><time>2026-05-03T11:09:56.132Z</time></trkpt><trkpt lat="45.1681236" lon="12.2768974"><ele>0.0</ele><time>2026-05-03T11:09:58.132Z</time></trkpt><trkpt lat="45.1681867" lon="12.2769367"><ele>0.0</ele><time>2026-05-03T11:10:00.127Z</time></trkpt><trkpt lat="45.1682505" lon="12.2769719"><ele>0.0</ele><time>2026-05-03T11:10:02.128Z</time></trkpt><trkpt lat="45.1683185" lon="12.277015"><ele>0.0</ele><time>2026-05-03T11:10:04.127Z</time></trkpt><trkpt lat="45.1683969" lon="12.2770636"><ele>0.0</ele><time>2026-05-03T11:10:06.131Z</time></trkpt><trkpt lat="45.1684803" lon="12.2771067"><ele>-0.16666666666666666</ele><time>2026-05-03T11:10:08.131Z</time></trkpt><trkpt lat="45.1685644" lon="12.2771482"><ele>-0.3333333333333333</ele><time>2026-05-03T11:10:10.127Z</time></trkpt><trkpt lat="45.1686413" lon="12.2771914"><ele>-0.5</ele><time>2026-05-03T11:10:12.128Z</time></trkpt><trkpt lat="45.1687155" lon="12.2772247"><ele>-0.6666666666666666</ele><time>2026-05-03T11:10:14.13Z</time></trkpt><trkpt lat="45.1687881" lon="12.2772514"><ele>-0.8333333333333333</ele><time>2026-05-03T11:10:16.131Z</time></trkpt><trkpt lat="45.1688527" lon="12.277274"><ele>-1.0</ele><time>2026-05-03T11:10:18.132Z</time></trkpt><trkpt lat="45.1689439" lon="12.2772948"><ele>-1.1666666666666665</ele><time>2026-05-03T11:10:21.13Z</time></trkpt><trkpt lat="45.1690309" lon="12.2773017"><ele>-1.3333333333333333</ele><time>2026-05-03T11:10:24.131Z</time></trkpt><trkpt lat="45.1691132" lon="12.2773064"><ele>-1.5</ele><time>2026-05-03T11:10:27.134Z</time></trkpt><trkpt lat="45.1691799" lon="12.2773019"><ele>-1.6666666666666665</ele><time>2026-05-03T11:10:29.128Z</time></trkpt><trkpt lat="45.1692576" lon="12.2772897"><ele>-1.8333333333333333</ele><time>2026-05-03T11:10:31.128Z</time></trkpt><trkpt lat="45.1693438" lon="12.2772809"><ele>-2.0</ele><time>2026-05-03T11:10:33.135Z</time></trkpt><trkpt lat="45.1694376" lon="12.2772797"><ele>-2.0</ele><time>2026-05-03T11:10:35.127Z</time></trkpt><trkpt lat="45.1695298" lon="12.2772731"><ele>-2.0</ele><time>2026-05-03T11:10:37.135Z</time></trkpt><trkpt lat="45.1696249" lon="12.2772672"><ele>-2.0</ele><time>2026-05-03T11:10:39.13Z</time></trkpt><trkpt lat="45.1697174" lon="12.2772504"><ele>-2.0</ele><time>2026-05-03T11:10:41.13Z</time></trkpt><trkpt lat="45.1698123" lon="12.2772399"><ele>-2.0</ele><time>2026-05-03T11:10:43.139Z</time></trkpt><trkpt lat="45.1699083" lon="12.2772335"><ele>-2.4000000000000004</ele><time>2026-05-03T11:10:45.133Z</time></trkpt><trkpt lat="45.1700083" lon="12.2772258"><ele>-2.8000000000000003</ele><time>2026-05-03T11:10:47.135Z</time></trkpt><trkpt lat="45.1701056" lon="12.2772195"><ele>-3.2</ele><time>2026-05-03T11:10:49.131Z</time></trkpt><trkpt lat="45.1701993" lon="12.2772185"><ele>-3.6</ele><time>2026-05-03T11:10:51.128Z</time></trkpt><trkpt lat="45.170292" lon="12.2772234"><ele>-4.0</ele><time>2026-05-03T11:10:53.135Z</time></trkpt><trkpt lat="45.170387" lon="12.2772276"><ele>-4.0</ele><time>2026-05-03T11:10:55.128Z</time></trkpt><trkpt lat="45.1704847" lon="12.2772307"><ele>-4.0</ele><time>2026-05-03T11:10:57.133Z</time></trkpt><trkpt lat="45.1705847" lon="12.2772352"><ele>-4.0</ele><time>2026-05-03T11:10:59.133Z</time></trkpt><trkpt lat="45.1706882" lon="12.2772443"><ele>-4.0</ele><time>2026-05-03T11:11:01.127Z</time></trkpt><trkpt lat="45.1707896" lon="12.2772523"><ele>-4.0</ele><time>2026-05-03T11:11:03.138Z</time></trkpt><trkpt lat="45.1708937" lon="12.2772617"><ele>-3.8000000000000003</ele><time>2026-05-03T11:11:05.123Z</time></trkpt><trkpt lat="45.1709954" lon="12.2772781"><ele>-3.6000000000000005</ele><time>2026-05-03T11:11:07.128Z</time></trkpt><trkpt lat="45.1710967" lon="12.2773191"><ele>-3.4</ele><time>2026-05-03T11:11:09.122Z</time></trkpt><trkpt lat="45.1711967" lon="12.2773889"><ele>-3.2</ele><time>2026-05-03T11:11:11.133Z</time></trkpt><trkpt lat="45.1712829" lon="12.2774641"><ele>-3.0</ele><time>2026-05-03T11:11:13.135Z</time></trkpt><trkpt lat="45.1713705" lon="12.2775301"><ele>-3.0</ele><time>2026-05-03T11:11:15.131Z</time></trkpt><trkpt lat="45.1714633" lon="12.2775751"><ele>-3.0</ele><time>2026-05-03T11:11:17.127Z</time></trkpt><trkpt lat="45.1715592" lon="12.2775964"><ele>-3.0</ele><time>2026-05-03T11:11:19.131Z</time></trkpt><trkpt lat="45.1716489" lon="12.2775885"><ele>-3.0</ele><time>2026-05-03T11:11:21.131Z</time></trkpt><trkpt lat="45.1717359" lon="12.2775606"><ele>-3.0</ele><time>2026-05-03T11:11:23.139Z</time></trkpt><trkpt lat="45.1718228" lon="12.2775215"><ele>-2.6666666666666665</ele><time>2026-05-03T11:11:25.131Z</time></trkpt><trkpt lat="45.1719062" lon="12.2774848"><ele>-2.3333333333333335</ele><time>2026-05-03T11:11:27.131Z</time></trkpt><trkpt lat="45.1719813" lon="12.2774376"><ele>-2.0</ele><time>2026-05-03T11:11:29.132Z</time></trkpt><trkpt lat="45.172055" lon="12.2773915"><ele>-1.6666666666666665</ele><time>2026-05-03T11:11:31.128Z</time></trkpt><trkpt lat="45.1721318" lon="12.2773548"><ele>-1.3333333333333333</ele><time>2026-05-03T11:11:33.137Z</time></trkpt><trkpt lat="45.1722078" lon="12.2773213"><ele>-1.0</ele><time>2026-05-03T11:11:35.13Z</time></trkpt><trkpt lat="45.1722795" lon="12.2772884"><ele>-0.9999999999999999</ele><time>2026-05-03T11:11:37.132Z</time></trkpt><trkpt lat="45.1723551" lon="12.277247"><ele>-1.0</ele><time>2026-05-03T11:11:39.129Z</time></trkpt><trkpt lat="45.1724375" lon="12.2772071"><ele>-1.0</ele><time>2026-05-03T11:11:41.128Z</time></trkpt><trkpt lat="45.1725253" lon="12.2771725"><ele>-1.0</ele><time>2026-05-03T11:11:43.136Z</time></trkpt><trkpt lat="45.1726143" lon="12.2771357"><ele>-0.9999999999999999</ele><time>2026-05-03T11:11:45.128Z</time></trkpt><trkpt lat="45.1727046" lon="12.277095"><ele>-1.0</ele><time>2026-05-03T11:11:47.127Z</time></trkpt><trkpt lat="45.1727963" lon="12.2770533"><ele>-1.0</ele><time>2026-05-03T11:11:49.133Z</time></trkpt><trkpt lat="45.1728908" lon="12.2770127"><ele>-1.0</ele><time>2026-05-03T11:11:51.127Z</time></trkpt><trkpt lat="45.1729901" lon="12.2769722"><ele>-1.0</ele><time>2026-05-03T11:11:53.13Z</time></trkpt><trkpt lat="45.1730944" lon="12.2769325"><ele>-1.0</ele><time>2026-05-03T11:11:55.131Z</time></trkpt><trkpt lat="45.1731966" lon="12.2768889"><ele>-1.0</ele><time>2026-05-03T11:11:57.135Z</time></trkpt><trkpt lat="45.1732976" lon="12.2768485"><ele>-1.2000000000000002</ele><time>2026-05-03T11:11:59.13Z</time></trkpt><trkpt lat="45.173393" lon="12.2768042"><ele>-1.4000000000000001</ele><time>2026-05-03T11:12:01.126Z</time></trkpt><trkpt lat="45.1734845" lon="12.2767674"><ele>-1.6</ele><time>2026-05-03T11:12:03.139Z</time></trkpt><trkpt lat="45.1735753" lon="12.2767365"><ele>-1.8</ele><time>2026-05-03T11:12:05.131Z</time></trkpt><trkpt lat="45.1736628" lon="12.2766938"><ele>-2.0</ele><time>2026-05-03T11:12:07.129Z</time></trkpt><trkpt lat="45.1737553" lon="12.27664"><ele>-2.0</ele><time>2026-05-03T11:12:09.13Z</time></trkpt><trkpt lat="45.173855" lon="12.2765763"><ele>-2.0</ele><time>2026-05-03T11:12:11.126Z</time></trkpt><trkpt lat="45.1739539" lon="12.2765051"><ele>-2.0</ele><time>2026-05-03T11:12:13.133Z</time></trkpt><trkpt lat="45.1740522" lon="12.2764214"><ele>-2.0</ele><time>2026-05-03T11:12:15.132Z</time></trkpt><trkpt lat="45.1741482" lon="12.2763376"><ele>-2.0</ele><time>2026-05-03T11:12:17.127Z</time></trkpt><trkpt lat="45.1742375" lon="12.2762562"><ele>-1.8333333333333333</ele><time>2026-05-03T11:12:19.13Z</time></trkpt><trkpt lat="45.1743191" lon="12.2761821"><ele>-1.6666666666666665</ele><time>2026-05-03T11:12:21.126Z</time></trkpt><trkpt lat="45.1743954" lon="12.2761162"><ele>-1.5</ele><time>2026-05-03T11:12:23.125Z</time></trkpt><trkpt lat="45.1744702" lon="12.2760457"><ele>-1.3333333333333333</ele><time>2026-05-03T11:12:25.122Z</time></trkpt><trkpt lat="45.1745365" lon="12.2759792"><ele>-1.1666666666666665</ele><time>2026-05-03T11:12:27.125Z</time></trkpt><trkpt lat="45.1745947" lon="12.2759237"><ele>-1.0</ele><time>2026-05-03T11:12:29.123Z</time></trkpt><trkpt lat="45.1746706" lon="12.2758486"><ele>-0.9999999999999999</ele><time>2026-05-03T11:12:32.127Z</time></trkpt><trkpt lat="45.174722" lon="12.275792"><ele>-1.0</ele><time>2026-05-03T11:12:34.128Z</time></trkpt><trkpt lat="45.1747917" lon="12.2757661"><ele>-1.0</ele><time>2026-05-03T11:12:36.132Z</time></trkpt><trkpt lat="45.174865" lon="12.2757828"><ele>-1.0</ele><time>2026-05-03T11:12:38.127Z</time></trkpt><trkpt lat="45.1749419" lon="12.2758166"><ele>-0.9999999999999999</ele><time>2026-05-03T11:12:40.128Z</time></trkpt><trkpt lat="45.1750275" lon="12.2758544"><ele>-1.0</ele><time>2026-05-03T11:12:42.121Z</time></trkpt><trkpt lat="45.1751187" lon="12.275888"><ele>-0.8</ele><time>2026-05-03T11:12:44.123Z</time></trkpt><trkpt lat="45.1752126" lon="12.2759232"><ele>-0.6000000000000001</ele><time>2026-05-03T11:12:46.128Z</time></trkpt><trkpt lat="45.1753082" lon="12.2759563"><ele>-0.4</ele><time>2026-05-03T11:12:48.132Z</time></trkpt><trkpt lat="45.1754051" lon="12.2759952"><ele>-0.2</ele><time>2026-05-03T11:12:50.128Z</time></trkpt><trkpt lat="45.1755008" lon="12.276035"><ele>0.0</ele><time>2026-05-03T11:12:52.128Z</time></trkpt><trkpt lat="45.1755942" lon="12.276078"><ele>0.0</ele><time>2026-05-03T11:12:54.131Z</time></trkpt><trkpt lat="45.1756857" lon="12.2761223"><ele>0.0</ele><time>2026-05-03T11:12:56.126Z</time></trkpt><trkpt lat="45.1757802" lon="12.2761673"><ele>0.0</ele><time>2026-05-03T11:12:58.137Z</time></trkpt><trkpt lat="45.1758713" lon="12.2762161"><ele>0.0</ele><time>2026-05-03T11:13:00.129Z</time></trkpt><trkpt lat="45.1759646" lon="12.2762663"><ele>0.0</ele><time>2026-05-03T11:13:02.128Z</time></trkpt><trkpt lat="45.1760616" lon="12.2763151"><ele>0.0</ele><time>2026-05-03T11:13:04.126Z</time></trkpt><trkpt lat="45.1761554" lon="12.2763636"><ele>0.0</ele><time>2026-05-03T11:13:06.128Z</time></trkpt><trkpt lat="45.1762444" lon="12.2764106"><ele>0.0</ele><time>2026-05-03T11:13:08.13Z</time></trkpt><trkpt lat="45.1763312" lon="12.2764563"><ele>0.0</ele><time>2026-05-03T11:13:10.127Z</time></trkpt><trkpt lat="45.1764181" lon="12.2765018"><ele>0.0</ele><time>2026-05-03T11:13:12.128Z</time></trkpt><trkpt lat="45.1765035" lon="12.2765484"><ele>0.0</ele><time>2026-05-03T11:13:14.131Z</time></trkpt><trkpt lat="45.1765869" lon="12.2765944"><ele>0.0</ele><time>2026-05-03T11:13:16.125Z</time></trkpt><trkpt lat="45.1766742" lon="12.2766385"><ele>0.0</ele><time>2026-05-03T11:13:18.133Z</time></trkpt><trkpt lat="45.1767626" lon="12.2766815"><ele>0.0</ele><time>2026-05-03T11:13:20.127Z</time></trkpt><trkpt lat="45.1768529" lon="12.2767201"><ele>0.0</ele><time>2026-05-03T11:13:22.13Z</time></trkpt><trkpt lat="45.1769451" lon="12.2767558"><ele>0.0</ele><time>2026-05-03T11:13:24.128Z</time></trkpt><trkpt lat="45.1770331" lon="12.2767899"><ele>0.0</ele><time>2026-05-03T11:13:26.127Z</time></trkpt><trkpt lat="45.1771183" lon="12.2768264"><ele>0.0</ele><time>2026-05-03T11:13:28.123Z</time></trkpt><trkpt lat="45.1772503" lon="12.2768788"><ele>0.0</ele><time>2026-05-03T11:13:31.125Z</time></trkpt><trkpt lat="45.1773405" lon="12.2769116"><ele>0.0</ele><time>2026-05-03T11:13:33.129Z</time></trkpt><trkpt lat="45.1774355" lon="12.2769429"><ele>0.16666666666666666</ele><time>2026-05-03T11:13:35.132Z</time></trkpt><trkpt lat="45.1775299" lon="12.2769689"><ele>0.3333333333333333</ele><time>2026-05-03T11:13:37.136Z</time></trkpt><trkpt lat="45.1776165" lon="12.2769917"><ele>0.5</ele><time>2026-05-03T11:13:39.129Z</time></trkpt><trkpt lat="45.1776919" lon="12.2770195"><ele>0.6666666666666666</ele><time>2026-05-03T11:13:41.132Z</time></trkpt><trkpt lat="45.1777709" lon="12.2770403"><ele>0.8333333333333333</ele><time>2026-05-03T11:13:43.138Z</time></trkpt><trkpt lat="45.1778575" lon="12.2770622"><ele>1.0</ele><time>2026-05-03T11:13:45.135Z</time></trkpt><trkpt lat="45.1779498" lon="12.2770918"><ele>1.0</ele><time>2026-05-03T11:13:47.13Z</time></trkpt><trkpt lat="45.1780436" lon="12.2771195"><ele>1.0</ele><time>2026-05-03T11:13:49.136Z</time></trkpt><trkpt lat="45.1781807" lon="12.2771592"><ele>1.0</ele><time>2026-05-03T11:13:52.122Z</time></trkpt><trkpt lat="45.1782704" lon="12.2771789"><ele>1.0</ele><time>2026-05-03T11:13:54.126Z</time></trkpt><trkpt lat="45.1783539" lon="12.2772002"><ele>1.0</ele><time>2026-05-03T11:13:56.123Z</time></trkpt><trkpt lat="45.1784448" lon="12.2772283"><ele>0.6000000000000001</ele><time>2026-05-03T11:13:58.122Z</time></trkpt><trkpt lat="45.1785393" lon="12.2772576"><ele>0.20000000000000007</ele><time>2026-05-03T11:14:00.126Z</time></trkpt><trkpt lat="45.1786303" lon="12.2772795"><ele>-0.20000000000000007</ele><time>2026-05-03T11:14:02.129Z</time></trkpt><trkpt lat="45.1787186" lon="12.2772991"><ele>-0.6000000000000001</ele><time>2026-05-03T11:14:04.135Z</time></trkpt><trkpt lat="45.1788141" lon="12.2773216"><ele>-1.0</ele><time>2026-05-03T11:14:06.135Z</time></trkpt><trkpt lat="45.1789111" lon="12.2773406"><ele>-1.0</ele><time>2026-05-03T11:14:08.128Z</time></trkpt><trkpt lat="45.179007" lon="12.277357"><ele>-1.0</ele><time>2026-05-03T11:14:10.132Z</time></trkpt><trkpt lat="45.1790977" lon="12.277382"><ele>-1.0</ele><time>2026-05-03T11:14:12.127Z</time></trkpt><trkpt lat="45.1791917" lon="12.2774016"><ele>-1.0</ele><time>2026-05-03T11:14:14.128Z</time></trkpt><trkpt lat="45.179285" lon="12.2774252"><ele>-1.0</ele><time>2026-05-03T11:14:16.129Z</time></trkpt><trkpt lat="45.1793783" lon="12.2774528"><ele>-0.8</ele><time>2026-05-03T11:14:18.126Z</time></trkpt><trkpt lat="45.1794733" lon="12.2774787"><ele>-0.6000000000000001</ele><time>2026-05-03T11:14:20.131Z</time></trkpt><trkpt lat="45.1795716" lon="12.2775032"><ele>-0.4</ele><time>2026-05-03T11:14:22.124Z</time></trkpt><trkpt lat="45.1796751" lon="12.27753"><ele>-0.2</ele><time>2026-05-03T11:14:24.132Z</time></trkpt><trkpt lat="45.1797771" lon="12.2775558"><ele>0.0</ele><time>2026-05-03T11:14:26.13Z</time></trkpt><trkpt lat="45.1798785" lon="12.2775833"><ele>0.0</ele><time>2026-05-03T11:14:28.125Z</time></trkpt><trkpt lat="45.1799812" lon="12.2776099"><ele>0.0</ele><time>2026-05-03T11:14:30.13Z</time></trkpt><trkpt lat="45.1800859" lon="12.2776374"><ele>0.0</ele><time>2026-05-03T11:14:32.13Z</time></trkpt><trkpt lat="45.180192" lon="12.2776667"><ele>0.0</ele><time>2026-05-03T11:14:34.132Z</time></trkpt><trkpt lat="45.1803003" lon="12.2776987"><ele>0.0</ele><time>2026-05-03T11:14:36.129Z</time></trkpt><trkpt lat="45.1804147" lon="12.277731"><ele>0.0</ele><time>2026-05-03T11:14:38.125Z</time></trkpt><trkpt lat="45.1805227" lon="12.2777639"><ele>0.0</ele><time>2026-05-03T11:14:40.127Z</time></trkpt><trkpt lat="45.1806301" lon="12.2777958"><ele>0.0</ele><time>2026-05-03T11:14:42.123Z</time></trkpt><trkpt lat="45.1807319" lon="12.2778324"><ele>0.0</ele><time>2026-05-03T11:14:44.126Z</time></trkpt><trkpt lat="45.1808263" lon="12.2778694"><ele>0.0</ele><time>2026-05-03T11:14:46.131Z</time></trkpt><trkpt lat="45.1809145" lon="12.2779144"><ele>0.0</ele><time>2026-05-03T11:14:48.126Z</time></trkpt><trkpt lat="45.1810063" lon="12.2779635"><ele>0.0</ele><time>2026-05-03T11:14:50.125Z</time></trkpt><trkpt lat="45.1810993" lon="12.2780159"><ele>0.0</ele><time>2026-05-03T11:14:52.126Z</time></trkpt><trkpt lat="45.1811944" lon="12.2780677"><ele>0.0</ele><time>2026-05-03T11:14:54.124Z</time></trkpt><trkpt lat="45.1812906" lon="12.2781228"><ele>0.0</ele><time>2026-05-03T11:14:56.121Z</time></trkpt><trkpt lat="45.1813829" lon="12.2781712"><ele>0.2</ele><time>2026-05-03T11:14:58.127Z</time></trkpt><trkpt lat="45.181473" lon="12.2782152"><ele>0.4</ele><time>2026-05-03T11:15:00.123Z</time></trkpt><trkpt lat="45.1815716" lon="12.278257"><ele>0.6000000000000001</ele><time>2026-05-03T11:15:02.126Z</time></trkpt><trkpt lat="45.1816681" lon="12.2782928"><ele>0.8</ele><time>2026-05-03T11:15:04.125Z</time></trkpt><trkpt lat="45.1817562" lon="12.278324"><ele>1.0</ele><time>2026-05-03T11:15:06.121Z</time></trkpt><trkpt lat="45.1818392" lon="12.2783425"><ele>1.2857142857142856</ele><time>2026-05-03T11:15:08.121Z</time></trkpt><trkpt lat="45.1819192" lon="12.2783613"><ele>1.5714285714285712</ele><time>2026-05-03T11:15:10.124Z</time></trkpt><trkpt lat="45.1819949" lon="12.2783856"><ele>1.857142857142857</ele><time>2026-05-03T11:15:12.123Z</time></trkpt><trkpt lat="45.1820668" lon="12.2783987"><ele>2.142857142857143</ele><time>2026-05-03T11:15:14.123Z</time></trkpt><trkpt lat="45.1821352" lon="12.2784022"><ele>2.4285714285714284</ele><time>2026-05-03T11:15:16.127Z</time></trkpt><trkpt lat="45.1822019" lon="12.2784051"><ele>2.714285714285714</ele><time>2026-05-03T11:15:18.127Z</time></trkpt><trkpt lat="45.1822672" lon="12.278404"><ele>3.0</ele><time>2026-05-03T11:15:20.125Z</time></trkpt><trkpt lat="45.1823597" lon="12.2784049"><ele>3.1666666666666665</ele><time>2026-05-03T11:15:23.127Z</time></trkpt><trkpt lat="45.1824421" lon="12.2784144"><ele>3.333333333333333</ele><time>2026-05-03T11:15:26.123Z</time></trkpt><trkpt lat="45.1825117" lon="12.2784166"><ele>3.5</ele><time>2026-05-03T11:15:28.125Z</time></trkpt><trkpt lat="45.1825908" lon="12.2784127"><ele>3.6666666666666665</ele><time>2026-05-03T11:15:30.121Z</time></trkpt><trkpt lat="45.1826721" lon="12.2784099"><ele>3.833333333333333</ele><time>2026-05-03T11:15:32.122Z</time></trkpt><trkpt lat="45.1827501" lon="12.2784029"><ele>4.0</ele><time>2026-05-03T11:15:34.123Z</time></trkpt><trkpt lat="45.1828192" lon="12.2784"><ele>3.9999999999999996</ele><time>2026-05-03T11:15:36.12Z</time></trkpt><trkpt lat="45.1828897" lon="12.278404"><ele>4.0</ele><time>2026-05-03T11:15:38.125Z</time></trkpt><trkpt lat="45.1829558" lon="12.278407"><ele>4.0</ele><time>2026-05-03T11:15:40.119Z</time></trkpt><trkpt lat="45.1830509" lon="12.2784087"><ele>4.0</ele><time>2026-05-03T11:15:43.13Z</time></trkpt><trkpt lat="45.1831253" lon="12.2784046"><ele>3.9999999999999996</ele><time>2026-05-03T11:15:45.127Z</time></trkpt><trkpt lat="45.1832056" lon="12.278401"><ele>4.0</ele><time>2026-05-03T11:15:47.126Z</time></trkpt><trkpt lat="45.183288" lon="12.2783995"><ele>3.833333333333333</ele><time>2026-05-03T11:15:49.124Z</time></trkpt><trkpt lat="45.183372" lon="12.278395"><ele>3.6666666666666665</ele><time>2026-05-03T11:15:51.129Z</time></trkpt><trkpt lat="45.1834566" lon="12.2783991"><ele>3.5</ele><time>2026-05-03T11:15:53.131Z</time></trkpt><trkpt lat="45.1835346" lon="12.2784101"><ele>3.333333333333333</ele><time>2026-05-03T11:15:55.131Z</time></trkpt><trkpt lat="45.1836137" lon="12.2784101"><ele>3.1666666666666665</ele><time>2026-05-03T11:15:57.127Z</time></trkpt><trkpt lat="45.1836929" lon="12.2784103"><ele>3.0</ele><time>2026-05-03T11:15:59.135Z</time></trkpt><trkpt lat="45.1837756" lon="12.2784165"><ele>3.0</ele><time>2026-05-03T11:16:01.124Z</time></trkpt><trkpt lat="45.183866" lon="12.2784279"><ele>3.0</ele><time>2026-05-03T11:16:03.128Z</time></trkpt><trkpt lat="45.1839586" lon="12.2784443"><ele>3.0</ele><time>2026-05-03T11:16:05.13Z</time></trkpt><trkpt lat="45.1840536" lon="12.278473"><ele>3.0</ele><time>2026-05-03T11:16:07.131Z</time></trkpt><trkpt lat="45.184149" lon="12.2784976"><ele>3.0</ele><time>2026-05-03T11:16:09.132Z</time></trkpt><trkpt lat="45.1842447" lon="12.2785237"><ele>2.6</ele><time>2026-05-03T11:16:11.125Z</time></trkpt><trkpt lat="45.1843474" lon="12.278547"><ele>2.1999999999999997</ele><time>2026-05-03T11:16:13.132Z</time></trkpt><trkpt lat="45.1844533" lon="12.278572"><ele>1.8</ele><time>2026-05-03T11:16:15.133Z</time></trkpt><trkpt lat="45.184565" lon="12.2785993"><ele>1.4</ele><time>2026-05-03T11:16:17.133Z</time></trkpt><trkpt lat="45.184675" lon="12.2786383"><ele>1.0</ele><time>2026-05-03T11:16:19.134Z</time></trkpt><trkpt lat="45.1847789" lon="12.2786921"><ele>1.0</ele><time>2026-05-03T11:16:21.132Z</time></trkpt><trkpt lat="45.1848859" lon="12.2787347"><ele>1.0</ele><time>2026-05-03T11:16:23.137Z</time></trkpt><trkpt lat="45.1849877" lon="12.278773"><ele>1.0</ele><time>2026-05-03T11:16:25.132Z</time></trkpt><trkpt lat="45.1850841" lon="12.2788039"><ele>1.0</ele><time>2026-05-03T11:16:27.132Z</time></trkpt><trkpt lat="45.1851741" lon="12.278838"><ele>1.0</ele><time>2026-05-03T11:16:29.125Z</time></trkpt><trkpt lat="45.1852594" lon="12.2788696"><ele>1.0</ele><time>2026-05-03T11:16:31.125Z</time></trkpt><trkpt lat="45.1853497" lon="12.2789018"><ele>1.0</ele><time>2026-05-03T11:16:33.132Z</time></trkpt><trkpt lat="45.1854434" lon="12.2789428"><ele>1.0</ele><time>2026-05-03T11:16:35.128Z</time></trkpt><trkpt lat="45.1855346" lon="12.278989"><ele>1.0</ele><time>2026-05-03T11:16:37.128Z</time></trkpt><trkpt lat="45.1856202" lon="12.279027"><ele>1.0</ele><time>2026-05-03T11:16:39.124Z</time></trkpt><trkpt lat="45.1857025" lon="12.2790503"><ele>0.8333333333333333</ele><time>2026-05-03T11:16:41.129Z</time></trkpt><trkpt lat="45.1857778" lon="12.2790834"><ele>0.6666666666666666</ele><time>2026-05-03T11:16:43.124Z</time></trkpt><trkpt lat="45.185844" lon="12.2791112"><ele>0.5</ele><time>2026-05-03T11:16:45.123Z</time></trkpt><trkpt lat="45.1859108" lon="12.2791372"><ele>0.3333333333333333</ele><time>2026-05-03T11:16:47.123Z</time></trkpt><trkpt lat="45.1859827" lon="12.2791723"><ele>0.16666666666666666</ele><time>2026-05-03T11:16:49.122Z</time></trkpt><trkpt lat="45.1860638" lon="12.2791908"><ele>0.0</ele><time>2026-05-03T11:16:51.121Z</time></trkpt><trkpt lat="45.1861453" lon="12.2792072"><ele>0.0</ele><time>2026-05-03T11:16:53.124Z</time></trkpt><trkpt lat="45.1862304" lon="12.279243"><ele>0.0</ele><time>2026-05-03T11:16:55.128Z</time></trkpt><trkpt lat="45.1863181" lon="12.2792768"><ele>0.0</ele><time>2026-05-03T11:16:57.127Z</time></trkpt><trkpt lat="45.1864123" lon="12.2793096"><ele>0.0</ele><time>2026-05-03T11:16:59.125Z</time></trkpt><trkpt lat="45.1865104" lon="12.2793478"><ele>0.0</ele><time>2026-05-03T11:17:01.129Z</time></trkpt><trkpt lat="45.1866121" lon="12.2793913"><ele>0.4</ele><time>2026-05-03T11:17:03.13Z</time></trkpt><trkpt lat="45.1867162" lon="12.2794343"><ele>0.8</ele><time>2026-05-03T11:17:05.128Z</time></trkpt><trkpt lat="45.186824" lon="12.2794755"><ele>1.2000000000000002</ele><time>2026-05-03T11:17:07.124Z</time></trkpt><trkpt lat="45.1869309" lon="12.2795203"><ele>1.6</ele><time>2026-05-03T11:17:09.129Z</time></trkpt><trkpt lat="45.1870325" lon="12.2795711"><ele>2.0</ele><time>2026-05-03T11:17:11.127Z</time></trkpt><trkpt lat="45.1871377" lon="12.2796171"><ele>2.0</ele><time>2026-05-03T11:17:13.127Z</time></trkpt><trkpt lat="45.18724" lon="12.2796646"><ele>2.0</ele><time>2026-05-03T11:17:15.126Z</time></trkpt><trkpt lat="45.1873377" lon="12.2797108"><ele>2.0</ele><time>2026-05-03T11:17:17.126Z</time></trkpt><trkpt lat="45.1874364" lon="12.2797546"><ele>2.0</ele><time>2026-05-03T11:17:19.121Z</time></trkpt><trkpt lat="45.18754" lon="12.2797984"><ele>2.0</ele><time>2026-05-03T11:17:21.129Z</time></trkpt><trkpt lat="45.187641" lon="12.2798507"><ele>1.8</ele><time>2026-05-03T11:17:23.126Z</time></trkpt><trkpt lat="45.1877399" lon="12.2799002"><ele>1.6</ele><time>2026-05-03T11:17:25.128Z</time></trkpt><trkpt lat="45.1878355" lon="12.2799492"><ele>1.4000000000000001</ele><time>2026-05-03T11:17:27.127Z</time></trkpt><trkpt lat="45.1879268" lon="12.280001"><ele>1.2000000000000002</ele><time>2026-05-03T11:17:29.124Z</time></trkpt><trkpt lat="45.1880193" lon="12.2800479"><ele>1.0</ele><time>2026-05-03T11:17:31.122Z</time></trkpt><trkpt lat="45.1881128" lon="12.2800925"><ele>1.0</ele><time>2026-05-03T11:17:33.123Z</time></trkpt><trkpt lat="45.1882115" lon="12.2801328"><ele>1.0</ele><time>2026-05-03T11:17:35.125Z</time></trkpt><trkpt lat="45.1883139" lon="12.2801604"><ele>1.0</ele><time>2026-05-03T11:17:37.119Z</time></trkpt><trkpt lat="45.1884154" lon="12.280178"><ele>1.0</ele><time>2026-05-03T11:17:39.116Z</time></trkpt><trkpt lat="45.1885173" lon="12.2801869"><ele>1.0</ele><time>2026-05-03T11:17:41.121Z</time></trkpt><trkpt lat="45.1886231" lon="12.2801896"><ele>1.0</ele><time>2026-05-03T11:17:43.128Z</time></trkpt><trkpt lat="45.1887288" lon="12.280197"><ele>1.0</ele><time>2026-05-03T11:17:45.121Z</time></trkpt><trkpt lat="45.1888355" lon="12.2802023"><ele>1.0</ele><time>2026-05-03T11:17:47.126Z</time></trkpt><trkpt lat="45.1889417" lon="12.2802097"><ele>1.0</ele><time>2026-05-03T11:17:49.122Z</time></trkpt><trkpt lat="45.1890447" lon="12.2802185"><ele>1.0</ele><time>2026-05-03T11:17:51.122Z</time></trkpt><trkpt lat="45.1891469" lon="12.2802277"><ele>0.8</ele><time>2026-05-03T11:17:53.125Z</time></trkpt><trkpt lat="45.1892521" lon="12.2802393"><ele>0.6000000000000001</ele><time>2026-05-03T11:17:55.124Z</time></trkpt><trkpt lat="45.1893586" lon="12.2802586"><ele>0.4</ele><time>2026-05-03T11:17:57.126Z</time></trkpt><trkpt lat="45.1894667" lon="12.2802764"><ele>0.2</ele><time>2026-05-03T11:17:59.127Z</time></trkpt><trkpt lat="45.1895706" lon="12.2802968"><ele>0.0</ele><time>2026-05-03T11:18:01.128Z</time></trkpt><trkpt lat="45.1896724" lon="12.2803164"><ele>0.0</ele><time>2026-05-03T11:18:03.125Z</time></trkpt><trkpt lat="45.1897749" lon="12.2803384"><ele>0.0</ele><time>2026-05-03T11:18:05.128Z</time></trkpt><trkpt lat="45.1898845" lon="12.280354"><ele>0.0</ele><time>2026-05-03T11:18:07.119Z</time></trkpt><trkpt lat="45.1899898" lon="12.2803697"><ele>0.0</ele><time>2026-05-03T11:18:09.123Z</time></trkpt><trkpt lat="45.1900953" lon="12.2803907"><ele>0.0</ele><time>2026-05-03T11:18:11.127Z</time></trkpt><trkpt lat="45.1901975" lon="12.2804124"><ele>0.0</ele><time>2026-05-03T11:18:13.126Z</time></trkpt><trkpt lat="45.1903045" lon="12.28043"><ele>0.0</ele><time>2026-05-03T11:18:15.125Z</time></trkpt><trkpt lat="45.1904132" lon="12.2804561"><ele>0.0</ele><time>2026-05-03T11:18:17.119Z</time></trkpt><trkpt lat="45.1905175" lon="12.2804914"><ele>0.0</ele><time>2026-05-03T11:18:19.129Z</time></trkpt><trkpt lat="45.1906274" lon="12.2805212"><ele>0.0</ele><time>2026-05-03T11:18:21.136Z</time></trkpt><trkpt lat="45.1907401" lon="12.2805435"><ele>0.2</ele><time>2026-05-03T11:18:23.126Z</time></trkpt><trkpt lat="45.1908492" lon="12.2805707"><ele>0.4</ele><time>2026-05-03T11:18:25.127Z</time></trkpt><trkpt lat="45.1909502" lon="12.2806059"><ele>0.6000000000000001</ele><time>2026-05-03T11:18:27.126Z</time></trkpt><trkpt lat="45.1910501" lon="12.2806481"><ele>0.8</ele><time>2026-05-03T11:18:29.124Z</time></trkpt><trkpt lat="45.1911507" lon="12.280698"><ele>1.0</ele><time>2026-05-03T11:18:31.126Z</time></trkpt><trkpt lat="45.1912499" lon="12.2807536"><ele>1.0</ele><time>2026-05-03T11:18:33.127Z</time></trkpt><trkpt lat="45.1913501" lon="12.2808123"><ele>1.0</ele><time>2026-05-03T11:18:35.125Z</time></trkpt><trkpt lat="45.1914506" lon="12.280865"><ele>1.0</ele><time>2026-05-03T11:18:37.126Z</time></trkpt><trkpt lat="45.1915422" lon="12.2809139"><ele>1.0</ele><time>2026-05-03T11:18:39.122Z</time></trkpt><trkpt lat="45.1916353" lon="12.2809589"><ele>1.0</ele><time>2026-05-03T11:18:41.126Z</time></trkpt><trkpt lat="45.1917324" lon="12.2809996"><ele>1.2000000000000002</ele><time>2026-05-03T11:18:43.126Z</time></trkpt><trkpt lat="45.1918347" lon="12.2810385"><ele>1.4000000000000001</ele><time>2026-05-03T11:18:45.122Z</time></trkpt><trkpt lat="45.1919288" lon="12.2810843"><ele>1.6</ele><time>2026-05-03T11:18:47.123Z</time></trkpt><trkpt lat="45.1920111" lon="12.2811314"><ele>1.8</ele><time>2026-05-03T11:18:49.124Z</time></trkpt><trkpt lat="45.1920851" lon="12.2811735"><ele>2.0</ele><time>2026-05-03T11:18:51.126Z</time></trkpt><trkpt lat="45.1921722" lon="12.2812121"><ele>2.0</ele><time>2026-05-03T11:18:53.13Z</time></trkpt><trkpt lat="45.1922676" lon="12.2812545"><ele>2.0</ele><time>2026-05-03T11:18:55.118Z</time></trkpt><trkpt lat="45.192363" lon="12.2812984"><ele>2.0</ele><time>2026-05-03T11:18:57.123Z</time></trkpt><trkpt lat="45.1924577" lon="12.2813453"><ele>2.0</ele><time>2026-05-03T11:18:59.118Z</time></trkpt><trkpt lat="45.1925532" lon="12.2813949"><ele>2.0</ele><time>2026-05-03T11:19:01.125Z</time></trkpt><trkpt lat="45.1926563" lon="12.281445"><ele>1.8</ele><time>2026-05-03T11:19:03.126Z</time></trkpt><trkpt lat="45.1927576" lon="12.2814923"><ele>1.6</ele><time>2026-05-03T11:19:05.123Z</time></trkpt><trkpt lat="45.1928535" lon="12.2815267"><ele>1.4000000000000001</ele><time>2026-05-03T11:19:07.123Z</time></trkpt><trkpt lat="45.1929432" lon="12.2815638"><ele>1.2000000000000002</ele><time>2026-05-03T11:19:09.12Z</time></trkpt><trkpt lat="45.1930375" lon="12.2816073"><ele>1.0</ele><time>2026-05-03T11:19:11.122Z</time></trkpt><trkpt lat="45.1931336" lon="12.2816437"><ele>1.0</ele><time>2026-05-03T11:19:13.127Z</time></trkpt><trkpt lat="45.1932281" lon="12.2816778"><ele>1.0</ele><time>2026-05-03T11:19:15.13Z</time></trkpt><trkpt lat="45.1933285" lon="12.2817073"><ele>1.0</ele><time>2026-05-03T11:19:17.129Z</time></trkpt><trkpt lat="45.1934283" lon="12.2817377"><ele>1.0</ele><time>2026-05-03T11:19:19.124Z</time></trkpt><trkpt lat="45.1935282" lon="12.2817722"><ele>1.0</ele><time>2026-05-03T11:19:21.126Z</time></trkpt><trkpt lat="45.1936266" lon="12.2817974"><ele>1.0</ele><time>2026-05-03T11:19:23.126Z</time></trkpt><trkpt lat="45.1937266" lon="12.2818284"><ele>1.0</ele><time>2026-05-03T11:19:25.12Z</time></trkpt><trkpt lat="45.1938341" lon="12.2818615"><ele>1.0</ele><time>2026-05-03T11:19:27.126Z</time></trkpt><trkpt lat="45.1939405" lon="12.281895"><ele>1.0</ele><time>2026-05-03T11:19:29.123Z</time></trkpt><trkpt lat="45.1940423" lon="12.2819282"><ele>1.0</ele><time>2026-05-03T11:19:31.124Z</time></trkpt><trkpt lat="45.194142" lon="12.281959"><ele>1.4</ele><time>2026-05-03T11:19:33.124Z</time></trkpt><trkpt lat="45.1942339" lon="12.2819898"><ele>1.8</ele><time>2026-05-03T11:19:35.119Z</time></trkpt><trkpt lat="45.1943244" lon="12.2820213"><ele>2.1999999999999997</ele><time>2026-05-03T11:19:37.12Z</time></trkpt><trkpt lat="45.1944198" lon="12.2820475"><ele>2.6</ele><time>2026-05-03T11:19:39.124Z</time></trkpt><trkpt lat="45.1945155" lon="12.2820791"><ele>3.0</ele><time>2026-05-03T11:19:41.121Z</time></trkpt><trkpt lat="45.194613" lon="12.2821138"><ele>3.0</ele><time>2026-05-03T11:19:43.121Z</time></trkpt><trkpt lat="45.1947124" lon="12.2821465"><ele>3.0</ele><time>2026-05-03T11:19:45.124Z</time></trkpt><trkpt lat="45.1948106" lon="12.282177"><ele>3.0</ele><time>2026-05-03T11:19:47.124Z</time></trkpt><trkpt lat="45.194907" lon="12.2822076"><ele>3.0</ele><time>2026-05-03T11:19:49.125Z</time></trkpt><trkpt lat="45.1950008" lon="12.2822455"><ele>3.0</ele><time>2026-05-03T11:19:51.126Z</time></trkpt><trkpt lat="45.1950975" lon="12.2822806"><ele>2.6666666666666665</ele><time>2026-05-03T11:19:53.126Z</time></trkpt><trkpt lat="45.1951883" lon="12.2823117"><ele>2.3333333333333335</ele><time>2026-05-03T11:19:55.126Z</time></trkpt><trkpt lat="45.195274" lon="12.2823338"><ele>2.0</ele><time>2026-05-03T11:19:57.126Z</time></trkpt><trkpt lat="45.195359" lon="12.2823584"><ele>1.6666666666666665</ele><time>2026-05-03T11:19:59.124Z</time></trkpt><trkpt lat="45.1954401" lon="12.2823793"><ele>1.3333333333333333</ele><time>2026-05-03T11:20:01.124Z</time></trkpt><trkpt lat="45.1955211" lon="12.2823989"><ele>1.0</ele><time>2026-05-03T11:20:03.125Z</time></trkpt><trkpt lat="45.1955881" lon="12.2824186"><ele>0.8333333333333333</ele><time>2026-05-03T11:20:05.122Z</time></trkpt><trkpt lat="45.195671" lon="12.2824484"><ele>0.6666666666666666</ele><time>2026-05-03T11:20:08.121Z</time></trkpt><trkpt lat="45.1957608" lon="12.2824841"><ele>0.5</ele><time>2026-05-03T11:20:11.12Z</time></trkpt><trkpt lat="45.1958299" lon="12.2825231"><ele>0.3333333333333333</ele><time>2026-05-03T11:20:13.12Z</time></trkpt><trkpt lat="45.1958993" lon="12.2825807"><ele>0.16666666666666666</ele><time>2026-05-03T11:20:15.116Z</time></trkpt><trkpt lat="45.1959663" lon="12.2826471"><ele>0.0</ele><time>2026-05-03T11:20:17.124Z</time></trkpt><trkpt lat="45.1960358" lon="12.2827234"><ele>0.0</ele><time>2026-05-03T11:20:19.122Z</time></trkpt><trkpt lat="45.1961083" lon="12.28281"><ele>0.0</ele><time>2026-05-03T11:20:21.124Z</time></trkpt><trkpt lat="45.1961754" lon="12.2828993"><ele>0.0</ele><time>2026-05-03T11:20:23.126Z</time></trkpt><trkpt lat="45.1962258" lon="12.2829865"><ele>0.0</ele><time>2026-05-03T11:20:25.127Z</time></trkpt><trkpt lat="45.1962803" lon="12.2830657"><ele>0.0</ele><time>2026-05-03T11:20:27.12Z</time></trkpt><trkpt lat="45.1963506" lon="12.2831353"><ele>0.0</ele><time>2026-05-03T11:20:29.125Z</time></trkpt><trkpt lat="45.1964256" lon="12.2832052"><ele>0.2</ele><time>2026-05-03T11:20:31.124Z</time></trkpt><trkpt lat="45.1965015" lon="12.283276"><ele>0.4</ele><time>2026-05-03T11:20:33.124Z</time></trkpt><trkpt lat="45.1965821" lon="12.2833387"><ele>0.6000000000000001</ele><time>2026-05-03T11:20:35.126Z</time></trkpt><trkpt lat="45.1966652" lon="12.2833746"><ele>0.8</ele><time>2026-05-03T11:20:37.124Z</time></trkpt><trkpt lat="45.1967516" lon="12.2833718"><ele>1.0</ele><time>2026-05-03T11:20:39.121Z</time></trkpt><trkpt lat="45.1968496" lon="12.2833749"><ele>1.0</ele><time>2026-05-03T11:20:41.128Z</time></trkpt><trkpt lat="45.1969206" lon="12.2834512"><ele>1.0</ele><time>2026-05-03T11:20:43.126Z</time></trkpt><trkpt lat="45.1969255" lon="12.2835901"><ele>1.0</ele><time>2026-05-03T11:20:45.126Z</time></trkpt><trkpt lat="45.1969123" lon="12.2837307"><ele>1.0</ele><time>2026-05-03T11:20:47.122Z</time></trkpt><trkpt lat="45.1969221" lon="12.2838527"><ele>1.0</ele><time>2026-05-03T11:20:49.124Z</time></trkpt><trkpt lat="45.1969475" lon="12.2839593"><ele>0.9999999999999999</ele><time>2026-05-03T11:20:51.122Z</time></trkpt><trkpt lat="45.1969725" lon="12.2840433"><ele>1.0</ele><time>2026-05-03T11:20:53.118Z</time></trkpt><trkpt lat="45.1970385" lon="12.2841416"><ele>1.0</ele><time>2026-05-03T11:20:56.12Z</time></trkpt><trkpt lat="45.1970853" lon="12.2842246"><ele>1.0</ele><time>2026-05-03T11:20:58.121Z</time></trkpt><trkpt lat="45.1971461" lon="12.2843164"><ele>0.9999999999999999</ele><time>2026-05-03T11:21:00.124Z</time></trkpt><trkpt lat="45.1972314" lon="12.284378"><ele>1.0</ele><time>2026-05-03T11:21:02.124Z</time></trkpt><trkpt lat="45.1973228" lon="12.2844188"><ele>1.2000000000000002</ele><time>2026-05-03T11:21:04.124Z</time></trkpt><trkpt lat="45.1974106" lon="12.2844549"><ele>1.4000000000000001</ele><time>2026-05-03T11:21:06.126Z</time></trkpt><trkpt lat="45.1974944" lon="12.2844958"><ele>1.6</ele><time>2026-05-03T11:21:08.119Z</time></trkpt><trkpt lat="45.1975802" lon="12.2845401"><ele>1.8</ele><time>2026-05-03T11:21:10.125Z</time></trkpt><trkpt lat="45.1976717" lon="12.2845847"><ele>2.0</ele><time>2026-05-03T11:21:12.122Z</time></trkpt><trkpt lat="45.1977665" lon="12.2846354"><ele>2.0</ele><time>2026-05-03T11:21:14.126Z</time></trkpt><trkpt lat="45.1978592" lon="12.2846816"><ele>2.0</ele><time>2026-05-03T11:21:16.127Z</time></trkpt><trkpt lat="45.1979524" lon="12.2847248"><ele>2.0</ele><time>2026-05-03T11:21:18.123Z</time></trkpt><trkpt lat="45.1980443" lon="12.2847685"><ele>2.0</ele><time>2026-05-03T11:21:20.126Z</time></trkpt><trkpt lat="45.1981302" lon="12.2848114"><ele>2.0</ele><time>2026-05-03T11:21:22.123Z</time></trkpt><trkpt lat="45.1982157" lon="12.2848503"><ele>2.1666666666666665</ele><time>2026-05-03T11:21:24.121Z</time></trkpt><trkpt lat="45.1982979" lon="12.2848914"><ele>2.333333333333333</ele><time>2026-05-03T11:21:26.125Z</time></trkpt><trkpt lat="45.1983729" lon="12.2849323"><ele>2.5</ele><time>2026-05-03T11:21:28.124Z</time></trkpt><trkpt lat="45.1984497" lon="12.284974"><ele>2.6666666666666665</ele><time>2026-05-03T11:21:30.125Z</time></trkpt><trkpt lat="45.1985371" lon="12.2850169"><ele>2.8333333333333335</ele><time>2026-05-03T11:21:32.124Z</time></trkpt><trkpt lat="45.1986216" lon="12.2850609"><ele>3.0</ele><time>2026-05-03T11:21:34.122Z</time></trkpt><trkpt lat="45.1987078" lon="12.2851071"><ele>3.0</ele><time>2026-05-03T11:21:36.121Z</time></trkpt><trkpt lat="45.1987933" lon="12.2851521"><ele>3.0</ele><time>2026-05-03T11:21:38.125Z</time></trkpt><trkpt lat="45.1988781" lon="12.2851893"><ele>3.0</ele><time>2026-05-03T11:21:40.121Z</time></trkpt><trkpt lat="45.1989667" lon="12.2852307"><ele>3.0</ele><time>2026-05-03T11:21:42.125Z</time></trkpt><trkpt lat="45.1990559" lon="12.2852756"><ele>3.0</ele><time>2026-05-03T11:21:44.117Z</time></trkpt><trkpt lat="45.1991445" lon="12.2853232"><ele>2.8</ele><time>2026-05-03T11:21:46.12Z</time></trkpt><trkpt lat="45.1992362" lon="12.2853634"><ele>2.5999999999999996</ele><time>2026-05-03T11:21:48.121Z</time></trkpt><trkpt lat="45.1993234" lon="12.2854011"><ele>2.4000000000000004</ele><time>2026-05-03T11:21:50.121Z</time></trkpt><trkpt lat="45.1994083" lon="12.2854357"><ele>2.2</ele><time>2026-05-03T11:21:52.122Z</time></trkpt><trkpt lat="45.1994989" lon="12.2854765"><ele>2.0</ele><time>2026-05-03T11:21:54.122Z</time></trkpt><trkpt lat="45.1995859" lon="12.2855225"><ele>1.9999999999999998</ele><time>2026-05-03T11:21:56.124Z</time></trkpt><trkpt lat="45.1996625" lon="12.2855673"><ele>2.0</ele><time>2026-05-03T11:21:58.122Z</time></trkpt><trkpt lat="45.1997442" lon="12.2856061"><ele>2.0</ele><time>2026-05-03T11:22:00.12Z</time></trkpt><trkpt lat="45.1998253" lon="12.2856422"><ele>2.0</ele><time>2026-05-03T11:22:02.126Z</time></trkpt><trkpt lat="45.1999131" lon="12.2856799"><ele>1.9999999999999998</ele><time>2026-05-03T11:22:04.125Z</time></trkpt><trkpt lat="45.1999973" lon="12.2857221"><ele>2.0</ele><time>2026-05-03T11:22:06.122Z</time></trkpt><trkpt lat="45.2000867" lon="12.2857542"><ele>1.9999999999999998</ele><time>2026-05-03T11:22:08.128Z</time></trkpt><trkpt lat="45.2001753" lon="12.2857874"><ele>2.0</ele><time>2026-05-03T11:22:10.124Z</time></trkpt><trkpt lat="45.2002648" lon="12.2858228"><ele>2.0</ele><time>2026-05-03T11:22:12.125Z</time></trkpt><trkpt lat="45.200352" lon="12.2858543"><ele>2.0</ele><time>2026-05-03T11:22:14.123Z</time></trkpt><trkpt lat="45.2004247" lon="12.2858357"><ele>1.9999999999999998</ele><time>2026-05-03T11:22:16.118Z</time></trkpt><trkpt lat="45.2004639" lon="12.285739"><ele>2.0</ele><time>2026-05-03T11:22:18.115Z</time></trkpt><trkpt lat="45.2004831" lon="12.2856086"><ele>1.9999999999999998</ele><time>2026-05-03T11:22:20.126Z</time></trkpt><trkpt lat="45.2005067" lon="12.2854801"><ele>2.0</ele><time>2026-05-03T11:22:22.127Z</time></trkpt><trkpt lat="45.2005341" lon="12.2853591"><ele>2.0</ele><time>2026-05-03T11:22:24.122Z</time></trkpt><trkpt lat="45.2005581" lon="12.2852402"><ele>2.0</ele><time>2026-05-03T11:22:26.122Z</time></trkpt><trkpt lat="45.2005831" lon="12.2851237"><ele>1.9999999999999998</ele><time>2026-05-03T11:22:28.125Z</time></trkpt><trkpt lat="45.2006132" lon="12.2850069"><ele>2.0</ele><time>2026-05-03T11:22:30.117Z</time></trkpt><trkpt lat="45.2006521" lon="12.2849116"><ele>1.857142857142857</ele><time>2026-05-03T11:22:32.121Z</time></trkpt><trkpt lat="45.2006872" lon="12.2847989"><ele>1.714285714285714</ele><time>2026-05-03T11:22:34.125Z</time></trkpt><trkpt lat="45.2007064" lon="12.2846944"><ele>1.5714285714285714</ele><time>2026-05-03T11:22:36.131Z</time></trkpt><trkpt lat="45.2007294" lon="12.2846073"><ele>1.4285714285714284</ele><time>2026-05-03T11:22:38.127Z</time></trkpt><trkpt lat="45.2007539" lon="12.2845113"><ele>1.2857142857142856</ele><time>2026-05-03T11:22:40.124Z</time></trkpt><trkpt lat="45.2007744" lon="12.2844132"><ele>1.1428571428571428</ele><time>2026-05-03T11:22:42.129Z</time></trkpt><trkpt lat="45.2008007" lon="12.2843232"><ele>1.0</ele><time>2026-05-03T11:22:44.126Z</time></trkpt><trkpt lat="45.2008403" lon="12.2842492"><ele>0.9999999999999999</ele><time>2026-05-03T11:22:46.124Z</time></trkpt><trkpt lat="45.2008877" lon="12.2841816"><ele>1.0</ele><time>2026-05-03T11:22:48.136Z</time></trkpt><trkpt lat="45.2009499" lon="12.2841226"><ele>1.0</ele><time>2026-05-03T11:22:50.127Z</time></trkpt><trkpt lat="45.2010039" lon="12.2840249"><ele>1.0</ele><time>2026-05-03T11:22:53.12Z</time></trkpt><trkpt lat="45.2010259" lon="12.2839399"><ele>0.9999999999999999</ele><time>2026-05-03T11:22:55.126Z</time></trkpt><trkpt lat="45.201049" lon="12.283824"><ele>1.0</ele><time>2026-05-03T11:22:58.122Z</time></trkpt><trkpt lat="45.2010794" lon="12.2836921"><ele>0.9999999999999999</ele><time>2026-05-03T11:23:01.138Z</time></trkpt><trkpt lat="45.2011101" lon="12.2835817"><ele>1.0</ele><time>2026-05-03T11:23:03.126Z</time></trkpt><trkpt lat="45.2011408" lon="12.2834669"><ele>1.0</ele><time>2026-05-03T11:23:05.127Z</time></trkpt><trkpt lat="45.2011637" lon="12.2833579"><ele>1.0</ele><time>2026-05-03T11:23:07.123Z</time></trkpt><trkpt lat="45.2011653" lon="12.2832522"><ele>0.9999999999999999</ele><time>2026-05-03T11:23:09.124Z</time></trkpt><trkpt lat="45.2012226" lon="12.2831588"><ele>1.0</ele><time>2026-05-03T11:23:12.123Z</time></trkpt><trkpt lat="45.2013067" lon="12.2831902"><ele>0.9999999999999999</ele><time>2026-05-03T11:23:14.127Z</time></trkpt><trkpt lat="45.2013922" lon="12.2832372"><ele>1.0</ele><time>2026-05-03T11:23:16.128Z</time></trkpt><trkpt lat="45.2014554" lon="12.2832594"><ele>1.0</ele><time>2026-05-03T11:23:18.129Z</time></trkpt><trkpt lat="45.2015058" lon="12.2831653"><ele>1.0</ele><time>2026-05-03T11:23:21.13Z</time></trkpt><trkpt lat="45.2015177" lon="12.2830591"><ele>0.9999999999999999</ele><time>2026-05-03T11:23:23.126Z</time></trkpt><trkpt lat="45.2015345" lon="12.2829606"><ele>1.0</ele><time>2026-05-03T11:23:25.123Z</time></trkpt><trkpt lat="45.2015637" lon="12.2828494"><ele>0.49999999999999994</ele><time>2026-05-03T11:23:28.129Z</time></trkpt><trkpt lat="45.2015918" lon="12.2827689"><ele>0.0</ele><time>2026-05-03T11:23:31.128Z</time></trkpt><trkpt lat="45.2016113" lon="12.2826694"><ele>-0.5</ele><time>2026-05-03T11:23:36.132Z</time></trkpt><trkpt lat="45.2016256" lon="12.2825629"><ele>-1.0</ele><time>2026-05-03T11:23:40.133Z</time></trkpt><trkpt lat="45.2016784" lon="12.2824651"><ele>-1.4999999999999998</ele><time>2026-05-03T11:23:43.129Z</time></trkpt><trkpt lat="45.2017575" lon="12.2824568"><ele>-2.0</ele><time>2026-05-03T11:23:45.128Z</time></trkpt><trkpt lat="45.2018512" lon="12.2824584"><ele>-2.0</ele><time>2026-05-03T11:23:47.132Z</time></trkpt><trkpt lat="45.2019573" lon="12.282434"><ele>-2.0</ele><time>2026-05-03T11:23:49.13Z</time></trkpt><trkpt lat="45.2020596" lon="12.2823546"><ele>-2.0</ele><time>2026-05-03T11:23:51.13Z</time></trkpt><trkpt lat="45.2021369" lon="12.2822345"><ele>-2.0</ele><time>2026-05-03T11:23:53.13Z</time></trkpt><trkpt lat="45.2021998" lon="12.2821171"><ele>-2.0</ele><time>2026-05-03T11:23:55.131Z</time></trkpt><trkpt lat="45.2022659" lon="12.2820201"><ele>-1.8</ele><time>2026-05-03T11:23:57.126Z</time></trkpt><trkpt lat="45.2023298" lon="12.2819249"><ele>-1.6</ele><time>2026-05-03T11:23:59.133Z</time></trkpt><trkpt lat="45.2023844" lon="12.2818103"><ele>-1.4000000000000001</ele><time>2026-05-03T11:24:01.135Z</time></trkpt><trkpt lat="45.2024331" lon="12.2816934"><ele>-1.2000000000000002</ele><time>2026-05-03T11:24:03.133Z</time></trkpt><trkpt lat="45.2024744" lon="12.2815804"><ele>-1.0</ele><time>2026-05-03T11:24:05.13Z</time></trkpt><trkpt lat="45.2025132" lon="12.281463"><ele>-0.8</ele><time>2026-05-03T11:24:07.132Z</time></trkpt><trkpt lat="45.2025537" lon="12.2813473"><ele>-0.6000000000000001</ele><time>2026-05-03T11:24:09.132Z</time></trkpt><trkpt lat="45.2025935" lon="12.2812324"><ele>-0.4</ele><time>2026-05-03T11:24:11.128Z</time></trkpt><trkpt lat="45.202635" lon="12.2811111"><ele>-0.2</ele><time>2026-05-03T11:24:13.133Z</time></trkpt><trkpt lat="45.202684" lon="12.2809845"><ele>0.0</ele><time>2026-05-03T11:24:15.128Z</time></trkpt><trkpt lat="45.2027303" lon="12.2808554"><ele>0.0</ele><time>2026-05-03T11:24:17.131Z</time></trkpt><trkpt lat="45.202775" lon="12.2807217"><ele>0.0</ele><time>2026-05-03T11:24:19.126Z</time></trkpt><trkpt lat="45.2028259" lon="12.2805823"><ele>0.0</ele><time>2026-05-03T11:24:21.124Z</time></trkpt><trkpt lat="45.202877" lon="12.2804485"><ele>0.0</ele><time>2026-05-03T11:24:23.131Z</time></trkpt><trkpt lat="45.2029262" lon="12.2803151"><ele>0.0</ele><time>2026-05-03T11:24:25.126Z</time></trkpt><trkpt lat="45.2029734" lon="12.2801817"><ele>0.2</ele><time>2026-05-03T11:24:27.126Z</time></trkpt><trkpt lat="45.2030169" lon="12.2800487"><ele>0.4</ele><time>2026-05-03T11:24:29.128Z</time></trkpt><trkpt lat="45.2030608" lon="12.2799126"><ele>0.6000000000000001</ele><time>2026-05-03T11:24:31.129Z</time></trkpt><trkpt lat="45.2031045" lon="12.2797751"><ele>0.8</ele><time>2026-05-03T11:24:33.132Z</time></trkpt><trkpt lat="45.2031506" lon="12.2796431"><ele>1.0</ele><time>2026-05-03T11:24:35.128Z</time></trkpt><trkpt lat="45.2031937" lon="12.2795158"><ele>1.0</ele><time>2026-05-03T11:24:37.128Z</time></trkpt><trkpt lat="45.203238" lon="12.2793881"><ele>1.0</ele><time>2026-05-03T11:24:39.127Z</time></trkpt><trkpt lat="45.2032791" lon="12.2792631"><ele>1.0</ele><time>2026-05-03T11:24:41.125Z</time></trkpt><trkpt lat="45.20332" lon="12.2791466"><ele>1.0</ele><time>2026-05-03T11:24:43.133Z</time></trkpt><trkpt lat="45.2033651" lon="12.2790296"><ele>1.0</ele><time>2026-05-03T11:24:45.128Z</time></trkpt><trkpt lat="45.2034054" lon="12.2789108"><ele>1.0</ele><time>2026-05-03T11:24:47.127Z</time></trkpt><trkpt lat="45.2034327" lon="12.2788082"><ele>0.9999999999999999</ele><time>2026-05-03T11:24:49.122Z</time></trkpt><trkpt lat="45.2034635" lon="12.2787163"><ele>1.0</ele><time>2026-05-03T11:24:51.124Z</time></trkpt><trkpt lat="45.2034973" lon="12.2786285"><ele>1.0</ele><time>2026-05-03T11:24:53.133Z</time></trkpt><trkpt lat="45.2035296" lon="12.2785379"><ele>0.9999999999999999</ele><time>2026-05-03T11:24:55.131Z</time></trkpt><trkpt lat="45.2035619" lon="12.278442"><ele>1.0</ele><time>2026-05-03T11:24:57.133Z</time></trkpt><trkpt lat="45.2036256" lon="12.278384"><ele>1.0</ele><time>2026-05-03T11:24:59.129Z</time></trkpt><trkpt lat="45.2037039" lon="12.2783856"><ele>1.0</ele><time>2026-05-03T11:25:01.129Z</time></trkpt><trkpt lat="45.2037782" lon="12.2783972"><ele>0.9999999999999999</ele><time>2026-05-03T11:25:03.13Z</time></trkpt><trkpt lat="45.2038431" lon="12.27839"><ele>1.0</ele><time>2026-05-03T11:25:05.127Z</time></trkpt><trkpt lat="45.2039071" lon="12.2783682"><ele>1.0</ele><time>2026-05-03T11:25:07.128Z</time></trkpt><trkpt lat="45.2039757" lon="12.2783603"><ele>0.9999999999999999</ele><time>2026-05-03T11:25:09.128Z</time></trkpt><trkpt lat="45.2040603" lon="12.2783623"><ele>1.0</ele><time>2026-05-03T11:25:11.127Z</time></trkpt><trkpt lat="45.2041503" lon="12.2783699"><ele>1.0</ele><time>2026-05-03T11:25:13.132Z</time></trkpt><trkpt lat="45.2042425" lon="12.2783781"><ele>1.3333333333333333</ele><time>2026-05-03T11:25:15.121Z</time></trkpt><trkpt lat="45.2043242" lon="12.2783781"><ele>1.6666666666666665</ele><time>2026-05-03T11:25:17.128Z</time></trkpt><trkpt lat="45.2044068" lon="12.2783751"><ele>2.0</ele><time>2026-05-03T11:25:19.133Z</time></trkpt><trkpt lat="45.2044882" lon="12.2783746"><ele>2.3333333333333335</ele><time>2026-05-03T11:25:21.131Z</time></trkpt><trkpt lat="45.2045638" lon="12.2783745"><ele>2.6666666666666665</ele><time>2026-05-03T11:25:23.122Z</time></trkpt><trkpt lat="45.2046377" lon="12.2783783"><ele>3.0</ele><time>2026-05-03T11:25:25.129Z</time></trkpt><trkpt lat="45.2047192" lon="12.278381"><ele>3.0</ele><time>2026-05-03T11:25:27.129Z</time></trkpt><trkpt lat="45.2048066" lon="12.2783855"><ele>3.0</ele><time>2026-05-03T11:25:29.128Z</time></trkpt><trkpt lat="45.2048929" lon="12.2783922"><ele>3.0</ele><time>2026-05-03T11:25:31.126Z</time></trkpt><trkpt lat="45.2049722" lon="12.2783916"><ele>3.0</ele><time>2026-05-03T11:25:33.133Z</time></trkpt><trkpt lat="45.2050412" lon="12.278392"><ele>3.0</ele><time>2026-05-03T11:25:35.126Z</time></trkpt><trkpt lat="45.2051248" lon="12.2784127"><ele>3.0</ele><time>2026-05-03T11:25:38.126Z</time></trkpt><trkpt lat="45.2052125" lon="12.2784366"><ele>3.4</ele><time>2026-05-03T11:25:41.126Z</time></trkpt><trkpt lat="45.2053057" lon="12.2784583"><ele>3.8</ele><time>2026-05-03T11:25:44.131Z</time></trkpt><trkpt lat="45.2053712" lon="12.2784008"><ele>4.2</ele><time>2026-05-03T11:25:46.13Z</time></trkpt><trkpt lat="45.2054294" lon="12.2782977"><ele>4.6</ele><time>2026-05-03T11:25:48.127Z</time></trkpt><trkpt lat="45.2054933" lon="12.2781993"><ele>5.0</ele><time>2026-05-03T11:25:50.132Z</time></trkpt><trkpt lat="45.2055683" lon="12.2781058"><ele>5.0</ele><time>2026-05-03T11:25:52.134Z</time></trkpt><trkpt lat="45.2056475" lon="12.2780162"><ele>5.0</ele><time>2026-05-03T11:25:54.132Z</time></trkpt><trkpt lat="45.2057235" lon="12.2779253"><ele>5.0</ele><time>2026-05-03T11:25:56.132Z</time></trkpt><trkpt lat="45.2058028" lon="12.2778518"><ele>5.0</ele><time>2026-05-03T11:25:58.129Z</time></trkpt><trkpt lat="45.2058912" lon="12.2778222"><ele>5.0</ele><time>2026-05-03T11:26:00.128Z</time></trkpt><trkpt lat="45.2059877" lon="12.2778263"><ele>4.2</ele><time>2026-05-03T11:26:02.127Z</time></trkpt><trkpt lat="45.2060945" lon="12.2778366"><ele>3.4</ele><time>2026-05-03T11:26:04.126Z</time></trkpt><trkpt lat="45.2061984" lon="12.2778345"><ele>2.6</ele><time>2026-05-03T11:26:06.126Z</time></trkpt><trkpt lat="45.2063024" lon="12.2778336"><ele>1.8</ele><time>2026-05-03T11:26:08.124Z</time></trkpt><trkpt lat="45.206406" lon="12.277836"><ele>1.0</ele><time>2026-05-03T11:26:10.128Z</time></trkpt><trkpt lat="45.2065141" lon="12.277839"><ele>0.8</ele><time>2026-05-03T11:26:12.126Z</time></trkpt><trkpt lat="45.2066185" lon="12.2778444"><ele>0.6000000000000001</ele><time>2026-05-03T11:26:14.128Z</time></trkpt><trkpt lat="45.2067184" lon="12.2778478"><ele>0.4</ele><time>2026-05-03T11:26:16.131Z</time></trkpt><trkpt lat="45.2068147" lon="12.2778262"><ele>0.2</ele><time>2026-05-03T11:26:18.135Z</time></trkpt><trkpt lat="45.2068977" lon="12.2777657"><ele>0.0</ele><time>2026-05-03T11:26:20.13Z</time></trkpt><trkpt lat="45.206976" lon="12.2777481"><ele>0.0</ele><time>2026-05-03T11:26:22.121Z</time></trkpt><trkpt lat="45.2070552" lon="12.2777478"><ele>0.0</ele><time>2026-05-03T11:26:24.129Z</time></trkpt><trkpt lat="45.2071438" lon="12.277746"><ele>0.0</ele><time>2026-05-03T11:26:26.125Z</time></trkpt><trkpt lat="45.2072388" lon="12.2777604"><ele>0.0</ele><time>2026-05-03T11:26:28.127Z</time></trkpt><trkpt lat="45.2073261" lon="12.2778289"><ele>0.0</ele><time>2026-05-03T11:26:30.134Z</time></trkpt><trkpt lat="45.2074126" lon="12.2778706"><ele>-0.2</ele><time>2026-05-03T11:26:32.131Z</time></trkpt><trkpt lat="45.2075088" lon="12.2778751"><ele>-0.4</ele><time>2026-05-03T11:26:34.133Z</time></trkpt><trkpt lat="45.2076093" lon="12.2778809"><ele>-0.6000000000000001</ele><time>2026-05-03T11:26:36.131Z</time></trkpt><trkpt lat="45.2077148" lon="12.2778876"><ele>-0.8</ele><time>2026-05-03T11:26:38.133Z</time></trkpt><trkpt lat="45.2078232" lon="12.2779006"><ele>-1.0</ele><time>2026-05-03T11:26:40.129Z</time></trkpt><trkpt lat="45.2079344" lon="12.2779108"><ele>-1.0</ele><time>2026-05-03T11:26:42.13Z</time></trkpt><trkpt lat="45.2080399" lon="12.2779168"><ele>-1.0</ele><time>2026-05-03T11:26:44.132Z</time></trkpt><trkpt lat="45.208148" lon="12.2779127"><ele>-1.0</ele><time>2026-05-03T11:26:46.132Z</time></trkpt><trkpt lat="45.2082608" lon="12.2779107"><ele>-1.0</ele><time>2026-05-03T11:26:48.131Z</time></trkpt><trkpt lat="45.2083718" lon="12.2779138"><ele>-1.0</ele><time>2026-05-03T11:26:50.131Z</time></trkpt><trkpt lat="45.2084851" lon="12.2779174"><ele>-0.75</ele><time>2026-05-03T11:26:52.13Z</time></trkpt><trkpt lat="45.2085982" lon="12.2779172"><ele>-0.5</ele><time>2026-05-03T11:26:54.128Z</time></trkpt><trkpt lat="45.2087142" lon="12.277918"><ele>-0.25</ele><time>2026-05-03T11:26:56.129Z</time></trkpt><trkpt lat="45.2088278" lon="12.2779181"><ele>0.0</ele><time>2026-05-03T11:26:58.125Z</time></trkpt><trkpt lat="45.2089421" lon="12.2779065"><ele>0.0</ele><time>2026-05-03T11:27:00.133Z</time></trkpt><trkpt lat="45.2090512" lon="12.2778875"><ele>0.0</ele><time>2026-05-03T11:27:02.129Z</time></trkpt><trkpt lat="45.209161" lon="12.2778694"><ele>0.0</ele><time>2026-05-03T11:27:04.132Z</time></trkpt><trkpt lat="45.2092612" lon="12.2778601"><ele>0.0</ele><time>2026-05-03T11:27:06.132Z</time></trkpt><trkpt lat="45.2093583" lon="12.2778512"><ele>0.0</ele><time>2026-05-03T11:27:08.132Z</time></trkpt><trkpt lat="45.2094605" lon="12.2778365"><ele>0.0</ele><time>2026-05-03T11:27:10.13Z</time></trkpt><trkpt lat="45.2095643" lon="12.2778164"><ele>0.0</ele><time>2026-05-03T11:27:12.132Z</time></trkpt><trkpt lat="45.2096694" lon="12.2777945"><ele>0.0</ele><time>2026-05-03T11:27:14.13Z</time></trkpt><trkpt lat="45.2097791" lon="12.2777793"><ele>0.0</ele><time>2026-05-03T11:27:16.127Z</time></trkpt><trkpt lat="45.2098882" lon="12.2777813"><ele>0.0</ele><time>2026-05-03T11:27:18.125Z</time></trkpt><trkpt lat="45.2099932" lon="12.2777805"><ele>0.4</ele><time>2026-05-03T11:27:20.131Z</time></trkpt><trkpt lat="45.2101035" lon="12.2777868"><ele>0.8</ele><time>2026-05-03T11:27:22.132Z</time></trkpt><trkpt lat="45.2102136" lon="12.2777902"><ele>1.2000000000000002</ele><time>2026-05-03T11:27:24.13Z</time></trkpt><trkpt lat="45.210325" lon="12.2777918"><ele>1.6</ele><time>2026-05-03T11:27:26.128Z</time></trkpt><trkpt lat="45.2104364" lon="12.2777843"><ele>2.0</ele><time>2026-05-03T11:27:28.132Z</time></trkpt><trkpt lat="45.210547" lon="12.277775"><ele>2.0</ele><time>2026-05-03T11:27:30.132Z</time></trkpt><trkpt lat="45.2106552" lon="12.2777701"><ele>2.0</ele><time>2026-05-03T11:27:32.136Z</time></trkpt><trkpt lat="45.2107644" lon="12.277763"><ele>2.0</ele><time>2026-05-03T11:27:34.131Z</time></trkpt><trkpt lat="45.2108737" lon="12.277757"><ele>2.0</ele><time>2026-05-03T11:27:36.123Z</time></trkpt><trkpt lat="45.2109863" lon="12.2777505"><ele>2.0</ele><time>2026-05-03T11:27:38.134Z</time></trkpt><trkpt lat="45.2111017" lon="12.2777479"><ele>1.75</ele><time>2026-05-03T11:27:40.136Z</time></trkpt><trkpt lat="45.2112181" lon="12.2777444"><ele>1.5</ele><time>2026-05-03T11:27:42.136Z</time></trkpt><trkpt lat="45.2113298" lon="12.2777389"><ele>1.25</ele><time>2026-05-03T11:27:44.131Z</time></trkpt><trkpt lat="45.2114408" lon="12.2777353"><ele>1.0</ele><time>2026-05-03T11:27:46.132Z</time></trkpt><trkpt lat="45.211552" lon="12.2777318"><ele>1.0</ele><time>2026-05-03T11:27:48.131Z</time></trkpt><trkpt lat="45.2116615" lon="12.2777288"><ele>1.0</ele><time>2026-05-03T11:27:50.134Z</time></trkpt><trkpt lat="45.2117739" lon="12.277724"><ele>1.0</ele><time>2026-05-03T11:27:52.133Z</time></trkpt><trkpt lat="45.2118825" lon="12.277723"><ele>1.0</ele><time>2026-05-03T11:27:54.128Z</time></trkpt><trkpt lat="45.2119829" lon="12.2777233"><ele>1.0</ele><time>2026-05-03T11:27:56.129Z</time></trkpt><trkpt lat="45.2120604" lon="12.2777189"><ele>1.0</ele><time>2026-05-03T11:27:58.122Z</time></trkpt><trkpt lat="45.2121127" lon="12.2775987"><ele>1.0</ele><time>2026-05-03T11:28:01.129Z</time></trkpt><trkpt lat="45.2121246" lon="12.2774697"><ele>1.0</ele><time>2026-05-03T11:28:03.128Z</time></trkpt><trkpt lat="45.2121384" lon="12.2773363"><ele>1.0</ele><time>2026-05-03T11:28:05.135Z</time></trkpt><trkpt lat="45.2121561" lon="12.2772135"><ele>1.0</ele><time>2026-05-03T11:28:07.127Z</time></trkpt><trkpt lat="45.2121766" lon="12.2771026"><ele>0.9999999999999999</ele><time>2026-05-03T11:28:09.129Z</time></trkpt><trkpt lat="45.2122017" lon="12.2769941"><ele>1.0</ele><time>2026-05-03T11:28:11.127Z</time></trkpt><trkpt lat="45.212224" lon="12.2768939"><ele>1.0</ele><time>2026-05-03T11:28:13.135Z</time></trkpt><trkpt lat="45.2122453" lon="12.2768009"><ele>1.0</ele><time>2026-05-03T11:28:15.129Z</time></trkpt><trkpt lat="45.2122784" lon="12.2766842"><ele>0.9999999999999999</ele><time>2026-05-03T11:28:18.13Z</time></trkpt><trkpt lat="45.2122439" lon="12.2765798"><ele>1.0</ele><time>2026-05-03T11:28:21.128Z</time></trkpt><trkpt lat="45.2121636" lon="12.2765712"><ele>0.9999999999999999</ele><time>2026-05-03T11:28:24.127Z</time></trkpt><trkpt lat="45.2122425" lon="12.2765412"><ele>1.0</ele><time>2026-05-03T11:28:34.126Z</time></trkpt><trkpt lat="45.2123099" lon="12.2765564"><ele>1.0</ele><time>2026-05-03T11:28:36.129Z</time></trkpt><trkpt lat="45.2123901" lon="12.2765683"><ele>1.0</ele><time>2026-05-03T11:28:38.127Z</time></trkpt><trkpt lat="45.2124698" lon="12.2765813"><ele>0.9999999999999999</ele><time>2026-05-03T11:28:40.136Z</time></trkpt><trkpt lat="45.2125531" lon="12.276596"><ele>1.0</ele><time>2026-05-03T11:28:42.128Z</time></trkpt><trkpt lat="45.2126409" lon="12.2766111"><ele>0.8333333333333333</ele><time>2026-05-03T11:28:44.131Z</time></trkpt><trkpt lat="45.2127279" lon="12.2766288"><ele>0.6666666666666666</ele><time>2026-05-03T11:28:46.133Z</time></trkpt><trkpt lat="45.2128175" lon="12.2766461"><ele>0.5</ele><time>2026-05-03T11:28:48.132Z</time></trkpt><trkpt lat="45.2129067" lon="12.2766628"><ele>0.3333333333333333</ele><time>2026-05-03T11:28:50.129Z</time></trkpt><trkpt lat="45.2129951" lon="12.2766808"><ele>0.16666666666666666</ele><time>2026-05-03T11:28:52.132Z</time></trkpt><trkpt lat="45.2130857" lon="12.276701"><ele>0.0</ele><time>2026-05-03T11:28:54.128Z</time></trkpt><trkpt lat="45.2131761" lon="12.2767207"><ele>0.0</ele><time>2026-05-03T11:28:56.132Z</time></trkpt><trkpt lat="45.2132656" lon="12.2767423"><ele>0.0</ele><time>2026-05-03T11:28:58.135Z</time></trkpt><trkpt lat="45.2133524" lon="12.2767616"><ele>0.0</ele><time>2026-05-03T11:29:00.125Z</time></trkpt><trkpt lat="45.2134388" lon="12.2767816"><ele>0.0</ele><time>2026-05-03T11:29:02.131Z</time></trkpt><trkpt lat="45.2135274" lon="12.2768034"><ele>0.0</ele><time>2026-05-03T11:29:04.131Z</time></trkpt><trkpt lat="45.2136164" lon="12.2768271"><ele>0.0</ele><time>2026-05-03T11:29:06.134Z</time></trkpt><trkpt lat="45.2137052" lon="12.2768471"><ele>0.0</ele><time>2026-05-03T11:29:08.135Z</time></trkpt><trkpt lat="45.2137948" lon="12.2768624"><ele>0.0</ele><time>2026-05-03T11:29:10.13Z</time></trkpt><trkpt lat="45.2138852" lon="12.2768801"><ele>0.0</ele><time>2026-05-03T11:29:12.13Z</time></trkpt><trkpt lat="45.2139723" lon="12.276894"><ele>0.0</ele><time>2026-05-03T11:29:14.129Z</time></trkpt><trkpt lat="45.2140553" lon="12.2769007"><ele>0.0</ele><time>2026-05-03T11:29:16.129Z</time></trkpt><trkpt lat="45.2141346" lon="12.2769126"><ele>0.0</ele><time>2026-05-03T11:29:18.13Z</time></trkpt><trkpt lat="45.2142065" lon="12.2769242"><ele>0.16666666666666666</ele><time>2026-05-03T11:29:20.131Z</time></trkpt><trkpt lat="45.2142638" lon="12.2769826"><ele>0.3333333333333333</ele><time>2026-05-03T11:29:23.128Z</time></trkpt><trkpt lat="45.2142192" lon="12.2770959"><ele>0.5</ele><time>2026-05-03T11:29:26.121Z</time></trkpt><trkpt lat="45.2141811" lon="12.2771941"><ele>0.6666666666666666</ele><time>2026-05-03T11:29:28.121Z</time></trkpt><trkpt lat="45.2141443" lon="12.2772915"><ele>0.8333333333333333</ele><time>2026-05-03T11:29:30.119Z</time></trkpt><trkpt lat="45.2141169" lon="12.2774068"><ele>1.0</ele><time>2026-05-03T11:29:32.118Z</time></trkpt><trkpt lat="45.2140737" lon="12.2774955"><ele>1.0</ele><time>2026-05-03T11:29:34.12Z</time></trkpt><trkpt lat="45.2140404" lon="12.2775867"><ele>0.9999999999999999</ele><time>2026-05-03T11:29:36.123Z</time></trkpt><trkpt lat="45.2140413" lon="12.277679"><ele>1.0</ele><time>2026-05-03T11:29:38.125Z</time></trkpt><trkpt lat="45.2140964" lon="12.2777288"><ele>1.0</ele><time>2026-05-03T11:29:40.129Z</time></trkpt><trkpt lat="45.2141698" lon="12.277722"><ele>0.9999999999999999</ele><time>2026-05-03T11:29:42.123Z</time></trkpt><trkpt lat="45.2142427" lon="12.2777172"><ele>1.0</ele><time>2026-05-03T11:29:44.127Z</time></trkpt><trkpt lat="45.2143088" lon="12.2777337"><ele>1.0</ele><time>2026-05-03T11:29:46.128Z</time></trkpt><trkpt lat="45.2143957" lon="12.2777807"><ele>0.9999999999999999</ele><time>2026-05-03T11:29:49.126Z</time></trkpt><trkpt lat="45.214463" lon="12.2778164"><ele>1.0</ele><time>2026-05-03T11:29:51.126Z</time></trkpt><trkpt lat="45.2145406" lon="12.2778503"><ele>1.0</ele><time>2026-05-03T11:29:53.126Z</time></trkpt><trkpt lat="45.2146216" lon="12.2778852"><ele>1.0</ele><time>2026-05-03T11:29:55.118Z</time></trkpt><trkpt lat="45.2146998" lon="12.2779316"><ele>0.9999999999999999</ele><time>2026-05-03T11:29:57.129Z</time></trkpt><trkpt lat="45.2147804" lon="12.2779798"><ele>1.0</ele><time>2026-05-03T11:29:59.126Z</time></trkpt><trkpt lat="45.2148685" lon="12.278031"><ele>0.9999999999999999</ele><time>2026-05-03T11:30:01.118Z</time></trkpt><trkpt lat="45.2149509" lon="12.2780875"><ele>1.0</ele><time>2026-05-03T11:30:03.129Z</time></trkpt><trkpt lat="45.2150252" lon="12.2781417"><ele>1.0</ele><time>2026-05-03T11:30:05.124Z</time></trkpt><trkpt lat="45.2150978" lon="12.2781825"><ele>1.0</ele><time>2026-05-03T11:30:07.119Z</time></trkpt><trkpt lat="45.2151646" lon="12.2782059"><ele>0.9999999999999999</ele><time>2026-05-03T11:30:09.12Z</time></trkpt><trkpt lat="45.2152453" lon="12.2782053"><ele>1.0</ele><time>2026-05-03T11:30:12.124Z</time></trkpt><trkpt lat="45.2153044" lon="12.2781635"><ele>1.1666666666666665</ele><time>2026-05-03T11:30:14.123Z</time></trkpt><trkpt lat="45.2153525" lon="12.2780671"><ele>1.3333333333333333</ele><time>2026-05-03T11:30:16.127Z</time></trkpt><trkpt lat="45.2153816" lon="12.2779473"><ele>1.5</ele><time>2026-05-03T11:30:18.125Z</time></trkpt><trkpt lat="45.2154121" lon="12.2778349"><ele>1.6666666666666665</ele><time>2026-05-03T11:30:20.127Z</time></trkpt><trkpt lat="45.2154384" lon="12.2777327"><ele>1.8333333333333333</ele><time>2026-05-03T11:30:22.128Z</time></trkpt><trkpt lat="45.2154604" lon="12.2776416"><ele>2.0</ele><time>2026-05-03T11:30:24.128Z</time></trkpt><trkpt lat="45.2155148" lon="12.2775543"><ele>2.0</ele><time>2026-05-03T11:30:27.125Z</time></trkpt><trkpt lat="45.2155796" lon="12.277506"><ele>1.9999999999999998</ele><time>2026-05-03T11:30:29.128Z</time></trkpt><trkpt lat="45.2156414" lon="12.2774517"><ele>2.0</ele><time>2026-05-03T11:30:31.122Z</time></trkpt><trkpt lat="45.2156967" lon="12.277402"><ele>2.0</ele><time>2026-05-03T11:30:33.12Z</time></trkpt><trkpt lat="45.2157591" lon="12.2773669"><ele>1.9999999999999998</ele><time>2026-05-03T11:30:35.119Z</time></trkpt><trkpt lat="45.2158316" lon="12.2773735"><ele>2.0</ele><time>2026-05-03T11:30:37.115Z</time></trkpt><trkpt lat="45.215903" lon="12.2773971"><ele>2.0</ele><time>2026-05-03T11:30:39.119Z</time></trkpt><trkpt lat="45.2159644" lon="12.2774214"><ele>1.6666666666666665</ele><time>2026-05-03T11:30:41.123Z</time></trkpt><trkpt lat="45.21603" lon="12.2774421"><ele>1.3333333333333333</ele><time>2026-05-03T11:30:44.127Z</time></trkpt><trkpt lat="45.2160819" lon="12.2773714"><ele>1.0</ele><time>2026-05-03T11:30:48.127Z</time></trkpt><trkpt lat="45.2160788" lon="12.277267"><ele>0.6666666666666666</ele><time>2026-05-03T11:30:50.128Z</time></trkpt><trkpt lat="45.2160877" lon="12.2771731"><ele>0.3333333333333333</ele><time>2026-05-03T11:30:52.127Z</time></trkpt><trkpt lat="45.2161129" lon="12.2770514"><ele>0.0</ele><time>2026-05-03T11:30:55.131Z</time></trkpt><trkpt lat="45.2161382" lon="12.2769275"><ele>4.0</ele><time>2026-05-03T11:30:58.13Z</time></trkpt><trkpt lat="45.2161479" lon="12.2768237"><ele>4.0</ele><time>2026-05-03T11:31:01.124Z</time></trkpt><trkpt lat="45.2160858" lon="12.2767911"><ele>4.0</ele><time>2026-05-03T11:31:04.119Z</time></trkpt><trkpt lat="45.2160467" lon="12.2767084"><ele>4.0</ele><time>2026-05-03T11:31:07.121Z</time></trkpt><trkpt lat="45.2160761" lon="12.2766261"><ele>4.0</ele><time>2026-05-03T11:31:12.118Z</time></trkpt><trkpt lat="45.2160866" lon="12.2765142"><ele>4.0</ele><time>2026-05-03T11:31:16.116Z</time></trkpt></trkseg></trk></gpx>